<?xml version="1.0" encoding="utf-8"?>
<gpx xmlns:xsi="http://www.w3.org/2001/XMLSchema-instance" xmlns:xsd="http://www.w3.org/2001/XMLSchema" version="1.1" creator="Shapelink.com" xmlns="http://www.topografix.com/GPX/1/1" xmlns:gpxtpx="http://www.garmin.com/xmlschemas/TrackPointExtension/v1">
  <metadata>
    <name>Sykling 27.36 km, 2013-04-30</name>
    <desc></desc>
    <author><name>Mikael Blom</name></author> 
    <time>2013-04-30T17:59:05Z</time>
  </metadata>
  <trk>
    <name>Sykling 27.36 km, 2013-04-30</name>
    <trkseg>
      <trkpt lat="59.9788009" lon="17.7393678">
        <ele>40.9934</ele>
        <time>2013-04-30T17:59:05Z</time>
      </trkpt>
      <trkpt lat="59.9787843" lon="17.7393743">
        <ele>41.9547</ele>
        <time>2013-04-30T17:59:06Z</time>
      </trkpt>
      <trkpt lat="59.9787642" lon="17.7393812">
        <ele>41.9547</ele>
        <time>2013-04-30T17:59:07Z</time>
      </trkpt>
      <trkpt lat="59.9787458" lon="17.7393838">
        <ele>42.916</ele>
        <time>2013-04-30T17:59:08Z</time>
      </trkpt>
      <trkpt lat="59.9787222" lon="17.7393802">
        <ele>42.916</ele>
        <time>2013-04-30T17:59:09Z</time>
      </trkpt>
      <trkpt lat="59.9786938" lon="17.7393746">
        <ele>42.4354</ele>
        <time>2013-04-30T17:59:10Z</time>
      </trkpt>
      <trkpt lat="59.9786655" lon="17.7393589">
        <ele>41.9547</ele>
        <time>2013-04-30T17:59:11Z</time>
      </trkpt>
      <trkpt lat="59.9786362" lon="17.7393381">
        <ele>41.474</ele>
        <time>2013-04-30T17:59:12Z</time>
      </trkpt>
      <trkpt lat="59.9786057" lon="17.7393171">
        <ele>41.9547</ele>
        <time>2013-04-30T17:59:13Z</time>
      </trkpt>
      <trkpt lat="59.978574" lon="17.739301">
        <ele>41.9547</ele>
        <time>2013-04-30T17:59:14Z</time>
      </trkpt>
      <trkpt lat="59.9785389" lon="17.73929">
        <ele>41.9547</ele>
        <time>2013-04-30T17:59:15Z</time>
      </trkpt>
      <trkpt lat="59.9785035" lon="17.7392803">
        <ele>41.9547</ele>
        <time>2013-04-30T17:59:16Z</time>
      </trkpt>
      <trkpt lat="59.9784667" lon="17.7392677">
        <ele>41.9547</ele>
        <time>2013-04-30T17:59:17Z</time>
      </trkpt>
      <trkpt lat="59.9784326" lon="17.7392569">
        <ele>42.4354</ele>
        <time>2013-04-30T17:59:18Z</time>
      </trkpt>
      <trkpt lat="59.9783942" lon="17.7392466">
        <ele>42.916</ele>
        <time>2013-04-30T17:59:19Z</time>
      </trkpt>
      <trkpt lat="59.9783533" lon="17.7392404">
        <ele>42.916</ele>
        <time>2013-04-30T17:59:20Z</time>
      </trkpt>
      <trkpt lat="59.9783124" lon="17.7392345">
        <ele>42.916</ele>
        <time>2013-04-30T17:59:21Z</time>
      </trkpt>
      <trkpt lat="59.978272" lon="17.7392274">
        <ele>43.3966</ele>
        <time>2013-04-30T17:59:22Z</time>
      </trkpt>
      <trkpt lat="59.9782295" lon="17.7392176">
        <ele>43.8773</ele>
        <time>2013-04-30T17:59:23Z</time>
      </trkpt>
      <trkpt lat="59.978185" lon="17.739207">
        <ele>44.358</ele>
        <time>2013-04-30T17:59:24Z</time>
      </trkpt>
      <trkpt lat="59.9781397" lon="17.7391931">
        <ele>44.8386</ele>
        <time>2013-04-30T17:59:25Z</time>
      </trkpt>
      <trkpt lat="59.9780891" lon="17.7391685">
        <ele>44.8386</ele>
        <time>2013-04-30T17:59:26Z</time>
      </trkpt>
      <trkpt lat="59.9780369" lon="17.7391402">
        <ele>44.8386</ele>
        <time>2013-04-30T17:59:27Z</time>
      </trkpt>
      <trkpt lat="59.9779829" lon="17.7391118">
        <ele>44.8386</ele>
        <time>2013-04-30T17:59:28Z</time>
      </trkpt>
      <trkpt lat="59.9779233" lon="17.7390788">
        <ele>43.3966</ele>
        <time>2013-04-30T17:59:29Z</time>
      </trkpt>
      <trkpt lat="59.9778638" lon="17.7390469">
        <ele>42.4354</ele>
        <time>2013-04-30T17:59:30Z</time>
      </trkpt>
      <trkpt lat="59.977803" lon="17.7390181">
        <ele>41.9547</ele>
        <time>2013-04-30T17:59:31Z</time>
      </trkpt>
      <trkpt lat="59.9777408" lon="17.738999">
        <ele>41.474</ele>
        <time>2013-04-30T17:59:32Z</time>
      </trkpt>
      <trkpt lat="59.9776772" lon="17.7389905">
        <ele>40.5128</ele>
        <time>2013-04-30T17:59:33Z</time>
      </trkpt>
      <trkpt lat="59.977613" lon="17.7389931">
        <ele>40.0321</ele>
        <time>2013-04-30T17:59:34Z</time>
      </trkpt>
      <trkpt lat="59.9775469" lon="17.7390072">
        <ele>39.5513</ele>
        <time>2013-04-30T17:59:35Z</time>
      </trkpt>
      <trkpt lat="59.9774806" lon="17.7390269">
        <ele>39.5513</ele>
        <time>2013-04-30T17:59:36Z</time>
      </trkpt>
      <trkpt lat="59.9774117" lon="17.7390518">
        <ele>39.0707</ele>
        <time>2013-04-30T17:59:37Z</time>
      </trkpt>
      <trkpt lat="59.9773384" lon="17.7390814">
        <ele>38.1094</ele>
        <time>2013-04-30T17:59:38Z</time>
      </trkpt>
      <trkpt lat="59.9772649" lon="17.7391174">
        <ele>37.1481</ele>
        <time>2013-04-30T17:59:39Z</time>
      </trkpt>
      <trkpt lat="59.9771905" lon="17.7391579">
        <ele>36.6675</ele>
        <time>2013-04-30T17:59:40Z</time>
      </trkpt>
      <trkpt lat="59.9771142" lon="17.7392003">
        <ele>35.7061</ele>
        <time>2013-04-30T17:59:41Z</time>
      </trkpt>
      <trkpt lat="59.9770396" lon="17.739242">
        <ele>35.2255</ele>
        <time>2013-04-30T17:59:42Z</time>
      </trkpt>
      <trkpt lat="59.9769671" lon="17.7392839">
        <ele>36.1868</ele>
        <time>2013-04-30T17:59:43Z</time>
      </trkpt>
      <trkpt lat="59.9768947" lon="17.7393248">
        <ele>36.6675</ele>
        <time>2013-04-30T17:59:44Z</time>
      </trkpt>
      <trkpt lat="59.9768103" lon="17.7393554">
        <ele>35.2255</ele>
        <time>2013-04-30T17:59:45Z</time>
      </trkpt>
      <trkpt lat="59.9767272" lon="17.7393942">
        <ele>35.2255</ele>
        <time>2013-04-30T17:59:46Z</time>
      </trkpt>
      <trkpt lat="59.9766392" lon="17.7394464">
        <ele>34.7449</ele>
        <time>2013-04-30T17:59:47Z</time>
      </trkpt>
      <trkpt lat="59.9765536" lon="17.739523">
        <ele>34.2642</ele>
        <time>2013-04-30T17:59:48Z</time>
      </trkpt>
      <trkpt lat="59.976473" lon="17.7396281">
        <ele>34.7449</ele>
        <time>2013-04-30T17:59:49Z</time>
      </trkpt>
      <trkpt lat="59.9763955" lon="17.7397553">
        <ele>34.2642</ele>
        <time>2013-04-30T17:59:50Z</time>
      </trkpt>
      <trkpt lat="59.9763264" lon="17.7399022">
        <ele>34.2642</ele>
        <time>2013-04-30T17:59:51Z</time>
      </trkpt>
      <trkpt lat="59.976266" lon="17.7400602">
        <ele>34.2642</ele>
        <time>2013-04-30T17:59:52Z</time>
      </trkpt>
      <trkpt lat="59.9762112" lon="17.7402209">
        <ele>34.2642</ele>
        <time>2013-04-30T17:59:53Z</time>
      </trkpt>
      <trkpt lat="59.976159" lon="17.7403785">
        <ele>34.2642</ele>
        <time>2013-04-30T17:59:54Z</time>
      </trkpt>
      <trkpt lat="59.9761075" lon="17.7405332">
        <ele>34.2642</ele>
        <time>2013-04-30T17:59:55Z</time>
      </trkpt>
      <trkpt lat="59.9760565" lon="17.7406876">
        <ele>34.7449</ele>
        <time>2013-04-30T17:59:56Z</time>
      </trkpt>
      <trkpt lat="59.9760084" lon="17.7408442">
        <ele>34.7449</ele>
        <time>2013-04-30T17:59:57Z</time>
      </trkpt>
      <trkpt lat="59.9759642" lon="17.7410037">
        <ele>35.2255</ele>
        <time>2013-04-30T17:59:58Z</time>
      </trkpt>
      <trkpt lat="59.9759232" lon="17.7411648">
        <ele>35.2255</ele>
        <time>2013-04-30T17:59:59Z</time>
      </trkpt>
      <trkpt lat="59.9758837" lon="17.7413252">
        <ele>35.7061</ele>
        <time>2013-04-30T18:00:00Z</time>
      </trkpt>
      <trkpt lat="59.9758451" lon="17.7414845">
        <ele>35.7061</ele>
        <time>2013-04-30T18:00:01Z</time>
      </trkpt>
      <trkpt lat="59.9758078" lon="17.7416429">
        <ele>36.1868</ele>
        <time>2013-04-30T18:00:02Z</time>
      </trkpt>
      <trkpt lat="59.97577" lon="17.7417993">
        <ele>36.6675</ele>
        <time>2013-04-30T18:00:03Z</time>
      </trkpt>
      <trkpt lat="59.9757315" lon="17.7419521">
        <ele>36.6675</ele>
        <time>2013-04-30T18:00:04Z</time>
      </trkpt>
      <trkpt lat="59.9756923" lon="17.7421006">
        <ele>37.1481</ele>
        <time>2013-04-30T18:00:05Z</time>
      </trkpt>
      <trkpt lat="59.9756544" lon="17.7422425">
        <ele>37.6287</ele>
        <time>2013-04-30T18:00:06Z</time>
      </trkpt>
      <trkpt lat="59.9756182" lon="17.7423805">
        <ele>38.1094</ele>
        <time>2013-04-30T18:00:07Z</time>
      </trkpt>
      <trkpt lat="59.9755835" lon="17.7425168">
        <ele>38.1094</ele>
        <time>2013-04-30T18:00:08Z</time>
      </trkpt>
      <trkpt lat="59.9755483" lon="17.7426508">
        <ele>38.5901</ele>
        <time>2013-04-30T18:00:09Z</time>
      </trkpt>
      <trkpt lat="59.9755125" lon="17.7427841">
        <ele>38.5901</ele>
        <time>2013-04-30T18:00:10Z</time>
      </trkpt>
      <trkpt lat="59.9754768" lon="17.7429187">
        <ele>39.0707</ele>
        <time>2013-04-30T18:00:11Z</time>
      </trkpt>
      <trkpt lat="59.9754415" lon="17.7430551">
        <ele>39.0707</ele>
        <time>2013-04-30T18:00:12Z</time>
      </trkpt>
      <trkpt lat="59.975408" lon="17.7431947">
        <ele>39.5513</ele>
        <time>2013-04-30T18:00:13Z</time>
      </trkpt>
      <trkpt lat="59.9753772" lon="17.7433374">
        <ele>39.5513</ele>
        <time>2013-04-30T18:00:14Z</time>
      </trkpt>
      <trkpt lat="59.975349" lon="17.7434818">
        <ele>39.5513</ele>
        <time>2013-04-30T18:00:15Z</time>
      </trkpt>
      <trkpt lat="59.975324" lon="17.7436292">
        <ele>39.5513</ele>
        <time>2013-04-30T18:00:16Z</time>
      </trkpt>
      <trkpt lat="59.9752998" lon="17.7437782">
        <ele>40.0321</ele>
        <time>2013-04-30T18:00:17Z</time>
      </trkpt>
      <trkpt lat="59.9752758" lon="17.7439266">
        <ele>40.0321</ele>
        <time>2013-04-30T18:00:18Z</time>
      </trkpt>
      <trkpt lat="59.9752497" lon="17.7440739">
        <ele>40.0321</ele>
        <time>2013-04-30T18:00:19Z</time>
      </trkpt>
      <trkpt lat="59.9752204" lon="17.7442203">
        <ele>40.0321</ele>
        <time>2013-04-30T18:00:20Z</time>
      </trkpt>
      <trkpt lat="59.9751892" lon="17.744366">
        <ele>40.0321</ele>
        <time>2013-04-30T18:00:21Z</time>
      </trkpt>
      <trkpt lat="59.9751552" lon="17.7445106">
        <ele>39.5513</ele>
        <time>2013-04-30T18:00:22Z</time>
      </trkpt>
      <trkpt lat="59.9751178" lon="17.7446526">
        <ele>39.5513</ele>
        <time>2013-04-30T18:00:23Z</time>
      </trkpt>
      <trkpt lat="59.9750775" lon="17.7447917">
        <ele>39.5513</ele>
        <time>2013-04-30T18:00:24Z</time>
      </trkpt>
      <trkpt lat="59.975036" lon="17.7449285">
        <ele>39.5513</ele>
        <time>2013-04-30T18:00:25Z</time>
      </trkpt>
      <trkpt lat="59.9749925" lon="17.7450622">
        <ele>39.5513</ele>
        <time>2013-04-30T18:00:26Z</time>
      </trkpt>
      <trkpt lat="59.9749478" lon="17.7451923">
        <ele>39.5513</ele>
        <time>2013-04-30T18:00:27Z</time>
      </trkpt>
      <trkpt lat="59.9749016" lon="17.7453172">
        <ele>40.0321</ele>
        <time>2013-04-30T18:00:28Z</time>
      </trkpt>
      <trkpt lat="59.9748506" lon="17.7454332">
        <ele>40.0321</ele>
        <time>2013-04-30T18:00:29Z</time>
      </trkpt>
      <trkpt lat="59.9748024" lon="17.745548">
        <ele>40.0321</ele>
        <time>2013-04-30T18:00:30Z</time>
      </trkpt>
      <trkpt lat="59.9747538" lon="17.7456581">
        <ele>40.5128</ele>
        <time>2013-04-30T18:00:31Z</time>
      </trkpt>
      <trkpt lat="59.974705" lon="17.7457631">
        <ele>40.5128</ele>
        <time>2013-04-30T18:00:32Z</time>
      </trkpt>
      <trkpt lat="59.9746552" lon="17.7458614">
        <ele>40.5128</ele>
        <time>2013-04-30T18:00:33Z</time>
      </trkpt>
      <trkpt lat="59.9746033" lon="17.7459537">
        <ele>40.5128</ele>
        <time>2013-04-30T18:00:34Z</time>
      </trkpt>
      <trkpt lat="59.9745501" lon="17.7460435">
        <ele>40.5128</ele>
        <time>2013-04-30T18:00:35Z</time>
      </trkpt>
      <trkpt lat="59.9744952" lon="17.7461328">
        <ele>40.5128</ele>
        <time>2013-04-30T18:00:36Z</time>
      </trkpt>
      <trkpt lat="59.9744375" lon="17.746222">
        <ele>40.5128</ele>
        <time>2013-04-30T18:00:37Z</time>
      </trkpt>
      <trkpt lat="59.9743777" lon="17.7463111">
        <ele>40.0321</ele>
        <time>2013-04-30T18:00:38Z</time>
      </trkpt>
      <trkpt lat="59.9743168" lon="17.7463988">
        <ele>40.0321</ele>
        <time>2013-04-30T18:00:39Z</time>
      </trkpt>
      <trkpt lat="59.9742567" lon="17.7464887">
        <ele>40.0321</ele>
        <time>2013-04-30T18:00:40Z</time>
      </trkpt>
      <trkpt lat="59.9741961" lon="17.746579">
        <ele>40.0321</ele>
        <time>2013-04-30T18:00:41Z</time>
      </trkpt>
      <trkpt lat="59.9741284" lon="17.7466721">
        <ele>40.0321</ele>
        <time>2013-04-30T18:00:42Z</time>
      </trkpt>
      <trkpt lat="59.9740606" lon="17.746757">
        <ele>40.0321</ele>
        <time>2013-04-30T18:00:43Z</time>
      </trkpt>
      <trkpt lat="59.9739937" lon="17.7468362">
        <ele>40.0321</ele>
        <time>2013-04-30T18:00:44Z</time>
      </trkpt>
      <trkpt lat="59.9739293" lon="17.746915">
        <ele>40.0321</ele>
        <time>2013-04-30T18:00:45Z</time>
      </trkpt>
      <trkpt lat="59.9738679" lon="17.7469949">
        <ele>40.0321</ele>
        <time>2013-04-30T18:00:46Z</time>
      </trkpt>
      <trkpt lat="59.9738066" lon="17.7470717">
        <ele>40.0321</ele>
        <time>2013-04-30T18:00:47Z</time>
      </trkpt>
      <trkpt lat="59.9737468" lon="17.7471406">
        <ele>40.0321</ele>
        <time>2013-04-30T18:00:48Z</time>
      </trkpt>
      <trkpt lat="59.9736872" lon="17.7472079">
        <ele>40.0321</ele>
        <time>2013-04-30T18:00:49Z</time>
      </trkpt>
      <trkpt lat="59.973628" lon="17.7472721">
        <ele>40.5128</ele>
        <time>2013-04-30T18:00:50Z</time>
      </trkpt>
      <trkpt lat="59.9735659" lon="17.7473354">
        <ele>40.5128</ele>
        <time>2013-04-30T18:00:51Z</time>
      </trkpt>
      <trkpt lat="59.9735032" lon="17.7473983">
        <ele>40.0321</ele>
        <time>2013-04-30T18:00:52Z</time>
      </trkpt>
      <trkpt lat="59.9734374" lon="17.7474642">
        <ele>40.0321</ele>
        <time>2013-04-30T18:00:53Z</time>
      </trkpt>
      <trkpt lat="59.9733702" lon="17.7475315">
        <ele>40.0321</ele>
        <time>2013-04-30T18:00:54Z</time>
      </trkpt>
      <trkpt lat="59.9733023" lon="17.7476029">
        <ele>39.5513</ele>
        <time>2013-04-30T18:00:55Z</time>
      </trkpt>
      <trkpt lat="59.9732337" lon="17.7476793">
        <ele>39.0707</ele>
        <time>2013-04-30T18:00:56Z</time>
      </trkpt>
      <trkpt lat="59.9731634" lon="17.7477589">
        <ele>39.0707</ele>
        <time>2013-04-30T18:00:57Z</time>
      </trkpt>
      <trkpt lat="59.9730949" lon="17.7478409">
        <ele>39.0707</ele>
        <time>2013-04-30T18:00:58Z</time>
      </trkpt>
      <trkpt lat="59.9730233" lon="17.7479319">
        <ele>38.5901</ele>
        <time>2013-04-30T18:00:59Z</time>
      </trkpt>
      <trkpt lat="59.9729572" lon="17.7480257">
        <ele>38.5901</ele>
        <time>2013-04-30T18:01:00Z</time>
      </trkpt>
      <trkpt lat="59.9728923" lon="17.7481223">
        <ele>38.5901</ele>
        <time>2013-04-30T18:01:01Z</time>
      </trkpt>
      <trkpt lat="59.9728313" lon="17.7482283">
        <ele>38.5901</ele>
        <time>2013-04-30T18:01:02Z</time>
      </trkpt>
      <trkpt lat="59.9727745" lon="17.7483419">
        <ele>39.0707</ele>
        <time>2013-04-30T18:01:03Z</time>
      </trkpt>
      <trkpt lat="59.9727205" lon="17.7484552">
        <ele>39.0707</ele>
        <time>2013-04-30T18:01:04Z</time>
      </trkpt>
      <trkpt lat="59.9726693" lon="17.7485672">
        <ele>39.0707</ele>
        <time>2013-04-30T18:01:05Z</time>
      </trkpt>
      <trkpt lat="59.97262" lon="17.7486762">
        <ele>39.5513</ele>
        <time>2013-04-30T18:01:06Z</time>
      </trkpt>
      <trkpt lat="59.9725713" lon="17.7487822">
        <ele>39.5513</ele>
        <time>2013-04-30T18:01:07Z</time>
      </trkpt>
      <trkpt lat="59.972523" lon="17.7488867">
        <ele>40.0321</ele>
        <time>2013-04-30T18:01:08Z</time>
      </trkpt>
      <trkpt lat="59.9724749" lon="17.7489936">
        <ele>40.0321</ele>
        <time>2013-04-30T18:01:09Z</time>
      </trkpt>
      <trkpt lat="59.9724277" lon="17.7491012">
        <ele>40.0321</ele>
        <time>2013-04-30T18:01:10Z</time>
      </trkpt>
      <trkpt lat="59.97238" lon="17.749207">
        <ele>40.0321</ele>
        <time>2013-04-30T18:01:11Z</time>
      </trkpt>
      <trkpt lat="59.9723323" lon="17.7493136">
        <ele>40.0321</ele>
        <time>2013-04-30T18:01:12Z</time>
      </trkpt>
      <trkpt lat="59.9722864" lon="17.7494218">
        <ele>40.5128</ele>
        <time>2013-04-30T18:01:13Z</time>
      </trkpt>
      <trkpt lat="59.9722392" lon="17.7495269">
        <ele>40.0321</ele>
        <time>2013-04-30T18:01:14Z</time>
      </trkpt>
      <trkpt lat="59.972193" lon="17.7496321">
        <ele>40.0321</ele>
        <time>2013-04-30T18:01:15Z</time>
      </trkpt>
      <trkpt lat="59.9721481" lon="17.7497359">
        <ele>39.5513</ele>
        <time>2013-04-30T18:01:16Z</time>
      </trkpt>
      <trkpt lat="59.9721035" lon="17.7498446">
        <ele>39.5513</ele>
        <time>2013-04-30T18:01:17Z</time>
      </trkpt>
      <trkpt lat="59.9720589" lon="17.7499586">
        <ele>39.5513</ele>
        <time>2013-04-30T18:01:18Z</time>
      </trkpt>
      <trkpt lat="59.9720144" lon="17.7500715">
        <ele>39.5513</ele>
        <time>2013-04-30T18:01:19Z</time>
      </trkpt>
      <trkpt lat="59.9719684" lon="17.7501821">
        <ele>39.5513</ele>
        <time>2013-04-30T18:01:20Z</time>
      </trkpt>
      <trkpt lat="59.9719195" lon="17.7502896">
        <ele>39.5513</ele>
        <time>2013-04-30T18:01:21Z</time>
      </trkpt>
      <trkpt lat="59.9718683" lon="17.7503961">
        <ele>39.0707</ele>
        <time>2013-04-30T18:01:22Z</time>
      </trkpt>
      <trkpt lat="59.9718102" lon="17.7505059">
        <ele>39.0707</ele>
        <time>2013-04-30T18:01:23Z</time>
      </trkpt>
      <trkpt lat="59.9717461" lon="17.7506152">
        <ele>39.0707</ele>
        <time>2013-04-30T18:01:24Z</time>
      </trkpt>
      <trkpt lat="59.971676" lon="17.7507262">
        <ele>39.0707</ele>
        <time>2013-04-30T18:01:25Z</time>
      </trkpt>
      <trkpt lat="59.9716012" lon="17.7508285">
        <ele>38.5901</ele>
        <time>2013-04-30T18:01:26Z</time>
      </trkpt>
      <trkpt lat="59.9715249" lon="17.7509312">
        <ele>38.5901</ele>
        <time>2013-04-30T18:01:27Z</time>
      </trkpt>
      <trkpt lat="59.9714529" lon="17.7510337">
        <ele>38.1094</ele>
        <time>2013-04-30T18:01:28Z</time>
      </trkpt>
      <trkpt lat="59.9713819" lon="17.7511254">
        <ele>38.1094</ele>
        <time>2013-04-30T18:01:29Z</time>
      </trkpt>
      <trkpt lat="59.9713066" lon="17.7512187">
        <ele>37.6287</ele>
        <time>2013-04-30T18:01:30Z</time>
      </trkpt>
      <trkpt lat="59.9712343" lon="17.7513053">
        <ele>37.1481</ele>
        <time>2013-04-30T18:01:31Z</time>
      </trkpt>
      <trkpt lat="59.9711633" lon="17.7513899">
        <ele>36.6675</ele>
        <time>2013-04-30T18:01:32Z</time>
      </trkpt>
      <trkpt lat="59.9710964" lon="17.7514722">
        <ele>36.6675</ele>
        <time>2013-04-30T18:01:33Z</time>
      </trkpt>
      <trkpt lat="59.9710318" lon="17.751551">
        <ele>36.6675</ele>
        <time>2013-04-30T18:01:34Z</time>
      </trkpt>
      <trkpt lat="59.9709601" lon="17.751631">
        <ele>36.6675</ele>
        <time>2013-04-30T18:01:35Z</time>
      </trkpt>
      <trkpt lat="59.9708909" lon="17.7517169">
        <ele>37.1481</ele>
        <time>2013-04-30T18:01:36Z</time>
      </trkpt>
      <trkpt lat="59.970822" lon="17.7518069">
        <ele>37.1481</ele>
        <time>2013-04-30T18:01:37Z</time>
      </trkpt>
      <trkpt lat="59.9707527" lon="17.7519024">
        <ele>36.6675</ele>
        <time>2013-04-30T18:01:38Z</time>
      </trkpt>
      <trkpt lat="59.9706879" lon="17.7520022">
        <ele>36.6675</ele>
        <time>2013-04-30T18:01:39Z</time>
      </trkpt>
      <trkpt lat="59.9706343" lon="17.7521142">
        <ele>36.1868</ele>
        <time>2013-04-30T18:01:40Z</time>
      </trkpt>
      <trkpt lat="59.9705811" lon="17.752231">
        <ele>35.7061</ele>
        <time>2013-04-30T18:01:41Z</time>
      </trkpt>
      <trkpt lat="59.9705267" lon="17.7523497">
        <ele>36.1868</ele>
        <time>2013-04-30T18:01:42Z</time>
      </trkpt>
      <trkpt lat="59.9704734" lon="17.7524737">
        <ele>35.7061</ele>
        <time>2013-04-30T18:01:43Z</time>
      </trkpt>
      <trkpt lat="59.9704257" lon="17.7526029">
        <ele>35.7061</ele>
        <time>2013-04-30T18:01:44Z</time>
      </trkpt>
      <trkpt lat="59.9703752" lon="17.7527336">
        <ele>35.7061</ele>
        <time>2013-04-30T18:01:45Z</time>
      </trkpt>
      <trkpt lat="59.9703282" lon="17.7528681">
        <ele>35.7061</ele>
        <time>2013-04-30T18:01:46Z</time>
      </trkpt>
      <trkpt lat="59.9702842" lon="17.7530048">
        <ele>35.7061</ele>
        <time>2013-04-30T18:01:47Z</time>
      </trkpt>
      <trkpt lat="59.9702392" lon="17.7531411">
        <ele>35.7061</ele>
        <time>2013-04-30T18:01:48Z</time>
      </trkpt>
      <trkpt lat="59.9701944" lon="17.753277">
        <ele>35.7061</ele>
        <time>2013-04-30T18:01:49Z</time>
      </trkpt>
      <trkpt lat="59.9701504" lon="17.7534115">
        <ele>35.7061</ele>
        <time>2013-04-30T18:01:50Z</time>
      </trkpt>
      <trkpt lat="59.9701028" lon="17.7535416">
        <ele>35.7061</ele>
        <time>2013-04-30T18:01:51Z</time>
      </trkpt>
      <trkpt lat="59.9700539" lon="17.7536698">
        <ele>35.7061</ele>
        <time>2013-04-30T18:01:52Z</time>
      </trkpt>
      <trkpt lat="59.9700046" lon="17.7537959">
        <ele>35.7061</ele>
        <time>2013-04-30T18:01:53Z</time>
      </trkpt>
      <trkpt lat="59.9699529" lon="17.7539166">
        <ele>36.1868</ele>
        <time>2013-04-30T18:01:54Z</time>
      </trkpt>
      <trkpt lat="59.9698997" lon="17.7540335">
        <ele>36.1868</ele>
        <time>2013-04-30T18:01:55Z</time>
      </trkpt>
      <trkpt lat="59.969846" lon="17.7541506">
        <ele>36.1868</ele>
        <time>2013-04-30T18:01:56Z</time>
      </trkpt>
      <trkpt lat="59.9697916" lon="17.7542674">
        <ele>36.1868</ele>
        <time>2013-04-30T18:01:57Z</time>
      </trkpt>
      <trkpt lat="59.9697357" lon="17.7543797">
        <ele>36.1868</ele>
        <time>2013-04-30T18:01:58Z</time>
      </trkpt>
      <trkpt lat="59.9696814" lon="17.7544883">
        <ele>36.1868</ele>
        <time>2013-04-30T18:01:59Z</time>
      </trkpt>
      <trkpt lat="59.9696286" lon="17.7545965">
        <ele>36.1868</ele>
        <time>2013-04-30T18:02:00Z</time>
      </trkpt>
      <trkpt lat="59.9695771" lon="17.754705">
        <ele>36.1868</ele>
        <time>2013-04-30T18:02:01Z</time>
      </trkpt>
      <trkpt lat="59.9695254" lon="17.7548138">
        <ele>36.1868</ele>
        <time>2013-04-30T18:02:02Z</time>
      </trkpt>
      <trkpt lat="59.9694756" lon="17.754925">
        <ele>36.1868</ele>
        <time>2013-04-30T18:02:03Z</time>
      </trkpt>
      <trkpt lat="59.9694264" lon="17.7550366">
        <ele>36.1868</ele>
        <time>2013-04-30T18:02:04Z</time>
      </trkpt>
      <trkpt lat="59.9693752" lon="17.7551453">
        <ele>36.1868</ele>
        <time>2013-04-30T18:02:05Z</time>
      </trkpt>
      <trkpt lat="59.9693223" lon="17.7552526">
        <ele>35.7061</ele>
        <time>2013-04-30T18:02:06Z</time>
      </trkpt>
      <trkpt lat="59.9692704" lon="17.7553632">
        <ele>35.7061</ele>
        <time>2013-04-30T18:02:07Z</time>
      </trkpt>
      <trkpt lat="59.9692203" lon="17.7554753">
        <ele>35.7061</ele>
        <time>2013-04-30T18:02:08Z</time>
      </trkpt>
      <trkpt lat="59.9691704" lon="17.7555851">
        <ele>35.7061</ele>
        <time>2013-04-30T18:02:09Z</time>
      </trkpt>
      <trkpt lat="59.9691203" lon="17.7556929">
        <ele>35.7061</ele>
        <time>2013-04-30T18:02:10Z</time>
      </trkpt>
      <trkpt lat="59.9690702" lon="17.7558001">
        <ele>35.7061</ele>
        <time>2013-04-30T18:02:11Z</time>
      </trkpt>
      <trkpt lat="59.9690203" lon="17.7559042">
        <ele>35.7061</ele>
        <time>2013-04-30T18:02:12Z</time>
      </trkpt>
      <trkpt lat="59.9689707" lon="17.7560056">
        <ele>35.7061</ele>
        <time>2013-04-30T18:02:13Z</time>
      </trkpt>
      <trkpt lat="59.9689214" lon="17.7561055">
        <ele>35.7061</ele>
        <time>2013-04-30T18:02:14Z</time>
      </trkpt>
      <trkpt lat="59.9688732" lon="17.7562041">
        <ele>35.7061</ele>
        <time>2013-04-30T18:02:15Z</time>
      </trkpt>
      <trkpt lat="59.968825" lon="17.7563005">
        <ele>36.1868</ele>
        <time>2013-04-30T18:02:16Z</time>
      </trkpt>
      <trkpt lat="59.9687765" lon="17.7563938">
        <ele>36.1868</ele>
        <time>2013-04-30T18:02:17Z</time>
      </trkpt>
      <trkpt lat="59.9687281" lon="17.7564848">
        <ele>36.1868</ele>
        <time>2013-04-30T18:02:18Z</time>
      </trkpt>
      <trkpt lat="59.9686787" lon="17.7565745">
        <ele>36.1868</ele>
        <time>2013-04-30T18:02:19Z</time>
      </trkpt>
      <trkpt lat="59.9686272" lon="17.7566627">
        <ele>35.7061</ele>
        <time>2013-04-30T18:02:20Z</time>
      </trkpt>
      <trkpt lat="59.9685727" lon="17.7567512">
        <ele>35.7061</ele>
        <time>2013-04-30T18:02:21Z</time>
      </trkpt>
      <trkpt lat="59.9685154" lon="17.7568404">
        <ele>35.7061</ele>
        <time>2013-04-30T18:02:22Z</time>
      </trkpt>
      <trkpt lat="59.9684571" lon="17.75693">
        <ele>35.7061</ele>
        <time>2013-04-30T18:02:23Z</time>
      </trkpt>
      <trkpt lat="59.9683982" lon="17.7570194">
        <ele>35.7061</ele>
        <time>2013-04-30T18:02:24Z</time>
      </trkpt>
      <trkpt lat="59.9683387" lon="17.7571059">
        <ele>35.7061</ele>
        <time>2013-04-30T18:02:25Z</time>
      </trkpt>
      <trkpt lat="59.9682791" lon="17.7571899">
        <ele>35.7061</ele>
        <time>2013-04-30T18:02:26Z</time>
      </trkpt>
      <trkpt lat="59.96822" lon="17.7572749">
        <ele>35.2255</ele>
        <time>2013-04-30T18:02:27Z</time>
      </trkpt>
      <trkpt lat="59.9681594" lon="17.7573619">
        <ele>35.2255</ele>
        <time>2013-04-30T18:02:28Z</time>
      </trkpt>
      <trkpt lat="59.9680962" lon="17.7574489">
        <ele>34.7449</ele>
        <time>2013-04-30T18:02:29Z</time>
      </trkpt>
      <trkpt lat="59.9680299" lon="17.7575349">
        <ele>34.2642</ele>
        <time>2013-04-30T18:02:30Z</time>
      </trkpt>
      <trkpt lat="59.9679605" lon="17.7576178">
        <ele>33.7834</ele>
        <time>2013-04-30T18:02:31Z</time>
      </trkpt>
      <trkpt lat="59.967889" lon="17.7576979">
        <ele>33.7834</ele>
        <time>2013-04-30T18:02:32Z</time>
      </trkpt>
      <trkpt lat="59.9678168" lon="17.7577792">
        <ele>33.3029</ele>
        <time>2013-04-30T18:02:33Z</time>
      </trkpt>
      <trkpt lat="59.9677424" lon="17.7578633">
        <ele>32.8223</ele>
        <time>2013-04-30T18:02:34Z</time>
      </trkpt>
      <trkpt lat="59.9676679" lon="17.7579453">
        <ele>32.8223</ele>
        <time>2013-04-30T18:02:35Z</time>
      </trkpt>
      <trkpt lat="59.9675931" lon="17.7580291">
        <ele>32.3416</ele>
        <time>2013-04-30T18:02:36Z</time>
      </trkpt>
      <trkpt lat="59.9675186" lon="17.7581082">
        <ele>32.3416</ele>
        <time>2013-04-30T18:02:37Z</time>
      </trkpt>
      <trkpt lat="59.967443" lon="17.7581844">
        <ele>31.8607</ele>
        <time>2013-04-30T18:02:38Z</time>
      </trkpt>
      <trkpt lat="59.9673688" lon="17.7582621">
        <ele>31.3801</ele>
        <time>2013-04-30T18:02:39Z</time>
      </trkpt>
      <trkpt lat="59.9672959" lon="17.7583379">
        <ele>31.3801</ele>
        <time>2013-04-30T18:02:40Z</time>
      </trkpt>
      <trkpt lat="59.9672221" lon="17.7584097">
        <ele>30.8995</ele>
        <time>2013-04-30T18:02:41Z</time>
      </trkpt>
      <trkpt lat="59.9671468" lon="17.7584755">
        <ele>30.8995</ele>
        <time>2013-04-30T18:02:42Z</time>
      </trkpt>
      <trkpt lat="59.9670703" lon="17.7585381">
        <ele>30.8995</ele>
        <time>2013-04-30T18:02:43Z</time>
      </trkpt>
      <trkpt lat="59.9669947" lon="17.7585998">
        <ele>30.8995</ele>
        <time>2013-04-30T18:02:44Z</time>
      </trkpt>
      <trkpt lat="59.9669204" lon="17.758662">
        <ele>30.8995</ele>
        <time>2013-04-30T18:02:45Z</time>
      </trkpt>
      <trkpt lat="59.9668472" lon="17.7587249">
        <ele>30.8995</ele>
        <time>2013-04-30T18:02:46Z</time>
      </trkpt>
      <trkpt lat="59.9667727" lon="17.7587885">
        <ele>30.8995</ele>
        <time>2013-04-30T18:02:47Z</time>
      </trkpt>
      <trkpt lat="59.9666997" lon="17.7588564">
        <ele>30.8995</ele>
        <time>2013-04-30T18:02:48Z</time>
      </trkpt>
      <trkpt lat="59.96663" lon="17.7589326">
        <ele>30.8995</ele>
        <time>2013-04-30T18:02:49Z</time>
      </trkpt>
      <trkpt lat="59.9665601" lon="17.7590091">
        <ele>31.3801</ele>
        <time>2013-04-30T18:02:50Z</time>
      </trkpt>
      <trkpt lat="59.9664883" lon="17.7590944">
        <ele>30.8995</ele>
        <time>2013-04-30T18:02:51Z</time>
      </trkpt>
      <trkpt lat="59.9664211" lon="17.7591879">
        <ele>30.8995</ele>
        <time>2013-04-30T18:02:52Z</time>
      </trkpt>
      <trkpt lat="59.9663548" lon="17.7592851">
        <ele>30.8995</ele>
        <time>2013-04-30T18:02:53Z</time>
      </trkpt>
      <trkpt lat="59.966291" lon="17.7593871">
        <ele>30.8995</ele>
        <time>2013-04-30T18:02:54Z</time>
      </trkpt>
      <trkpt lat="59.9662234" lon="17.759486">
        <ele>30.8995</ele>
        <time>2013-04-30T18:02:55Z</time>
      </trkpt>
      <trkpt lat="59.9661564" lon="17.7595918">
        <ele>30.8995</ele>
        <time>2013-04-30T18:02:56Z</time>
      </trkpt>
      <trkpt lat="59.9660929" lon="17.7597018">
        <ele>30.8995</ele>
        <time>2013-04-30T18:02:57Z</time>
      </trkpt>
      <trkpt lat="59.9660302" lon="17.7598131">
        <ele>30.4188</ele>
        <time>2013-04-30T18:02:58Z</time>
      </trkpt>
      <trkpt lat="59.9659699" lon="17.7599267">
        <ele>30.4188</ele>
        <time>2013-04-30T18:02:59Z</time>
      </trkpt>
      <trkpt lat="59.9659066" lon="17.760036">
        <ele>30.4188</ele>
        <time>2013-04-30T18:03:00Z</time>
      </trkpt>
      <trkpt lat="59.9658449" lon="17.7601467">
        <ele>29.9381</ele>
        <time>2013-04-30T18:03:01Z</time>
      </trkpt>
      <trkpt lat="59.9657834" lon="17.7602555">
        <ele>29.9381</ele>
        <time>2013-04-30T18:03:02Z</time>
      </trkpt>
      <trkpt lat="59.9657225" lon="17.7603613">
        <ele>29.9381</ele>
        <time>2013-04-30T18:03:03Z</time>
      </trkpt>
      <trkpt lat="59.9656603" lon="17.7604641">
        <ele>29.9381</ele>
        <time>2013-04-30T18:03:04Z</time>
      </trkpt>
      <trkpt lat="59.9655988" lon="17.7605631">
        <ele>30.4188</ele>
        <time>2013-04-30T18:03:05Z</time>
      </trkpt>
      <trkpt lat="59.9655347" lon="17.7606602">
        <ele>30.4188</ele>
        <time>2013-04-30T18:03:06Z</time>
      </trkpt>
      <trkpt lat="59.9654683" lon="17.7607624">
        <ele>30.4188</ele>
        <time>2013-04-30T18:03:07Z</time>
      </trkpt>
      <trkpt lat="59.9654058" lon="17.7608735">
        <ele>30.4188</ele>
        <time>2013-04-30T18:03:08Z</time>
      </trkpt>
      <trkpt lat="59.9653461" lon="17.7609925">
        <ele>30.4188</ele>
        <time>2013-04-30T18:03:09Z</time>
      </trkpt>
      <trkpt lat="59.9652921" lon="17.7611216">
        <ele>30.4188</ele>
        <time>2013-04-30T18:03:10Z</time>
      </trkpt>
      <trkpt lat="59.9652394" lon="17.7612554">
        <ele>30.4188</ele>
        <time>2013-04-30T18:03:11Z</time>
      </trkpt>
      <trkpt lat="59.9651896" lon="17.7613905">
        <ele>30.8995</ele>
        <time>2013-04-30T18:03:12Z</time>
      </trkpt>
      <trkpt lat="59.9651415" lon="17.7615235">
        <ele>30.8995</ele>
        <time>2013-04-30T18:03:13Z</time>
      </trkpt>
      <trkpt lat="59.9650933" lon="17.7616532">
        <ele>30.8995</ele>
        <time>2013-04-30T18:03:14Z</time>
      </trkpt>
      <trkpt lat="59.9650447" lon="17.7617815">
        <ele>30.8995</ele>
        <time>2013-04-30T18:03:15Z</time>
      </trkpt>
      <trkpt lat="59.9649954" lon="17.7619086">
        <ele>30.8995</ele>
        <time>2013-04-30T18:03:16Z</time>
      </trkpt>
      <trkpt lat="59.9649452" lon="17.7620368">
        <ele>30.8995</ele>
        <time>2013-04-30T18:03:17Z</time>
      </trkpt>
      <trkpt lat="59.9648952" lon="17.7621667">
        <ele>30.8995</ele>
        <time>2013-04-30T18:03:18Z</time>
      </trkpt>
      <trkpt lat="59.9648468" lon="17.7623005">
        <ele>30.8995</ele>
        <time>2013-04-30T18:03:19Z</time>
      </trkpt>
      <trkpt lat="59.9647965" lon="17.7624357">
        <ele>30.8995</ele>
        <time>2013-04-30T18:03:20Z</time>
      </trkpt>
      <trkpt lat="59.9647473" lon="17.7625713">
        <ele>30.8995</ele>
        <time>2013-04-30T18:03:21Z</time>
      </trkpt>
      <trkpt lat="59.9647006" lon="17.7627075">
        <ele>30.8995</ele>
        <time>2013-04-30T18:03:22Z</time>
      </trkpt>
      <trkpt lat="59.9646587" lon="17.7628448">
        <ele>31.3801</ele>
        <time>2013-04-30T18:03:23Z</time>
      </trkpt>
      <trkpt lat="59.9646201" lon="17.7629818">
        <ele>31.3801</ele>
        <time>2013-04-30T18:03:24Z</time>
      </trkpt>
      <trkpt lat="59.9645856" lon="17.7631199">
        <ele>31.3801</ele>
        <time>2013-04-30T18:03:25Z</time>
      </trkpt>
      <trkpt lat="59.9645528" lon="17.7632584">
        <ele>31.8607</ele>
        <time>2013-04-30T18:03:26Z</time>
      </trkpt>
      <trkpt lat="59.9645189" lon="17.7633972">
        <ele>31.8607</ele>
        <time>2013-04-30T18:03:27Z</time>
      </trkpt>
      <trkpt lat="59.9644845" lon="17.7635369">
        <ele>31.8607</ele>
        <time>2013-04-30T18:03:28Z</time>
      </trkpt>
      <trkpt lat="59.9644484" lon="17.7636768">
        <ele>32.3416</ele>
        <time>2013-04-30T18:03:29Z</time>
      </trkpt>
      <trkpt lat="59.9644153" lon="17.763818">
        <ele>32.3416</ele>
        <time>2013-04-30T18:03:30Z</time>
      </trkpt>
      <trkpt lat="59.9643789" lon="17.7639563">
        <ele>32.8223</ele>
        <time>2013-04-30T18:03:31Z</time>
      </trkpt>
      <trkpt lat="59.9643437" lon="17.7640945">
        <ele>32.8223</ele>
        <time>2013-04-30T18:03:32Z</time>
      </trkpt>
      <trkpt lat="59.9643085" lon="17.7642332">
        <ele>32.8223</ele>
        <time>2013-04-30T18:03:33Z</time>
      </trkpt>
      <trkpt lat="59.9642751" lon="17.7643732">
        <ele>32.8223</ele>
        <time>2013-04-30T18:03:34Z</time>
      </trkpt>
      <trkpt lat="59.9642431" lon="17.7645141">
        <ele>33.3029</ele>
        <time>2013-04-30T18:03:35Z</time>
      </trkpt>
      <trkpt lat="59.9642136" lon="17.764655">
        <ele>33.3029</ele>
        <time>2013-04-30T18:03:36Z</time>
      </trkpt>
      <trkpt lat="59.9641857" lon="17.7647963">
        <ele>33.7834</ele>
        <time>2013-04-30T18:03:37Z</time>
      </trkpt>
      <trkpt lat="59.9641515" lon="17.7649355">
        <ele>34.2642</ele>
        <time>2013-04-30T18:03:38Z</time>
      </trkpt>
      <trkpt lat="59.9641209" lon="17.7650736">
        <ele>34.7449</ele>
        <time>2013-04-30T18:03:39Z</time>
      </trkpt>
      <trkpt lat="59.9640977" lon="17.7652226">
        <ele>35.2255</ele>
        <time>2013-04-30T18:03:40Z</time>
      </trkpt>
      <trkpt lat="59.9640743" lon="17.7653735">
        <ele>35.7061</ele>
        <time>2013-04-30T18:03:41Z</time>
      </trkpt>
      <trkpt lat="59.9640524" lon="17.7655252">
        <ele>35.7061</ele>
        <time>2013-04-30T18:03:42Z</time>
      </trkpt>
      <trkpt lat="59.9640474" lon="17.7656713">
        <ele>35.7061</ele>
        <time>2013-04-30T18:03:43Z</time>
      </trkpt>
      <trkpt lat="59.9640473" lon="17.7657992">
        <ele>36.1868</ele>
        <time>2013-04-30T18:03:44Z</time>
      </trkpt>
      <trkpt lat="59.9640511" lon="17.765907">
        <ele>36.1868</ele>
        <time>2013-04-30T18:03:45Z</time>
      </trkpt>
      <trkpt lat="59.9640459" lon="17.7660264">
        <ele>35.7061</ele>
        <time>2013-04-30T18:03:46Z</time>
      </trkpt>
      <trkpt lat="59.9640417" lon="17.7661502">
        <ele>36.1868</ele>
        <time>2013-04-30T18:03:47Z</time>
      </trkpt>
      <trkpt lat="59.9640467" lon="17.7662956">
        <ele>36.1868</ele>
        <time>2013-04-30T18:03:48Z</time>
      </trkpt>
      <trkpt lat="59.9640447" lon="17.7663919">
        <ele>35.7061</ele>
        <time>2013-04-30T18:03:49Z</time>
      </trkpt>
      <trkpt lat="59.9640531" lon="17.7664938">
        <ele>35.7061</ele>
        <time>2013-04-30T18:03:50Z</time>
      </trkpt>
      <trkpt lat="59.9640614" lon="17.7666141">
        <ele>35.2255</ele>
        <time>2013-04-30T18:03:51Z</time>
      </trkpt>
      <trkpt lat="59.9640636" lon="17.7667188">
        <ele>36.1868</ele>
        <time>2013-04-30T18:03:52Z</time>
      </trkpt>
      <trkpt lat="59.9640683" lon="17.7668244">
        <ele>37.1481</ele>
        <time>2013-04-30T18:03:53Z</time>
      </trkpt>
      <trkpt lat="59.9640682" lon="17.7669532">
        <ele>37.6287</ele>
        <time>2013-04-30T18:03:54Z</time>
      </trkpt>
      <trkpt lat="59.9640639" lon="17.7670887">
        <ele>38.5901</ele>
        <time>2013-04-30T18:03:55Z</time>
      </trkpt>
      <trkpt lat="59.964055" lon="17.7672201">
        <ele>39.0707</ele>
        <time>2013-04-30T18:03:56Z</time>
      </trkpt>
      <trkpt lat="59.9640418" lon="17.7673434">
        <ele>39.5513</ele>
        <time>2013-04-30T18:03:57Z</time>
      </trkpt>
      <trkpt lat="59.9640257" lon="17.7674656">
        <ele>40.0321</ele>
        <time>2013-04-30T18:03:58Z</time>
      </trkpt>
      <trkpt lat="59.9640063" lon="17.7675858">
        <ele>40.0321</ele>
        <time>2013-04-30T18:03:59Z</time>
      </trkpt>
      <trkpt lat="59.9639848" lon="17.7677093">
        <ele>40.0321</ele>
        <time>2013-04-30T18:04:00Z</time>
      </trkpt>
      <trkpt lat="59.9639614" lon="17.7678371">
        <ele>40.5128</ele>
        <time>2013-04-30T18:04:01Z</time>
      </trkpt>
      <trkpt lat="59.9639367" lon="17.7679638">
        <ele>40.9934</ele>
        <time>2013-04-30T18:04:02Z</time>
      </trkpt>
      <trkpt lat="59.9639058" lon="17.7680934">
        <ele>40.9934</ele>
        <time>2013-04-30T18:04:03Z</time>
      </trkpt>
      <trkpt lat="59.9638723" lon="17.768228">
        <ele>40.9934</ele>
        <time>2013-04-30T18:04:04Z</time>
      </trkpt>
      <trkpt lat="59.9638345" lon="17.768364">
        <ele>40.5128</ele>
        <time>2013-04-30T18:04:05Z</time>
      </trkpt>
      <trkpt lat="59.9637931" lon="17.7685005">
        <ele>40.0321</ele>
        <time>2013-04-30T18:04:06Z</time>
      </trkpt>
      <trkpt lat="59.9637523" lon="17.7686382">
        <ele>40.0321</ele>
        <time>2013-04-30T18:04:07Z</time>
      </trkpt>
      <trkpt lat="59.9637129" lon="17.7687768">
        <ele>40.0321</ele>
        <time>2013-04-30T18:04:08Z</time>
      </trkpt>
      <trkpt lat="59.9636741" lon="17.7689136">
        <ele>40.0321</ele>
        <time>2013-04-30T18:04:09Z</time>
      </trkpt>
      <trkpt lat="59.9636361" lon="17.7690486">
        <ele>40.5128</ele>
        <time>2013-04-30T18:04:10Z</time>
      </trkpt>
      <trkpt lat="59.9635991" lon="17.769183">
        <ele>40.5128</ele>
        <time>2013-04-30T18:04:11Z</time>
      </trkpt>
      <trkpt lat="59.9635631" lon="17.769317">
        <ele>40.5128</ele>
        <time>2013-04-30T18:04:12Z</time>
      </trkpt>
      <trkpt lat="59.9635282" lon="17.7694501">
        <ele>40.9934</ele>
        <time>2013-04-30T18:04:13Z</time>
      </trkpt>
      <trkpt lat="59.9634969" lon="17.7695828">
        <ele>40.9934</ele>
        <time>2013-04-30T18:04:14Z</time>
      </trkpt>
      <trkpt lat="59.9634759" lon="17.769718">
        <ele>41.474</ele>
        <time>2013-04-30T18:04:15Z</time>
      </trkpt>
      <trkpt lat="59.9634614" lon="17.7698584">
        <ele>41.474</ele>
        <time>2013-04-30T18:04:16Z</time>
      </trkpt>
      <trkpt lat="59.963457" lon="17.7700028">
        <ele>41.474</ele>
        <time>2013-04-30T18:04:17Z</time>
      </trkpt>
      <trkpt lat="59.9634631" lon="17.7701515">
        <ele>42.4354</ele>
        <time>2013-04-30T18:04:18Z</time>
      </trkpt>
      <trkpt lat="59.9634707" lon="17.7702988">
        <ele>42.4354</ele>
        <time>2013-04-30T18:04:19Z</time>
      </trkpt>
      <trkpt lat="59.9634854" lon="17.7704647">
        <ele>41.9547</ele>
        <time>2013-04-30T18:04:20Z</time>
      </trkpt>
      <trkpt lat="59.963501" lon="17.7706266">
        <ele>41.9547</ele>
        <time>2013-04-30T18:04:21Z</time>
      </trkpt>
      <trkpt lat="59.9635186" lon="17.7707966">
        <ele>41.9547</ele>
        <time>2013-04-30T18:04:22Z</time>
      </trkpt>
      <trkpt lat="59.9635455" lon="17.7709594">
        <ele>41.9547</ele>
        <time>2013-04-30T18:04:23Z</time>
      </trkpt>
      <trkpt lat="59.963576" lon="17.7711212">
        <ele>41.474</ele>
        <time>2013-04-30T18:04:24Z</time>
      </trkpt>
      <trkpt lat="59.9636092" lon="17.7712825">
        <ele>40.9934</ele>
        <time>2013-04-30T18:04:25Z</time>
      </trkpt>
      <trkpt lat="59.963645" lon="17.7714402">
        <ele>40.5128</ele>
        <time>2013-04-30T18:04:26Z</time>
      </trkpt>
      <trkpt lat="59.9636802" lon="17.7715953">
        <ele>40.0321</ele>
        <time>2013-04-30T18:04:27Z</time>
      </trkpt>
      <trkpt lat="59.9637133" lon="17.7717501">
        <ele>39.5513</ele>
        <time>2013-04-30T18:04:28Z</time>
      </trkpt>
      <trkpt lat="59.9637473" lon="17.771906">
        <ele>39.5513</ele>
        <time>2013-04-30T18:04:29Z</time>
      </trkpt>
      <trkpt lat="59.9637816" lon="17.7720633">
        <ele>39.5513</ele>
        <time>2013-04-30T18:04:30Z</time>
      </trkpt>
      <trkpt lat="59.9638154" lon="17.7722236">
        <ele>39.0707</ele>
        <time>2013-04-30T18:04:31Z</time>
      </trkpt>
      <trkpt lat="59.9638474" lon="17.7723889">
        <ele>39.0707</ele>
        <time>2013-04-30T18:04:32Z</time>
      </trkpt>
      <trkpt lat="59.9638743" lon="17.7725582">
        <ele>38.5901</ele>
        <time>2013-04-30T18:04:33Z</time>
      </trkpt>
      <trkpt lat="59.9638944" lon="17.7727298">
        <ele>38.5901</ele>
        <time>2013-04-30T18:04:34Z</time>
      </trkpt>
      <trkpt lat="59.9639045" lon="17.772901">
        <ele>39.0707</ele>
        <time>2013-04-30T18:04:35Z</time>
      </trkpt>
      <trkpt lat="59.9639027" lon="17.7730685">
        <ele>39.0707</ele>
        <time>2013-04-30T18:04:36Z</time>
      </trkpt>
      <trkpt lat="59.9638904" lon="17.7732323">
        <ele>39.0707</ele>
        <time>2013-04-30T18:04:37Z</time>
      </trkpt>
      <trkpt lat="59.9638722" lon="17.7733951">
        <ele>39.0707</ele>
        <time>2013-04-30T18:04:38Z</time>
      </trkpt>
      <trkpt lat="59.9638502" lon="17.7735574">
        <ele>39.0707</ele>
        <time>2013-04-30T18:04:39Z</time>
      </trkpt>
      <trkpt lat="59.9638251" lon="17.7737153">
        <ele>38.5901</ele>
        <time>2013-04-30T18:04:40Z</time>
      </trkpt>
      <trkpt lat="59.9637972" lon="17.7738709">
        <ele>39.0707</ele>
        <time>2013-04-30T18:04:41Z</time>
      </trkpt>
      <trkpt lat="59.9637683" lon="17.7740238">
        <ele>39.0707</ele>
        <time>2013-04-30T18:04:42Z</time>
      </trkpt>
      <trkpt lat="59.9637418" lon="17.7741751">
        <ele>39.0707</ele>
        <time>2013-04-30T18:04:43Z</time>
      </trkpt>
      <trkpt lat="59.9637176" lon="17.7743265">
        <ele>39.0707</ele>
        <time>2013-04-30T18:04:44Z</time>
      </trkpt>
      <trkpt lat="59.9636943" lon="17.7744811">
        <ele>39.0707</ele>
        <time>2013-04-30T18:04:45Z</time>
      </trkpt>
      <trkpt lat="59.9636706" lon="17.7746375">
        <ele>39.0707</ele>
        <time>2013-04-30T18:04:46Z</time>
      </trkpt>
      <trkpt lat="59.9636447" lon="17.7747936">
        <ele>39.0707</ele>
        <time>2013-04-30T18:04:47Z</time>
      </trkpt>
      <trkpt lat="59.9636142" lon="17.7749477">
        <ele>38.5901</ele>
        <time>2013-04-30T18:04:48Z</time>
      </trkpt>
      <trkpt lat="59.963579" lon="17.7750992">
        <ele>38.5901</ele>
        <time>2013-04-30T18:04:49Z</time>
      </trkpt>
      <trkpt lat="59.9635398" lon="17.7752473">
        <ele>38.5901</ele>
        <time>2013-04-30T18:04:50Z</time>
      </trkpt>
      <trkpt lat="59.9634963" lon="17.7753902">
        <ele>38.5901</ele>
        <time>2013-04-30T18:04:51Z</time>
      </trkpt>
      <trkpt lat="59.9634496" lon="17.7755271">
        <ele>38.5901</ele>
        <time>2013-04-30T18:04:52Z</time>
      </trkpt>
      <trkpt lat="59.9634039" lon="17.7756611">
        <ele>38.5901</ele>
        <time>2013-04-30T18:04:53Z</time>
      </trkpt>
      <trkpt lat="59.9633598" lon="17.7757943">
        <ele>39.0707</ele>
        <time>2013-04-30T18:04:54Z</time>
      </trkpt>
      <trkpt lat="59.9633186" lon="17.7759256">
        <ele>39.0707</ele>
        <time>2013-04-30T18:04:55Z</time>
      </trkpt>
      <trkpt lat="59.9632787" lon="17.7760564">
        <ele>39.5513</ele>
        <time>2013-04-30T18:04:56Z</time>
      </trkpt>
      <trkpt lat="59.9632398" lon="17.7761869">
        <ele>39.5513</ele>
        <time>2013-04-30T18:04:57Z</time>
      </trkpt>
      <trkpt lat="59.9632018" lon="17.776317">
        <ele>40.0321</ele>
        <time>2013-04-30T18:04:58Z</time>
      </trkpt>
      <trkpt lat="59.9631615" lon="17.7764496">
        <ele>39.5513</ele>
        <time>2013-04-30T18:04:59Z</time>
      </trkpt>
      <trkpt lat="59.9631216" lon="17.7765831">
        <ele>39.5513</ele>
        <time>2013-04-30T18:05:00Z</time>
      </trkpt>
      <trkpt lat="59.9630809" lon="17.7767185">
        <ele>39.5513</ele>
        <time>2013-04-30T18:05:01Z</time>
      </trkpt>
      <trkpt lat="59.9630384" lon="17.7768562">
        <ele>39.0707</ele>
        <time>2013-04-30T18:05:02Z</time>
      </trkpt>
      <trkpt lat="59.9629936" lon="17.7769908">
        <ele>39.0707</ele>
        <time>2013-04-30T18:05:03Z</time>
      </trkpt>
      <trkpt lat="59.962944" lon="17.777121">
        <ele>39.0707</ele>
        <time>2013-04-30T18:05:04Z</time>
      </trkpt>
      <trkpt lat="59.96289" lon="17.7772461">
        <ele>39.0707</ele>
        <time>2013-04-30T18:05:05Z</time>
      </trkpt>
      <trkpt lat="59.9628332" lon="17.7773664">
        <ele>38.5901</ele>
        <time>2013-04-30T18:05:06Z</time>
      </trkpt>
      <trkpt lat="59.9627752" lon="17.7774844">
        <ele>38.5901</ele>
        <time>2013-04-30T18:05:07Z</time>
      </trkpt>
      <trkpt lat="59.9627177" lon="17.7776027">
        <ele>38.5901</ele>
        <time>2013-04-30T18:05:08Z</time>
      </trkpt>
      <trkpt lat="59.9626606" lon="17.7777218">
        <ele>38.5901</ele>
        <time>2013-04-30T18:05:09Z</time>
      </trkpt>
      <trkpt lat="59.962603" lon="17.7778407">
        <ele>38.5901</ele>
        <time>2013-04-30T18:05:10Z</time>
      </trkpt>
      <trkpt lat="59.9625453" lon="17.7779615">
        <ele>38.5901</ele>
        <time>2013-04-30T18:05:11Z</time>
      </trkpt>
      <trkpt lat="59.962489" lon="17.7780853">
        <ele>38.1094</ele>
        <time>2013-04-30T18:05:12Z</time>
      </trkpt>
      <trkpt lat="59.9624333" lon="17.7782098">
        <ele>38.1094</ele>
        <time>2013-04-30T18:05:13Z</time>
      </trkpt>
      <trkpt lat="59.9623779" lon="17.7783338">
        <ele>38.1094</ele>
        <time>2013-04-30T18:05:14Z</time>
      </trkpt>
      <trkpt lat="59.9623239" lon="17.7784579">
        <ele>38.1094</ele>
        <time>2013-04-30T18:05:15Z</time>
      </trkpt>
      <trkpt lat="59.9622708" lon="17.7785812">
        <ele>38.1094</ele>
        <time>2013-04-30T18:05:16Z</time>
      </trkpt>
      <trkpt lat="59.9622183" lon="17.7787044">
        <ele>38.1094</ele>
        <time>2013-04-30T18:05:17Z</time>
      </trkpt>
      <trkpt lat="59.9621665" lon="17.7788277">
        <ele>38.1094</ele>
        <time>2013-04-30T18:05:18Z</time>
      </trkpt>
      <trkpt lat="59.9621147" lon="17.77895">
        <ele>38.1094</ele>
        <time>2013-04-30T18:05:19Z</time>
      </trkpt>
      <trkpt lat="59.9620615" lon="17.7790695">
        <ele>38.1094</ele>
        <time>2013-04-30T18:05:20Z</time>
      </trkpt>
      <trkpt lat="59.9620076" lon="17.7791865">
        <ele>38.5901</ele>
        <time>2013-04-30T18:05:21Z</time>
      </trkpt>
      <trkpt lat="59.9619539" lon="17.7793022">
        <ele>38.5901</ele>
        <time>2013-04-30T18:05:22Z</time>
      </trkpt>
      <trkpt lat="59.9619003" lon="17.7794182">
        <ele>38.5901</ele>
        <time>2013-04-30T18:05:23Z</time>
      </trkpt>
      <trkpt lat="59.9618479" lon="17.7795358">
        <ele>38.5901</ele>
        <time>2013-04-30T18:05:24Z</time>
      </trkpt>
      <trkpt lat="59.9617966" lon="17.7796549">
        <ele>38.5901</ele>
        <time>2013-04-30T18:05:25Z</time>
      </trkpt>
      <trkpt lat="59.9617467" lon="17.7797763">
        <ele>38.5901</ele>
        <time>2013-04-30T18:05:26Z</time>
      </trkpt>
      <trkpt lat="59.9616968" lon="17.7798998">
        <ele>38.5901</ele>
        <time>2013-04-30T18:05:27Z</time>
      </trkpt>
      <trkpt lat="59.9616445" lon="17.7800213">
        <ele>38.1094</ele>
        <time>2013-04-30T18:05:28Z</time>
      </trkpt>
      <trkpt lat="59.9615896" lon="17.7801402">
        <ele>38.1094</ele>
        <time>2013-04-30T18:05:29Z</time>
      </trkpt>
      <trkpt lat="59.961533" lon="17.7802569">
        <ele>38.1094</ele>
        <time>2013-04-30T18:05:30Z</time>
      </trkpt>
      <trkpt lat="59.9614743" lon="17.7803703">
        <ele>38.1094</ele>
        <time>2013-04-30T18:05:31Z</time>
      </trkpt>
      <trkpt lat="59.961414" lon="17.7804803">
        <ele>38.1094</ele>
        <time>2013-04-30T18:05:32Z</time>
      </trkpt>
      <trkpt lat="59.9613537" lon="17.7805905">
        <ele>38.1094</ele>
        <time>2013-04-30T18:05:33Z</time>
      </trkpt>
      <trkpt lat="59.9612931" lon="17.7807024">
        <ele>38.1094</ele>
        <time>2013-04-30T18:05:34Z</time>
      </trkpt>
      <trkpt lat="59.961232" lon="17.7808165">
        <ele>38.1094</ele>
        <time>2013-04-30T18:05:35Z</time>
      </trkpt>
      <trkpt lat="59.96117" lon="17.7809325">
        <ele>38.1094</ele>
        <time>2013-04-30T18:05:36Z</time>
      </trkpt>
      <trkpt lat="59.9611072" lon="17.7810474">
        <ele>38.1094</ele>
        <time>2013-04-30T18:05:37Z</time>
      </trkpt>
      <trkpt lat="59.9610436" lon="17.7811623">
        <ele>38.1094</ele>
        <time>2013-04-30T18:05:38Z</time>
      </trkpt>
      <trkpt lat="59.9609804" lon="17.7812773">
        <ele>38.1094</ele>
        <time>2013-04-30T18:05:39Z</time>
      </trkpt>
      <trkpt lat="59.960917" lon="17.7813902">
        <ele>38.1094</ele>
        <time>2013-04-30T18:05:40Z</time>
      </trkpt>
      <trkpt lat="59.9608532" lon="17.7815022">
        <ele>37.6287</ele>
        <time>2013-04-30T18:05:41Z</time>
      </trkpt>
      <trkpt lat="59.9607902" lon="17.7816146">
        <ele>37.6287</ele>
        <time>2013-04-30T18:05:42Z</time>
      </trkpt>
      <trkpt lat="59.9607285" lon="17.7817265">
        <ele>38.1094</ele>
        <time>2013-04-30T18:05:43Z</time>
      </trkpt>
      <trkpt lat="59.9606683" lon="17.7818385">
        <ele>38.1094</ele>
        <time>2013-04-30T18:05:44Z</time>
      </trkpt>
      <trkpt lat="59.960611" lon="17.7819545">
        <ele>38.1094</ele>
        <time>2013-04-30T18:05:45Z</time>
      </trkpt>
      <trkpt lat="59.960559" lon="17.7820767">
        <ele>38.1094</ele>
        <time>2013-04-30T18:05:46Z</time>
      </trkpt>
      <trkpt lat="59.9605125" lon="17.7822037">
        <ele>38.5901</ele>
        <time>2013-04-30T18:05:47Z</time>
      </trkpt>
      <trkpt lat="59.9604691" lon="17.7823319">
        <ele>38.5901</ele>
        <time>2013-04-30T18:05:48Z</time>
      </trkpt>
      <trkpt lat="59.9604279" lon="17.7824591">
        <ele>38.5901</ele>
        <time>2013-04-30T18:05:49Z</time>
      </trkpt>
      <trkpt lat="59.9603882" lon="17.7825854">
        <ele>39.0707</ele>
        <time>2013-04-30T18:05:50Z</time>
      </trkpt>
      <trkpt lat="59.9603481" lon="17.7827088">
        <ele>39.0707</ele>
        <time>2013-04-30T18:05:51Z</time>
      </trkpt>
      <trkpt lat="59.960307" lon="17.7828309">
        <ele>39.0707</ele>
        <time>2013-04-30T18:05:52Z</time>
      </trkpt>
      <trkpt lat="59.9602663" lon="17.7829536">
        <ele>39.0707</ele>
        <time>2013-04-30T18:05:53Z</time>
      </trkpt>
      <trkpt lat="59.9602246" lon="17.7830769">
        <ele>38.5901</ele>
        <time>2013-04-30T18:05:54Z</time>
      </trkpt>
      <trkpt lat="59.9601821" lon="17.7832023">
        <ele>38.5901</ele>
        <time>2013-04-30T18:05:55Z</time>
      </trkpt>
      <trkpt lat="59.9601385" lon="17.7833283">
        <ele>38.5901</ele>
        <time>2013-04-30T18:05:56Z</time>
      </trkpt>
      <trkpt lat="59.960094" lon="17.7834551">
        <ele>38.5901</ele>
        <time>2013-04-30T18:05:57Z</time>
      </trkpt>
      <trkpt lat="59.9600501" lon="17.7835842">
        <ele>38.5901</ele>
        <time>2013-04-30T18:05:58Z</time>
      </trkpt>
      <trkpt lat="59.9600054" lon="17.7837124">
        <ele>38.5901</ele>
        <time>2013-04-30T18:05:59Z</time>
      </trkpt>
      <trkpt lat="59.9599573" lon="17.7838377">
        <ele>38.5901</ele>
        <time>2013-04-30T18:06:00Z</time>
      </trkpt>
      <trkpt lat="59.9599063" lon="17.7839601">
        <ele>38.5901</ele>
        <time>2013-04-30T18:06:01Z</time>
      </trkpt>
      <trkpt lat="59.9598526" lon="17.7840798">
        <ele>38.5901</ele>
        <time>2013-04-30T18:06:02Z</time>
      </trkpt>
      <trkpt lat="59.9597957" lon="17.7841939">
        <ele>38.5901</ele>
        <time>2013-04-30T18:06:03Z</time>
      </trkpt>
      <trkpt lat="59.959736" lon="17.7843011">
        <ele>38.5901</ele>
        <time>2013-04-30T18:06:04Z</time>
      </trkpt>
      <trkpt lat="59.9596758" lon="17.7844056">
        <ele>38.5901</ele>
        <time>2013-04-30T18:06:05Z</time>
      </trkpt>
      <trkpt lat="59.9596157" lon="17.7845091">
        <ele>39.0707</ele>
        <time>2013-04-30T18:06:06Z</time>
      </trkpt>
      <trkpt lat="59.9595548" lon="17.7846091">
        <ele>39.0707</ele>
        <time>2013-04-30T18:06:07Z</time>
      </trkpt>
      <trkpt lat="59.9594946" lon="17.7847056">
        <ele>39.0707</ele>
        <time>2013-04-30T18:06:08Z</time>
      </trkpt>
      <trkpt lat="59.9594341" lon="17.7847987">
        <ele>39.0707</ele>
        <time>2013-04-30T18:06:09Z</time>
      </trkpt>
      <trkpt lat="59.9593724" lon="17.7848915">
        <ele>39.0707</ele>
        <time>2013-04-30T18:06:10Z</time>
      </trkpt>
      <trkpt lat="59.9593079" lon="17.7849822">
        <ele>39.0707</ele>
        <time>2013-04-30T18:06:11Z</time>
      </trkpt>
      <trkpt lat="59.9592394" lon="17.7850638">
        <ele>39.0707</ele>
        <time>2013-04-30T18:06:12Z</time>
      </trkpt>
      <trkpt lat="59.9591671" lon="17.785136">
        <ele>39.0707</ele>
        <time>2013-04-30T18:06:13Z</time>
      </trkpt>
      <trkpt lat="59.9590914" lon="17.7852023">
        <ele>39.0707</ele>
        <time>2013-04-30T18:06:14Z</time>
      </trkpt>
      <trkpt lat="59.9590155" lon="17.7852643">
        <ele>38.5901</ele>
        <time>2013-04-30T18:06:15Z</time>
      </trkpt>
      <trkpt lat="59.9589399" lon="17.785322">
        <ele>38.5901</ele>
        <time>2013-04-30T18:06:16Z</time>
      </trkpt>
      <trkpt lat="59.9588658" lon="17.7853772">
        <ele>39.0707</ele>
        <time>2013-04-30T18:06:17Z</time>
      </trkpt>
      <trkpt lat="59.9587948" lon="17.7854355">
        <ele>39.0707</ele>
        <time>2013-04-30T18:06:18Z</time>
      </trkpt>
      <trkpt lat="59.9587263" lon="17.7854986">
        <ele>38.5901</ele>
        <time>2013-04-30T18:06:19Z</time>
      </trkpt>
      <trkpt lat="59.958659" lon="17.7855628">
        <ele>38.5901</ele>
        <time>2013-04-30T18:06:20Z</time>
      </trkpt>
      <trkpt lat="59.9585916" lon="17.7856313">
        <ele>38.5901</ele>
        <time>2013-04-30T18:06:21Z</time>
      </trkpt>
      <trkpt lat="59.9585234" lon="17.7857028">
        <ele>38.5901</ele>
        <time>2013-04-30T18:06:22Z</time>
      </trkpt>
      <trkpt lat="59.9584558" lon="17.7857774">
        <ele>38.5901</ele>
        <time>2013-04-30T18:06:23Z</time>
      </trkpt>
      <trkpt lat="59.9583888" lon="17.7858556">
        <ele>38.1094</ele>
        <time>2013-04-30T18:06:24Z</time>
      </trkpt>
      <trkpt lat="59.9583213" lon="17.7859365">
        <ele>38.1094</ele>
        <time>2013-04-30T18:06:25Z</time>
      </trkpt>
      <trkpt lat="59.9582535" lon="17.786017">
        <ele>37.6287</ele>
        <time>2013-04-30T18:06:26Z</time>
      </trkpt>
      <trkpt lat="59.9581851" lon="17.786097">
        <ele>37.6287</ele>
        <time>2013-04-30T18:06:27Z</time>
      </trkpt>
      <trkpt lat="59.9581176" lon="17.7861781">
        <ele>37.1481</ele>
        <time>2013-04-30T18:06:28Z</time>
      </trkpt>
      <trkpt lat="59.9580504" lon="17.7862599">
        <ele>37.1481</ele>
        <time>2013-04-30T18:06:29Z</time>
      </trkpt>
      <trkpt lat="59.9579831" lon="17.7863418">
        <ele>37.1481</ele>
        <time>2013-04-30T18:06:30Z</time>
      </trkpt>
      <trkpt lat="59.9579157" lon="17.7864264">
        <ele>37.1481</ele>
        <time>2013-04-30T18:06:31Z</time>
      </trkpt>
      <trkpt lat="59.9578504" lon="17.7865184">
        <ele>37.1481</ele>
        <time>2013-04-30T18:06:32Z</time>
      </trkpt>
      <trkpt lat="59.9577889" lon="17.7866205">
        <ele>37.1481</ele>
        <time>2013-04-30T18:06:33Z</time>
      </trkpt>
      <trkpt lat="59.9577365" lon="17.7867381">
        <ele>37.1481</ele>
        <time>2013-04-30T18:06:34Z</time>
      </trkpt>
      <trkpt lat="59.9576956" lon="17.7868718">
        <ele>37.6287</ele>
        <time>2013-04-30T18:06:35Z</time>
      </trkpt>
      <trkpt lat="59.9576645" lon="17.7870137">
        <ele>37.6287</ele>
        <time>2013-04-30T18:06:36Z</time>
      </trkpt>
      <trkpt lat="59.9576375" lon="17.7871594">
        <ele>38.1094</ele>
        <time>2013-04-30T18:06:37Z</time>
      </trkpt>
      <trkpt lat="59.9576112" lon="17.787309">
        <ele>38.1094</ele>
        <time>2013-04-30T18:06:38Z</time>
      </trkpt>
      <trkpt lat="59.9575816" lon="17.7874577">
        <ele>37.6287</ele>
        <time>2013-04-30T18:06:39Z</time>
      </trkpt>
      <trkpt lat="59.957548" lon="17.7876042">
        <ele>38.1094</ele>
        <time>2013-04-30T18:06:40Z</time>
      </trkpt>
      <trkpt lat="59.9575121" lon="17.7877497">
        <ele>38.1094</ele>
        <time>2013-04-30T18:06:41Z</time>
      </trkpt>
      <trkpt lat="59.9574766" lon="17.7878913">
        <ele>38.5901</ele>
        <time>2013-04-30T18:06:42Z</time>
      </trkpt>
      <trkpt lat="59.9574388" lon="17.7880284">
        <ele>39.0707</ele>
        <time>2013-04-30T18:06:43Z</time>
      </trkpt>
      <trkpt lat="59.9573998" lon="17.7881642">
        <ele>39.0707</ele>
        <time>2013-04-30T18:06:44Z</time>
      </trkpt>
      <trkpt lat="59.9573604" lon="17.7883025">
        <ele>39.0707</ele>
        <time>2013-04-30T18:06:45Z</time>
      </trkpt>
      <trkpt lat="59.9573211" lon="17.78844">
        <ele>39.0707</ele>
        <time>2013-04-30T18:06:46Z</time>
      </trkpt>
      <trkpt lat="59.9572776" lon="17.7885736">
        <ele>39.0707</ele>
        <time>2013-04-30T18:06:47Z</time>
      </trkpt>
      <trkpt lat="59.9572295" lon="17.7887055">
        <ele>39.0707</ele>
        <time>2013-04-30T18:06:48Z</time>
      </trkpt>
      <trkpt lat="59.9571754" lon="17.7888316">
        <ele>39.0707</ele>
        <time>2013-04-30T18:06:49Z</time>
      </trkpt>
      <trkpt lat="59.9571162" lon="17.7889533">
        <ele>39.0707</ele>
        <time>2013-04-30T18:06:50Z</time>
      </trkpt>
      <trkpt lat="59.9570516" lon="17.7890689">
        <ele>38.5901</ele>
        <time>2013-04-30T18:06:51Z</time>
      </trkpt>
      <trkpt lat="59.9569817" lon="17.7891738">
        <ele>38.5901</ele>
        <time>2013-04-30T18:06:52Z</time>
      </trkpt>
      <trkpt lat="59.9569106" lon="17.7892699">
        <ele>38.5901</ele>
        <time>2013-04-30T18:06:53Z</time>
      </trkpt>
      <trkpt lat="59.9568414" lon="17.7893609">
        <ele>38.5901</ele>
        <time>2013-04-30T18:06:54Z</time>
      </trkpt>
      <trkpt lat="59.9567756" lon="17.7894543">
        <ele>38.5901</ele>
        <time>2013-04-30T18:06:55Z</time>
      </trkpt>
      <trkpt lat="59.956713" lon="17.789555">
        <ele>38.5901</ele>
        <time>2013-04-30T18:06:56Z</time>
      </trkpt>
      <trkpt lat="59.9566559" lon="17.7896674">
        <ele>38.5901</ele>
        <time>2013-04-30T18:06:57Z</time>
      </trkpt>
      <trkpt lat="59.956613" lon="17.7898002">
        <ele>38.5901</ele>
        <time>2013-04-30T18:06:58Z</time>
      </trkpt>
      <trkpt lat="59.9565891" lon="17.7899507">
        <ele>38.5901</ele>
        <time>2013-04-30T18:06:59Z</time>
      </trkpt>
      <trkpt lat="59.9565797" lon="17.7901131">
        <ele>38.1094</ele>
        <time>2013-04-30T18:07:00Z</time>
      </trkpt>
      <trkpt lat="59.956586" lon="17.7902742">
        <ele>38.1094</ele>
        <time>2013-04-30T18:07:01Z</time>
      </trkpt>
      <trkpt lat="59.9566072" lon="17.7904389">
        <ele>37.6287</ele>
        <time>2013-04-30T18:07:02Z</time>
      </trkpt>
      <trkpt lat="59.9566358" lon="17.7906019">
        <ele>37.6287</ele>
        <time>2013-04-30T18:07:03Z</time>
      </trkpt>
      <trkpt lat="59.9566672" lon="17.7907601">
        <ele>37.6287</ele>
        <time>2013-04-30T18:07:04Z</time>
      </trkpt>
      <trkpt lat="59.9566979" lon="17.7909189">
        <ele>37.6287</ele>
        <time>2013-04-30T18:07:05Z</time>
      </trkpt>
      <trkpt lat="59.9567223" lon="17.7910774">
        <ele>37.1481</ele>
        <time>2013-04-30T18:07:06Z</time>
      </trkpt>
      <trkpt lat="59.9567366" lon="17.7912356">
        <ele>36.6675</ele>
        <time>2013-04-30T18:07:07Z</time>
      </trkpt>
      <trkpt lat="59.9567378" lon="17.791397">
        <ele>36.1868</ele>
        <time>2013-04-30T18:07:08Z</time>
      </trkpt>
      <trkpt lat="59.9567269" lon="17.791559">
        <ele>36.1868</ele>
        <time>2013-04-30T18:07:09Z</time>
      </trkpt>
      <trkpt lat="59.9567067" lon="17.7917169">
        <ele>36.1868</ele>
        <time>2013-04-30T18:07:10Z</time>
      </trkpt>
      <trkpt lat="59.9566818" lon="17.7918759">
        <ele>36.1868</ele>
        <time>2013-04-30T18:07:11Z</time>
      </trkpt>
      <trkpt lat="59.9566554" lon="17.7920311">
        <ele>36.1868</ele>
        <time>2013-04-30T18:07:12Z</time>
      </trkpt>
      <trkpt lat="59.956631" lon="17.7921891">
        <ele>36.6675</ele>
        <time>2013-04-30T18:07:13Z</time>
      </trkpt>
      <trkpt lat="59.956606" lon="17.7923447">
        <ele>36.1868</ele>
        <time>2013-04-30T18:07:14Z</time>
      </trkpt>
      <trkpt lat="59.9565803" lon="17.792499">
        <ele>36.1868</ele>
        <time>2013-04-30T18:07:15Z</time>
      </trkpt>
      <trkpt lat="59.9565539" lon="17.7926532">
        <ele>36.1868</ele>
        <time>2013-04-30T18:07:16Z</time>
      </trkpt>
      <trkpt lat="59.9565255" lon="17.7928088">
        <ele>35.7061</ele>
        <time>2013-04-30T18:07:17Z</time>
      </trkpt>
      <trkpt lat="59.9564964" lon="17.7929647">
        <ele>35.7061</ele>
        <time>2013-04-30T18:07:18Z</time>
      </trkpt>
      <trkpt lat="59.9564669" lon="17.7931204">
        <ele>35.2255</ele>
        <time>2013-04-30T18:07:19Z</time>
      </trkpt>
      <trkpt lat="59.9564366" lon="17.793273">
        <ele>35.2255</ele>
        <time>2013-04-30T18:07:20Z</time>
      </trkpt>
      <trkpt lat="59.9564032" lon="17.793429">
        <ele>34.7449</ele>
        <time>2013-04-30T18:07:21Z</time>
      </trkpt>
      <trkpt lat="59.956368" lon="17.7935884">
        <ele>34.7449</ele>
        <time>2013-04-30T18:07:22Z</time>
      </trkpt>
      <trkpt lat="59.9563327" lon="17.7937506">
        <ele>34.2642</ele>
        <time>2013-04-30T18:07:23Z</time>
      </trkpt>
      <trkpt lat="59.9562975" lon="17.7939166">
        <ele>33.7834</ele>
        <time>2013-04-30T18:07:24Z</time>
      </trkpt>
      <trkpt lat="59.9562613" lon="17.7940841">
        <ele>33.7834</ele>
        <time>2013-04-30T18:07:25Z</time>
      </trkpt>
      <trkpt lat="59.9562239" lon="17.7942515">
        <ele>33.7834</ele>
        <time>2013-04-30T18:07:26Z</time>
      </trkpt>
      <trkpt lat="59.9561849" lon="17.7944184">
        <ele>33.3029</ele>
        <time>2013-04-30T18:07:27Z</time>
      </trkpt>
      <trkpt lat="59.956144" lon="17.7945855">
        <ele>33.3029</ele>
        <time>2013-04-30T18:07:28Z</time>
      </trkpt>
      <trkpt lat="59.9561022" lon="17.7947508">
        <ele>33.3029</ele>
        <time>2013-04-30T18:07:29Z</time>
      </trkpt>
      <trkpt lat="59.9560607" lon="17.7949151">
        <ele>33.3029</ele>
        <time>2013-04-30T18:07:30Z</time>
      </trkpt>
      <trkpt lat="59.9560193" lon="17.7950783">
        <ele>33.3029</ele>
        <time>2013-04-30T18:07:31Z</time>
      </trkpt>
      <trkpt lat="59.9559788" lon="17.7952406">
        <ele>33.3029</ele>
        <time>2013-04-30T18:07:32Z</time>
      </trkpt>
      <trkpt lat="59.9559419" lon="17.7954031">
        <ele>33.3029</ele>
        <time>2013-04-30T18:07:33Z</time>
      </trkpt>
      <trkpt lat="59.9559088" lon="17.7955676">
        <ele>33.3029</ele>
        <time>2013-04-30T18:07:34Z</time>
      </trkpt>
      <trkpt lat="59.9558779" lon="17.7957345">
        <ele>32.8223</ele>
        <time>2013-04-30T18:07:35Z</time>
      </trkpt>
      <trkpt lat="59.9558499" lon="17.7959047">
        <ele>32.8223</ele>
        <time>2013-04-30T18:07:36Z</time>
      </trkpt>
      <trkpt lat="59.9558229" lon="17.796078">
        <ele>32.8223</ele>
        <time>2013-04-30T18:07:37Z</time>
      </trkpt>
      <trkpt lat="59.955795" lon="17.7962524">
        <ele>32.8223</ele>
        <time>2013-04-30T18:07:38Z</time>
      </trkpt>
      <trkpt lat="59.955764" lon="17.796425">
        <ele>32.8223</ele>
        <time>2013-04-30T18:07:39Z</time>
      </trkpt>
      <trkpt lat="59.9557313" lon="17.7965975">
        <ele>32.8223</ele>
        <time>2013-04-30T18:07:40Z</time>
      </trkpt>
      <trkpt lat="59.9556961" lon="17.7967665">
        <ele>32.8223</ele>
        <time>2013-04-30T18:07:41Z</time>
      </trkpt>
      <trkpt lat="59.9556588" lon="17.7969333">
        <ele>32.8223</ele>
        <time>2013-04-30T18:07:42Z</time>
      </trkpt>
      <trkpt lat="59.9556192" lon="17.7970965">
        <ele>32.8223</ele>
        <time>2013-04-30T18:07:43Z</time>
      </trkpt>
      <trkpt lat="59.9555773" lon="17.7972514">
        <ele>33.3029</ele>
        <time>2013-04-30T18:07:44Z</time>
      </trkpt>
      <trkpt lat="59.9555346" lon="17.7974029">
        <ele>33.3029</ele>
        <time>2013-04-30T18:07:45Z</time>
      </trkpt>
      <trkpt lat="59.955492" lon="17.7975501">
        <ele>33.7834</ele>
        <time>2013-04-30T18:07:46Z</time>
      </trkpt>
      <trkpt lat="59.9554484" lon="17.7976931">
        <ele>33.7834</ele>
        <time>2013-04-30T18:07:47Z</time>
      </trkpt>
      <trkpt lat="59.9554045" lon="17.7978329">
        <ele>34.2642</ele>
        <time>2013-04-30T18:07:48Z</time>
      </trkpt>
      <trkpt lat="59.955362" lon="17.7979708">
        <ele>34.7449</ele>
        <time>2013-04-30T18:07:49Z</time>
      </trkpt>
      <trkpt lat="59.9553209" lon="17.7981073">
        <ele>34.7449</ele>
        <time>2013-04-30T18:07:50Z</time>
      </trkpt>
      <trkpt lat="59.9552795" lon="17.7982416">
        <ele>35.2255</ele>
        <time>2013-04-30T18:07:51Z</time>
      </trkpt>
      <trkpt lat="59.9552357" lon="17.7983722">
        <ele>35.2255</ele>
        <time>2013-04-30T18:07:52Z</time>
      </trkpt>
      <trkpt lat="59.9551888" lon="17.7984987">
        <ele>35.7061</ele>
        <time>2013-04-30T18:07:53Z</time>
      </trkpt>
      <trkpt lat="59.9551397" lon="17.7986196">
        <ele>35.7061</ele>
        <time>2013-04-30T18:07:54Z</time>
      </trkpt>
      <trkpt lat="59.9550894" lon="17.7987337">
        <ele>36.1868</ele>
        <time>2013-04-30T18:07:55Z</time>
      </trkpt>
      <trkpt lat="59.9550366" lon="17.7988411">
        <ele>36.1868</ele>
        <time>2013-04-30T18:07:56Z</time>
      </trkpt>
      <trkpt lat="59.9549818" lon="17.7989446">
        <ele>36.1868</ele>
        <time>2013-04-30T18:07:57Z</time>
      </trkpt>
      <trkpt lat="59.9549259" lon="17.7990477">
        <ele>36.1868</ele>
        <time>2013-04-30T18:07:58Z</time>
      </trkpt>
      <trkpt lat="59.9548693" lon="17.7991534">
        <ele>36.1868</ele>
        <time>2013-04-30T18:07:59Z</time>
      </trkpt>
      <trkpt lat="59.9548119" lon="17.7992626">
        <ele>36.1868</ele>
        <time>2013-04-30T18:08:00Z</time>
      </trkpt>
      <trkpt lat="59.9547532" lon="17.7993775">
        <ele>36.1868</ele>
        <time>2013-04-30T18:08:01Z</time>
      </trkpt>
      <trkpt lat="59.9546952" lon="17.7994953">
        <ele>35.7061</ele>
        <time>2013-04-30T18:08:02Z</time>
      </trkpt>
      <trkpt lat="59.9546377" lon="17.7996192">
        <ele>35.7061</ele>
        <time>2013-04-30T18:08:03Z</time>
      </trkpt>
      <trkpt lat="59.9545812" lon="17.799747">
        <ele>35.7061</ele>
        <time>2013-04-30T18:08:04Z</time>
      </trkpt>
      <trkpt lat="59.9545258" lon="17.7998761">
        <ele>35.7061</ele>
        <time>2013-04-30T18:08:05Z</time>
      </trkpt>
      <trkpt lat="59.9544708" lon="17.800004">
        <ele>35.7061</ele>
        <time>2013-04-30T18:08:06Z</time>
      </trkpt>
      <trkpt lat="59.9544169" lon="17.8001302">
        <ele>35.7061</ele>
        <time>2013-04-30T18:08:07Z</time>
      </trkpt>
      <trkpt lat="59.9543642" lon="17.8002561">
        <ele>35.7061</ele>
        <time>2013-04-30T18:08:08Z</time>
      </trkpt>
      <trkpt lat="59.9543145" lon="17.8003832">
        <ele>35.7061</ele>
        <time>2013-04-30T18:08:09Z</time>
      </trkpt>
      <trkpt lat="59.9542648" lon="17.800511">
        <ele>35.7061</ele>
        <time>2013-04-30T18:08:10Z</time>
      </trkpt>
      <trkpt lat="59.9542152" lon="17.8006378">
        <ele>36.1868</ele>
        <time>2013-04-30T18:08:11Z</time>
      </trkpt>
      <trkpt lat="59.9541659" lon="17.8007622">
        <ele>36.1868</ele>
        <time>2013-04-30T18:08:12Z</time>
      </trkpt>
      <trkpt lat="59.9541187" lon="17.8008841">
        <ele>36.1868</ele>
        <time>2013-04-30T18:08:13Z</time>
      </trkpt>
      <trkpt lat="59.9540695" lon="17.8009985">
        <ele>36.1868</ele>
        <time>2013-04-30T18:08:14Z</time>
      </trkpt>
      <trkpt lat="59.9540194" lon="17.801113">
        <ele>36.6675</ele>
        <time>2013-04-30T18:08:15Z</time>
      </trkpt>
      <trkpt lat="59.9539715" lon="17.8012314">
        <ele>36.6675</ele>
        <time>2013-04-30T18:08:16Z</time>
      </trkpt>
      <trkpt lat="59.9539251" lon="17.8013535">
        <ele>37.6287</ele>
        <time>2013-04-30T18:08:17Z</time>
      </trkpt>
      <trkpt lat="59.9538789" lon="17.8014772">
        <ele>37.6287</ele>
        <time>2013-04-30T18:08:18Z</time>
      </trkpt>
      <trkpt lat="59.9538331" lon="17.8015978">
        <ele>38.1094</ele>
        <time>2013-04-30T18:08:19Z</time>
      </trkpt>
      <trkpt lat="59.9537888" lon="17.8017025">
        <ele>37.6287</ele>
        <time>2013-04-30T18:08:20Z</time>
      </trkpt>
      <trkpt lat="59.9537515" lon="17.8018113">
        <ele>37.6287</ele>
        <time>2013-04-30T18:08:21Z</time>
      </trkpt>
      <trkpt lat="59.9537245" lon="17.8019397">
        <ele>38.1094</ele>
        <time>2013-04-30T18:08:22Z</time>
      </trkpt>
      <trkpt lat="59.9536986" lon="17.8020746">
        <ele>39.0707</ele>
        <time>2013-04-30T18:08:23Z</time>
      </trkpt>
      <trkpt lat="59.9536727" lon="17.8022065">
        <ele>39.5513</ele>
        <time>2013-04-30T18:08:24Z</time>
      </trkpt>
      <trkpt lat="59.9536442" lon="17.8023319">
        <ele>39.5513</ele>
        <time>2013-04-30T18:08:25Z</time>
      </trkpt>
      <trkpt lat="59.9536132" lon="17.8024573">
        <ele>39.5513</ele>
        <time>2013-04-30T18:08:26Z</time>
      </trkpt>
      <trkpt lat="59.9535831" lon="17.8025831">
        <ele>39.5513</ele>
        <time>2013-04-30T18:08:27Z</time>
      </trkpt>
      <trkpt lat="59.9535531" lon="17.8027078">
        <ele>39.0707</ele>
        <time>2013-04-30T18:08:28Z</time>
      </trkpt>
      <trkpt lat="59.953522" lon="17.8028342">
        <ele>38.5901</ele>
        <time>2013-04-30T18:08:29Z</time>
      </trkpt>
      <trkpt lat="59.9534914" lon="17.8029639">
        <ele>38.5901</ele>
        <time>2013-04-30T18:08:30Z</time>
      </trkpt>
      <trkpt lat="59.953464" lon="17.8031006">
        <ele>39.0707</ele>
        <time>2013-04-30T18:08:31Z</time>
      </trkpt>
      <trkpt lat="59.9534374" lon="17.8032423">
        <ele>39.5513</ele>
        <time>2013-04-30T18:08:32Z</time>
      </trkpt>
      <trkpt lat="59.9534065" lon="17.8033817">
        <ele>40.0321</ele>
        <time>2013-04-30T18:08:33Z</time>
      </trkpt>
      <trkpt lat="59.9533634" lon="17.8035029">
        <ele>40.0321</ele>
        <time>2013-04-30T18:08:34Z</time>
      </trkpt>
      <trkpt lat="59.9533162" lon="17.803617">
        <ele>40.0321</ele>
        <time>2013-04-30T18:08:35Z</time>
      </trkpt>
      <trkpt lat="59.9532709" lon="17.8037334">
        <ele>40.0321</ele>
        <time>2013-04-30T18:08:36Z</time>
      </trkpt>
      <trkpt lat="59.9532215" lon="17.8038454">
        <ele>39.5513</ele>
        <time>2013-04-30T18:08:37Z</time>
      </trkpt>
      <trkpt lat="59.9531677" lon="17.8039557">
        <ele>39.5513</ele>
        <time>2013-04-30T18:08:38Z</time>
      </trkpt>
      <trkpt lat="59.9531122" lon="17.8040681">
        <ele>39.0707</ele>
        <time>2013-04-30T18:08:39Z</time>
      </trkpt>
      <trkpt lat="59.9530563" lon="17.8041867">
        <ele>38.5901</ele>
        <time>2013-04-30T18:08:40Z</time>
      </trkpt>
      <trkpt lat="59.9530043" lon="17.8043159">
        <ele>37.6287</ele>
        <time>2013-04-30T18:08:41Z</time>
      </trkpt>
      <trkpt lat="59.9529595" lon="17.8044607">
        <ele>37.6287</ele>
        <time>2013-04-30T18:08:42Z</time>
      </trkpt>
      <trkpt lat="59.9529209" lon="17.8046116">
        <ele>36.6675</ele>
        <time>2013-04-30T18:08:43Z</time>
      </trkpt>
      <trkpt lat="59.9528908" lon="17.8047691">
        <ele>35.7061</ele>
        <time>2013-04-30T18:08:44Z</time>
      </trkpt>
      <trkpt lat="59.9528647" lon="17.8049366">
        <ele>35.2255</ele>
        <time>2013-04-30T18:08:45Z</time>
      </trkpt>
      <trkpt lat="59.9528412" lon="17.8051062">
        <ele>35.2255</ele>
        <time>2013-04-30T18:08:46Z</time>
      </trkpt>
      <trkpt lat="59.952819" lon="17.8052764">
        <ele>34.7449</ele>
        <time>2013-04-30T18:08:47Z</time>
      </trkpt>
      <trkpt lat="59.9527986" lon="17.8054466">
        <ele>34.7449</ele>
        <time>2013-04-30T18:08:48Z</time>
      </trkpt>
      <trkpt lat="59.952779" lon="17.8056176">
        <ele>34.2642</ele>
        <time>2013-04-30T18:08:49Z</time>
      </trkpt>
      <trkpt lat="59.9527588" lon="17.8057873">
        <ele>34.2642</ele>
        <time>2013-04-30T18:08:50Z</time>
      </trkpt>
      <trkpt lat="59.9527362" lon="17.8059555">
        <ele>34.2642</ele>
        <time>2013-04-30T18:08:51Z</time>
      </trkpt>
      <trkpt lat="59.9527102" lon="17.8061225">
        <ele>34.2642</ele>
        <time>2013-04-30T18:08:52Z</time>
      </trkpt>
      <trkpt lat="59.9526802" lon="17.8062859">
        <ele>34.2642</ele>
        <time>2013-04-30T18:08:53Z</time>
      </trkpt>
      <trkpt lat="59.9526491" lon="17.8064437">
        <ele>34.2642</ele>
        <time>2013-04-30T18:08:54Z</time>
      </trkpt>
      <trkpt lat="59.9526176" lon="17.8066042">
        <ele>34.2642</ele>
        <time>2013-04-30T18:08:55Z</time>
      </trkpt>
      <trkpt lat="59.9525829" lon="17.8067649">
        <ele>33.7834</ele>
        <time>2013-04-30T18:08:56Z</time>
      </trkpt>
      <trkpt lat="59.9525474" lon="17.8069283">
        <ele>33.3029</ele>
        <time>2013-04-30T18:08:57Z</time>
      </trkpt>
      <trkpt lat="59.9525098" lon="17.807094">
        <ele>32.8223</ele>
        <time>2013-04-30T18:08:58Z</time>
      </trkpt>
      <trkpt lat="59.9524689" lon="17.8072598">
        <ele>32.8223</ele>
        <time>2013-04-30T18:08:59Z</time>
      </trkpt>
      <trkpt lat="59.9524254" lon="17.8074272">
        <ele>32.3416</ele>
        <time>2013-04-30T18:09:00Z</time>
      </trkpt>
      <trkpt lat="59.9523801" lon="17.8075975">
        <ele>32.3416</ele>
        <time>2013-04-30T18:09:01Z</time>
      </trkpt>
      <trkpt lat="59.9523348" lon="17.8077715">
        <ele>31.8607</ele>
        <time>2013-04-30T18:09:02Z</time>
      </trkpt>
      <trkpt lat="59.95229" lon="17.8079497">
        <ele>31.8607</ele>
        <time>2013-04-30T18:09:03Z</time>
      </trkpt>
      <trkpt lat="59.9522446" lon="17.8081287">
        <ele>31.8607</ele>
        <time>2013-04-30T18:09:04Z</time>
      </trkpt>
      <trkpt lat="59.9521993" lon="17.8083082">
        <ele>31.8607</ele>
        <time>2013-04-30T18:09:05Z</time>
      </trkpt>
      <trkpt lat="59.9521533" lon="17.8084884">
        <ele>31.8607</ele>
        <time>2013-04-30T18:09:06Z</time>
      </trkpt>
      <trkpt lat="59.9521057" lon="17.8086687">
        <ele>31.3801</ele>
        <time>2013-04-30T18:09:07Z</time>
      </trkpt>
      <trkpt lat="59.9520581" lon="17.808849">
        <ele>31.3801</ele>
        <time>2013-04-30T18:09:08Z</time>
      </trkpt>
      <trkpt lat="59.952011" lon="17.8090303">
        <ele>31.3801</ele>
        <time>2013-04-30T18:09:09Z</time>
      </trkpt>
      <trkpt lat="59.9519642" lon="17.8092121">
        <ele>31.3801</ele>
        <time>2013-04-30T18:09:10Z</time>
      </trkpt>
      <trkpt lat="59.951916" lon="17.8093923">
        <ele>31.3801</ele>
        <time>2013-04-30T18:09:11Z</time>
      </trkpt>
      <trkpt lat="59.9518674" lon="17.8095725">
        <ele>31.3801</ele>
        <time>2013-04-30T18:09:12Z</time>
      </trkpt>
      <trkpt lat="59.9518208" lon="17.8097539">
        <ele>31.3801</ele>
        <time>2013-04-30T18:09:13Z</time>
      </trkpt>
      <trkpt lat="59.9517752" lon="17.8099363">
        <ele>31.3801</ele>
        <time>2013-04-30T18:09:14Z</time>
      </trkpt>
      <trkpt lat="59.951729" lon="17.8101189">
        <ele>31.3801</ele>
        <time>2013-04-30T18:09:15Z</time>
      </trkpt>
      <trkpt lat="59.9516828" lon="17.8103005">
        <ele>31.3801</ele>
        <time>2013-04-30T18:09:16Z</time>
      </trkpt>
      <trkpt lat="59.9516385" lon="17.8104828">
        <ele>31.3801</ele>
        <time>2013-04-30T18:09:17Z</time>
      </trkpt>
      <trkpt lat="59.9515979" lon="17.8106677">
        <ele>31.3801</ele>
        <time>2013-04-30T18:09:18Z</time>
      </trkpt>
      <trkpt lat="59.9515614" lon="17.8108557">
        <ele>30.8995</ele>
        <time>2013-04-30T18:09:19Z</time>
      </trkpt>
      <trkpt lat="59.9515292" lon="17.8110464">
        <ele>30.8995</ele>
        <time>2013-04-30T18:09:20Z</time>
      </trkpt>
      <trkpt lat="59.9514992" lon="17.8112413">
        <ele>30.8995</ele>
        <time>2013-04-30T18:09:21Z</time>
      </trkpt>
      <trkpt lat="59.9514716" lon="17.8114376">
        <ele>30.8995</ele>
        <time>2013-04-30T18:09:22Z</time>
      </trkpt>
      <trkpt lat="59.9514462" lon="17.8116354">
        <ele>30.8995</ele>
        <time>2013-04-30T18:09:23Z</time>
      </trkpt>
      <trkpt lat="59.9514244" lon="17.8118363">
        <ele>30.8995</ele>
        <time>2013-04-30T18:09:24Z</time>
      </trkpt>
      <trkpt lat="59.9514078" lon="17.8120415">
        <ele>31.3801</ele>
        <time>2013-04-30T18:09:25Z</time>
      </trkpt>
      <trkpt lat="59.9513972" lon="17.8122503">
        <ele>31.3801</ele>
        <time>2013-04-30T18:09:26Z</time>
      </trkpt>
      <trkpt lat="59.9513917" lon="17.8124629">
        <ele>30.8995</ele>
        <time>2013-04-30T18:09:27Z</time>
      </trkpt>
      <trkpt lat="59.9513882" lon="17.8126779">
        <ele>30.8995</ele>
        <time>2013-04-30T18:09:28Z</time>
      </trkpt>
      <trkpt lat="59.9513863" lon="17.8128939">
        <ele>30.8995</ele>
        <time>2013-04-30T18:09:29Z</time>
      </trkpt>
      <trkpt lat="59.9513855" lon="17.8131107">
        <ele>30.8995</ele>
        <time>2013-04-30T18:09:30Z</time>
      </trkpt>
      <trkpt lat="59.9513841" lon="17.813327">
        <ele>30.8995</ele>
        <time>2013-04-30T18:09:31Z</time>
      </trkpt>
      <trkpt lat="59.9513826" lon="17.8135402">
        <ele>30.8995</ele>
        <time>2013-04-30T18:09:32Z</time>
      </trkpt>
      <trkpt lat="59.951381" lon="17.8137513">
        <ele>30.8995</ele>
        <time>2013-04-30T18:09:33Z</time>
      </trkpt>
      <trkpt lat="59.9513789" lon="17.813962">
        <ele>30.8995</ele>
        <time>2013-04-30T18:09:34Z</time>
      </trkpt>
      <trkpt lat="59.9513768" lon="17.8141714">
        <ele>30.8995</ele>
        <time>2013-04-30T18:09:35Z</time>
      </trkpt>
      <trkpt lat="59.9513748" lon="17.8143799">
        <ele>30.8995</ele>
        <time>2013-04-30T18:09:36Z</time>
      </trkpt>
      <trkpt lat="59.9513724" lon="17.8145866">
        <ele>30.8995</ele>
        <time>2013-04-30T18:09:37Z</time>
      </trkpt>
      <trkpt lat="59.9513691" lon="17.8147912">
        <ele>30.8995</ele>
        <time>2013-04-30T18:09:38Z</time>
      </trkpt>
      <trkpt lat="59.9513644" lon="17.8149941">
        <ele>30.8995</ele>
        <time>2013-04-30T18:09:39Z</time>
      </trkpt>
      <trkpt lat="59.9513591" lon="17.8151961">
        <ele>30.8995</ele>
        <time>2013-04-30T18:09:40Z</time>
      </trkpt>
      <trkpt lat="59.9513526" lon="17.8153961">
        <ele>30.8995</ele>
        <time>2013-04-30T18:09:41Z</time>
      </trkpt>
      <trkpt lat="59.9513453" lon="17.8155949">
        <ele>30.8995</ele>
        <time>2013-04-30T18:09:42Z</time>
      </trkpt>
      <trkpt lat="59.9513361" lon="17.8157923">
        <ele>30.8995</ele>
        <time>2013-04-30T18:09:43Z</time>
      </trkpt>
      <trkpt lat="59.9513251" lon="17.8159882">
        <ele>30.8995</ele>
        <time>2013-04-30T18:09:44Z</time>
      </trkpt>
      <trkpt lat="59.9513125" lon="17.8161824">
        <ele>30.8995</ele>
        <time>2013-04-30T18:09:45Z</time>
      </trkpt>
      <trkpt lat="59.9512978" lon="17.8163749">
        <ele>30.8995</ele>
        <time>2013-04-30T18:09:46Z</time>
      </trkpt>
      <trkpt lat="59.9512811" lon="17.8165653">
        <ele>30.8995</ele>
        <time>2013-04-30T18:09:47Z</time>
      </trkpt>
      <trkpt lat="59.9512628" lon="17.8167533">
        <ele>30.8995</ele>
        <time>2013-04-30T18:09:48Z</time>
      </trkpt>
      <trkpt lat="59.9512438" lon="17.8169381">
        <ele>30.8995</ele>
        <time>2013-04-30T18:09:49Z</time>
      </trkpt>
      <trkpt lat="59.951225" lon="17.8171211">
        <ele>30.8995</ele>
        <time>2013-04-30T18:09:50Z</time>
      </trkpt>
      <trkpt lat="59.9512061" lon="17.8173029">
        <ele>31.3801</ele>
        <time>2013-04-30T18:09:51Z</time>
      </trkpt>
      <trkpt lat="59.9511873" lon="17.8174835">
        <ele>31.3801</ele>
        <time>2013-04-30T18:09:52Z</time>
      </trkpt>
      <trkpt lat="59.9511685" lon="17.8176634">
        <ele>31.3801</ele>
        <time>2013-04-30T18:09:53Z</time>
      </trkpt>
      <trkpt lat="59.9511508" lon="17.8178425">
        <ele>31.3801</ele>
        <time>2013-04-30T18:09:54Z</time>
      </trkpt>
      <trkpt lat="59.9511336" lon="17.8180209">
        <ele>31.3801</ele>
        <time>2013-04-30T18:09:55Z</time>
      </trkpt>
      <trkpt lat="59.9511158" lon="17.8181976">
        <ele>31.3801</ele>
        <time>2013-04-30T18:09:56Z</time>
      </trkpt>
      <trkpt lat="59.951097" lon="17.8183724">
        <ele>31.3801</ele>
        <time>2013-04-30T18:09:57Z</time>
      </trkpt>
      <trkpt lat="59.9510783" lon="17.8185446">
        <ele>31.3801</ele>
        <time>2013-04-30T18:09:58Z</time>
      </trkpt>
      <trkpt lat="59.9510607" lon="17.8187161">
        <ele>31.3801</ele>
        <time>2013-04-30T18:09:59Z</time>
      </trkpt>
      <trkpt lat="59.9510448" lon="17.8188894">
        <ele>31.3801</ele>
        <time>2013-04-30T18:10:00Z</time>
      </trkpt>
      <trkpt lat="59.9510315" lon="17.819066">
        <ele>31.3801</ele>
        <time>2013-04-30T18:10:01Z</time>
      </trkpt>
      <trkpt lat="59.951022" lon="17.8192445">
        <ele>30.8995</ele>
        <time>2013-04-30T18:10:02Z</time>
      </trkpt>
      <trkpt lat="59.9510159" lon="17.8194253">
        <ele>30.8995</ele>
        <time>2013-04-30T18:10:03Z</time>
      </trkpt>
      <trkpt lat="59.9510127" lon="17.8196086">
        <ele>30.8995</ele>
        <time>2013-04-30T18:10:04Z</time>
      </trkpt>
      <trkpt lat="59.9510096" lon="17.8197934">
        <ele>30.4188</ele>
        <time>2013-04-30T18:10:05Z</time>
      </trkpt>
      <trkpt lat="59.951005" lon="17.8199796">
        <ele>30.4188</ele>
        <time>2013-04-30T18:10:06Z</time>
      </trkpt>
      <trkpt lat="59.9509977" lon="17.8201659">
        <ele>29.9381</ele>
        <time>2013-04-30T18:10:07Z</time>
      </trkpt>
      <trkpt lat="59.9509883" lon="17.8203523">
        <ele>29.9381</ele>
        <time>2013-04-30T18:10:08Z</time>
      </trkpt>
      <trkpt lat="59.9509774" lon="17.820539">
        <ele>29.9381</ele>
        <time>2013-04-30T18:10:09Z</time>
      </trkpt>
      <trkpt lat="59.9509659" lon="17.8207247">
        <ele>29.4575</ele>
        <time>2013-04-30T18:10:10Z</time>
      </trkpt>
      <trkpt lat="59.9509533" lon="17.8209089">
        <ele>29.4575</ele>
        <time>2013-04-30T18:10:11Z</time>
      </trkpt>
      <trkpt lat="59.9509393" lon="17.8210915">
        <ele>29.4575</ele>
        <time>2013-04-30T18:10:12Z</time>
      </trkpt>
      <trkpt lat="59.9509234" lon="17.8212723">
        <ele>29.4575</ele>
        <time>2013-04-30T18:10:13Z</time>
      </trkpt>
      <trkpt lat="59.9509059" lon="17.8214531">
        <ele>28.9769</ele>
        <time>2013-04-30T18:10:14Z</time>
      </trkpt>
      <trkpt lat="59.9508874" lon="17.8216339">
        <ele>28.9769</ele>
        <time>2013-04-30T18:10:15Z</time>
      </trkpt>
      <trkpt lat="59.9508677" lon="17.8218151">
        <ele>28.9769</ele>
        <time>2013-04-30T18:10:16Z</time>
      </trkpt>
      <trkpt lat="59.950847" lon="17.821998">
        <ele>28.9769</ele>
        <time>2013-04-30T18:10:17Z</time>
      </trkpt>
      <trkpt lat="59.9508255" lon="17.822181">
        <ele>28.4962</ele>
        <time>2013-04-30T18:10:18Z</time>
      </trkpt>
      <trkpt lat="59.9508041" lon="17.8223642">
        <ele>28.4962</ele>
        <time>2013-04-30T18:10:19Z</time>
      </trkpt>
      <trkpt lat="59.9507834" lon="17.8225486">
        <ele>28.4962</ele>
        <time>2013-04-30T18:10:20Z</time>
      </trkpt>
      <trkpt lat="59.9507627" lon="17.8227341">
        <ele>28.4962</ele>
        <time>2013-04-30T18:10:21Z</time>
      </trkpt>
      <trkpt lat="59.9507423" lon="17.8229192">
        <ele>28.0155</ele>
        <time>2013-04-30T18:10:22Z</time>
      </trkpt>
      <trkpt lat="59.9507228" lon="17.8231039">
        <ele>28.0155</ele>
        <time>2013-04-30T18:10:23Z</time>
      </trkpt>
      <trkpt lat="59.9507056" lon="17.8232896">
        <ele>28.0155</ele>
        <time>2013-04-30T18:10:24Z</time>
      </trkpt>
      <trkpt lat="59.9506874" lon="17.823474">
        <ele>28.0155</ele>
        <time>2013-04-30T18:10:25Z</time>
      </trkpt>
      <trkpt lat="59.9506653" lon="17.8236538">
        <ele>28.0155</ele>
        <time>2013-04-30T18:10:26Z</time>
      </trkpt>
      <trkpt lat="59.9506434" lon="17.8238362">
        <ele>28.0155</ele>
        <time>2013-04-30T18:10:27Z</time>
      </trkpt>
      <trkpt lat="59.9506169" lon="17.8240152">
        <ele>28.0155</ele>
        <time>2013-04-30T18:10:28Z</time>
      </trkpt>
      <trkpt lat="59.9505871" lon="17.8241936">
        <ele>28.0155</ele>
        <time>2013-04-30T18:10:29Z</time>
      </trkpt>
      <trkpt lat="59.9505543" lon="17.8243702">
        <ele>28.0155</ele>
        <time>2013-04-30T18:10:30Z</time>
      </trkpt>
      <trkpt lat="59.9505189" lon="17.8245466">
        <ele>28.0155</ele>
        <time>2013-04-30T18:10:31Z</time>
      </trkpt>
      <trkpt lat="59.9504837" lon="17.8247235">
        <ele>28.0155</ele>
        <time>2013-04-30T18:10:32Z</time>
      </trkpt>
      <trkpt lat="59.9504487" lon="17.8248998">
        <ele>28.0155</ele>
        <time>2013-04-30T18:10:33Z</time>
      </trkpt>
      <trkpt lat="59.9504144" lon="17.8250757">
        <ele>28.0155</ele>
        <time>2013-04-30T18:10:34Z</time>
      </trkpt>
      <trkpt lat="59.9503801" lon="17.8252516">
        <ele>28.0155</ele>
        <time>2013-04-30T18:10:35Z</time>
      </trkpt>
      <trkpt lat="59.9503454" lon="17.8254287">
        <ele>27.5349</ele>
        <time>2013-04-30T18:10:36Z</time>
      </trkpt>
      <trkpt lat="59.9503084" lon="17.8256055">
        <ele>27.5349</ele>
        <time>2013-04-30T18:10:37Z</time>
      </trkpt>
      <trkpt lat="59.9502693" lon="17.8257815">
        <ele>27.5349</ele>
        <time>2013-04-30T18:10:38Z</time>
      </trkpt>
      <trkpt lat="59.9502272" lon="17.8259553">
        <ele>27.0543</ele>
        <time>2013-04-30T18:10:39Z</time>
      </trkpt>
      <trkpt lat="59.9501843" lon="17.8261298">
        <ele>27.0543</ele>
        <time>2013-04-30T18:10:40Z</time>
      </trkpt>
      <trkpt lat="59.9501438" lon="17.8263076">
        <ele>27.0543</ele>
        <time>2013-04-30T18:10:41Z</time>
      </trkpt>
      <trkpt lat="59.9501098" lon="17.8264903">
        <ele>27.0543</ele>
        <time>2013-04-30T18:10:42Z</time>
      </trkpt>
      <trkpt lat="59.9500854" lon="17.8266763">
        <ele>26.5736</ele>
        <time>2013-04-30T18:10:43Z</time>
      </trkpt>
      <trkpt lat="59.9500679" lon="17.8268655">
        <ele>26.5736</ele>
        <time>2013-04-30T18:10:44Z</time>
      </trkpt>
      <trkpt lat="59.950056" lon="17.8270563">
        <ele>26.5736</ele>
        <time>2013-04-30T18:10:45Z</time>
      </trkpt>
      <trkpt lat="59.9500482" lon="17.8272482">
        <ele>26.5736</ele>
        <time>2013-04-30T18:10:46Z</time>
      </trkpt>
      <trkpt lat="59.9500444" lon="17.8274408">
        <ele>26.0929</ele>
        <time>2013-04-30T18:10:47Z</time>
      </trkpt>
      <trkpt lat="59.9500437" lon="17.8276341">
        <ele>26.0929</ele>
        <time>2013-04-30T18:10:48Z</time>
      </trkpt>
      <trkpt lat="59.9500455" lon="17.8278257">
        <ele>26.0929</ele>
        <time>2013-04-30T18:10:49Z</time>
      </trkpt>
      <trkpt lat="59.9500492" lon="17.8280137">
        <ele>26.0929</ele>
        <time>2013-04-30T18:10:50Z</time>
      </trkpt>
      <trkpt lat="59.9500539" lon="17.8281976">
        <ele>26.0929</ele>
        <time>2013-04-30T18:10:51Z</time>
      </trkpt>
      <trkpt lat="59.9500586" lon="17.8283779">
        <ele>26.0929</ele>
        <time>2013-04-30T18:10:52Z</time>
      </trkpt>
      <trkpt lat="59.9500636" lon="17.8285539">
        <ele>26.0929</ele>
        <time>2013-04-30T18:10:53Z</time>
      </trkpt>
      <trkpt lat="59.950069" lon="17.828725">
        <ele>26.0929</ele>
        <time>2013-04-30T18:10:54Z</time>
      </trkpt>
      <trkpt lat="59.950074" lon="17.8288908">
        <ele>26.0929</ele>
        <time>2013-04-30T18:10:55Z</time>
      </trkpt>
      <trkpt lat="59.9500756" lon="17.8290484">
        <ele>26.0929</ele>
        <time>2013-04-30T18:10:56Z</time>
      </trkpt>
      <trkpt lat="59.9500726" lon="17.8291944">
        <ele>26.0929</ele>
        <time>2013-04-30T18:10:57Z</time>
      </trkpt>
      <trkpt lat="59.9500644" lon="17.8293276">
        <ele>26.0929</ele>
        <time>2013-04-30T18:10:58Z</time>
      </trkpt>
      <trkpt lat="59.9500529" lon="17.8294475">
        <ele>26.0929</ele>
        <time>2013-04-30T18:10:59Z</time>
      </trkpt>
      <trkpt lat="59.9500399" lon="17.8295528">
        <ele>26.5736</ele>
        <time>2013-04-30T18:11:00Z</time>
      </trkpt>
      <trkpt lat="59.950026" lon="17.8296453">
        <ele>26.5736</ele>
        <time>2013-04-30T18:11:01Z</time>
      </trkpt>
      <trkpt lat="59.9500089" lon="17.8297207">
        <ele>26.5736</ele>
        <time>2013-04-30T18:11:02Z</time>
      </trkpt>
      <trkpt lat="59.9499897" lon="17.8297704">
        <ele>26.5736</ele>
        <time>2013-04-30T18:11:03Z</time>
      </trkpt>
      <trkpt lat="59.9499716" lon="17.8298083">
        <ele>26.0929</ele>
        <time>2013-04-30T18:11:04Z</time>
      </trkpt>
      <trkpt lat="59.9499534" lon="17.8298414">
        <ele>26.0929</ele>
        <time>2013-04-30T18:11:05Z</time>
      </trkpt>
      <trkpt lat="59.949938" lon="17.8298766">
        <ele>26.0929</ele>
        <time>2013-04-30T18:11:06Z</time>
      </trkpt>
      <trkpt lat="59.9499273" lon="17.8299236">
        <ele>26.0929</ele>
        <time>2013-04-30T18:11:07Z</time>
      </trkpt>
      <trkpt lat="59.9499207" lon="17.8299775">
        <ele>26.0929</ele>
        <time>2013-04-30T18:11:08Z</time>
      </trkpt>
      <trkpt lat="59.9499212" lon="17.8300404">
        <ele>26.0929</ele>
        <time>2013-04-30T18:11:09Z</time>
      </trkpt>
      <trkpt lat="59.9499305" lon="17.8301148">
        <ele>26.0929</ele>
        <time>2013-04-30T18:11:10Z</time>
      </trkpt>
      <trkpt lat="59.9499501" lon="17.8301946">
        <ele>25.6123</ele>
        <time>2013-04-30T18:11:11Z</time>
      </trkpt>
      <trkpt lat="59.9499813" lon="17.8302738">
        <ele>25.6123</ele>
        <time>2013-04-30T18:11:12Z</time>
      </trkpt>
      <trkpt lat="59.9500197" lon="17.8303531">
        <ele>25.6123</ele>
        <time>2013-04-30T18:11:13Z</time>
      </trkpt>
      <trkpt lat="59.950061" lon="17.8304394">
        <ele>25.1317</ele>
        <time>2013-04-30T18:11:14Z</time>
      </trkpt>
      <trkpt lat="59.950103" lon="17.830532">
        <ele>25.1317</ele>
        <time>2013-04-30T18:11:15Z</time>
      </trkpt>
      <trkpt lat="59.9501464" lon="17.8306266">
        <ele>25.1317</ele>
        <time>2013-04-30T18:11:16Z</time>
      </trkpt>
      <trkpt lat="59.9501912" lon="17.830723">
        <ele>25.1317</ele>
        <time>2013-04-30T18:11:17Z</time>
      </trkpt>
      <trkpt lat="59.9502383" lon="17.8308204">
        <ele>25.1317</ele>
        <time>2013-04-30T18:11:18Z</time>
      </trkpt>
      <trkpt lat="59.9502875" lon="17.8309162">
        <ele>25.1317</ele>
        <time>2013-04-30T18:11:19Z</time>
      </trkpt>
      <trkpt lat="59.9503378" lon="17.831012">
        <ele>25.1317</ele>
        <time>2013-04-30T18:11:20Z</time>
      </trkpt>
      <trkpt lat="59.9503876" lon="17.8311109">
        <ele>25.1317</ele>
        <time>2013-04-30T18:11:21Z</time>
      </trkpt>
      <trkpt lat="59.9504371" lon="17.831214">
        <ele>24.651</ele>
        <time>2013-04-30T18:11:22Z</time>
      </trkpt>
      <trkpt lat="59.9504871" lon="17.8313211">
        <ele>24.651</ele>
        <time>2013-04-30T18:11:23Z</time>
      </trkpt>
      <trkpt lat="59.9505391" lon="17.8314273">
        <ele>24.651</ele>
        <time>2013-04-30T18:11:24Z</time>
      </trkpt>
      <trkpt lat="59.9505895" lon="17.8315374">
        <ele>24.651</ele>
        <time>2013-04-30T18:11:25Z</time>
      </trkpt>
      <trkpt lat="59.9506373" lon="17.8316526">
        <ele>24.1703</ele>
        <time>2013-04-30T18:11:26Z</time>
      </trkpt>
      <trkpt lat="59.9506875" lon="17.8317678">
        <ele>24.1703</ele>
        <time>2013-04-30T18:11:27Z</time>
      </trkpt>
      <trkpt lat="59.9507408" lon="17.8318839">
        <ele>24.651</ele>
        <time>2013-04-30T18:11:28Z</time>
      </trkpt>
      <trkpt lat="59.950794" lon="17.8320007">
        <ele>24.651</ele>
        <time>2013-04-30T18:11:29Z</time>
      </trkpt>
      <trkpt lat="59.950847" lon="17.832119">
        <ele>25.1317</ele>
        <time>2013-04-30T18:11:30Z</time>
      </trkpt>
      <trkpt lat="59.9509008" lon="17.8322377">
        <ele>25.1317</ele>
        <time>2013-04-30T18:11:31Z</time>
      </trkpt>
      <trkpt lat="59.9509552" lon="17.8323566">
        <ele>25.1317</ele>
        <time>2013-04-30T18:11:32Z</time>
      </trkpt>
      <trkpt lat="59.9510097" lon="17.8324765">
        <ele>25.1317</ele>
        <time>2013-04-30T18:11:33Z</time>
      </trkpt>
      <trkpt lat="59.9510638" lon="17.8325971">
        <ele>25.1317</ele>
        <time>2013-04-30T18:11:34Z</time>
      </trkpt>
      <trkpt lat="59.951118" lon="17.8327168">
        <ele>25.1317</ele>
        <time>2013-04-30T18:11:35Z</time>
      </trkpt>
      <trkpt lat="59.9511723" lon="17.8328361">
        <ele>25.1317</ele>
        <time>2013-04-30T18:11:36Z</time>
      </trkpt>
      <trkpt lat="59.951226" lon="17.8329566">
        <ele>25.6123</ele>
        <time>2013-04-30T18:11:37Z</time>
      </trkpt>
      <trkpt lat="59.9512795" lon="17.8330769">
        <ele>25.6123</ele>
        <time>2013-04-30T18:11:38Z</time>
      </trkpt>
      <trkpt lat="59.9513334" lon="17.8331958">
        <ele>25.6123</ele>
        <time>2013-04-30T18:11:39Z</time>
      </trkpt>
      <trkpt lat="59.9513869" lon="17.8333134">
        <ele>25.6123</ele>
        <time>2013-04-30T18:11:40Z</time>
      </trkpt>
      <trkpt lat="59.9514401" lon="17.8334306">
        <ele>25.6123</ele>
        <time>2013-04-30T18:11:41Z</time>
      </trkpt>
      <trkpt lat="59.9514929" lon="17.8335478">
        <ele>26.0929</ele>
        <time>2013-04-30T18:11:42Z</time>
      </trkpt>
      <trkpt lat="59.9515458" lon="17.8336642">
        <ele>26.0929</ele>
        <time>2013-04-30T18:11:43Z</time>
      </trkpt>
      <trkpt lat="59.9515989" lon="17.8337803">
        <ele>26.0929</ele>
        <time>2013-04-30T18:11:44Z</time>
      </trkpt>
      <trkpt lat="59.9516512" lon="17.833898">
        <ele>26.5736</ele>
        <time>2013-04-30T18:11:45Z</time>
      </trkpt>
      <trkpt lat="59.9517036" lon="17.8340163">
        <ele>26.5736</ele>
        <time>2013-04-30T18:11:46Z</time>
      </trkpt>
      <trkpt lat="59.9517572" lon="17.834135">
        <ele>26.5736</ele>
        <time>2013-04-30T18:11:47Z</time>
      </trkpt>
      <trkpt lat="59.9518115" lon="17.8342531">
        <ele>26.5736</ele>
        <time>2013-04-30T18:11:48Z</time>
      </trkpt>
      <trkpt lat="59.9518654" lon="17.8343718">
        <ele>26.5736</ele>
        <time>2013-04-30T18:11:49Z</time>
      </trkpt>
      <trkpt lat="59.9519203" lon="17.8344869">
        <ele>26.5736</ele>
        <time>2013-04-30T18:11:50Z</time>
      </trkpt>
      <trkpt lat="59.9519762" lon="17.8345965">
        <ele>26.5736</ele>
        <time>2013-04-30T18:11:51Z</time>
      </trkpt>
      <trkpt lat="59.9520316" lon="17.8347029">
        <ele>27.0543</ele>
        <time>2013-04-30T18:11:52Z</time>
      </trkpt>
      <trkpt lat="59.9520865" lon="17.834812">
        <ele>27.0543</ele>
        <time>2013-04-30T18:11:53Z</time>
      </trkpt>
      <trkpt lat="59.952141" lon="17.8349271">
        <ele>27.0543</ele>
        <time>2013-04-30T18:11:54Z</time>
      </trkpt>
      <trkpt lat="59.9521954" lon="17.8350484">
        <ele>27.0543</ele>
        <time>2013-04-30T18:11:55Z</time>
      </trkpt>
      <trkpt lat="59.9522493" lon="17.8351761">
        <ele>27.0543</ele>
        <time>2013-04-30T18:11:56Z</time>
      </trkpt>
      <trkpt lat="59.9523037" lon="17.8353092">
        <ele>27.0543</ele>
        <time>2013-04-30T18:11:57Z</time>
      </trkpt>
      <trkpt lat="59.9523583" lon="17.835447">
        <ele>27.0543</ele>
        <time>2013-04-30T18:11:58Z</time>
      </trkpt>
      <trkpt lat="59.9524122" lon="17.8355902">
        <ele>27.0543</ele>
        <time>2013-04-30T18:11:59Z</time>
      </trkpt>
      <trkpt lat="59.9524658" lon="17.8357389">
        <ele>27.0543</ele>
        <time>2013-04-30T18:12:00Z</time>
      </trkpt>
      <trkpt lat="59.9525195" lon="17.8358916">
        <ele>27.0543</ele>
        <time>2013-04-30T18:12:01Z</time>
      </trkpt>
      <trkpt lat="59.9525723" lon="17.836047">
        <ele>27.0543</ele>
        <time>2013-04-30T18:12:02Z</time>
      </trkpt>
      <trkpt lat="59.9526241" lon="17.8362056">
        <ele>27.0543</ele>
        <time>2013-04-30T18:12:03Z</time>
      </trkpt>
      <trkpt lat="59.9526753" lon="17.8363672">
        <ele>27.0543</ele>
        <time>2013-04-30T18:12:04Z</time>
      </trkpt>
      <trkpt lat="59.9527263" lon="17.8365312">
        <ele>27.0543</ele>
        <time>2013-04-30T18:12:05Z</time>
      </trkpt>
      <trkpt lat="59.9527761" lon="17.836697">
        <ele>27.0543</ele>
        <time>2013-04-30T18:12:06Z</time>
      </trkpt>
      <trkpt lat="59.9528256" lon="17.8368631">
        <ele>27.0543</ele>
        <time>2013-04-30T18:12:07Z</time>
      </trkpt>
      <trkpt lat="59.9528763" lon="17.8370275">
        <ele>27.0543</ele>
        <time>2013-04-30T18:12:08Z</time>
      </trkpt>
      <trkpt lat="59.9529282" lon="17.8371909">
        <ele>27.0543</ele>
        <time>2013-04-30T18:12:09Z</time>
      </trkpt>
      <trkpt lat="59.9529794" lon="17.8373539">
        <ele>27.5349</ele>
        <time>2013-04-30T18:12:10Z</time>
      </trkpt>
      <trkpt lat="59.9530283" lon="17.8375151">
        <ele>27.5349</ele>
        <time>2013-04-30T18:12:11Z</time>
      </trkpt>
      <trkpt lat="59.9530745" lon="17.8376745">
        <ele>27.5349</ele>
        <time>2013-04-30T18:12:12Z</time>
      </trkpt>
      <trkpt lat="59.9531221" lon="17.837827">
        <ele>27.5349</ele>
        <time>2013-04-30T18:12:13Z</time>
      </trkpt>
      <trkpt lat="59.9531745" lon="17.8379672">
        <ele>27.5349</ele>
        <time>2013-04-30T18:12:14Z</time>
      </trkpt>
      <trkpt lat="59.9532335" lon="17.8380901">
        <ele>27.5349</ele>
        <time>2013-04-30T18:12:15Z</time>
      </trkpt>
      <trkpt lat="59.9533029" lon="17.838188">
        <ele>27.0543</ele>
        <time>2013-04-30T18:12:16Z</time>
      </trkpt>
      <trkpt lat="59.9533769" lon="17.8382352">
        <ele>27.0543</ele>
        <time>2013-04-30T18:12:17Z</time>
      </trkpt>
      <trkpt lat="59.9534609" lon="17.838229">
        <ele>27.0543</ele>
        <time>2013-04-30T18:12:18Z</time>
      </trkpt>
      <trkpt lat="59.9535451" lon="17.8381923">
        <ele>27.0543</ele>
        <time>2013-04-30T18:12:19Z</time>
      </trkpt>
      <trkpt lat="59.9536272" lon="17.8381423">
        <ele>27.5349</ele>
        <time>2013-04-30T18:12:20Z</time>
      </trkpt>
      <trkpt lat="59.9537078" lon="17.8380869">
        <ele>27.5349</ele>
        <time>2013-04-30T18:12:21Z</time>
      </trkpt>
      <trkpt lat="59.9537871" lon="17.8380303">
        <ele>27.5349</ele>
        <time>2013-04-30T18:12:22Z</time>
      </trkpt>
      <trkpt lat="59.9538695" lon="17.837972">
        <ele>26.5736</ele>
        <time>2013-04-30T18:12:23Z</time>
      </trkpt>
      <trkpt lat="59.9539489" lon="17.8379143">
        <ele>26.0929</ele>
        <time>2013-04-30T18:12:24Z</time>
      </trkpt>
      <trkpt lat="59.9540266" lon="17.837857">
        <ele>25.1317</ele>
        <time>2013-04-30T18:12:25Z</time>
      </trkpt>
      <trkpt lat="59.9541015" lon="17.8378011">
        <ele>24.651</ele>
        <time>2013-04-30T18:12:26Z</time>
      </trkpt>
      <trkpt lat="59.9541757" lon="17.8377451">
        <ele>23.6896</ele>
        <time>2013-04-30T18:12:27Z</time>
      </trkpt>
      <trkpt lat="59.9542489" lon="17.837689">
        <ele>23.209</ele>
        <time>2013-04-30T18:12:28Z</time>
      </trkpt>
      <trkpt lat="59.9543211" lon="17.8376357">
        <ele>22.7283</ele>
        <time>2013-04-30T18:12:29Z</time>
      </trkpt>
      <trkpt lat="59.9543913" lon="17.8375815">
        <ele>22.2476</ele>
        <time>2013-04-30T18:12:30Z</time>
      </trkpt>
      <trkpt lat="59.9544587" lon="17.8375274">
        <ele>22.2476</ele>
        <time>2013-04-30T18:12:31Z</time>
      </trkpt>
      <trkpt lat="59.9545241" lon="17.8374733">
        <ele>21.767</ele>
        <time>2013-04-30T18:12:32Z</time>
      </trkpt>
      <trkpt lat="59.9545906" lon="17.8374194">
        <ele>21.2864</ele>
        <time>2013-04-30T18:12:33Z</time>
      </trkpt>
      <trkpt lat="59.9546578" lon="17.8373669">
        <ele>21.2864</ele>
        <time>2013-04-30T18:12:34Z</time>
      </trkpt>
      <trkpt lat="59.9547248" lon="17.8373152">
        <ele>21.2864</ele>
        <time>2013-04-30T18:12:35Z</time>
      </trkpt>
      <trkpt lat="59.954791" lon="17.8372639">
        <ele>21.2864</ele>
        <time>2013-04-30T18:12:36Z</time>
      </trkpt>
      <trkpt lat="59.9548563" lon="17.8372132">
        <ele>21.2864</ele>
        <time>2013-04-30T18:12:37Z</time>
      </trkpt>
      <trkpt lat="59.9549221" lon="17.8371629">
        <ele>21.2864</ele>
        <time>2013-04-30T18:12:38Z</time>
      </trkpt>
      <trkpt lat="59.9549872" lon="17.8371114">
        <ele>21.2864</ele>
        <time>2013-04-30T18:12:39Z</time>
      </trkpt>
      <trkpt lat="59.9550515" lon="17.8370593">
        <ele>21.2864</ele>
        <time>2013-04-30T18:12:40Z</time>
      </trkpt>
      <trkpt lat="59.955117" lon="17.8370107">
        <ele>21.2864</ele>
        <time>2013-04-30T18:12:41Z</time>
      </trkpt>
      <trkpt lat="59.9551817" lon="17.8369666">
        <ele>21.2864</ele>
        <time>2013-04-30T18:12:42Z</time>
      </trkpt>
      <trkpt lat="59.9552457" lon="17.8369245">
        <ele>21.767</ele>
        <time>2013-04-30T18:12:43Z</time>
      </trkpt>
      <trkpt lat="59.9553071" lon="17.8368776">
        <ele>21.2864</ele>
        <time>2013-04-30T18:12:44Z</time>
      </trkpt>
      <trkpt lat="59.9553677" lon="17.8368301">
        <ele>21.2864</ele>
        <time>2013-04-30T18:12:45Z</time>
      </trkpt>
      <trkpt lat="59.9554284" lon="17.8367828">
        <ele>21.2864</ele>
        <time>2013-04-30T18:12:46Z</time>
      </trkpt>
      <trkpt lat="59.9554887" lon="17.8367355">
        <ele>20.8057</ele>
        <time>2013-04-30T18:12:47Z</time>
      </trkpt>
      <trkpt lat="59.955551" lon="17.8366905">
        <ele>20.8057</ele>
        <time>2013-04-30T18:12:48Z</time>
      </trkpt>
      <trkpt lat="59.9556131" lon="17.8366428">
        <ele>20.325</ele>
        <time>2013-04-30T18:12:49Z</time>
      </trkpt>
      <trkpt lat="59.9556733" lon="17.8365926">
        <ele>20.325</ele>
        <time>2013-04-30T18:12:50Z</time>
      </trkpt>
      <trkpt lat="59.9557327" lon="17.8365439">
        <ele>19.3638</ele>
        <time>2013-04-30T18:12:51Z</time>
      </trkpt>
      <trkpt lat="59.9557919" lon="17.8365015">
        <ele>19.3638</ele>
        <time>2013-04-30T18:12:52Z</time>
      </trkpt>
      <trkpt lat="59.9558477" lon="17.8364615">
        <ele>18.4023</ele>
        <time>2013-04-30T18:12:53Z</time>
      </trkpt>
      <trkpt lat="59.955902" lon="17.8364226">
        <ele>17.9218</ele>
        <time>2013-04-30T18:12:54Z</time>
      </trkpt>
      <trkpt lat="59.9559556" lon="17.8363847">
        <ele>17.9218</ele>
        <time>2013-04-30T18:12:55Z</time>
      </trkpt>
      <trkpt lat="59.9560085" lon="17.8363501">
        <ele>16.9604</ele>
        <time>2013-04-30T18:12:56Z</time>
      </trkpt>
      <trkpt lat="59.9560607" lon="17.8363192">
        <ele>16.9604</ele>
        <time>2013-04-30T18:12:57Z</time>
      </trkpt>
      <trkpt lat="59.9561092" lon="17.8362945">
        <ele>16.4797</ele>
        <time>2013-04-30T18:12:58Z</time>
      </trkpt>
      <trkpt lat="59.9561593" lon="17.8362684">
        <ele>15.999</ele>
        <time>2013-04-30T18:12:59Z</time>
      </trkpt>
      <trkpt lat="59.9562152" lon="17.8362434">
        <ele>16.4797</ele>
        <time>2013-04-30T18:13:00Z</time>
      </trkpt>
      <trkpt lat="59.9562701" lon="17.8362196">
        <ele>16.4797</ele>
        <time>2013-04-30T18:13:01Z</time>
      </trkpt>
      <trkpt lat="59.9563237" lon="17.8361992">
        <ele>15.0377</ele>
        <time>2013-04-30T18:13:02Z</time>
      </trkpt>
      <trkpt lat="59.95638" lon="17.8361831">
        <ele>15.0377</ele>
        <time>2013-04-30T18:13:03Z</time>
      </trkpt>
      <trkpt lat="59.9564351" lon="17.8361669">
        <ele>14.557</ele>
        <time>2013-04-30T18:13:04Z</time>
      </trkpt>
      <trkpt lat="59.9564911" lon="17.8361505">
        <ele>14.557</ele>
        <time>2013-04-30T18:13:05Z</time>
      </trkpt>
      <trkpt lat="59.956545" lon="17.8361384">
        <ele>15.0377</ele>
        <time>2013-04-30T18:13:06Z</time>
      </trkpt>
      <trkpt lat="59.956601" lon="17.836131">
        <ele>13.5958</ele>
        <time>2013-04-30T18:13:07Z</time>
      </trkpt>
      <trkpt lat="59.9566345" lon="17.8361393">
        <ele>14.0764</ele>
        <time>2013-04-30T18:13:08Z</time>
      </trkpt>
      <trkpt lat="59.9566887" lon="17.8361381">
        <ele>14.557</ele>
        <time>2013-04-30T18:13:09Z</time>
      </trkpt>
      <trkpt lat="59.9567451" lon="17.8361311">
        <ele>14.0764</ele>
        <time>2013-04-30T18:13:10Z</time>
      </trkpt>
      <trkpt lat="59.9567963" lon="17.8361263">
        <ele>14.0764</ele>
        <time>2013-04-30T18:13:11Z</time>
      </trkpt>
      <trkpt lat="59.9568497" lon="17.8361182">
        <ele>14.557</ele>
        <time>2013-04-30T18:13:12Z</time>
      </trkpt>
      <trkpt lat="59.9569041" lon="17.8361192">
        <ele>15.0377</ele>
        <time>2013-04-30T18:13:13Z</time>
      </trkpt>
      <trkpt lat="59.9569605" lon="17.8361236">
        <ele>15.5184</ele>
        <time>2013-04-30T18:13:14Z</time>
      </trkpt>
      <trkpt lat="59.957015" lon="17.836119">
        <ele>15.0377</ele>
        <time>2013-04-30T18:13:15Z</time>
      </trkpt>
      <trkpt lat="59.9570698" lon="17.8361158">
        <ele>14.557</ele>
        <time>2013-04-30T18:13:16Z</time>
      </trkpt>
      <trkpt lat="59.9571264" lon="17.8361149">
        <ele>14.0764</ele>
        <time>2013-04-30T18:13:17Z</time>
      </trkpt>
      <trkpt lat="59.9571692" lon="17.8361315">
        <ele>13.5958</ele>
        <time>2013-04-30T18:13:18Z</time>
      </trkpt>
      <trkpt lat="59.9572278" lon="17.8361358">
        <ele>14.0764</ele>
        <time>2013-04-30T18:13:19Z</time>
      </trkpt>
      <trkpt lat="59.9572867" lon="17.8361349">
        <ele>14.557</ele>
        <time>2013-04-30T18:13:20Z</time>
      </trkpt>
      <trkpt lat="59.9573422" lon="17.8361355">
        <ele>15.0377</ele>
        <time>2013-04-30T18:13:21Z</time>
      </trkpt>
      <trkpt lat="59.9573989" lon="17.8361409">
        <ele>15.5184</ele>
        <time>2013-04-30T18:13:22Z</time>
      </trkpt>
      <trkpt lat="59.9574552" lon="17.8361461">
        <ele>15.5184</ele>
        <time>2013-04-30T18:13:23Z</time>
      </trkpt>
      <trkpt lat="59.9575125" lon="17.8361516">
        <ele>15.999</ele>
        <time>2013-04-30T18:13:24Z</time>
      </trkpt>
      <trkpt lat="59.9575691" lon="17.8361574">
        <ele>16.4797</ele>
        <time>2013-04-30T18:13:25Z</time>
      </trkpt>
      <trkpt lat="59.9576265" lon="17.8361653">
        <ele>16.9604</ele>
        <time>2013-04-30T18:13:26Z</time>
      </trkpt>
      <trkpt lat="59.9576838" lon="17.836173">
        <ele>17.4412</ele>
        <time>2013-04-30T18:13:27Z</time>
      </trkpt>
      <trkpt lat="59.9577415" lon="17.8361787">
        <ele>17.9218</ele>
        <time>2013-04-30T18:13:28Z</time>
      </trkpt>
      <trkpt lat="59.9578005" lon="17.8361844">
        <ele>18.4023</ele>
        <time>2013-04-30T18:13:29Z</time>
      </trkpt>
      <trkpt lat="59.9578597" lon="17.8361893">
        <ele>19.3638</ele>
        <time>2013-04-30T18:13:30Z</time>
      </trkpt>
      <trkpt lat="59.957922" lon="17.8362003">
        <ele>19.3638</ele>
        <time>2013-04-30T18:13:31Z</time>
      </trkpt>
      <trkpt lat="59.957987" lon="17.8362122">
        <ele>19.8444</ele>
        <time>2013-04-30T18:13:32Z</time>
      </trkpt>
      <trkpt lat="59.9580538" lon="17.8362246">
        <ele>19.8444</ele>
        <time>2013-04-30T18:13:33Z</time>
      </trkpt>
      <trkpt lat="59.958121" lon="17.8362342">
        <ele>20.325</ele>
        <time>2013-04-30T18:13:34Z</time>
      </trkpt>
      <trkpt lat="59.9581913" lon="17.8362455">
        <ele>20.325</ele>
        <time>2013-04-30T18:13:35Z</time>
      </trkpt>
      <trkpt lat="59.9582664" lon="17.8362603">
        <ele>20.8057</ele>
        <time>2013-04-30T18:13:36Z</time>
      </trkpt>
      <trkpt lat="59.9583426" lon="17.8362724">
        <ele>21.2864</ele>
        <time>2013-04-30T18:13:37Z</time>
      </trkpt>
      <trkpt lat="59.9584173" lon="17.8362895">
        <ele>20.8057</ele>
        <time>2013-04-30T18:13:38Z</time>
      </trkpt>
      <trkpt lat="59.958494" lon="17.8363086">
        <ele>20.8057</ele>
        <time>2013-04-30T18:13:39Z</time>
      </trkpt>
      <trkpt lat="59.9585698" lon="17.8363222">
        <ele>20.325</ele>
        <time>2013-04-30T18:13:40Z</time>
      </trkpt>
      <trkpt lat="59.9586461" lon="17.8363372">
        <ele>20.325</ele>
        <time>2013-04-30T18:13:41Z</time>
      </trkpt>
      <trkpt lat="59.9587223" lon="17.8363533">
        <ele>19.8444</ele>
        <time>2013-04-30T18:13:42Z</time>
      </trkpt>
      <trkpt lat="59.9587988" lon="17.8363694">
        <ele>19.8444</ele>
        <time>2013-04-30T18:13:43Z</time>
      </trkpt>
      <trkpt lat="59.9588752" lon="17.8363847">
        <ele>19.8444</ele>
        <time>2013-04-30T18:13:44Z</time>
      </trkpt>
      <trkpt lat="59.9589512" lon="17.8364014">
        <ele>19.3638</ele>
        <time>2013-04-30T18:13:45Z</time>
      </trkpt>
      <trkpt lat="59.9590294" lon="17.8364143">
        <ele>19.8444</ele>
        <time>2013-04-30T18:13:46Z</time>
      </trkpt>
      <trkpt lat="59.9591076" lon="17.8364242">
        <ele>20.325</ele>
        <time>2013-04-30T18:13:47Z</time>
      </trkpt>
      <trkpt lat="59.9591865" lon="17.8364351">
        <ele>20.8057</ele>
        <time>2013-04-30T18:13:48Z</time>
      </trkpt>
      <trkpt lat="59.9592658" lon="17.8364471">
        <ele>20.8057</ele>
        <time>2013-04-30T18:13:49Z</time>
      </trkpt>
      <trkpt lat="59.9593454" lon="17.836461">
        <ele>21.2864</ele>
        <time>2013-04-30T18:13:50Z</time>
      </trkpt>
      <trkpt lat="59.9594257" lon="17.8364734">
        <ele>21.767</ele>
        <time>2013-04-30T18:13:51Z</time>
      </trkpt>
      <trkpt lat="59.9595055" lon="17.836479">
        <ele>22.7283</ele>
        <time>2013-04-30T18:13:52Z</time>
      </trkpt>
      <trkpt lat="59.9595821" lon="17.8364839">
        <ele>21.767</ele>
        <time>2013-04-30T18:13:53Z</time>
      </trkpt>
      <trkpt lat="59.9596588" lon="17.8364901">
        <ele>20.325</ele>
        <time>2013-04-30T18:13:54Z</time>
      </trkpt>
      <trkpt lat="59.9597376" lon="17.8365018">
        <ele>19.3638</ele>
        <time>2013-04-30T18:13:55Z</time>
      </trkpt>
      <trkpt lat="59.9598159" lon="17.8365163">
        <ele>18.8831</ele>
        <time>2013-04-30T18:13:56Z</time>
      </trkpt>
      <trkpt lat="59.9598946" lon="17.8365328">
        <ele>18.4023</ele>
        <time>2013-04-30T18:13:57Z</time>
      </trkpt>
      <trkpt lat="59.9599738" lon="17.8365483">
        <ele>18.4023</ele>
        <time>2013-04-30T18:13:58Z</time>
      </trkpt>
      <trkpt lat="59.9600506" lon="17.8365611">
        <ele>17.9218</ele>
        <time>2013-04-30T18:13:59Z</time>
      </trkpt>
      <trkpt lat="59.9601274" lon="17.8365724">
        <ele>17.4412</ele>
        <time>2013-04-30T18:14:00Z</time>
      </trkpt>
      <trkpt lat="59.9602038" lon="17.8365856">
        <ele>16.9604</ele>
        <time>2013-04-30T18:14:01Z</time>
      </trkpt>
      <trkpt lat="59.9602798" lon="17.8365977">
        <ele>16.9604</ele>
        <time>2013-04-30T18:14:02Z</time>
      </trkpt>
      <trkpt lat="59.9603559" lon="17.8366079">
        <ele>16.4797</ele>
        <time>2013-04-30T18:14:03Z</time>
      </trkpt>
      <trkpt lat="59.9604315" lon="17.8366226">
        <ele>15.999</ele>
        <time>2013-04-30T18:14:04Z</time>
      </trkpt>
      <trkpt lat="59.9605031" lon="17.8366392">
        <ele>15.0377</ele>
        <time>2013-04-30T18:14:05Z</time>
      </trkpt>
      <trkpt lat="59.9605704" lon="17.8366582">
        <ele>15.0377</ele>
        <time>2013-04-30T18:14:06Z</time>
      </trkpt>
      <trkpt lat="59.9606426" lon="17.8366791">
        <ele>14.557</ele>
        <time>2013-04-30T18:14:07Z</time>
      </trkpt>
      <trkpt lat="59.9607177" lon="17.8367039">
        <ele>15.0377</ele>
        <time>2013-04-30T18:14:08Z</time>
      </trkpt>
      <trkpt lat="59.9607877" lon="17.8367385">
        <ele>14.557</ele>
        <time>2013-04-30T18:14:09Z</time>
      </trkpt>
      <trkpt lat="59.960855" lon="17.8367729">
        <ele>14.557</ele>
        <time>2013-04-30T18:14:10Z</time>
      </trkpt>
      <trkpt lat="59.9609222" lon="17.8368132">
        <ele>14.557</ele>
        <time>2013-04-30T18:14:11Z</time>
      </trkpt>
      <trkpt lat="59.9609896" lon="17.8368577">
        <ele>15.0377</ele>
        <time>2013-04-30T18:14:12Z</time>
      </trkpt>
      <trkpt lat="59.9610593" lon="17.8369085">
        <ele>15.5184</ele>
        <time>2013-04-30T18:14:13Z</time>
      </trkpt>
      <trkpt lat="59.9611289" lon="17.8369597">
        <ele>15.999</ele>
        <time>2013-04-30T18:14:14Z</time>
      </trkpt>
      <trkpt lat="59.9611977" lon="17.8370179">
        <ele>15.999</ele>
        <time>2013-04-30T18:14:15Z</time>
      </trkpt>
      <trkpt lat="59.9612698" lon="17.8370839">
        <ele>16.4797</ele>
        <time>2013-04-30T18:14:16Z</time>
      </trkpt>
      <trkpt lat="59.9613375" lon="17.8371504">
        <ele>15.999</ele>
        <time>2013-04-30T18:14:17Z</time>
      </trkpt>
      <trkpt lat="59.9614056" lon="17.8372136">
        <ele>15.999</ele>
        <time>2013-04-30T18:14:18Z</time>
      </trkpt>
      <trkpt lat="59.961473" lon="17.8372762">
        <ele>16.4797</ele>
        <time>2013-04-30T18:14:19Z</time>
      </trkpt>
      <trkpt lat="59.9615387" lon="17.8373394">
        <ele>16.9604</ele>
        <time>2013-04-30T18:14:20Z</time>
      </trkpt>
      <trkpt lat="59.9616043" lon="17.8374027">
        <ele>16.9604</ele>
        <time>2013-04-30T18:14:21Z</time>
      </trkpt>
      <trkpt lat="59.9616732" lon="17.8374655">
        <ele>17.4412</ele>
        <time>2013-04-30T18:14:22Z</time>
      </trkpt>
      <trkpt lat="59.9617428" lon="17.8375299">
        <ele>17.9218</ele>
        <time>2013-04-30T18:14:23Z</time>
      </trkpt>
      <trkpt lat="59.9618143" lon="17.8375954">
        <ele>17.9218</ele>
        <time>2013-04-30T18:14:24Z</time>
      </trkpt>
      <trkpt lat="59.961888" lon="17.8376622">
        <ele>18.4023</ele>
        <time>2013-04-30T18:14:25Z</time>
      </trkpt>
      <trkpt lat="59.9619643" lon="17.8377309">
        <ele>18.8831</ele>
        <time>2013-04-30T18:14:26Z</time>
      </trkpt>
      <trkpt lat="59.962042" lon="17.8378032">
        <ele>19.3638</ele>
        <time>2013-04-30T18:14:27Z</time>
      </trkpt>
      <trkpt lat="59.962122" lon="17.837878">
        <ele>19.8444</ele>
        <time>2013-04-30T18:14:28Z</time>
      </trkpt>
      <trkpt lat="59.9622002" lon="17.8379516">
        <ele>18.4023</ele>
        <time>2013-04-30T18:14:29Z</time>
      </trkpt>
      <trkpt lat="59.9622741" lon="17.8380293">
        <ele>17.9218</ele>
        <time>2013-04-30T18:14:30Z</time>
      </trkpt>
      <trkpt lat="59.9623458" lon="17.8381087">
        <ele>17.4412</ele>
        <time>2013-04-30T18:14:31Z</time>
      </trkpt>
      <trkpt lat="59.9624157" lon="17.838188">
        <ele>17.4412</ele>
        <time>2013-04-30T18:14:32Z</time>
      </trkpt>
      <trkpt lat="59.9624862" lon="17.8382631">
        <ele>16.9604</ele>
        <time>2013-04-30T18:14:33Z</time>
      </trkpt>
      <trkpt lat="59.9625663" lon="17.8383243">
        <ele>16.4797</ele>
        <time>2013-04-30T18:14:34Z</time>
      </trkpt>
      <trkpt lat="59.9626558" lon="17.8383719">
        <ele>16.4797</ele>
        <time>2013-04-30T18:14:35Z</time>
      </trkpt>
      <trkpt lat="59.962751" lon="17.8384103">
        <ele>16.9604</ele>
        <time>2013-04-30T18:14:36Z</time>
      </trkpt>
      <trkpt lat="59.9628424" lon="17.8384468">
        <ele>16.9604</ele>
        <time>2013-04-30T18:14:37Z</time>
      </trkpt>
      <trkpt lat="59.9629345" lon="17.8384758">
        <ele>17.4412</ele>
        <time>2013-04-30T18:14:38Z</time>
      </trkpt>
      <trkpt lat="59.9630264" lon="17.8384973">
        <ele>17.4412</ele>
        <time>2013-04-30T18:14:39Z</time>
      </trkpt>
      <trkpt lat="59.9631164" lon="17.838518">
        <ele>16.9604</ele>
        <time>2013-04-30T18:14:40Z</time>
      </trkpt>
      <trkpt lat="59.963208" lon="17.8385337">
        <ele>16.9604</ele>
        <time>2013-04-30T18:14:41Z</time>
      </trkpt>
      <trkpt lat="59.9632963" lon="17.8385468">
        <ele>16.9604</ele>
        <time>2013-04-30T18:14:42Z</time>
      </trkpt>
      <trkpt lat="59.9633865" lon="17.83856">
        <ele>16.9604</ele>
        <time>2013-04-30T18:14:43Z</time>
      </trkpt>
      <trkpt lat="59.9634766" lon="17.8385722">
        <ele>16.9604</ele>
        <time>2013-04-30T18:14:44Z</time>
      </trkpt>
      <trkpt lat="59.9635656" lon="17.8385825">
        <ele>15.999</ele>
        <time>2013-04-30T18:14:45Z</time>
      </trkpt>
      <trkpt lat="59.9636546" lon="17.8385943">
        <ele>15.999</ele>
        <time>2013-04-30T18:14:46Z</time>
      </trkpt>
      <trkpt lat="59.9637418" lon="17.8386066">
        <ele>15.5184</ele>
        <time>2013-04-30T18:14:47Z</time>
      </trkpt>
      <trkpt lat="59.9638325" lon="17.8386226">
        <ele>15.5184</ele>
        <time>2013-04-30T18:14:48Z</time>
      </trkpt>
      <trkpt lat="59.9639205" lon="17.8386362">
        <ele>15.5184</ele>
        <time>2013-04-30T18:14:49Z</time>
      </trkpt>
      <trkpt lat="59.9640091" lon="17.8386509">
        <ele>15.999</ele>
        <time>2013-04-30T18:14:50Z</time>
      </trkpt>
      <trkpt lat="59.964097" lon="17.8386656">
        <ele>15.999</ele>
        <time>2013-04-30T18:14:51Z</time>
      </trkpt>
      <trkpt lat="59.9641822" lon="17.8386804">
        <ele>15.999</ele>
        <time>2013-04-30T18:14:52Z</time>
      </trkpt>
      <trkpt lat="59.9642681" lon="17.8386967">
        <ele>16.4797</ele>
        <time>2013-04-30T18:14:53Z</time>
      </trkpt>
      <trkpt lat="59.9643535" lon="17.8387132">
        <ele>16.9604</ele>
        <time>2013-04-30T18:14:54Z</time>
      </trkpt>
      <trkpt lat="59.964438" lon="17.8387253">
        <ele>17.4412</ele>
        <time>2013-04-30T18:14:55Z</time>
      </trkpt>
      <trkpt lat="59.9645196" lon="17.8387355">
        <ele>17.4412</ele>
        <time>2013-04-30T18:14:56Z</time>
      </trkpt>
      <trkpt lat="59.9645979" lon="17.8387481">
        <ele>16.4797</ele>
        <time>2013-04-30T18:14:57Z</time>
      </trkpt>
      <trkpt lat="59.9646764" lon="17.8387631">
        <ele>16.4797</ele>
        <time>2013-04-30T18:14:58Z</time>
      </trkpt>
      <trkpt lat="59.9647582" lon="17.8387781">
        <ele>16.9604</ele>
        <time>2013-04-30T18:14:59Z</time>
      </trkpt>
      <trkpt lat="59.9648408" lon="17.8387924">
        <ele>16.9604</ele>
        <time>2013-04-30T18:15:00Z</time>
      </trkpt>
      <trkpt lat="59.9649227" lon="17.8388076">
        <ele>17.4412</ele>
        <time>2013-04-30T18:15:01Z</time>
      </trkpt>
      <trkpt lat="59.9650046" lon="17.8388226">
        <ele>17.4412</ele>
        <time>2013-04-30T18:15:02Z</time>
      </trkpt>
      <trkpt lat="59.9650849" lon="17.8388417">
        <ele>17.9218</ele>
        <time>2013-04-30T18:15:03Z</time>
      </trkpt>
      <trkpt lat="59.9651637" lon="17.8388625">
        <ele>17.9218</ele>
        <time>2013-04-30T18:15:04Z</time>
      </trkpt>
      <trkpt lat="59.9652444" lon="17.8388794">
        <ele>17.9218</ele>
        <time>2013-04-30T18:15:05Z</time>
      </trkpt>
      <trkpt lat="59.9653249" lon="17.8388956">
        <ele>18.4023</ele>
        <time>2013-04-30T18:15:06Z</time>
      </trkpt>
      <trkpt lat="59.9654054" lon="17.83891">
        <ele>18.4023</ele>
        <time>2013-04-30T18:15:07Z</time>
      </trkpt>
      <trkpt lat="59.9654854" lon="17.8389236">
        <ele>18.4023</ele>
        <time>2013-04-30T18:15:08Z</time>
      </trkpt>
      <trkpt lat="59.9655653" lon="17.8389391">
        <ele>18.8831</ele>
        <time>2013-04-30T18:15:09Z</time>
      </trkpt>
      <trkpt lat="59.965645" lon="17.8389565">
        <ele>19.3638</ele>
        <time>2013-04-30T18:15:10Z</time>
      </trkpt>
      <trkpt lat="59.9657227" lon="17.8389733">
        <ele>19.3638</ele>
        <time>2013-04-30T18:15:11Z</time>
      </trkpt>
      <trkpt lat="59.9658009" lon="17.8389878">
        <ele>19.8444</ele>
        <time>2013-04-30T18:15:12Z</time>
      </trkpt>
      <trkpt lat="59.9658782" lon="17.8390006">
        <ele>19.8444</ele>
        <time>2013-04-30T18:15:13Z</time>
      </trkpt>
      <trkpt lat="59.9659542" lon="17.8390117">
        <ele>19.8444</ele>
        <time>2013-04-30T18:15:14Z</time>
      </trkpt>
      <trkpt lat="59.9660299" lon="17.8390245">
        <ele>19.8444</ele>
        <time>2013-04-30T18:15:15Z</time>
      </trkpt>
      <trkpt lat="59.9661053" lon="17.8390386">
        <ele>20.325</ele>
        <time>2013-04-30T18:15:16Z</time>
      </trkpt>
      <trkpt lat="59.9661811" lon="17.8390542">
        <ele>20.325</ele>
        <time>2013-04-30T18:15:17Z</time>
      </trkpt>
      <trkpt lat="59.9662565" lon="17.8390686">
        <ele>20.325</ele>
        <time>2013-04-30T18:15:18Z</time>
      </trkpt>
      <trkpt lat="59.9663308" lon="17.8390837">
        <ele>20.8057</ele>
        <time>2013-04-30T18:15:19Z</time>
      </trkpt>
      <trkpt lat="59.9664054" lon="17.8390981">
        <ele>20.8057</ele>
        <time>2013-04-30T18:15:20Z</time>
      </trkpt>
      <trkpt lat="59.966479" lon="17.839113">
        <ele>20.8057</ele>
        <time>2013-04-30T18:15:21Z</time>
      </trkpt>
      <trkpt lat="59.9665515" lon="17.8391298">
        <ele>21.2864</ele>
        <time>2013-04-30T18:15:22Z</time>
      </trkpt>
      <trkpt lat="59.9666245" lon="17.8391484">
        <ele>21.2864</ele>
        <time>2013-04-30T18:15:23Z</time>
      </trkpt>
      <trkpt lat="59.9667" lon="17.8391681">
        <ele>21.767</ele>
        <time>2013-04-30T18:15:24Z</time>
      </trkpt>
      <trkpt lat="59.9667771" lon="17.8391883">
        <ele>22.2476</ele>
        <time>2013-04-30T18:15:25Z</time>
      </trkpt>
      <trkpt lat="59.9668504" lon="17.839212">
        <ele>22.2476</ele>
        <time>2013-04-30T18:15:26Z</time>
      </trkpt>
      <trkpt lat="59.9669223" lon="17.839239">
        <ele>22.7283</ele>
        <time>2013-04-30T18:15:27Z</time>
      </trkpt>
      <trkpt lat="59.9669928" lon="17.8392705">
        <ele>23.6896</ele>
        <time>2013-04-30T18:15:28Z</time>
      </trkpt>
      <trkpt lat="59.9670586" lon="17.8393067">
        <ele>23.6896</ele>
        <time>2013-04-30T18:15:29Z</time>
      </trkpt>
      <trkpt lat="59.9671166" lon="17.8393476">
        <ele>24.1703</ele>
        <time>2013-04-30T18:15:30Z</time>
      </trkpt>
      <trkpt lat="59.9671833" lon="17.8393888">
        <ele>23.6896</ele>
        <time>2013-04-30T18:15:31Z</time>
      </trkpt>
      <trkpt lat="59.9672404" lon="17.8394397">
        <ele>23.6896</ele>
        <time>2013-04-30T18:15:32Z</time>
      </trkpt>
      <trkpt lat="59.9673003" lon="17.8394772">
        <ele>24.1703</ele>
        <time>2013-04-30T18:15:33Z</time>
      </trkpt>
      <trkpt lat="59.9673584" lon="17.8395172">
        <ele>25.1317</ele>
        <time>2013-04-30T18:15:34Z</time>
      </trkpt>
      <trkpt lat="59.9674182" lon="17.8395556">
        <ele>25.1317</ele>
        <time>2013-04-30T18:15:35Z</time>
      </trkpt>
      <trkpt lat="59.9674824" lon="17.8395903">
        <ele>25.6123</ele>
        <time>2013-04-30T18:15:36Z</time>
      </trkpt>
      <trkpt lat="59.9675491" lon="17.8396253">
        <ele>26.5736</ele>
        <time>2013-04-30T18:15:37Z</time>
      </trkpt>
      <trkpt lat="59.9676135" lon="17.839659">
        <ele>27.5349</ele>
        <time>2013-04-30T18:15:38Z</time>
      </trkpt>
      <trkpt lat="59.9676756" lon="17.8396916">
        <ele>27.5349</ele>
        <time>2013-04-30T18:15:39Z</time>
      </trkpt>
      <trkpt lat="59.9677407" lon="17.8397256">
        <ele>28.0155</ele>
        <time>2013-04-30T18:15:40Z</time>
      </trkpt>
      <trkpt lat="59.9678064" lon="17.8397623">
        <ele>28.0155</ele>
        <time>2013-04-30T18:15:41Z</time>
      </trkpt>
      <trkpt lat="59.9678703" lon="17.8398042">
        <ele>28.0155</ele>
        <time>2013-04-30T18:15:42Z</time>
      </trkpt>
      <trkpt lat="59.9679393" lon="17.8398455">
        <ele>28.4962</ele>
        <time>2013-04-30T18:15:43Z</time>
      </trkpt>
      <trkpt lat="59.9680092" lon="17.8398851">
        <ele>28.9769</ele>
        <time>2013-04-30T18:15:44Z</time>
      </trkpt>
      <trkpt lat="59.9680789" lon="17.8399283">
        <ele>28.9769</ele>
        <time>2013-04-30T18:15:45Z</time>
      </trkpt>
      <trkpt lat="59.9681525" lon="17.83997">
        <ele>28.9769</ele>
        <time>2013-04-30T18:15:46Z</time>
      </trkpt>
      <trkpt lat="59.9682247" lon="17.8400099">
        <ele>28.9769</ele>
        <time>2013-04-30T18:15:47Z</time>
      </trkpt>
      <trkpt lat="59.9682992" lon="17.8400527">
        <ele>28.9769</ele>
        <time>2013-04-30T18:15:48Z</time>
      </trkpt>
      <trkpt lat="59.9683749" lon="17.8400967">
        <ele>28.9769</ele>
        <time>2013-04-30T18:15:49Z</time>
      </trkpt>
      <trkpt lat="59.9684517" lon="17.8401424">
        <ele>28.9769</ele>
        <time>2013-04-30T18:15:50Z</time>
      </trkpt>
      <trkpt lat="59.9685282" lon="17.8401891">
        <ele>28.9769</ele>
        <time>2013-04-30T18:15:51Z</time>
      </trkpt>
      <trkpt lat="59.9686036" lon="17.840234">
        <ele>28.4962</ele>
        <time>2013-04-30T18:15:52Z</time>
      </trkpt>
      <trkpt lat="59.9686795" lon="17.8402782">
        <ele>28.4962</ele>
        <time>2013-04-30T18:15:53Z</time>
      </trkpt>
      <trkpt lat="59.9687551" lon="17.840321">
        <ele>28.4962</ele>
        <time>2013-04-30T18:15:54Z</time>
      </trkpt>
      <trkpt lat="59.9688291" lon="17.8403632">
        <ele>28.4962</ele>
        <time>2013-04-30T18:15:55Z</time>
      </trkpt>
      <trkpt lat="59.9689001" lon="17.8404037">
        <ele>28.4962</ele>
        <time>2013-04-30T18:15:56Z</time>
      </trkpt>
      <trkpt lat="59.9689699" lon="17.8404378">
        <ele>26.0929</ele>
        <time>2013-04-30T18:15:57Z</time>
      </trkpt>
      <trkpt lat="59.9690374" lon="17.8404708">
        <ele>24.651</ele>
        <time>2013-04-30T18:15:58Z</time>
      </trkpt>
      <trkpt lat="59.9691038" lon="17.8405005">
        <ele>23.209</ele>
        <time>2013-04-30T18:15:59Z</time>
      </trkpt>
      <trkpt lat="59.9691695" lon="17.8405278">
        <ele>22.7283</ele>
        <time>2013-04-30T18:16:00Z</time>
      </trkpt>
      <trkpt lat="59.9692332" lon="17.8405489">
        <ele>22.2476</ele>
        <time>2013-04-30T18:16:01Z</time>
      </trkpt>
      <trkpt lat="59.9692975" lon="17.8405647">
        <ele>21.767</ele>
        <time>2013-04-30T18:16:02Z</time>
      </trkpt>
      <trkpt lat="59.9693606" lon="17.8405776">
        <ele>21.2864</ele>
        <time>2013-04-30T18:16:03Z</time>
      </trkpt>
      <trkpt lat="59.9694244" lon="17.8405909">
        <ele>20.8057</ele>
        <time>2013-04-30T18:16:04Z</time>
      </trkpt>
      <trkpt lat="59.9694891" lon="17.8406049">
        <ele>19.8444</ele>
        <time>2013-04-30T18:16:05Z</time>
      </trkpt>
      <trkpt lat="59.9695576" lon="17.8406185">
        <ele>19.3638</ele>
        <time>2013-04-30T18:16:06Z</time>
      </trkpt>
      <trkpt lat="59.9696264" lon="17.8406336">
        <ele>18.8831</ele>
        <time>2013-04-30T18:16:07Z</time>
      </trkpt>
      <trkpt lat="59.9696946" lon="17.8406455">
        <ele>17.4412</ele>
        <time>2013-04-30T18:16:08Z</time>
      </trkpt>
      <trkpt lat="59.9697673" lon="17.8406587">
        <ele>16.9604</ele>
        <time>2013-04-30T18:16:09Z</time>
      </trkpt>
      <trkpt lat="59.9698414" lon="17.840672">
        <ele>16.9604</ele>
        <time>2013-04-30T18:16:10Z</time>
      </trkpt>
      <trkpt lat="59.9699139" lon="17.8406849">
        <ele>16.4797</ele>
        <time>2013-04-30T18:16:11Z</time>
      </trkpt>
      <trkpt lat="59.9699847" lon="17.8406981">
        <ele>15.5184</ele>
        <time>2013-04-30T18:16:12Z</time>
      </trkpt>
      <trkpt lat="59.9700551" lon="17.8407108">
        <ele>14.0764</ele>
        <time>2013-04-30T18:16:13Z</time>
      </trkpt>
      <trkpt lat="59.9701272" lon="17.8407216">
        <ele>13.5958</ele>
        <time>2013-04-30T18:16:14Z</time>
      </trkpt>
      <trkpt lat="59.9702013" lon="17.8407334">
        <ele>13.5958</ele>
        <time>2013-04-30T18:16:15Z</time>
      </trkpt>
      <trkpt lat="59.9702748" lon="17.8407434">
        <ele>13.5958</ele>
        <time>2013-04-30T18:16:16Z</time>
      </trkpt>
      <trkpt lat="59.9703478" lon="17.8407538">
        <ele>13.5958</ele>
        <time>2013-04-30T18:16:17Z</time>
      </trkpt>
      <trkpt lat="59.9704177" lon="17.8407656">
        <ele>12.6344</ele>
        <time>2013-04-30T18:16:18Z</time>
      </trkpt>
      <trkpt lat="59.970491" lon="17.8407759">
        <ele>13.1151</ele>
        <time>2013-04-30T18:16:19Z</time>
      </trkpt>
      <trkpt lat="59.9705653" lon="17.8407879">
        <ele>13.5958</ele>
        <time>2013-04-30T18:16:20Z</time>
      </trkpt>
      <trkpt lat="59.9706401" lon="17.8408017">
        <ele>14.0764</ele>
        <time>2013-04-30T18:16:21Z</time>
      </trkpt>
      <trkpt lat="59.970718" lon="17.8407942">
        <ele>14.557</ele>
        <time>2013-04-30T18:16:22Z</time>
      </trkpt>
      <trkpt lat="59.9707891" lon="17.8408086">
        <ele>14.557</ele>
        <time>2013-04-30T18:16:23Z</time>
      </trkpt>
      <trkpt lat="59.9708679" lon="17.8408189">
        <ele>15.0377</ele>
        <time>2013-04-30T18:16:24Z</time>
      </trkpt>
      <trkpt lat="59.9709531" lon="17.8408297">
        <ele>15.5184</ele>
        <time>2013-04-30T18:16:25Z</time>
      </trkpt>
      <trkpt lat="59.9710384" lon="17.8408433">
        <ele>15.999</ele>
        <time>2013-04-30T18:16:26Z</time>
      </trkpt>
      <trkpt lat="59.971126" lon="17.8408609">
        <ele>15.5184</ele>
        <time>2013-04-30T18:16:27Z</time>
      </trkpt>
      <trkpt lat="59.9712154" lon="17.8408828">
        <ele>15.5184</ele>
        <time>2013-04-30T18:16:28Z</time>
      </trkpt>
      <trkpt lat="59.9713069" lon="17.8409103">
        <ele>15.999</ele>
        <time>2013-04-30T18:16:29Z</time>
      </trkpt>
      <trkpt lat="59.9713999" lon="17.8409413">
        <ele>16.4797</ele>
        <time>2013-04-30T18:16:30Z</time>
      </trkpt>
      <trkpt lat="59.9714928" lon="17.8409766">
        <ele>17.4412</ele>
        <time>2013-04-30T18:16:31Z</time>
      </trkpt>
      <trkpt lat="59.9715827" lon="17.8410195">
        <ele>17.9218</ele>
        <time>2013-04-30T18:16:32Z</time>
      </trkpt>
      <trkpt lat="59.9716682" lon="17.8410728">
        <ele>18.4023</ele>
        <time>2013-04-30T18:16:33Z</time>
      </trkpt>
      <trkpt lat="59.971749" lon="17.841136">
        <ele>18.8831</ele>
        <time>2013-04-30T18:16:34Z</time>
      </trkpt>
      <trkpt lat="59.9718257" lon="17.8412118">
        <ele>19.3638</ele>
        <time>2013-04-30T18:16:35Z</time>
      </trkpt>
      <trkpt lat="59.9718992" lon="17.8412909">
        <ele>19.8444</ele>
        <time>2013-04-30T18:16:36Z</time>
      </trkpt>
      <trkpt lat="59.9719717" lon="17.841371">
        <ele>20.325</ele>
        <time>2013-04-30T18:16:37Z</time>
      </trkpt>
      <trkpt lat="59.9720413" lon="17.8414563">
        <ele>20.8057</ele>
        <time>2013-04-30T18:16:38Z</time>
      </trkpt>
      <trkpt lat="59.972108" lon="17.8415466">
        <ele>21.767</ele>
        <time>2013-04-30T18:16:39Z</time>
      </trkpt>
      <trkpt lat="59.9721729" lon="17.8416368">
        <ele>22.2476</ele>
        <time>2013-04-30T18:16:40Z</time>
      </trkpt>
      <trkpt lat="59.9722361" lon="17.8417286">
        <ele>22.7283</ele>
        <time>2013-04-30T18:16:41Z</time>
      </trkpt>
      <trkpt lat="59.9722981" lon="17.8418198">
        <ele>23.209</ele>
        <time>2013-04-30T18:16:42Z</time>
      </trkpt>
      <trkpt lat="59.9723588" lon="17.8419082">
        <ele>23.209</ele>
        <time>2013-04-30T18:16:43Z</time>
      </trkpt>
      <trkpt lat="59.9724209" lon="17.841997">
        <ele>23.209</ele>
        <time>2013-04-30T18:16:44Z</time>
      </trkpt>
      <trkpt lat="59.9724838" lon="17.8420807">
        <ele>23.6896</ele>
        <time>2013-04-30T18:16:45Z</time>
      </trkpt>
      <trkpt lat="59.9725473" lon="17.8421625">
        <ele>23.6896</ele>
        <time>2013-04-30T18:16:46Z</time>
      </trkpt>
      <trkpt lat="59.9726104" lon="17.8422415">
        <ele>23.209</ele>
        <time>2013-04-30T18:16:47Z</time>
      </trkpt>
      <trkpt lat="59.9726739" lon="17.8423176">
        <ele>22.7283</ele>
        <time>2013-04-30T18:16:48Z</time>
      </trkpt>
      <trkpt lat="59.97274" lon="17.8423902">
        <ele>22.7283</ele>
        <time>2013-04-30T18:16:49Z</time>
      </trkpt>
      <trkpt lat="59.9728054" lon="17.8424628">
        <ele>22.7283</ele>
        <time>2013-04-30T18:16:50Z</time>
      </trkpt>
      <trkpt lat="59.9728686" lon="17.8425392">
        <ele>22.7283</ele>
        <time>2013-04-30T18:16:51Z</time>
      </trkpt>
      <trkpt lat="59.9729302" lon="17.8426154">
        <ele>22.7283</ele>
        <time>2013-04-30T18:16:52Z</time>
      </trkpt>
      <trkpt lat="59.9729929" lon="17.8426875">
        <ele>23.209</ele>
        <time>2013-04-30T18:16:53Z</time>
      </trkpt>
      <trkpt lat="59.9730557" lon="17.8427595">
        <ele>23.209</ele>
        <time>2013-04-30T18:16:54Z</time>
      </trkpt>
      <trkpt lat="59.9731178" lon="17.8428354">
        <ele>22.7283</ele>
        <time>2013-04-30T18:16:55Z</time>
      </trkpt>
      <trkpt lat="59.9731815" lon="17.8429097">
        <ele>22.7283</ele>
        <time>2013-04-30T18:16:56Z</time>
      </trkpt>
      <trkpt lat="59.9732479" lon="17.8429837">
        <ele>22.7283</ele>
        <time>2013-04-30T18:16:57Z</time>
      </trkpt>
      <trkpt lat="59.9733131" lon="17.8430592">
        <ele>22.2476</ele>
        <time>2013-04-30T18:16:58Z</time>
      </trkpt>
      <trkpt lat="59.9733787" lon="17.8431356">
        <ele>21.767</ele>
        <time>2013-04-30T18:16:59Z</time>
      </trkpt>
      <trkpt lat="59.9734475" lon="17.8432122">
        <ele>21.767</ele>
        <time>2013-04-30T18:17:00Z</time>
      </trkpt>
      <trkpt lat="59.9735151" lon="17.8432924">
        <ele>21.767</ele>
        <time>2013-04-30T18:17:01Z</time>
      </trkpt>
      <trkpt lat="59.9735866" lon="17.8433705">
        <ele>21.767</ele>
        <time>2013-04-30T18:17:02Z</time>
      </trkpt>
      <trkpt lat="59.9736616" lon="17.843442">
        <ele>21.2864</ele>
        <time>2013-04-30T18:17:03Z</time>
      </trkpt>
      <trkpt lat="59.9737415" lon="17.8435028">
        <ele>21.2864</ele>
        <time>2013-04-30T18:17:04Z</time>
      </trkpt>
      <trkpt lat="59.9738164" lon="17.8435645">
        <ele>20.8057</ele>
        <time>2013-04-30T18:17:05Z</time>
      </trkpt>
      <trkpt lat="59.9738946" lon="17.8436199">
        <ele>20.8057</ele>
        <time>2013-04-30T18:17:06Z</time>
      </trkpt>
      <trkpt lat="59.9739738" lon="17.8436675">
        <ele>21.2864</ele>
        <time>2013-04-30T18:17:07Z</time>
      </trkpt>
      <trkpt lat="59.974049" lon="17.8437151">
        <ele>20.8057</ele>
        <time>2013-04-30T18:17:08Z</time>
      </trkpt>
      <trkpt lat="59.9741249" lon="17.8437622">
        <ele>20.325</ele>
        <time>2013-04-30T18:17:09Z</time>
      </trkpt>
      <trkpt lat="59.9742047" lon="17.8438037">
        <ele>19.8444</ele>
        <time>2013-04-30T18:17:10Z</time>
      </trkpt>
      <trkpt lat="59.9742844" lon="17.8438437">
        <ele>18.8831</ele>
        <time>2013-04-30T18:17:11Z</time>
      </trkpt>
      <trkpt lat="59.9743683" lon="17.8438807">
        <ele>18.8831</ele>
        <time>2013-04-30T18:17:12Z</time>
      </trkpt>
      <trkpt lat="59.9744461" lon="17.8439187">
        <ele>16.9604</ele>
        <time>2013-04-30T18:17:13Z</time>
      </trkpt>
      <trkpt lat="59.9745215" lon="17.8439673">
        <ele>15.5184</ele>
        <time>2013-04-30T18:17:14Z</time>
      </trkpt>
      <trkpt lat="59.9745972" lon="17.8440212">
        <ele>15.0377</ele>
        <time>2013-04-30T18:17:15Z</time>
      </trkpt>
      <trkpt lat="59.9746748" lon="17.8440769">
        <ele>15.5184</ele>
        <time>2013-04-30T18:17:16Z</time>
      </trkpt>
      <trkpt lat="59.9747526" lon="17.8441404">
        <ele>16.4797</ele>
        <time>2013-04-30T18:17:17Z</time>
      </trkpt>
      <trkpt lat="59.9748224" lon="17.8442104">
        <ele>17.4412</ele>
        <time>2013-04-30T18:17:18Z</time>
      </trkpt>
      <trkpt lat="59.9748923" lon="17.844283">
        <ele>17.9218</ele>
        <time>2013-04-30T18:17:19Z</time>
      </trkpt>
      <trkpt lat="59.9749614" lon="17.8443563">
        <ele>18.4023</ele>
        <time>2013-04-30T18:17:20Z</time>
      </trkpt>
      <trkpt lat="59.9750272" lon="17.844435">
        <ele>18.8831</ele>
        <time>2013-04-30T18:17:21Z</time>
      </trkpt>
      <trkpt lat="59.9750955" lon="17.844515">
        <ele>19.8444</ele>
        <time>2013-04-30T18:17:22Z</time>
      </trkpt>
      <trkpt lat="59.9751624" lon="17.8445912">
        <ele>19.8444</ele>
        <time>2013-04-30T18:17:23Z</time>
      </trkpt>
      <trkpt lat="59.9752347" lon="17.8446656">
        <ele>21.2864</ele>
        <time>2013-04-30T18:17:24Z</time>
      </trkpt>
      <trkpt lat="59.9753017" lon="17.8447461">
        <ele>21.767</ele>
        <time>2013-04-30T18:17:25Z</time>
      </trkpt>
      <trkpt lat="59.9753652" lon="17.8448284">
        <ele>21.767</ele>
        <time>2013-04-30T18:17:26Z</time>
      </trkpt>
      <trkpt lat="59.9754341" lon="17.8449036">
        <ele>21.767</ele>
        <time>2013-04-30T18:17:27Z</time>
      </trkpt>
      <trkpt lat="59.9755072" lon="17.844972">
        <ele>22.2476</ele>
        <time>2013-04-30T18:17:28Z</time>
      </trkpt>
      <trkpt lat="59.9755815" lon="17.8450309">
        <ele>22.2476</ele>
        <time>2013-04-30T18:17:29Z</time>
      </trkpt>
      <trkpt lat="59.9756606" lon="17.8450873">
        <ele>22.7283</ele>
        <time>2013-04-30T18:17:30Z</time>
      </trkpt>
      <trkpt lat="59.9757398" lon="17.8451431">
        <ele>23.209</ele>
        <time>2013-04-30T18:17:31Z</time>
      </trkpt>
      <trkpt lat="59.9758174" lon="17.8451957">
        <ele>22.7283</ele>
        <time>2013-04-30T18:17:32Z</time>
      </trkpt>
      <trkpt lat="59.9758952" lon="17.8452495">
        <ele>22.7283</ele>
        <time>2013-04-30T18:17:33Z</time>
      </trkpt>
      <trkpt lat="59.9759708" lon="17.8453029">
        <ele>21.2864</ele>
        <time>2013-04-30T18:17:34Z</time>
      </trkpt>
      <trkpt lat="59.9760476" lon="17.8453557">
        <ele>21.2864</ele>
        <time>2013-04-30T18:17:35Z</time>
      </trkpt>
      <trkpt lat="59.9761249" lon="17.8454071">
        <ele>21.767</ele>
        <time>2013-04-30T18:17:36Z</time>
      </trkpt>
      <trkpt lat="59.9762025" lon="17.845456">
        <ele>22.2476</ele>
        <time>2013-04-30T18:17:37Z</time>
      </trkpt>
      <trkpt lat="59.9762808" lon="17.8455085">
        <ele>22.7283</ele>
        <time>2013-04-30T18:17:38Z</time>
      </trkpt>
      <trkpt lat="59.9763586" lon="17.8455661">
        <ele>23.209</ele>
        <time>2013-04-30T18:17:39Z</time>
      </trkpt>
      <trkpt lat="59.9764375" lon="17.8456239">
        <ele>23.6896</ele>
        <time>2013-04-30T18:17:40Z</time>
      </trkpt>
      <trkpt lat="59.9765164" lon="17.8456819">
        <ele>23.6896</ele>
        <time>2013-04-30T18:17:41Z</time>
      </trkpt>
      <trkpt lat="59.9765957" lon="17.84574">
        <ele>24.1703</ele>
        <time>2013-04-30T18:17:42Z</time>
      </trkpt>
      <trkpt lat="59.9766749" lon="17.8457981">
        <ele>24.651</ele>
        <time>2013-04-30T18:17:43Z</time>
      </trkpt>
      <trkpt lat="59.9767537" lon="17.8458559">
        <ele>25.1317</ele>
        <time>2013-04-30T18:17:44Z</time>
      </trkpt>
      <trkpt lat="59.9768328" lon="17.8459125">
        <ele>25.1317</ele>
        <time>2013-04-30T18:17:45Z</time>
      </trkpt>
      <trkpt lat="59.9769117" lon="17.8459704">
        <ele>25.6123</ele>
        <time>2013-04-30T18:17:46Z</time>
      </trkpt>
      <trkpt lat="59.9769904" lon="17.8460296">
        <ele>26.0929</ele>
        <time>2013-04-30T18:17:47Z</time>
      </trkpt>
      <trkpt lat="59.977069" lon="17.8460883">
        <ele>26.0929</ele>
        <time>2013-04-30T18:17:48Z</time>
      </trkpt>
      <trkpt lat="59.9771482" lon="17.8461478">
        <ele>26.5736</ele>
        <time>2013-04-30T18:17:49Z</time>
      </trkpt>
      <trkpt lat="59.9772275" lon="17.8462064">
        <ele>26.5736</ele>
        <time>2013-04-30T18:17:50Z</time>
      </trkpt>
      <trkpt lat="59.9773069" lon="17.8462655">
        <ele>27.0543</ele>
        <time>2013-04-30T18:17:51Z</time>
      </trkpt>
      <trkpt lat="59.9773862" lon="17.8463208">
        <ele>25.6123</ele>
        <time>2013-04-30T18:17:52Z</time>
      </trkpt>
      <trkpt lat="59.9774681" lon="17.8463773">
        <ele>25.6123</ele>
        <time>2013-04-30T18:17:53Z</time>
      </trkpt>
      <trkpt lat="59.9775509" lon="17.846428">
        <ele>25.6123</ele>
        <time>2013-04-30T18:17:54Z</time>
      </trkpt>
      <trkpt lat="59.9776333" lon="17.8464708">
        <ele>24.651</ele>
        <time>2013-04-30T18:17:55Z</time>
      </trkpt>
      <trkpt lat="59.977717" lon="17.8465129">
        <ele>24.1703</ele>
        <time>2013-04-30T18:17:56Z</time>
      </trkpt>
      <trkpt lat="59.9778012" lon="17.8465478">
        <ele>23.6896</ele>
        <time>2013-04-30T18:17:57Z</time>
      </trkpt>
      <trkpt lat="59.9778849" lon="17.8465752">
        <ele>23.209</ele>
        <time>2013-04-30T18:17:58Z</time>
      </trkpt>
      <trkpt lat="59.9779688" lon="17.8465984">
        <ele>22.7283</ele>
        <time>2013-04-30T18:17:59Z</time>
      </trkpt>
      <trkpt lat="59.9780533" lon="17.8466176">
        <ele>22.7283</ele>
        <time>2013-04-30T18:18:00Z</time>
      </trkpt>
      <trkpt lat="59.9781374" lon="17.8466291">
        <ele>22.2476</ele>
        <time>2013-04-30T18:18:01Z</time>
      </trkpt>
      <trkpt lat="59.9782207" lon="17.8466376">
        <ele>21.767</ele>
        <time>2013-04-30T18:18:02Z</time>
      </trkpt>
      <trkpt lat="59.9783031" lon="17.8466434">
        <ele>21.767</ele>
        <time>2013-04-30T18:18:03Z</time>
      </trkpt>
      <trkpt lat="59.9783842" lon="17.8466404">
        <ele>21.2864</ele>
        <time>2013-04-30T18:18:04Z</time>
      </trkpt>
      <trkpt lat="59.978464" lon="17.846634">
        <ele>21.2864</ele>
        <time>2013-04-30T18:18:05Z</time>
      </trkpt>
      <trkpt lat="59.9785434" lon="17.8466246">
        <ele>20.8057</ele>
        <time>2013-04-30T18:18:06Z</time>
      </trkpt>
      <trkpt lat="59.9786216" lon="17.8466086">
        <ele>20.8057</ele>
        <time>2013-04-30T18:18:07Z</time>
      </trkpt>
      <trkpt lat="59.9786998" lon="17.8465864">
        <ele>20.325</ele>
        <time>2013-04-30T18:18:08Z</time>
      </trkpt>
      <trkpt lat="59.9787781" lon="17.8465642">
        <ele>20.325</ele>
        <time>2013-04-30T18:18:09Z</time>
      </trkpt>
      <trkpt lat="59.9788562" lon="17.846542">
        <ele>20.325</ele>
        <time>2013-04-30T18:18:10Z</time>
      </trkpt>
      <trkpt lat="59.9789339" lon="17.8465187">
        <ele>20.325</ele>
        <time>2013-04-30T18:18:11Z</time>
      </trkpt>
      <trkpt lat="59.9790107" lon="17.8464949">
        <ele>19.8444</ele>
        <time>2013-04-30T18:18:12Z</time>
      </trkpt>
      <trkpt lat="59.9790861" lon="17.8464701">
        <ele>19.8444</ele>
        <time>2013-04-30T18:18:13Z</time>
      </trkpt>
      <trkpt lat="59.9791598" lon="17.8464456">
        <ele>19.3638</ele>
        <time>2013-04-30T18:18:14Z</time>
      </trkpt>
      <trkpt lat="59.9792325" lon="17.8464244">
        <ele>19.3638</ele>
        <time>2013-04-30T18:18:15Z</time>
      </trkpt>
      <trkpt lat="59.9793044" lon="17.8464042">
        <ele>19.3638</ele>
        <time>2013-04-30T18:18:16Z</time>
      </trkpt>
      <trkpt lat="59.9793757" lon="17.8463875">
        <ele>19.3638</ele>
        <time>2013-04-30T18:18:17Z</time>
      </trkpt>
      <trkpt lat="59.9794474" lon="17.8463715">
        <ele>18.8831</ele>
        <time>2013-04-30T18:18:18Z</time>
      </trkpt>
      <trkpt lat="59.9795194" lon="17.8463596">
        <ele>18.4023</ele>
        <time>2013-04-30T18:18:19Z</time>
      </trkpt>
      <trkpt lat="59.9795922" lon="17.8463529">
        <ele>18.4023</ele>
        <time>2013-04-30T18:18:20Z</time>
      </trkpt>
      <trkpt lat="59.9796639" lon="17.8463494">
        <ele>17.9218</ele>
        <time>2013-04-30T18:18:21Z</time>
      </trkpt>
      <trkpt lat="59.9797358" lon="17.8463545">
        <ele>17.4412</ele>
        <time>2013-04-30T18:18:22Z</time>
      </trkpt>
      <trkpt lat="59.9798069" lon="17.8463679">
        <ele>17.4412</ele>
        <time>2013-04-30T18:18:23Z</time>
      </trkpt>
      <trkpt lat="59.9798778" lon="17.8463876">
        <ele>16.9604</ele>
        <time>2013-04-30T18:18:24Z</time>
      </trkpt>
      <trkpt lat="59.9799498" lon="17.8464135">
        <ele>16.9604</ele>
        <time>2013-04-30T18:18:25Z</time>
      </trkpt>
      <trkpt lat="59.9800228" lon="17.8464437">
        <ele>16.9604</ele>
        <time>2013-04-30T18:18:26Z</time>
      </trkpt>
      <trkpt lat="59.9800967" lon="17.8464789">
        <ele>17.4412</ele>
        <time>2013-04-30T18:18:27Z</time>
      </trkpt>
      <trkpt lat="59.9801715" lon="17.8465182">
        <ele>17.4412</ele>
        <time>2013-04-30T18:18:28Z</time>
      </trkpt>
      <trkpt lat="59.9802467" lon="17.8465654">
        <ele>17.4412</ele>
        <time>2013-04-30T18:18:29Z</time>
      </trkpt>
      <trkpt lat="59.9803218" lon="17.8466234">
        <ele>17.4412</ele>
        <time>2013-04-30T18:18:30Z</time>
      </trkpt>
      <trkpt lat="59.9803963" lon="17.8466922">
        <ele>17.9218</ele>
        <time>2013-04-30T18:18:31Z</time>
      </trkpt>
      <trkpt lat="59.9804694" lon="17.8467709">
        <ele>17.9218</ele>
        <time>2013-04-30T18:18:32Z</time>
      </trkpt>
      <trkpt lat="59.9805412" lon="17.846859">
        <ele>17.9218</ele>
        <time>2013-04-30T18:18:33Z</time>
      </trkpt>
      <trkpt lat="59.9806118" lon="17.8469544">
        <ele>17.9218</ele>
        <time>2013-04-30T18:18:34Z</time>
      </trkpt>
      <trkpt lat="59.9806824" lon="17.847057">
        <ele>17.9218</ele>
        <time>2013-04-30T18:18:35Z</time>
      </trkpt>
      <trkpt lat="59.9807515" lon="17.8471655">
        <ele>17.9218</ele>
        <time>2013-04-30T18:18:36Z</time>
      </trkpt>
      <trkpt lat="59.9808201" lon="17.8472801">
        <ele>17.9218</ele>
        <time>2013-04-30T18:18:37Z</time>
      </trkpt>
      <trkpt lat="59.9808847" lon="17.8474029">
        <ele>17.9218</ele>
        <time>2013-04-30T18:18:38Z</time>
      </trkpt>
      <trkpt lat="59.9809475" lon="17.8475329">
        <ele>17.9218</ele>
        <time>2013-04-30T18:18:39Z</time>
      </trkpt>
      <trkpt lat="59.9810091" lon="17.8476686">
        <ele>17.9218</ele>
        <time>2013-04-30T18:18:40Z</time>
      </trkpt>
      <trkpt lat="59.9810692" lon="17.8478089">
        <ele>17.9218</ele>
        <time>2013-04-30T18:18:41Z</time>
      </trkpt>
      <trkpt lat="59.9811291" lon="17.847952">
        <ele>17.9218</ele>
        <time>2013-04-30T18:18:42Z</time>
      </trkpt>
      <trkpt lat="59.981189" lon="17.848097">
        <ele>17.9218</ele>
        <time>2013-04-30T18:18:43Z</time>
      </trkpt>
      <trkpt lat="59.9812491" lon="17.8482416">
        <ele>17.9218</ele>
        <time>2013-04-30T18:18:44Z</time>
      </trkpt>
      <trkpt lat="59.9813094" lon="17.8483875">
        <ele>18.4023</ele>
        <time>2013-04-30T18:18:45Z</time>
      </trkpt>
      <trkpt lat="59.9813698" lon="17.8485333">
        <ele>18.8831</ele>
        <time>2013-04-30T18:18:46Z</time>
      </trkpt>
      <trkpt lat="59.9814303" lon="17.8486746">
        <ele>18.8831</ele>
        <time>2013-04-30T18:18:47Z</time>
      </trkpt>
      <trkpt lat="59.9814926" lon="17.8488092">
        <ele>18.8831</ele>
        <time>2013-04-30T18:18:48Z</time>
      </trkpt>
      <trkpt lat="59.9815578" lon="17.8489332">
        <ele>18.8831</ele>
        <time>2013-04-30T18:18:49Z</time>
      </trkpt>
      <trkpt lat="59.9816247" lon="17.849048">
        <ele>18.8831</ele>
        <time>2013-04-30T18:18:50Z</time>
      </trkpt>
      <trkpt lat="59.9816958" lon="17.8491518">
        <ele>18.8831</ele>
        <time>2013-04-30T18:18:51Z</time>
      </trkpt>
      <trkpt lat="59.9817701" lon="17.8492458">
        <ele>19.3638</ele>
        <time>2013-04-30T18:18:52Z</time>
      </trkpt>
      <trkpt lat="59.9818478" lon="17.8493355">
        <ele>19.3638</ele>
        <time>2013-04-30T18:18:53Z</time>
      </trkpt>
      <trkpt lat="59.981926" lon="17.8494206">
        <ele>19.8444</ele>
        <time>2013-04-30T18:18:54Z</time>
      </trkpt>
      <trkpt lat="59.9820048" lon="17.8495091">
        <ele>19.8444</ele>
        <time>2013-04-30T18:18:55Z</time>
      </trkpt>
      <trkpt lat="59.9820817" lon="17.8496013">
        <ele>19.8444</ele>
        <time>2013-04-30T18:18:56Z</time>
      </trkpt>
      <trkpt lat="59.9821555" lon="17.8496975">
        <ele>20.325</ele>
        <time>2013-04-30T18:18:57Z</time>
      </trkpt>
      <trkpt lat="59.9822209" lon="17.8498044">
        <ele>19.3638</ele>
        <time>2013-04-30T18:18:58Z</time>
      </trkpt>
      <trkpt lat="59.9822834" lon="17.8499202">
        <ele>18.8831</ele>
        <time>2013-04-30T18:18:59Z</time>
      </trkpt>
      <trkpt lat="59.9823446" lon="17.8500406">
        <ele>19.3638</ele>
        <time>2013-04-30T18:19:00Z</time>
      </trkpt>
      <trkpt lat="59.9824009" lon="17.8501598">
        <ele>18.4023</ele>
        <time>2013-04-30T18:19:01Z</time>
      </trkpt>
      <trkpt lat="59.9824544" lon="17.8502799">
        <ele>18.4023</ele>
        <time>2013-04-30T18:19:02Z</time>
      </trkpt>
      <trkpt lat="59.9825029" lon="17.8504002">
        <ele>17.9218</ele>
        <time>2013-04-30T18:19:03Z</time>
      </trkpt>
      <trkpt lat="59.9825459" lon="17.8505244">
        <ele>17.9218</ele>
        <time>2013-04-30T18:19:04Z</time>
      </trkpt>
      <trkpt lat="59.9825843" lon="17.8506429">
        <ele>17.9218</ele>
        <time>2013-04-30T18:19:05Z</time>
      </trkpt>
      <trkpt lat="59.98263" lon="17.8507504">
        <ele>17.9218</ele>
        <time>2013-04-30T18:19:06Z</time>
      </trkpt>
      <trkpt lat="59.982679" lon="17.8508587">
        <ele>18.4023</ele>
        <time>2013-04-30T18:19:07Z</time>
      </trkpt>
      <trkpt lat="59.9827321" lon="17.8509785">
        <ele>18.8831</ele>
        <time>2013-04-30T18:19:08Z</time>
      </trkpt>
      <trkpt lat="59.9827725" lon="17.8510709">
        <ele>18.4023</ele>
        <time>2013-04-30T18:19:09Z</time>
      </trkpt>
      <trkpt lat="59.9828179" lon="17.8511721">
        <ele>18.4023</ele>
        <time>2013-04-30T18:19:10Z</time>
      </trkpt>
      <trkpt lat="59.9828748" lon="17.8512765">
        <ele>18.4023</ele>
        <time>2013-04-30T18:19:11Z</time>
      </trkpt>
      <trkpt lat="59.9829367" lon="17.8513828">
        <ele>20.325</ele>
        <time>2013-04-30T18:19:12Z</time>
      </trkpt>
      <trkpt lat="59.9829988" lon="17.8514741">
        <ele>20.8057</ele>
        <time>2013-04-30T18:19:13Z</time>
      </trkpt>
      <trkpt lat="59.9830671" lon="17.8515584">
        <ele>20.325</ele>
        <time>2013-04-30T18:19:14Z</time>
      </trkpt>
      <trkpt lat="59.9831252" lon="17.8516433">
        <ele>21.767</ele>
        <time>2013-04-30T18:19:15Z</time>
      </trkpt>
      <trkpt lat="59.9831838" lon="17.8517014">
        <ele>21.2864</ele>
        <time>2013-04-30T18:19:16Z</time>
      </trkpt>
      <trkpt lat="59.9832273" lon="17.8517636">
        <ele>20.8057</ele>
        <time>2013-04-30T18:19:17Z</time>
      </trkpt>
      <trkpt lat="59.983283" lon="17.8518329">
        <ele>21.767</ele>
        <time>2013-04-30T18:19:18Z</time>
      </trkpt>
      <trkpt lat="59.9833434" lon="17.8519056">
        <ele>22.7283</ele>
        <time>2013-04-30T18:19:19Z</time>
      </trkpt>
      <trkpt lat="59.9834042" lon="17.8519847">
        <ele>23.209</ele>
        <time>2013-04-30T18:19:20Z</time>
      </trkpt>
      <trkpt lat="59.9834609" lon="17.852054">
        <ele>21.767</ele>
        <time>2013-04-30T18:19:21Z</time>
      </trkpt>
      <trkpt lat="59.983522" lon="17.8521257">
        <ele>21.2864</ele>
        <time>2013-04-30T18:19:22Z</time>
      </trkpt>
      <trkpt lat="59.983583" lon="17.8522017">
        <ele>20.8057</ele>
        <time>2013-04-30T18:19:23Z</time>
      </trkpt>
      <trkpt lat="59.9836501" lon="17.852282">
        <ele>19.8444</ele>
        <time>2013-04-30T18:19:24Z</time>
      </trkpt>
      <trkpt lat="59.9837215" lon="17.8523555">
        <ele>17.9218</ele>
        <time>2013-04-30T18:19:25Z</time>
      </trkpt>
      <trkpt lat="59.9837958" lon="17.8524321">
        <ele>16.9604</ele>
        <time>2013-04-30T18:19:26Z</time>
      </trkpt>
      <trkpt lat="59.9838779" lon="17.8525131">
        <ele>17.9218</ele>
        <time>2013-04-30T18:19:27Z</time>
      </trkpt>
      <trkpt lat="59.9839616" lon="17.8525958">
        <ele>17.9218</ele>
        <time>2013-04-30T18:19:28Z</time>
      </trkpt>
      <trkpt lat="59.9840481" lon="17.8526838">
        <ele>18.8831</ele>
        <time>2013-04-30T18:19:29Z</time>
      </trkpt>
      <trkpt lat="59.9841349" lon="17.8527662">
        <ele>18.8831</ele>
        <time>2013-04-30T18:19:30Z</time>
      </trkpt>
      <trkpt lat="59.984222" lon="17.8528481">
        <ele>18.8831</ele>
        <time>2013-04-30T18:19:31Z</time>
      </trkpt>
      <trkpt lat="59.9843116" lon="17.8529143">
        <ele>18.8831</ele>
        <time>2013-04-30T18:19:32Z</time>
      </trkpt>
      <trkpt lat="59.984404" lon="17.8529706">
        <ele>19.8444</ele>
        <time>2013-04-30T18:19:33Z</time>
      </trkpt>
      <trkpt lat="59.9844981" lon="17.853018">
        <ele>19.8444</ele>
        <time>2013-04-30T18:19:34Z</time>
      </trkpt>
      <trkpt lat="59.984592" lon="17.8530528">
        <ele>19.3638</ele>
        <time>2013-04-30T18:19:35Z</time>
      </trkpt>
      <trkpt lat="59.9846894" lon="17.8530682">
        <ele>19.3638</ele>
        <time>2013-04-30T18:19:36Z</time>
      </trkpt>
      <trkpt lat="59.984787" lon="17.8530703">
        <ele>19.3638</ele>
        <time>2013-04-30T18:19:37Z</time>
      </trkpt>
      <trkpt lat="59.9848849" lon="17.8530602">
        <ele>19.3638</ele>
        <time>2013-04-30T18:19:38Z</time>
      </trkpt>
      <trkpt lat="59.9849806" lon="17.8530483">
        <ele>19.8444</ele>
        <time>2013-04-30T18:19:39Z</time>
      </trkpt>
      <trkpt lat="59.985075" lon="17.8530424">
        <ele>19.8444</ele>
        <time>2013-04-30T18:19:40Z</time>
      </trkpt>
      <trkpt lat="59.9851681" lon="17.8530296">
        <ele>20.325</ele>
        <time>2013-04-30T18:19:41Z</time>
      </trkpt>
      <trkpt lat="59.9852594" lon="17.8530221">
        <ele>21.2864</ele>
        <time>2013-04-30T18:19:42Z</time>
      </trkpt>
      <trkpt lat="59.9853481" lon="17.8530222">
        <ele>21.767</ele>
        <time>2013-04-30T18:19:43Z</time>
      </trkpt>
      <trkpt lat="59.9854312" lon="17.8530309">
        <ele>21.2864</ele>
        <time>2013-04-30T18:19:44Z</time>
      </trkpt>
      <trkpt lat="59.9855102" lon="17.8530473">
        <ele>20.8057</ele>
        <time>2013-04-30T18:19:45Z</time>
      </trkpt>
      <trkpt lat="59.9855846" lon="17.8530721">
        <ele>19.8444</ele>
        <time>2013-04-30T18:19:46Z</time>
      </trkpt>
      <trkpt lat="59.9856562" lon="17.8531052">
        <ele>18.4023</ele>
        <time>2013-04-30T18:19:47Z</time>
      </trkpt>
      <trkpt lat="59.9857298" lon="17.8531425">
        <ele>16.4797</ele>
        <time>2013-04-30T18:19:48Z</time>
      </trkpt>
      <trkpt lat="59.9858093" lon="17.8531886">
        <ele>15.999</ele>
        <time>2013-04-30T18:19:49Z</time>
      </trkpt>
      <trkpt lat="59.9858907" lon="17.8532376">
        <ele>15.5184</ele>
        <time>2013-04-30T18:19:50Z</time>
      </trkpt>
      <trkpt lat="59.9859731" lon="17.8532932">
        <ele>15.0377</ele>
        <time>2013-04-30T18:19:51Z</time>
      </trkpt>
      <trkpt lat="59.9860587" lon="17.85335">
        <ele>15.0377</ele>
        <time>2013-04-30T18:19:52Z</time>
      </trkpt>
      <trkpt lat="59.9861451" lon="17.8534099">
        <ele>15.0377</ele>
        <time>2013-04-30T18:19:53Z</time>
      </trkpt>
      <trkpt lat="59.9862331" lon="17.8534708">
        <ele>15.0377</ele>
        <time>2013-04-30T18:19:54Z</time>
      </trkpt>
      <trkpt lat="59.9863234" lon="17.8535292">
        <ele>15.0377</ele>
        <time>2013-04-30T18:19:55Z</time>
      </trkpt>
      <trkpt lat="59.9864146" lon="17.8535869">
        <ele>15.5184</ele>
        <time>2013-04-30T18:19:56Z</time>
      </trkpt>
      <trkpt lat="59.9865062" lon="17.853643">
        <ele>15.5184</ele>
        <time>2013-04-30T18:19:57Z</time>
      </trkpt>
      <trkpt lat="59.9865995" lon="17.8536978">
        <ele>15.999</ele>
        <time>2013-04-30T18:19:58Z</time>
      </trkpt>
      <trkpt lat="59.9866896" lon="17.8537585">
        <ele>15.999</ele>
        <time>2013-04-30T18:19:59Z</time>
      </trkpt>
      <trkpt lat="59.9867772" lon="17.8538277">
        <ele>15.999</ele>
        <time>2013-04-30T18:20:00Z</time>
      </trkpt>
      <trkpt lat="59.9868611" lon="17.8539117">
        <ele>16.4797</ele>
        <time>2013-04-30T18:20:01Z</time>
      </trkpt>
      <trkpt lat="59.9869374" lon="17.8540138">
        <ele>16.4797</ele>
        <time>2013-04-30T18:20:02Z</time>
      </trkpt>
      <trkpt lat="59.9870083" lon="17.8541288">
        <ele>16.9604</ele>
        <time>2013-04-30T18:20:03Z</time>
      </trkpt>
      <trkpt lat="59.9870782" lon="17.8542509">
        <ele>17.9218</ele>
        <time>2013-04-30T18:20:04Z</time>
      </trkpt>
      <trkpt lat="59.9871444" lon="17.8543722">
        <ele>16.9604</ele>
        <time>2013-04-30T18:20:05Z</time>
      </trkpt>
      <trkpt lat="59.9872095" lon="17.8544923">
        <ele>16.9604</ele>
        <time>2013-04-30T18:20:06Z</time>
      </trkpt>
      <trkpt lat="59.9872719" lon="17.8546087">
        <ele>16.9604</ele>
        <time>2013-04-30T18:20:07Z</time>
      </trkpt>
      <trkpt lat="59.9873324" lon="17.8547269">
        <ele>16.9604</ele>
        <time>2013-04-30T18:20:08Z</time>
      </trkpt>
      <trkpt lat="59.987393" lon="17.854841">
        <ele>16.9604</ele>
        <time>2013-04-30T18:20:09Z</time>
      </trkpt>
      <trkpt lat="59.9874553" lon="17.854953">
        <ele>16.9604</ele>
        <time>2013-04-30T18:20:10Z</time>
      </trkpt>
      <trkpt lat="59.9875186" lon="17.8550627">
        <ele>17.4412</ele>
        <time>2013-04-30T18:20:11Z</time>
      </trkpt>
      <trkpt lat="59.9875823" lon="17.8551739">
        <ele>17.4412</ele>
        <time>2013-04-30T18:20:12Z</time>
      </trkpt>
      <trkpt lat="59.9876455" lon="17.8552876">
        <ele>17.4412</ele>
        <time>2013-04-30T18:20:13Z</time>
      </trkpt>
      <trkpt lat="59.9877091" lon="17.8554066">
        <ele>17.9218</ele>
        <time>2013-04-30T18:20:14Z</time>
      </trkpt>
      <trkpt lat="59.9877738" lon="17.8555242">
        <ele>17.9218</ele>
        <time>2013-04-30T18:20:15Z</time>
      </trkpt>
      <trkpt lat="59.9878413" lon="17.8556403">
        <ele>17.9218</ele>
        <time>2013-04-30T18:20:16Z</time>
      </trkpt>
      <trkpt lat="59.9879094" lon="17.8557566">
        <ele>18.4023</ele>
        <time>2013-04-30T18:20:17Z</time>
      </trkpt>
      <trkpt lat="59.9879765" lon="17.8558712">
        <ele>18.4023</ele>
        <time>2013-04-30T18:20:18Z</time>
      </trkpt>
      <trkpt lat="59.9880441" lon="17.8559853">
        <ele>18.8831</ele>
        <time>2013-04-30T18:20:19Z</time>
      </trkpt>
      <trkpt lat="59.9881111" lon="17.8560965">
        <ele>18.8831</ele>
        <time>2013-04-30T18:20:20Z</time>
      </trkpt>
      <trkpt lat="59.9881778" lon="17.8562056">
        <ele>19.3638</ele>
        <time>2013-04-30T18:20:21Z</time>
      </trkpt>
      <trkpt lat="59.9882437" lon="17.8563142">
        <ele>19.8444</ele>
        <time>2013-04-30T18:20:22Z</time>
      </trkpt>
      <trkpt lat="59.9883082" lon="17.8564224">
        <ele>19.8444</ele>
        <time>2013-04-30T18:20:23Z</time>
      </trkpt>
      <trkpt lat="59.9883706" lon="17.8565261">
        <ele>20.325</ele>
        <time>2013-04-30T18:20:24Z</time>
      </trkpt>
      <trkpt lat="59.988432" lon="17.856628">
        <ele>20.8057</ele>
        <time>2013-04-30T18:20:25Z</time>
      </trkpt>
      <trkpt lat="59.9884932" lon="17.8567296">
        <ele>20.8057</ele>
        <time>2013-04-30T18:20:26Z</time>
      </trkpt>
      <trkpt lat="59.9885541" lon="17.8568237">
        <ele>21.2864</ele>
        <time>2013-04-30T18:20:27Z</time>
      </trkpt>
      <trkpt lat="59.9886146" lon="17.8569135">
        <ele>21.767</ele>
        <time>2013-04-30T18:20:28Z</time>
      </trkpt>
      <trkpt lat="59.9886745" lon="17.8570022">
        <ele>22.2476</ele>
        <time>2013-04-30T18:20:29Z</time>
      </trkpt>
      <trkpt lat="59.9887354" lon="17.8570874">
        <ele>22.7283</ele>
        <time>2013-04-30T18:20:30Z</time>
      </trkpt>
      <trkpt lat="59.9887967" lon="17.8571704">
        <ele>22.7283</ele>
        <time>2013-04-30T18:20:31Z</time>
      </trkpt>
      <trkpt lat="59.988859" lon="17.8572564">
        <ele>23.209</ele>
        <time>2013-04-30T18:20:32Z</time>
      </trkpt>
      <trkpt lat="59.9889223" lon="17.8573443">
        <ele>23.6896</ele>
        <time>2013-04-30T18:20:33Z</time>
      </trkpt>
      <trkpt lat="59.9889864" lon="17.857433">
        <ele>23.6896</ele>
        <time>2013-04-30T18:20:34Z</time>
      </trkpt>
      <trkpt lat="59.989049" lon="17.8575248">
        <ele>23.6896</ele>
        <time>2013-04-30T18:20:35Z</time>
      </trkpt>
      <trkpt lat="59.9891073" lon="17.8576238">
        <ele>24.1703</ele>
        <time>2013-04-30T18:20:36Z</time>
      </trkpt>
      <trkpt lat="59.9891621" lon="17.8577373">
        <ele>24.1703</ele>
        <time>2013-04-30T18:20:37Z</time>
      </trkpt>
      <trkpt lat="59.9892101" lon="17.8578619">
        <ele>24.651</ele>
        <time>2013-04-30T18:20:38Z</time>
      </trkpt>
      <trkpt lat="59.9892518" lon="17.8579936">
        <ele>24.651</ele>
        <time>2013-04-30T18:20:39Z</time>
      </trkpt>
      <trkpt lat="59.9892911" lon="17.8581297">
        <ele>24.651</ele>
        <time>2013-04-30T18:20:40Z</time>
      </trkpt>
      <trkpt lat="59.9893294" lon="17.8582678">
        <ele>24.651</ele>
        <time>2013-04-30T18:20:41Z</time>
      </trkpt>
      <trkpt lat="59.9893678" lon="17.8584065">
        <ele>24.651</ele>
        <time>2013-04-30T18:20:42Z</time>
      </trkpt>
      <trkpt lat="59.9894069" lon="17.8585469">
        <ele>24.651</ele>
        <time>2013-04-30T18:20:43Z</time>
      </trkpt>
      <trkpt lat="59.989447" lon="17.8586887">
        <ele>24.651</ele>
        <time>2013-04-30T18:20:44Z</time>
      </trkpt>
      <trkpt lat="59.9894916" lon="17.8588428">
        <ele>24.651</ele>
        <time>2013-04-30T18:20:45Z</time>
      </trkpt>
      <trkpt lat="59.9895316" lon="17.8589881">
        <ele>24.651</ele>
        <time>2013-04-30T18:20:46Z</time>
      </trkpt>
      <trkpt lat="59.9895796" lon="17.8591235">
        <ele>24.1703</ele>
        <time>2013-04-30T18:20:47Z</time>
      </trkpt>
      <trkpt lat="59.9896329" lon="17.8592517">
        <ele>24.1703</ele>
        <time>2013-04-30T18:20:48Z</time>
      </trkpt>
      <trkpt lat="59.9896915" lon="17.8593722">
        <ele>24.1703</ele>
        <time>2013-04-30T18:20:49Z</time>
      </trkpt>
      <trkpt lat="59.9897535" lon="17.8594865">
        <ele>24.1703</ele>
        <time>2013-04-30T18:20:50Z</time>
      </trkpt>
      <trkpt lat="59.9898205" lon="17.8595994">
        <ele>24.1703</ele>
        <time>2013-04-30T18:20:51Z</time>
      </trkpt>
      <trkpt lat="59.9898899" lon="17.8597073">
        <ele>23.6896</ele>
        <time>2013-04-30T18:20:52Z</time>
      </trkpt>
      <trkpt lat="59.9899591" lon="17.8598153">
        <ele>23.6896</ele>
        <time>2013-04-30T18:20:53Z</time>
      </trkpt>
      <trkpt lat="59.9900332" lon="17.8599274">
        <ele>23.209</ele>
        <time>2013-04-30T18:20:54Z</time>
      </trkpt>
      <trkpt lat="59.9901115" lon="17.8600284">
        <ele>23.6896</ele>
        <time>2013-04-30T18:20:55Z</time>
      </trkpt>
      <trkpt lat="59.9901912" lon="17.8601183">
        <ele>23.6896</ele>
        <time>2013-04-30T18:20:56Z</time>
      </trkpt>
      <trkpt lat="59.9902746" lon="17.8601802">
        <ele>23.209</ele>
        <time>2013-04-30T18:20:57Z</time>
      </trkpt>
      <trkpt lat="59.9903583" lon="17.8602433">
        <ele>23.209</ele>
        <time>2013-04-30T18:20:58Z</time>
      </trkpt>
      <trkpt lat="59.9904422" lon="17.8602997">
        <ele>23.209</ele>
        <time>2013-04-30T18:20:59Z</time>
      </trkpt>
      <trkpt lat="59.9905318" lon="17.860351">
        <ele>23.209</ele>
        <time>2013-04-30T18:21:00Z</time>
      </trkpt>
      <trkpt lat="59.9906198" lon="17.8604096">
        <ele>23.209</ele>
        <time>2013-04-30T18:21:01Z</time>
      </trkpt>
      <trkpt lat="59.9907089" lon="17.8604706">
        <ele>23.209</ele>
        <time>2013-04-30T18:21:02Z</time>
      </trkpt>
      <trkpt lat="59.990799" lon="17.860536">
        <ele>23.209</ele>
        <time>2013-04-30T18:21:03Z</time>
      </trkpt>
      <trkpt lat="59.9908884" lon="17.8606048">
        <ele>22.7283</ele>
        <time>2013-04-30T18:21:04Z</time>
      </trkpt>
      <trkpt lat="59.9909783" lon="17.8606774">
        <ele>22.7283</ele>
        <time>2013-04-30T18:21:05Z</time>
      </trkpt>
      <trkpt lat="59.9910688" lon="17.860754">
        <ele>22.7283</ele>
        <time>2013-04-30T18:21:06Z</time>
      </trkpt>
      <trkpt lat="59.9911595" lon="17.8608354">
        <ele>22.2476</ele>
        <time>2013-04-30T18:21:07Z</time>
      </trkpt>
      <trkpt lat="59.9912507" lon="17.8609218">
        <ele>22.2476</ele>
        <time>2013-04-30T18:21:08Z</time>
      </trkpt>
      <trkpt lat="59.9913417" lon="17.86101">
        <ele>22.2476</ele>
        <time>2013-04-30T18:21:09Z</time>
      </trkpt>
      <trkpt lat="59.9914321" lon="17.8611012">
        <ele>22.2476</ele>
        <time>2013-04-30T18:21:10Z</time>
      </trkpt>
      <trkpt lat="59.991521" lon="17.8611981">
        <ele>21.767</ele>
        <time>2013-04-30T18:21:11Z</time>
      </trkpt>
      <trkpt lat="59.9916081" lon="17.8612995">
        <ele>21.767</ele>
        <time>2013-04-30T18:21:12Z</time>
      </trkpt>
      <trkpt lat="59.9916936" lon="17.8614035">
        <ele>22.2476</ele>
        <time>2013-04-30T18:21:13Z</time>
      </trkpt>
      <trkpt lat="59.9917781" lon="17.8615094">
        <ele>22.2476</ele>
        <time>2013-04-30T18:21:14Z</time>
      </trkpt>
      <trkpt lat="59.9918619" lon="17.861616">
        <ele>22.2476</ele>
        <time>2013-04-30T18:21:15Z</time>
      </trkpt>
      <trkpt lat="59.9919447" lon="17.8617242">
        <ele>22.2476</ele>
        <time>2013-04-30T18:21:16Z</time>
      </trkpt>
      <trkpt lat="59.9920271" lon="17.8618343">
        <ele>22.2476</ele>
        <time>2013-04-30T18:21:17Z</time>
      </trkpt>
      <trkpt lat="59.9921095" lon="17.861944">
        <ele>22.2476</ele>
        <time>2013-04-30T18:21:18Z</time>
      </trkpt>
      <trkpt lat="59.9921918" lon="17.8620521">
        <ele>22.2476</ele>
        <time>2013-04-30T18:21:19Z</time>
      </trkpt>
      <trkpt lat="59.9922741" lon="17.8621593">
        <ele>22.7283</ele>
        <time>2013-04-30T18:21:20Z</time>
      </trkpt>
      <trkpt lat="59.9923559" lon="17.8622672">
        <ele>22.7283</ele>
        <time>2013-04-30T18:21:21Z</time>
      </trkpt>
      <trkpt lat="59.9924378" lon="17.8623754">
        <ele>23.209</ele>
        <time>2013-04-30T18:21:22Z</time>
      </trkpt>
      <trkpt lat="59.9925198" lon="17.8624827">
        <ele>23.209</ele>
        <time>2013-04-30T18:21:23Z</time>
      </trkpt>
      <trkpt lat="59.9926021" lon="17.8625898">
        <ele>23.209</ele>
        <time>2013-04-30T18:21:24Z</time>
      </trkpt>
      <trkpt lat="59.9926846" lon="17.8626965">
        <ele>23.6896</ele>
        <time>2013-04-30T18:21:25Z</time>
      </trkpt>
      <trkpt lat="59.9927672" lon="17.8628017">
        <ele>23.6896</ele>
        <time>2013-04-30T18:21:26Z</time>
      </trkpt>
      <trkpt lat="59.9928504" lon="17.8629069">
        <ele>23.6896</ele>
        <time>2013-04-30T18:21:27Z</time>
      </trkpt>
      <trkpt lat="59.9929335" lon="17.8630152">
        <ele>24.1703</ele>
        <time>2013-04-30T18:21:28Z</time>
      </trkpt>
      <trkpt lat="59.9930155" lon="17.8631259">
        <ele>24.1703</ele>
        <time>2013-04-30T18:21:29Z</time>
      </trkpt>
      <trkpt lat="59.9930963" lon="17.8632338">
        <ele>24.1703</ele>
        <time>2013-04-30T18:21:30Z</time>
      </trkpt>
      <trkpt lat="59.993176" lon="17.863338">
        <ele>24.1703</ele>
        <time>2013-04-30T18:21:31Z</time>
      </trkpt>
      <trkpt lat="59.993254" lon="17.8634395">
        <ele>24.1703</ele>
        <time>2013-04-30T18:21:32Z</time>
      </trkpt>
      <trkpt lat="59.9933305" lon="17.8635403">
        <ele>24.651</ele>
        <time>2013-04-30T18:21:33Z</time>
      </trkpt>
      <trkpt lat="59.9934057" lon="17.863641">
        <ele>24.651</ele>
        <time>2013-04-30T18:21:34Z</time>
      </trkpt>
      <trkpt lat="59.9934802" lon="17.8637388">
        <ele>25.1317</ele>
        <time>2013-04-30T18:21:35Z</time>
      </trkpt>
      <trkpt lat="59.9935537" lon="17.863834">
        <ele>25.1317</ele>
        <time>2013-04-30T18:21:36Z</time>
      </trkpt>
      <trkpt lat="59.9936268" lon="17.8639278">
        <ele>25.6123</ele>
        <time>2013-04-30T18:21:37Z</time>
      </trkpt>
      <trkpt lat="59.9937002" lon="17.8640211">
        <ele>25.6123</ele>
        <time>2013-04-30T18:21:38Z</time>
      </trkpt>
      <trkpt lat="59.9937739" lon="17.8641145">
        <ele>26.0929</ele>
        <time>2013-04-30T18:21:39Z</time>
      </trkpt>
      <trkpt lat="59.9938475" lon="17.8642061">
        <ele>26.0929</ele>
        <time>2013-04-30T18:21:40Z</time>
      </trkpt>
      <trkpt lat="59.9939222" lon="17.8642951">
        <ele>26.0929</ele>
        <time>2013-04-30T18:21:41Z</time>
      </trkpt>
      <trkpt lat="59.9939975" lon="17.8643828">
        <ele>26.5736</ele>
        <time>2013-04-30T18:21:42Z</time>
      </trkpt>
      <trkpt lat="59.9940734" lon="17.8644676">
        <ele>27.0543</ele>
        <time>2013-04-30T18:21:43Z</time>
      </trkpt>
      <trkpt lat="59.9941495" lon="17.8645483">
        <ele>27.0543</ele>
        <time>2013-04-30T18:21:44Z</time>
      </trkpt>
      <trkpt lat="59.9942268" lon="17.8646234">
        <ele>27.0543</ele>
        <time>2013-04-30T18:21:45Z</time>
      </trkpt>
      <trkpt lat="59.9943028" lon="17.8646858">
        <ele>27.0543</ele>
        <time>2013-04-30T18:21:46Z</time>
      </trkpt>
      <trkpt lat="59.9943794" lon="17.8647443">
        <ele>27.5349</ele>
        <time>2013-04-30T18:21:47Z</time>
      </trkpt>
      <trkpt lat="59.9944562" lon="17.8647977">
        <ele>28.0155</ele>
        <time>2013-04-30T18:21:48Z</time>
      </trkpt>
      <trkpt lat="59.9945328" lon="17.8648453">
        <ele>27.5349</ele>
        <time>2013-04-30T18:21:49Z</time>
      </trkpt>
      <trkpt lat="59.9946093" lon="17.8648892">
        <ele>27.5349</ele>
        <time>2013-04-30T18:21:50Z</time>
      </trkpt>
      <trkpt lat="59.9946857" lon="17.8649276">
        <ele>27.5349</ele>
        <time>2013-04-30T18:21:51Z</time>
      </trkpt>
      <trkpt lat="59.9947613" lon="17.8649609">
        <ele>27.0543</ele>
        <time>2013-04-30T18:21:52Z</time>
      </trkpt>
      <trkpt lat="59.9948359" lon="17.8649914">
        <ele>27.0543</ele>
        <time>2013-04-30T18:21:53Z</time>
      </trkpt>
      <trkpt lat="59.9949104" lon="17.8650205">
        <ele>27.0543</ele>
        <time>2013-04-30T18:21:54Z</time>
      </trkpt>
      <trkpt lat="59.9949836" lon="17.8650443">
        <ele>26.5736</ele>
        <time>2013-04-30T18:21:55Z</time>
      </trkpt>
      <trkpt lat="59.9950566" lon="17.8650634">
        <ele>26.5736</ele>
        <time>2013-04-30T18:21:56Z</time>
      </trkpt>
      <trkpt lat="59.9951285" lon="17.8650836">
        <ele>26.5736</ele>
        <time>2013-04-30T18:21:57Z</time>
      </trkpt>
      <trkpt lat="59.9952001" lon="17.8651049">
        <ele>26.5736</ele>
        <time>2013-04-30T18:21:58Z</time>
      </trkpt>
      <trkpt lat="59.9952724" lon="17.8651243">
        <ele>26.5736</ele>
        <time>2013-04-30T18:21:59Z</time>
      </trkpt>
      <trkpt lat="59.9953452" lon="17.865143">
        <ele>26.5736</ele>
        <time>2013-04-30T18:22:00Z</time>
      </trkpt>
      <trkpt lat="59.9954186" lon="17.8651618">
        <ele>27.0543</ele>
        <time>2013-04-30T18:22:01Z</time>
      </trkpt>
      <trkpt lat="59.9954918" lon="17.8651813">
        <ele>26.5736</ele>
        <time>2013-04-30T18:22:02Z</time>
      </trkpt>
      <trkpt lat="59.9955728" lon="17.8652163">
        <ele>25.6123</ele>
        <time>2013-04-30T18:22:03Z</time>
      </trkpt>
      <trkpt lat="59.9956522" lon="17.865239">
        <ele>24.651</ele>
        <time>2013-04-30T18:22:04Z</time>
      </trkpt>
      <trkpt lat="59.9957305" lon="17.8652572">
        <ele>24.651</ele>
        <time>2013-04-30T18:22:05Z</time>
      </trkpt>
      <trkpt lat="59.9957959" lon="17.8652526">
        <ele>25.1317</ele>
        <time>2013-04-30T18:22:06Z</time>
      </trkpt>
      <trkpt lat="59.9958691" lon="17.8652675">
        <ele>23.6896</ele>
        <time>2013-04-30T18:22:07Z</time>
      </trkpt>
      <trkpt lat="59.9959434" lon="17.8652861">
        <ele>23.209</ele>
        <time>2013-04-30T18:22:08Z</time>
      </trkpt>
      <trkpt lat="59.9960127" lon="17.8653025">
        <ele>22.7283</ele>
        <time>2013-04-30T18:22:09Z</time>
      </trkpt>
      <trkpt lat="59.99608" lon="17.8653172">
        <ele>21.767</ele>
        <time>2013-04-30T18:22:10Z</time>
      </trkpt>
      <trkpt lat="59.9961407" lon="17.8653298">
        <ele>20.325</ele>
        <time>2013-04-30T18:22:11Z</time>
      </trkpt>
      <trkpt lat="59.9962017" lon="17.8653478">
        <ele>19.3638</ele>
        <time>2013-04-30T18:22:12Z</time>
      </trkpt>
      <trkpt lat="59.9962625" lon="17.8653626">
        <ele>18.4023</ele>
        <time>2013-04-30T18:22:13Z</time>
      </trkpt>
      <trkpt lat="59.996327" lon="17.8653778">
        <ele>18.4023</ele>
        <time>2013-04-30T18:22:14Z</time>
      </trkpt>
      <trkpt lat="59.9963902" lon="17.8653904">
        <ele>18.4023</ele>
        <time>2013-04-30T18:22:15Z</time>
      </trkpt>
      <trkpt lat="59.99645" lon="17.8654026">
        <ele>18.4023</ele>
        <time>2013-04-30T18:22:16Z</time>
      </trkpt>
      <trkpt lat="59.9965049" lon="17.8654149">
        <ele>18.4023</ele>
        <time>2013-04-30T18:22:17Z</time>
      </trkpt>
      <trkpt lat="59.9965606" lon="17.8654297">
        <ele>18.4023</ele>
        <time>2013-04-30T18:22:18Z</time>
      </trkpt>
      <trkpt lat="59.9966188" lon="17.8654427">
        <ele>18.8831</ele>
        <time>2013-04-30T18:22:19Z</time>
      </trkpt>
      <trkpt lat="59.9966705" lon="17.8654545">
        <ele>18.4023</ele>
        <time>2013-04-30T18:22:20Z</time>
      </trkpt>
      <trkpt lat="59.9967214" lon="17.865466">
        <ele>18.4023</ele>
        <time>2013-04-30T18:22:21Z</time>
      </trkpt>
      <trkpt lat="59.9967727" lon="17.8654772">
        <ele>18.4023</ele>
        <time>2013-04-30T18:22:22Z</time>
      </trkpt>
      <trkpt lat="59.996825" lon="17.8654846">
        <ele>18.4023</ele>
        <time>2013-04-30T18:22:23Z</time>
      </trkpt>
      <trkpt lat="59.9968787" lon="17.8654846">
        <ele>18.8831</ele>
        <time>2013-04-30T18:22:24Z</time>
      </trkpt>
      <trkpt lat="59.9969315" lon="17.8654821">
        <ele>18.4023</ele>
        <time>2013-04-30T18:22:25Z</time>
      </trkpt>
      <trkpt lat="59.9969866" lon="17.8654783">
        <ele>18.8831</ele>
        <time>2013-04-30T18:22:26Z</time>
      </trkpt>
      <trkpt lat="59.9970374" lon="17.8654623">
        <ele>18.4023</ele>
        <time>2013-04-30T18:22:27Z</time>
      </trkpt>
      <trkpt lat="59.9970935" lon="17.8654473">
        <ele>18.4023</ele>
        <time>2013-04-30T18:22:28Z</time>
      </trkpt>
      <trkpt lat="59.9971529" lon="17.8654265">
        <ele>17.4412</ele>
        <time>2013-04-30T18:22:29Z</time>
      </trkpt>
      <trkpt lat="59.9972152" lon="17.8654006">
        <ele>17.4412</ele>
        <time>2013-04-30T18:22:30Z</time>
      </trkpt>
      <trkpt lat="59.9972758" lon="17.865364">
        <ele>16.9604</ele>
        <time>2013-04-30T18:22:31Z</time>
      </trkpt>
      <trkpt lat="59.997342" lon="17.8653172">
        <ele>16.9604</ele>
        <time>2013-04-30T18:22:32Z</time>
      </trkpt>
      <trkpt lat="59.9974078" lon="17.8652561">
        <ele>16.9604</ele>
        <time>2013-04-30T18:22:33Z</time>
      </trkpt>
      <trkpt lat="59.9974741" lon="17.8651877">
        <ele>16.9604</ele>
        <time>2013-04-30T18:22:34Z</time>
      </trkpt>
      <trkpt lat="59.9975358" lon="17.8651135">
        <ele>16.4797</ele>
        <time>2013-04-30T18:22:35Z</time>
      </trkpt>
      <trkpt lat="59.9975972" lon="17.8650352">
        <ele>15.999</ele>
        <time>2013-04-30T18:22:36Z</time>
      </trkpt>
      <trkpt lat="59.997659" lon="17.864956">
        <ele>15.5184</ele>
        <time>2013-04-30T18:22:37Z</time>
      </trkpt>
      <trkpt lat="59.99772" lon="17.8648742">
        <ele>15.0377</ele>
        <time>2013-04-30T18:22:38Z</time>
      </trkpt>
      <trkpt lat="59.9977797" lon="17.8647884">
        <ele>14.0764</ele>
        <time>2013-04-30T18:22:39Z</time>
      </trkpt>
      <trkpt lat="59.9978403" lon="17.8646998">
        <ele>14.0764</ele>
        <time>2013-04-30T18:22:40Z</time>
      </trkpt>
      <trkpt lat="59.9979013" lon="17.8646095">
        <ele>14.0764</ele>
        <time>2013-04-30T18:22:41Z</time>
      </trkpt>
      <trkpt lat="59.997962" lon="17.864518">
        <ele>13.5958</ele>
        <time>2013-04-30T18:22:42Z</time>
      </trkpt>
      <trkpt lat="59.9980217" lon="17.8644262">
        <ele>13.1151</ele>
        <time>2013-04-30T18:22:43Z</time>
      </trkpt>
      <trkpt lat="59.9980825" lon="17.8643346">
        <ele>13.1151</ele>
        <time>2013-04-30T18:22:44Z</time>
      </trkpt>
      <trkpt lat="59.9981403" lon="17.8642429">
        <ele>12.6344</ele>
        <time>2013-04-30T18:22:45Z</time>
      </trkpt>
      <trkpt lat="59.9981977" lon="17.8641487">
        <ele>12.6344</ele>
        <time>2013-04-30T18:22:46Z</time>
      </trkpt>
      <trkpt lat="59.9982553" lon="17.8640554">
        <ele>12.6344</ele>
        <time>2013-04-30T18:22:47Z</time>
      </trkpt>
      <trkpt lat="59.998312" lon="17.863964">
        <ele>12.1538</ele>
        <time>2013-04-30T18:22:48Z</time>
      </trkpt>
      <trkpt lat="59.9983692" lon="17.8638725">
        <ele>12.1538</ele>
        <time>2013-04-30T18:22:49Z</time>
      </trkpt>
      <trkpt lat="59.9984267" lon="17.8637814">
        <ele>12.1538</ele>
        <time>2013-04-30T18:22:50Z</time>
      </trkpt>
      <trkpt lat="59.9984878" lon="17.8636897">
        <ele>12.1538</ele>
        <time>2013-04-30T18:22:51Z</time>
      </trkpt>
      <trkpt lat="59.9985485" lon="17.8635995">
        <ele>12.6344</ele>
        <time>2013-04-30T18:22:52Z</time>
      </trkpt>
      <trkpt lat="59.9986092" lon="17.8635104">
        <ele>12.6344</ele>
        <time>2013-04-30T18:22:53Z</time>
      </trkpt>
      <trkpt lat="59.9986687" lon="17.8634218">
        <ele>12.6344</ele>
        <time>2013-04-30T18:22:54Z</time>
      </trkpt>
      <trkpt lat="59.998728" lon="17.8633336">
        <ele>13.1151</ele>
        <time>2013-04-30T18:22:55Z</time>
      </trkpt>
      <trkpt lat="59.9987866" lon="17.8632457">
        <ele>13.1151</ele>
        <time>2013-04-30T18:22:56Z</time>
      </trkpt>
      <trkpt lat="59.9988448" lon="17.8631587">
        <ele>13.1151</ele>
        <time>2013-04-30T18:22:57Z</time>
      </trkpt>
      <trkpt lat="59.9989022" lon="17.8630739">
        <ele>13.1151</ele>
        <time>2013-04-30T18:22:58Z</time>
      </trkpt>
      <trkpt lat="59.9989577" lon="17.8629914">
        <ele>13.1151</ele>
        <time>2013-04-30T18:22:59Z</time>
      </trkpt>
      <trkpt lat="59.999012" lon="17.8629074">
        <ele>13.1151</ele>
        <time>2013-04-30T18:23:00Z</time>
      </trkpt>
      <trkpt lat="59.9990652" lon="17.8628237">
        <ele>13.1151</ele>
        <time>2013-04-30T18:23:01Z</time>
      </trkpt>
      <trkpt lat="59.9991186" lon="17.862739">
        <ele>12.6344</ele>
        <time>2013-04-30T18:23:02Z</time>
      </trkpt>
      <trkpt lat="59.9991719" lon="17.8626504">
        <ele>12.6344</ele>
        <time>2013-04-30T18:23:03Z</time>
      </trkpt>
      <trkpt lat="59.9992233" lon="17.8625564">
        <ele>12.6344</ele>
        <time>2013-04-30T18:23:04Z</time>
      </trkpt>
      <trkpt lat="59.9992721" lon="17.8624561">
        <ele>12.6344</ele>
        <time>2013-04-30T18:23:05Z</time>
      </trkpt>
      <trkpt lat="59.9993181" lon="17.8623505">
        <ele>12.1538</ele>
        <time>2013-04-30T18:23:06Z</time>
      </trkpt>
      <trkpt lat="59.9993648" lon="17.8622434">
        <ele>11.6732</ele>
        <time>2013-04-30T18:23:07Z</time>
      </trkpt>
      <trkpt lat="59.9994113" lon="17.8621356">
        <ele>11.1925</ele>
        <time>2013-04-30T18:23:08Z</time>
      </trkpt>
      <trkpt lat="59.9994612" lon="17.8620277">
        <ele>11.1925</ele>
        <time>2013-04-30T18:23:09Z</time>
      </trkpt>
      <trkpt lat="59.9995107" lon="17.8619197">
        <ele>10.7118</ele>
        <time>2013-04-30T18:23:10Z</time>
      </trkpt>
      <trkpt lat="59.9995627" lon="17.8618144">
        <ele>10.7118</ele>
        <time>2013-04-30T18:23:11Z</time>
      </trkpt>
      <trkpt lat="59.9996191" lon="17.8617139">
        <ele>10.7118</ele>
        <time>2013-04-30T18:23:12Z</time>
      </trkpt>
      <trkpt lat="59.9996796" lon="17.8616202">
        <ele>10.7118</ele>
        <time>2013-04-30T18:23:13Z</time>
      </trkpt>
      <trkpt lat="59.9997412" lon="17.8615366">
        <ele>10.7118</ele>
        <time>2013-04-30T18:23:14Z</time>
      </trkpt>
      <trkpt lat="59.9998053" lon="17.8614641">
        <ele>10.7118</ele>
        <time>2013-04-30T18:23:15Z</time>
      </trkpt>
      <trkpt lat="59.999871" lon="17.8613998">
        <ele>11.1925</ele>
        <time>2013-04-30T18:23:16Z</time>
      </trkpt>
      <trkpt lat="59.9999388" lon="17.8613439">
        <ele>11.6732</ele>
        <time>2013-04-30T18:23:17Z</time>
      </trkpt>
      <trkpt lat="60.0000049" lon="17.8612932">
        <ele>11.6732</ele>
        <time>2013-04-30T18:23:18Z</time>
      </trkpt>
      <trkpt lat="60.0000693" lon="17.8612488">
        <ele>11.6732</ele>
        <time>2013-04-30T18:23:19Z</time>
      </trkpt>
      <trkpt lat="60.0001459" lon="17.8612126">
        <ele>12.1538</ele>
        <time>2013-04-30T18:23:20Z</time>
      </trkpt>
      <trkpt lat="60.0002155" lon="17.8611854">
        <ele>12.1538</ele>
        <time>2013-04-30T18:23:21Z</time>
      </trkpt>
      <trkpt lat="60.0002856" lon="17.8611601">
        <ele>12.6344</ele>
        <time>2013-04-30T18:23:22Z</time>
      </trkpt>
      <trkpt lat="60.0003548" lon="17.861137">
        <ele>12.6344</ele>
        <time>2013-04-30T18:23:23Z</time>
      </trkpt>
      <trkpt lat="60.0004247" lon="17.8611062">
        <ele>12.6344</ele>
        <time>2013-04-30T18:23:24Z</time>
      </trkpt>
      <trkpt lat="60.0004883" lon="17.86107">
        <ele>12.6344</ele>
        <time>2013-04-30T18:23:25Z</time>
      </trkpt>
      <trkpt lat="60.0005522" lon="17.8610297">
        <ele>12.1538</ele>
        <time>2013-04-30T18:23:26Z</time>
      </trkpt>
      <trkpt lat="60.0006178" lon="17.8609888">
        <ele>12.1538</ele>
        <time>2013-04-30T18:23:27Z</time>
      </trkpt>
      <trkpt lat="60.0006811" lon="17.8609448">
        <ele>11.6732</ele>
        <time>2013-04-30T18:23:28Z</time>
      </trkpt>
      <trkpt lat="60.0007477" lon="17.8609054">
        <ele>11.1925</ele>
        <time>2013-04-30T18:23:29Z</time>
      </trkpt>
      <trkpt lat="60.0008174" lon="17.8608736">
        <ele>10.2312</ele>
        <time>2013-04-30T18:23:30Z</time>
      </trkpt>
      <trkpt lat="60.0008914" lon="17.8608535">
        <ele>10.2312</ele>
        <time>2013-04-30T18:23:31Z</time>
      </trkpt>
      <trkpt lat="60.000969" lon="17.8608385">
        <ele>10.2312</ele>
        <time>2013-04-30T18:23:32Z</time>
      </trkpt>
      <trkpt lat="60.0010489" lon="17.8608295">
        <ele>10.2312</ele>
        <time>2013-04-30T18:23:33Z</time>
      </trkpt>
      <trkpt lat="60.0011257" lon="17.860824">
        <ele>10.2312</ele>
        <time>2013-04-30T18:23:34Z</time>
      </trkpt>
      <trkpt lat="60.001201" lon="17.8608204">
        <ele>10.2312</ele>
        <time>2013-04-30T18:23:35Z</time>
      </trkpt>
      <trkpt lat="60.0012754" lon="17.8608195">
        <ele>10.2312</ele>
        <time>2013-04-30T18:23:36Z</time>
      </trkpt>
      <trkpt lat="60.0013508" lon="17.8608192">
        <ele>10.2312</ele>
        <time>2013-04-30T18:23:37Z</time>
      </trkpt>
      <trkpt lat="60.0014261" lon="17.8608177">
        <ele>10.2312</ele>
        <time>2013-04-30T18:23:38Z</time>
      </trkpt>
      <trkpt lat="60.0015011" lon="17.8608152">
        <ele>10.7118</ele>
        <time>2013-04-30T18:23:39Z</time>
      </trkpt>
      <trkpt lat="60.0015748" lon="17.8608064">
        <ele>10.7118</ele>
        <time>2013-04-30T18:23:40Z</time>
      </trkpt>
      <trkpt lat="60.0016467" lon="17.8607941">
        <ele>10.7118</ele>
        <time>2013-04-30T18:23:41Z</time>
      </trkpt>
      <trkpt lat="60.0017169" lon="17.8607852">
        <ele>10.2312</ele>
        <time>2013-04-30T18:23:42Z</time>
      </trkpt>
      <trkpt lat="60.0017865" lon="17.8607753">
        <ele>10.2312</ele>
        <time>2013-04-30T18:23:43Z</time>
      </trkpt>
      <trkpt lat="60.0018565" lon="17.860758">
        <ele>10.7118</ele>
        <time>2013-04-30T18:23:44Z</time>
      </trkpt>
      <trkpt lat="60.0019254" lon="17.8607378">
        <ele>10.7118</ele>
        <time>2013-04-30T18:23:45Z</time>
      </trkpt>
      <trkpt lat="60.001993" lon="17.8607158">
        <ele>10.7118</ele>
        <time>2013-04-30T18:23:46Z</time>
      </trkpt>
      <trkpt lat="60.00206" lon="17.8606909">
        <ele>10.7118</ele>
        <time>2013-04-30T18:23:47Z</time>
      </trkpt>
      <trkpt lat="60.0021272" lon="17.8606646">
        <ele>10.7118</ele>
        <time>2013-04-30T18:23:48Z</time>
      </trkpt>
      <trkpt lat="60.0021936" lon="17.8606364">
        <ele>10.7118</ele>
        <time>2013-04-30T18:23:49Z</time>
      </trkpt>
      <trkpt lat="60.0022599" lon="17.8606042">
        <ele>10.7118</ele>
        <time>2013-04-30T18:23:50Z</time>
      </trkpt>
      <trkpt lat="60.0023273" lon="17.8605711">
        <ele>10.7118</ele>
        <time>2013-04-30T18:23:51Z</time>
      </trkpt>
      <trkpt lat="60.002394" lon="17.8605376">
        <ele>10.7118</ele>
        <time>2013-04-30T18:23:52Z</time>
      </trkpt>
      <trkpt lat="60.0024601" lon="17.8605021">
        <ele>10.2312</ele>
        <time>2013-04-30T18:23:53Z</time>
      </trkpt>
      <trkpt lat="60.0025272" lon="17.8604662">
        <ele>10.2312</ele>
        <time>2013-04-30T18:23:54Z</time>
      </trkpt>
      <trkpt lat="60.0025946" lon="17.8604301">
        <ele>9.75061</ele>
        <time>2013-04-30T18:23:55Z</time>
      </trkpt>
      <trkpt lat="60.002662" lon="17.860393">
        <ele>9.75061</ele>
        <time>2013-04-30T18:23:56Z</time>
      </trkpt>
      <trkpt lat="60.0027298" lon="17.8603557">
        <ele>9.75061</ele>
        <time>2013-04-30T18:23:57Z</time>
      </trkpt>
      <trkpt lat="60.0027982" lon="17.860319">
        <ele>9.75061</ele>
        <time>2013-04-30T18:23:58Z</time>
      </trkpt>
      <trkpt lat="60.0028656" lon="17.8602816">
        <ele>9.75061</ele>
        <time>2013-04-30T18:23:59Z</time>
      </trkpt>
      <trkpt lat="60.002934" lon="17.8602447">
        <ele>9.75061</ele>
        <time>2013-04-30T18:24:00Z</time>
      </trkpt>
      <trkpt lat="60.0030034" lon="17.8602092">
        <ele>10.2312</ele>
        <time>2013-04-30T18:24:01Z</time>
      </trkpt>
      <trkpt lat="60.0030718" lon="17.8601734">
        <ele>10.2312</ele>
        <time>2013-04-30T18:24:02Z</time>
      </trkpt>
      <trkpt lat="60.003142" lon="17.8601388">
        <ele>10.2312</ele>
        <time>2013-04-30T18:24:03Z</time>
      </trkpt>
      <trkpt lat="60.0032116" lon="17.8601014">
        <ele>9.75061</ele>
        <time>2013-04-30T18:24:04Z</time>
      </trkpt>
      <trkpt lat="60.0032825" lon="17.860064">
        <ele>9.75061</ele>
        <time>2013-04-30T18:24:05Z</time>
      </trkpt>
      <trkpt lat="60.0033528" lon="17.8600274">
        <ele>9.75061</ele>
        <time>2013-04-30T18:24:06Z</time>
      </trkpt>
      <trkpt lat="60.0034228" lon="17.8599915">
        <ele>10.2312</ele>
        <time>2013-04-30T18:24:07Z</time>
      </trkpt>
      <trkpt lat="60.0034927" lon="17.8599548">
        <ele>10.2312</ele>
        <time>2013-04-30T18:24:08Z</time>
      </trkpt>
      <trkpt lat="60.0035617" lon="17.859917">
        <ele>10.2312</ele>
        <time>2013-04-30T18:24:09Z</time>
      </trkpt>
      <trkpt lat="60.0036301" lon="17.8598787">
        <ele>10.2312</ele>
        <time>2013-04-30T18:24:10Z</time>
      </trkpt>
      <trkpt lat="60.0036988" lon="17.8598398">
        <ele>10.2312</ele>
        <time>2013-04-30T18:24:11Z</time>
      </trkpt>
      <trkpt lat="60.0037665" lon="17.8597999">
        <ele>10.2312</ele>
        <time>2013-04-30T18:24:12Z</time>
      </trkpt>
      <trkpt lat="60.0038341" lon="17.8597611">
        <ele>10.2312</ele>
        <time>2013-04-30T18:24:13Z</time>
      </trkpt>
      <trkpt lat="60.0039012" lon="17.8597253">
        <ele>10.7118</ele>
        <time>2013-04-30T18:24:14Z</time>
      </trkpt>
      <trkpt lat="60.0039684" lon="17.8596885">
        <ele>10.7118</ele>
        <time>2013-04-30T18:24:15Z</time>
      </trkpt>
      <trkpt lat="60.0040362" lon="17.8596481">
        <ele>10.7118</ele>
        <time>2013-04-30T18:24:16Z</time>
      </trkpt>
      <trkpt lat="60.0041052" lon="17.8596073">
        <ele>10.2312</ele>
        <time>2013-04-30T18:24:17Z</time>
      </trkpt>
      <trkpt lat="60.0041754" lon="17.8595668">
        <ele>10.2312</ele>
        <time>2013-04-30T18:24:18Z</time>
      </trkpt>
      <trkpt lat="60.0042444" lon="17.8595232">
        <ele>9.75061</ele>
        <time>2013-04-30T18:24:19Z</time>
      </trkpt>
      <trkpt lat="60.0043145" lon="17.8594782">
        <ele>9.75061</ele>
        <time>2013-04-30T18:24:20Z</time>
      </trkpt>
      <trkpt lat="60.0043858" lon="17.8594328">
        <ele>9.75061</ele>
        <time>2013-04-30T18:24:21Z</time>
      </trkpt>
      <trkpt lat="60.0044572" lon="17.8593866">
        <ele>9.75061</ele>
        <time>2013-04-30T18:24:22Z</time>
      </trkpt>
      <trkpt lat="60.0045278" lon="17.85934">
        <ele>9.2699</ele>
        <time>2013-04-30T18:24:23Z</time>
      </trkpt>
      <trkpt lat="60.0045983" lon="17.859296">
        <ele>9.2699</ele>
        <time>2013-04-30T18:24:24Z</time>
      </trkpt>
      <trkpt lat="60.0046683" lon="17.8592537">
        <ele>9.2699</ele>
        <time>2013-04-30T18:24:25Z</time>
      </trkpt>
      <trkpt lat="60.0047379" lon="17.8592142">
        <ele>9.2699</ele>
        <time>2013-04-30T18:24:26Z</time>
      </trkpt>
      <trkpt lat="60.0048076" lon="17.8591782">
        <ele>9.2699</ele>
        <time>2013-04-30T18:24:27Z</time>
      </trkpt>
      <trkpt lat="60.004877" lon="17.8591431">
        <ele>9.2699</ele>
        <time>2013-04-30T18:24:28Z</time>
      </trkpt>
      <trkpt lat="60.0049464" lon="17.8591063">
        <ele>9.75061</ele>
        <time>2013-04-30T18:24:29Z</time>
      </trkpt>
      <trkpt lat="60.0050166" lon="17.8590707">
        <ele>9.75061</ele>
        <time>2013-04-30T18:24:30Z</time>
      </trkpt>
      <trkpt lat="60.0050872" lon="17.8590404">
        <ele>10.2312</ele>
        <time>2013-04-30T18:24:31Z</time>
      </trkpt>
      <trkpt lat="60.0051584" lon="17.8590139">
        <ele>10.2312</ele>
        <time>2013-04-30T18:24:32Z</time>
      </trkpt>
      <trkpt lat="60.0052307" lon="17.8589865">
        <ele>10.2312</ele>
        <time>2013-04-30T18:24:33Z</time>
      </trkpt>
      <trkpt lat="60.0053028" lon="17.8589561">
        <ele>10.2312</ele>
        <time>2013-04-30T18:24:34Z</time>
      </trkpt>
      <trkpt lat="60.0053753" lon="17.8589255">
        <ele>10.2312</ele>
        <time>2013-04-30T18:24:35Z</time>
      </trkpt>
      <trkpt lat="60.0054489" lon="17.858896">
        <ele>9.75061</ele>
        <time>2013-04-30T18:24:36Z</time>
      </trkpt>
      <trkpt lat="60.0055236" lon="17.8588666">
        <ele>9.75061</ele>
        <time>2013-04-30T18:24:37Z</time>
      </trkpt>
      <trkpt lat="60.0055991" lon="17.8588359">
        <ele>9.75061</ele>
        <time>2013-04-30T18:24:38Z</time>
      </trkpt>
      <trkpt lat="60.005675" lon="17.8588039">
        <ele>9.2699</ele>
        <time>2013-04-30T18:24:39Z</time>
      </trkpt>
      <trkpt lat="60.0057509" lon="17.8587737">
        <ele>9.2699</ele>
        <time>2013-04-30T18:24:40Z</time>
      </trkpt>
      <trkpt lat="60.005827" lon="17.8587457">
        <ele>9.2699</ele>
        <time>2013-04-30T18:24:41Z</time>
      </trkpt>
      <trkpt lat="60.0059032" lon="17.8587178">
        <ele>9.2699</ele>
        <time>2013-04-30T18:24:42Z</time>
      </trkpt>
      <trkpt lat="60.0059784" lon="17.8586886">
        <ele>9.2699</ele>
        <time>2013-04-30T18:24:43Z</time>
      </trkpt>
      <trkpt lat="60.0060529" lon="17.8586602">
        <ele>9.2699</ele>
        <time>2013-04-30T18:24:44Z</time>
      </trkpt>
      <trkpt lat="60.0061274" lon="17.8586339">
        <ele>9.2699</ele>
        <time>2013-04-30T18:24:45Z</time>
      </trkpt>
      <trkpt lat="60.0062005" lon="17.858609">
        <ele>9.2699</ele>
        <time>2013-04-30T18:24:46Z</time>
      </trkpt>
      <trkpt lat="60.0062755" lon="17.8585835">
        <ele>9.2699</ele>
        <time>2013-04-30T18:24:47Z</time>
      </trkpt>
      <trkpt lat="60.0063503" lon="17.858554">
        <ele>9.2699</ele>
        <time>2013-04-30T18:24:48Z</time>
      </trkpt>
      <trkpt lat="60.0064248" lon="17.8585228">
        <ele>9.2699</ele>
        <time>2013-04-30T18:24:49Z</time>
      </trkpt>
      <trkpt lat="60.0064999" lon="17.858494">
        <ele>8.78918</ele>
        <time>2013-04-30T18:24:50Z</time>
      </trkpt>
      <trkpt lat="60.0065712" lon="17.8584639">
        <ele>8.30859</ele>
        <time>2013-04-30T18:24:51Z</time>
      </trkpt>
      <trkpt lat="60.0066408" lon="17.8584225">
        <ele>7.82788</ele>
        <time>2013-04-30T18:24:52Z</time>
      </trkpt>
      <trkpt lat="60.0067124" lon="17.8583935">
        <ele>7.82788</ele>
        <time>2013-04-30T18:24:53Z</time>
      </trkpt>
      <trkpt lat="60.0067827" lon="17.8583697">
        <ele>7.82788</ele>
        <time>2013-04-30T18:24:54Z</time>
      </trkpt>
      <trkpt lat="60.0068548" lon="17.8583459">
        <ele>7.34717</ele>
        <time>2013-04-30T18:24:55Z</time>
      </trkpt>
      <trkpt lat="60.0069293" lon="17.8583262">
        <ele>7.82788</ele>
        <time>2013-04-30T18:24:56Z</time>
      </trkpt>
      <trkpt lat="60.0070013" lon="17.8583106">
        <ele>7.82788</ele>
        <time>2013-04-30T18:24:57Z</time>
      </trkpt>
      <trkpt lat="60.0070759" lon="17.858298">
        <ele>7.82788</ele>
        <time>2013-04-30T18:24:58Z</time>
      </trkpt>
      <trkpt lat="60.0071501" lon="17.8582894">
        <ele>7.82788</ele>
        <time>2013-04-30T18:24:59Z</time>
      </trkpt>
      <trkpt lat="60.0072245" lon="17.8582827">
        <ele>7.34717</ele>
        <time>2013-04-30T18:25:00Z</time>
      </trkpt>
      <trkpt lat="60.0073003" lon="17.8582762">
        <ele>7.82788</ele>
        <time>2013-04-30T18:25:01Z</time>
      </trkpt>
      <trkpt lat="60.007376" lon="17.8582692">
        <ele>7.82788</ele>
        <time>2013-04-30T18:25:02Z</time>
      </trkpt>
      <trkpt lat="60.0074516" lon="17.8582645">
        <ele>7.82788</ele>
        <time>2013-04-30T18:25:03Z</time>
      </trkpt>
      <trkpt lat="60.0075275" lon="17.8582573">
        <ele>7.82788</ele>
        <time>2013-04-30T18:25:04Z</time>
      </trkpt>
      <trkpt lat="60.0076062" lon="17.8582514">
        <ele>7.82788</ele>
        <time>2013-04-30T18:25:05Z</time>
      </trkpt>
      <trkpt lat="60.0076837" lon="17.8582393">
        <ele>8.30859</ele>
        <time>2013-04-30T18:25:06Z</time>
      </trkpt>
      <trkpt lat="60.0077608" lon="17.8582232">
        <ele>8.30859</ele>
        <time>2013-04-30T18:25:07Z</time>
      </trkpt>
      <trkpt lat="60.0078384" lon="17.8582046">
        <ele>8.30859</ele>
        <time>2013-04-30T18:25:08Z</time>
      </trkpt>
      <trkpt lat="60.0079147" lon="17.8581853">
        <ele>8.30859</ele>
        <time>2013-04-30T18:25:09Z</time>
      </trkpt>
      <trkpt lat="60.0079895" lon="17.8581636">
        <ele>8.30859</ele>
        <time>2013-04-30T18:25:10Z</time>
      </trkpt>
      <trkpt lat="60.008063" lon="17.8581335">
        <ele>8.30859</ele>
        <time>2013-04-30T18:25:11Z</time>
      </trkpt>
      <trkpt lat="60.0081374" lon="17.858103">
        <ele>8.30859</ele>
        <time>2013-04-30T18:25:12Z</time>
      </trkpt>
      <trkpt lat="60.0082122" lon="17.8580801">
        <ele>8.78918</ele>
        <time>2013-04-30T18:25:13Z</time>
      </trkpt>
      <trkpt lat="60.0082879" lon="17.8580624">
        <ele>8.78918</ele>
        <time>2013-04-30T18:25:14Z</time>
      </trkpt>
      <trkpt lat="60.0083633" lon="17.8580443">
        <ele>8.78918</ele>
        <time>2013-04-30T18:25:15Z</time>
      </trkpt>
      <trkpt lat="60.0084383" lon="17.8580232">
        <ele>8.78918</ele>
        <time>2013-04-30T18:25:16Z</time>
      </trkpt>
      <trkpt lat="60.0085129" lon="17.8580009">
        <ele>8.78918</ele>
        <time>2013-04-30T18:25:17Z</time>
      </trkpt>
      <trkpt lat="60.008587" lon="17.8579791">
        <ele>8.78918</ele>
        <time>2013-04-30T18:25:18Z</time>
      </trkpt>
      <trkpt lat="60.00866" lon="17.8579578">
        <ele>9.2699</ele>
        <time>2013-04-30T18:25:19Z</time>
      </trkpt>
      <trkpt lat="60.0087318" lon="17.8579344">
        <ele>9.2699</ele>
        <time>2013-04-30T18:25:20Z</time>
      </trkpt>
      <trkpt lat="60.008803" lon="17.8579086">
        <ele>9.2699</ele>
        <time>2013-04-30T18:25:21Z</time>
      </trkpt>
      <trkpt lat="60.008874" lon="17.8578829">
        <ele>9.2699</ele>
        <time>2013-04-30T18:25:22Z</time>
      </trkpt>
      <trkpt lat="60.0089453" lon="17.8578577">
        <ele>9.2699</ele>
        <time>2013-04-30T18:25:23Z</time>
      </trkpt>
      <trkpt lat="60.009016" lon="17.8578303">
        <ele>9.2699</ele>
        <time>2013-04-30T18:25:24Z</time>
      </trkpt>
      <trkpt lat="60.0090879" lon="17.8578021">
        <ele>9.2699</ele>
        <time>2013-04-30T18:25:25Z</time>
      </trkpt>
      <trkpt lat="60.0091607" lon="17.8577735">
        <ele>9.2699</ele>
        <time>2013-04-30T18:25:26Z</time>
      </trkpt>
      <trkpt lat="60.0092336" lon="17.8577449">
        <ele>9.2699</ele>
        <time>2013-04-30T18:25:27Z</time>
      </trkpt>
      <trkpt lat="60.0093065" lon="17.8577147">
        <ele>9.2699</ele>
        <time>2013-04-30T18:25:28Z</time>
      </trkpt>
      <trkpt lat="60.0093786" lon="17.8576834">
        <ele>9.2699</ele>
        <time>2013-04-30T18:25:29Z</time>
      </trkpt>
      <trkpt lat="60.0094508" lon="17.8576538">
        <ele>9.2699</ele>
        <time>2013-04-30T18:25:30Z</time>
      </trkpt>
      <trkpt lat="60.0095233" lon="17.8576258">
        <ele>9.2699</ele>
        <time>2013-04-30T18:25:31Z</time>
      </trkpt>
      <trkpt lat="60.0095964" lon="17.8576011">
        <ele>9.75061</ele>
        <time>2013-04-30T18:25:32Z</time>
      </trkpt>
      <trkpt lat="60.009669" lon="17.8575808">
        <ele>9.75061</ele>
        <time>2013-04-30T18:25:33Z</time>
      </trkpt>
      <trkpt lat="60.0097414" lon="17.8575637">
        <ele>9.75061</ele>
        <time>2013-04-30T18:25:34Z</time>
      </trkpt>
      <trkpt lat="60.0098147" lon="17.8575524">
        <ele>10.2312</ele>
        <time>2013-04-30T18:25:35Z</time>
      </trkpt>
      <trkpt lat="60.0098877" lon="17.8575455">
        <ele>10.7118</ele>
        <time>2013-04-30T18:25:36Z</time>
      </trkpt>
      <trkpt lat="60.0099596" lon="17.8575393">
        <ele>10.7118</ele>
        <time>2013-04-30T18:25:37Z</time>
      </trkpt>
      <trkpt lat="60.0100308" lon="17.8575361">
        <ele>11.1925</ele>
        <time>2013-04-30T18:25:38Z</time>
      </trkpt>
      <trkpt lat="60.0101026" lon="17.8575367">
        <ele>11.6732</ele>
        <time>2013-04-30T18:25:39Z</time>
      </trkpt>
      <trkpt lat="60.0101732" lon="17.8575418">
        <ele>11.6732</ele>
        <time>2013-04-30T18:25:40Z</time>
      </trkpt>
      <trkpt lat="60.0102426" lon="17.8575501">
        <ele>12.1538</ele>
        <time>2013-04-30T18:25:41Z</time>
      </trkpt>
      <trkpt lat="60.0103114" lon="17.8575617">
        <ele>12.6344</ele>
        <time>2013-04-30T18:25:42Z</time>
      </trkpt>
      <trkpt lat="60.0103804" lon="17.857574">
        <ele>13.1151</ele>
        <time>2013-04-30T18:25:43Z</time>
      </trkpt>
      <trkpt lat="60.0104502" lon="17.8575892">
        <ele>13.1151</ele>
        <time>2013-04-30T18:25:44Z</time>
      </trkpt>
      <trkpt lat="60.0105205" lon="17.8576063">
        <ele>13.5958</ele>
        <time>2013-04-30T18:25:45Z</time>
      </trkpt>
      <trkpt lat="60.0105918" lon="17.8576253">
        <ele>14.0764</ele>
        <time>2013-04-30T18:25:46Z</time>
      </trkpt>
      <trkpt lat="60.0106642" lon="17.8576479">
        <ele>14.557</ele>
        <time>2013-04-30T18:25:47Z</time>
      </trkpt>
      <trkpt lat="60.0107362" lon="17.8576736">
        <ele>15.0377</ele>
        <time>2013-04-30T18:25:48Z</time>
      </trkpt>
      <trkpt lat="60.0108065" lon="17.8576977">
        <ele>15.0377</ele>
        <time>2013-04-30T18:25:49Z</time>
      </trkpt>
      <trkpt lat="60.0108766" lon="17.8577201">
        <ele>15.5184</ele>
        <time>2013-04-30T18:25:50Z</time>
      </trkpt>
      <trkpt lat="60.0109479" lon="17.8577418">
        <ele>15.999</ele>
        <time>2013-04-30T18:25:51Z</time>
      </trkpt>
      <trkpt lat="60.0110164" lon="17.8577616">
        <ele>15.999</ele>
        <time>2013-04-30T18:25:52Z</time>
      </trkpt>
      <trkpt lat="60.011083" lon="17.8577746">
        <ele>16.4797</ele>
        <time>2013-04-30T18:25:53Z</time>
      </trkpt>
      <trkpt lat="60.0111481" lon="17.8577791">
        <ele>16.9604</ele>
        <time>2013-04-30T18:25:54Z</time>
      </trkpt>
      <trkpt lat="60.0112123" lon="17.8577839">
        <ele>17.9218</ele>
        <time>2013-04-30T18:25:55Z</time>
      </trkpt>
      <trkpt lat="60.0112745" lon="17.8577865">
        <ele>17.9218</ele>
        <time>2013-04-30T18:25:56Z</time>
      </trkpt>
      <trkpt lat="60.0113366" lon="17.8577839">
        <ele>18.4023</ele>
        <time>2013-04-30T18:25:57Z</time>
      </trkpt>
      <trkpt lat="60.0113987" lon="17.8577764">
        <ele>18.8831</ele>
        <time>2013-04-30T18:25:58Z</time>
      </trkpt>
      <trkpt lat="60.0114618" lon="17.8577667">
        <ele>18.8831</ele>
        <time>2013-04-30T18:25:59Z</time>
      </trkpt>
      <trkpt lat="60.0115249" lon="17.8577538">
        <ele>19.3638</ele>
        <time>2013-04-30T18:26:00Z</time>
      </trkpt>
      <trkpt lat="60.0115874" lon="17.8577375">
        <ele>19.3638</ele>
        <time>2013-04-30T18:26:01Z</time>
      </trkpt>
      <trkpt lat="60.011649" lon="17.8577201">
        <ele>19.3638</ele>
        <time>2013-04-30T18:26:02Z</time>
      </trkpt>
      <trkpt lat="60.011711" lon="17.8577016">
        <ele>19.3638</ele>
        <time>2013-04-30T18:26:03Z</time>
      </trkpt>
      <trkpt lat="60.0117734" lon="17.8576833">
        <ele>19.3638</ele>
        <time>2013-04-30T18:26:04Z</time>
      </trkpt>
      <trkpt lat="60.0118359" lon="17.8576657">
        <ele>19.3638</ele>
        <time>2013-04-30T18:26:05Z</time>
      </trkpt>
      <trkpt lat="60.0118972" lon="17.8576479">
        <ele>19.8444</ele>
        <time>2013-04-30T18:26:06Z</time>
      </trkpt>
      <trkpt lat="60.0119587" lon="17.85763">
        <ele>19.8444</ele>
        <time>2013-04-30T18:26:07Z</time>
      </trkpt>
      <trkpt lat="60.0120219" lon="17.8576155">
        <ele>20.325</ele>
        <time>2013-04-30T18:26:08Z</time>
      </trkpt>
      <trkpt lat="60.0120856" lon="17.8576046">
        <ele>20.8057</ele>
        <time>2013-04-30T18:26:09Z</time>
      </trkpt>
      <trkpt lat="60.0121488" lon="17.8575977">
        <ele>20.8057</ele>
        <time>2013-04-30T18:26:10Z</time>
      </trkpt>
      <trkpt lat="60.0122128" lon="17.8575918">
        <ele>20.8057</ele>
        <time>2013-04-30T18:26:11Z</time>
      </trkpt>
      <trkpt lat="60.0122773" lon="17.857587">
        <ele>20.8057</ele>
        <time>2013-04-30T18:26:12Z</time>
      </trkpt>
      <trkpt lat="60.0123425" lon="17.857587">
        <ele>20.8057</ele>
        <time>2013-04-30T18:26:13Z</time>
      </trkpt>
      <trkpt lat="60.0124076" lon="17.8575948">
        <ele>21.2864</ele>
        <time>2013-04-30T18:26:14Z</time>
      </trkpt>
      <trkpt lat="60.0124735" lon="17.8576083">
        <ele>21.2864</ele>
        <time>2013-04-30T18:26:15Z</time>
      </trkpt>
      <trkpt lat="60.0125404" lon="17.8576268">
        <ele>21.2864</ele>
        <time>2013-04-30T18:26:16Z</time>
      </trkpt>
      <trkpt lat="60.0126077" lon="17.8576472">
        <ele>21.2864</ele>
        <time>2013-04-30T18:26:17Z</time>
      </trkpt>
      <trkpt lat="60.0126761" lon="17.8576662">
        <ele>20.8057</ele>
        <time>2013-04-30T18:26:18Z</time>
      </trkpt>
      <trkpt lat="60.0127466" lon="17.8576827">
        <ele>20.8057</ele>
        <time>2013-04-30T18:26:19Z</time>
      </trkpt>
      <trkpt lat="60.012819" lon="17.8576935">
        <ele>20.8057</ele>
        <time>2013-04-30T18:26:20Z</time>
      </trkpt>
      <trkpt lat="60.0128941" lon="17.8576977">
        <ele>20.8057</ele>
        <time>2013-04-30T18:26:21Z</time>
      </trkpt>
      <trkpt lat="60.0129717" lon="17.8576966">
        <ele>20.325</ele>
        <time>2013-04-30T18:26:22Z</time>
      </trkpt>
      <trkpt lat="60.0130505" lon="17.8576902">
        <ele>20.325</ele>
        <time>2013-04-30T18:26:23Z</time>
      </trkpt>
      <trkpt lat="60.0131293" lon="17.8576756">
        <ele>20.325</ele>
        <time>2013-04-30T18:26:24Z</time>
      </trkpt>
      <trkpt lat="60.013207" lon="17.857652">
        <ele>19.8444</ele>
        <time>2013-04-30T18:26:25Z</time>
      </trkpt>
      <trkpt lat="60.0132851" lon="17.8576226">
        <ele>19.8444</ele>
        <time>2013-04-30T18:26:26Z</time>
      </trkpt>
      <trkpt lat="60.0133629" lon="17.8575864">
        <ele>19.8444</ele>
        <time>2013-04-30T18:26:27Z</time>
      </trkpt>
      <trkpt lat="60.0134398" lon="17.8575398">
        <ele>19.3638</ele>
        <time>2013-04-30T18:26:28Z</time>
      </trkpt>
      <trkpt lat="60.0135146" lon="17.8574808">
        <ele>19.3638</ele>
        <time>2013-04-30T18:26:29Z</time>
      </trkpt>
      <trkpt lat="60.0135873" lon="17.8574143">
        <ele>19.3638</ele>
        <time>2013-04-30T18:26:30Z</time>
      </trkpt>
      <trkpt lat="60.0136597" lon="17.8573462">
        <ele>19.8444</ele>
        <time>2013-04-30T18:26:31Z</time>
      </trkpt>
      <trkpt lat="60.0137308" lon="17.8572803">
        <ele>19.8444</ele>
        <time>2013-04-30T18:26:32Z</time>
      </trkpt>
      <trkpt lat="60.0138014" lon="17.8572211">
        <ele>19.8444</ele>
        <time>2013-04-30T18:26:33Z</time>
      </trkpt>
      <trkpt lat="60.013872" lon="17.8571698">
        <ele>19.8444</ele>
        <time>2013-04-30T18:26:34Z</time>
      </trkpt>
      <trkpt lat="60.0139427" lon="17.8571244">
        <ele>19.8444</ele>
        <time>2013-04-30T18:26:35Z</time>
      </trkpt>
      <trkpt lat="60.0140122" lon="17.8570824">
        <ele>19.8444</ele>
        <time>2013-04-30T18:26:36Z</time>
      </trkpt>
      <trkpt lat="60.0140805" lon="17.8570436">
        <ele>20.325</ele>
        <time>2013-04-30T18:26:37Z</time>
      </trkpt>
      <trkpt lat="60.0141468" lon="17.8570073">
        <ele>20.325</ele>
        <time>2013-04-30T18:26:38Z</time>
      </trkpt>
      <trkpt lat="60.0142125" lon="17.8569742">
        <ele>20.325</ele>
        <time>2013-04-30T18:26:39Z</time>
      </trkpt>
      <trkpt lat="60.0142789" lon="17.8569435">
        <ele>20.325</ele>
        <time>2013-04-30T18:26:40Z</time>
      </trkpt>
      <trkpt lat="60.0143462" lon="17.8569146">
        <ele>20.325</ele>
        <time>2013-04-30T18:26:41Z</time>
      </trkpt>
      <trkpt lat="60.0144135" lon="17.8568878">
        <ele>20.325</ele>
        <time>2013-04-30T18:26:42Z</time>
      </trkpt>
      <trkpt lat="60.0144818" lon="17.8568638">
        <ele>20.325</ele>
        <time>2013-04-30T18:26:43Z</time>
      </trkpt>
      <trkpt lat="60.0145514" lon="17.8568432">
        <ele>20.325</ele>
        <time>2013-04-30T18:26:44Z</time>
      </trkpt>
      <trkpt lat="60.0146207" lon="17.8568238">
        <ele>20.325</ele>
        <time>2013-04-30T18:26:45Z</time>
      </trkpt>
      <trkpt lat="60.0146891" lon="17.856803">
        <ele>20.325</ele>
        <time>2013-04-30T18:26:46Z</time>
      </trkpt>
      <trkpt lat="60.0147557" lon="17.8567793">
        <ele>20.325</ele>
        <time>2013-04-30T18:26:47Z</time>
      </trkpt>
      <trkpt lat="60.0148201" lon="17.856752">
        <ele>19.8444</ele>
        <time>2013-04-30T18:26:48Z</time>
      </trkpt>
      <trkpt lat="60.0148839" lon="17.8567213">
        <ele>20.325</ele>
        <time>2013-04-30T18:26:49Z</time>
      </trkpt>
      <trkpt lat="60.0149476" lon="17.8566857">
        <ele>20.325</ele>
        <time>2013-04-30T18:26:50Z</time>
      </trkpt>
      <trkpt lat="60.0150087" lon="17.8566428">
        <ele>19.8444</ele>
        <time>2013-04-30T18:26:51Z</time>
      </trkpt>
      <trkpt lat="60.0150681" lon="17.8565912">
        <ele>19.8444</ele>
        <time>2013-04-30T18:26:52Z</time>
      </trkpt>
      <trkpt lat="60.0151269" lon="17.8565317">
        <ele>19.8444</ele>
        <time>2013-04-30T18:26:53Z</time>
      </trkpt>
      <trkpt lat="60.0151847" lon="17.8564628">
        <ele>19.8444</ele>
        <time>2013-04-30T18:26:54Z</time>
      </trkpt>
      <trkpt lat="60.0152403" lon="17.8563871">
        <ele>19.8444</ele>
        <time>2013-04-30T18:26:55Z</time>
      </trkpt>
      <trkpt lat="60.0152977" lon="17.8563049">
        <ele>19.8444</ele>
        <time>2013-04-30T18:26:56Z</time>
      </trkpt>
      <trkpt lat="60.015351" lon="17.8562112">
        <ele>19.3638</ele>
        <time>2013-04-30T18:26:57Z</time>
      </trkpt>
      <trkpt lat="60.0154029" lon="17.8561147">
        <ele>19.3638</ele>
        <time>2013-04-30T18:26:58Z</time>
      </trkpt>
      <trkpt lat="60.0154517" lon="17.8560195">
        <ele>19.3638</ele>
        <time>2013-04-30T18:26:59Z</time>
      </trkpt>
      <trkpt lat="60.0154983" lon="17.8559186">
        <ele>19.3638</ele>
        <time>2013-04-30T18:27:00Z</time>
      </trkpt>
      <trkpt lat="60.0155444" lon="17.8558159">
        <ele>19.3638</ele>
        <time>2013-04-30T18:27:01Z</time>
      </trkpt>
      <trkpt lat="60.0155934" lon="17.8556707">
        <ele>18.8831</ele>
        <time>2013-04-30T18:27:02Z</time>
      </trkpt>
      <trkpt lat="60.0156489" lon="17.8555812">
        <ele>18.8831</ele>
        <time>2013-04-30T18:27:03Z</time>
      </trkpt>
      <trkpt lat="60.0157013" lon="17.8555082">
        <ele>18.4023</ele>
        <time>2013-04-30T18:27:04Z</time>
      </trkpt>
      <trkpt lat="60.0157568" lon="17.8554331">
        <ele>18.4023</ele>
        <time>2013-04-30T18:27:05Z</time>
      </trkpt>
      <trkpt lat="60.0158152" lon="17.8553579">
        <ele>18.4023</ele>
        <time>2013-04-30T18:27:06Z</time>
      </trkpt>
      <trkpt lat="60.0158741" lon="17.8552833">
        <ele>18.4023</ele>
        <time>2013-04-30T18:27:07Z</time>
      </trkpt>
      <trkpt lat="60.0159342" lon="17.8552072">
        <ele>17.9218</ele>
        <time>2013-04-30T18:27:08Z</time>
      </trkpt>
      <trkpt lat="60.0159953" lon="17.85513">
        <ele>17.9218</ele>
        <time>2013-04-30T18:27:09Z</time>
      </trkpt>
      <trkpt lat="60.0160537" lon="17.8550439">
        <ele>17.9218</ele>
        <time>2013-04-30T18:27:10Z</time>
      </trkpt>
      <trkpt lat="60.0161052" lon="17.8549421">
        <ele>17.4412</ele>
        <time>2013-04-30T18:27:11Z</time>
      </trkpt>
      <trkpt lat="60.016158" lon="17.8548338">
        <ele>17.4412</ele>
        <time>2013-04-30T18:27:12Z</time>
      </trkpt>
      <trkpt lat="60.0162077" lon="17.8547067">
        <ele>16.9604</ele>
        <time>2013-04-30T18:27:13Z</time>
      </trkpt>
      <trkpt lat="60.0162502" lon="17.854564">
        <ele>16.4797</ele>
        <time>2013-04-30T18:27:14Z</time>
      </trkpt>
      <trkpt lat="60.0162878" lon="17.854408">
        <ele>16.4797</ele>
        <time>2013-04-30T18:27:15Z</time>
      </trkpt>
      <trkpt lat="60.0163196" lon="17.8542467">
        <ele>16.4797</ele>
        <time>2013-04-30T18:27:16Z</time>
      </trkpt>
      <trkpt lat="60.0163519" lon="17.8540837">
        <ele>16.4797</ele>
        <time>2013-04-30T18:27:17Z</time>
      </trkpt>
      <trkpt lat="60.0163842" lon="17.8539216">
        <ele>15.999</ele>
        <time>2013-04-30T18:27:18Z</time>
      </trkpt>
      <trkpt lat="60.0164182" lon="17.8537616">
        <ele>15.999</ele>
        <time>2013-04-30T18:27:19Z</time>
      </trkpt>
      <trkpt lat="60.0164541" lon="17.8536024">
        <ele>15.5184</ele>
        <time>2013-04-30T18:27:20Z</time>
      </trkpt>
      <trkpt lat="60.0164871" lon="17.8534443">
        <ele>15.5184</ele>
        <time>2013-04-30T18:27:21Z</time>
      </trkpt>
      <trkpt lat="60.016519" lon="17.8532886">
        <ele>15.5184</ele>
        <time>2013-04-30T18:27:22Z</time>
      </trkpt>
      <trkpt lat="60.0165537" lon="17.8531364">
        <ele>15.5184</ele>
        <time>2013-04-30T18:27:23Z</time>
      </trkpt>
      <trkpt lat="60.0165895" lon="17.8529856">
        <ele>15.5184</ele>
        <time>2013-04-30T18:27:24Z</time>
      </trkpt>
      <trkpt lat="60.016626" lon="17.8528368">
        <ele>15.5184</ele>
        <time>2013-04-30T18:27:25Z</time>
      </trkpt>
      <trkpt lat="60.0166638" lon="17.8526905">
        <ele>15.0377</ele>
        <time>2013-04-30T18:27:26Z</time>
      </trkpt>
      <trkpt lat="60.0167019" lon="17.8525455">
        <ele>15.0377</ele>
        <time>2013-04-30T18:27:27Z</time>
      </trkpt>
      <trkpt lat="60.0167399" lon="17.8524013">
        <ele>15.5184</ele>
        <time>2013-04-30T18:27:28Z</time>
      </trkpt>
      <trkpt lat="60.0167762" lon="17.8522582">
        <ele>15.5184</ele>
        <time>2013-04-30T18:27:29Z</time>
      </trkpt>
      <trkpt lat="60.0168109" lon="17.8521168">
        <ele>15.5184</ele>
        <time>2013-04-30T18:27:30Z</time>
      </trkpt>
      <trkpt lat="60.016842" lon="17.8519774">
        <ele>15.5184</ele>
        <time>2013-04-30T18:27:31Z</time>
      </trkpt>
      <trkpt lat="60.0168692" lon="17.8518381">
        <ele>15.5184</ele>
        <time>2013-04-30T18:27:32Z</time>
      </trkpt>
      <trkpt lat="60.0168916" lon="17.8516977">
        <ele>15.5184</ele>
        <time>2013-04-30T18:27:33Z</time>
      </trkpt>
      <trkpt lat="60.0169103" lon="17.8515567">
        <ele>15.999</ele>
        <time>2013-04-30T18:27:34Z</time>
      </trkpt>
      <trkpt lat="60.0169263" lon="17.8514159">
        <ele>15.999</ele>
        <time>2013-04-30T18:27:35Z</time>
      </trkpt>
      <trkpt lat="60.0169412" lon="17.8512761">
        <ele>15.999</ele>
        <time>2013-04-30T18:27:36Z</time>
      </trkpt>
      <trkpt lat="60.0169544" lon="17.8511377">
        <ele>15.999</ele>
        <time>2013-04-30T18:27:37Z</time>
      </trkpt>
      <trkpt lat="60.0169673" lon="17.8510005">
        <ele>16.4797</ele>
        <time>2013-04-30T18:27:38Z</time>
      </trkpt>
      <trkpt lat="60.0169798" lon="17.8508644">
        <ele>16.9604</ele>
        <time>2013-04-30T18:27:39Z</time>
      </trkpt>
      <trkpt lat="60.0169923" lon="17.8507314">
        <ele>16.9604</ele>
        <time>2013-04-30T18:27:40Z</time>
      </trkpt>
      <trkpt lat="60.0170044" lon="17.8506016">
        <ele>17.4412</ele>
        <time>2013-04-30T18:27:41Z</time>
      </trkpt>
      <trkpt lat="60.017014" lon="17.8504747">
        <ele>17.4412</ele>
        <time>2013-04-30T18:27:42Z</time>
      </trkpt>
      <trkpt lat="60.0170238" lon="17.8503517">
        <ele>17.9218</ele>
        <time>2013-04-30T18:27:43Z</time>
      </trkpt>
      <trkpt lat="60.0170336" lon="17.85023">
        <ele>17.9218</ele>
        <time>2013-04-30T18:27:44Z</time>
      </trkpt>
      <trkpt lat="60.017043" lon="17.8501068">
        <ele>17.9218</ele>
        <time>2013-04-30T18:27:45Z</time>
      </trkpt>
      <trkpt lat="60.0170534" lon="17.8499855">
        <ele>18.4023</ele>
        <time>2013-04-30T18:27:46Z</time>
      </trkpt>
      <trkpt lat="60.0170637" lon="17.8498679">
        <ele>18.4023</ele>
        <time>2013-04-30T18:27:47Z</time>
      </trkpt>
      <trkpt lat="60.0170746" lon="17.8497531">
        <ele>18.4023</ele>
        <time>2013-04-30T18:27:48Z</time>
      </trkpt>
      <trkpt lat="60.0170878" lon="17.8496392">
        <ele>18.4023</ele>
        <time>2013-04-30T18:27:49Z</time>
      </trkpt>
      <trkpt lat="60.0171011" lon="17.8495246">
        <ele>18.8831</ele>
        <time>2013-04-30T18:27:50Z</time>
      </trkpt>
      <trkpt lat="60.0171139" lon="17.8494097">
        <ele>18.8831</ele>
        <time>2013-04-30T18:27:51Z</time>
      </trkpt>
      <trkpt lat="60.0171236" lon="17.8492957">
        <ele>18.8831</ele>
        <time>2013-04-30T18:27:52Z</time>
      </trkpt>
      <trkpt lat="60.017114" lon="17.8491831">
        <ele>18.8831</ele>
        <time>2013-04-30T18:27:53Z</time>
      </trkpt>
      <trkpt lat="60.0171056" lon="17.8490661">
        <ele>19.3638</ele>
        <time>2013-04-30T18:27:54Z</time>
      </trkpt>
      <trkpt lat="60.0170901" lon="17.8489533">
        <ele>19.3638</ele>
        <time>2013-04-30T18:27:55Z</time>
      </trkpt>
      <trkpt lat="60.0170775" lon="17.8488342">
        <ele>19.8444</ele>
        <time>2013-04-30T18:27:56Z</time>
      </trkpt>
      <trkpt lat="60.0170751" lon="17.8487025">
        <ele>19.8444</ele>
        <time>2013-04-30T18:27:57Z</time>
      </trkpt>
      <trkpt lat="60.0170766" lon="17.8485781">
        <ele>19.8444</ele>
        <time>2013-04-30T18:27:58Z</time>
      </trkpt>
      <trkpt lat="60.0170966" lon="17.8484369">
        <ele>20.325</ele>
        <time>2013-04-30T18:27:59Z</time>
      </trkpt>
      <trkpt lat="60.017117" lon="17.8483149">
        <ele>19.8444</ele>
        <time>2013-04-30T18:28:00Z</time>
      </trkpt>
      <trkpt lat="60.017144" lon="17.8482129">
        <ele>19.3638</ele>
        <time>2013-04-30T18:28:01Z</time>
      </trkpt>
      <trkpt lat="60.0171698" lon="17.848101">
        <ele>19.3638</ele>
        <time>2013-04-30T18:28:02Z</time>
      </trkpt>
      <trkpt lat="60.0171875" lon="17.8479754">
        <ele>19.3638</ele>
        <time>2013-04-30T18:28:03Z</time>
      </trkpt>
      <trkpt lat="60.0172068" lon="17.8478475">
        <ele>19.3638</ele>
        <time>2013-04-30T18:28:04Z</time>
      </trkpt>
      <trkpt lat="60.0172263" lon="17.8477184">
        <ele>19.3638</ele>
        <time>2013-04-30T18:28:05Z</time>
      </trkpt>
      <trkpt lat="60.0172503" lon="17.8475947">
        <ele>19.3638</ele>
        <time>2013-04-30T18:28:06Z</time>
      </trkpt>
      <trkpt lat="60.017275" lon="17.847469">
        <ele>19.8444</ele>
        <time>2013-04-30T18:28:07Z</time>
      </trkpt>
      <trkpt lat="60.0173009" lon="17.8473423">
        <ele>19.8444</ele>
        <time>2013-04-30T18:28:08Z</time>
      </trkpt>
      <trkpt lat="60.017329" lon="17.847217">
        <ele>19.8444</ele>
        <time>2013-04-30T18:28:09Z</time>
      </trkpt>
      <trkpt lat="60.0173615" lon="17.8470951">
        <ele>19.3638</ele>
        <time>2013-04-30T18:28:10Z</time>
      </trkpt>
      <trkpt lat="60.0173981" lon="17.8469765">
        <ele>19.3638</ele>
        <time>2013-04-30T18:28:11Z</time>
      </trkpt>
      <trkpt lat="60.0174377" lon="17.8468616">
        <ele>19.3638</ele>
        <time>2013-04-30T18:28:12Z</time>
      </trkpt>
      <trkpt lat="60.0174828" lon="17.8467544">
        <ele>19.3638</ele>
        <time>2013-04-30T18:28:13Z</time>
      </trkpt>
      <trkpt lat="60.0175321" lon="17.8466549">
        <ele>19.3638</ele>
        <time>2013-04-30T18:28:14Z</time>
      </trkpt>
      <trkpt lat="60.0175841" lon="17.8465611">
        <ele>19.3638</ele>
        <time>2013-04-30T18:28:15Z</time>
      </trkpt>
      <trkpt lat="60.0176355" lon="17.8464726">
        <ele>19.3638</ele>
        <time>2013-04-30T18:28:16Z</time>
      </trkpt>
      <trkpt lat="60.0176846" lon="17.8463836">
        <ele>19.3638</ele>
        <time>2013-04-30T18:28:17Z</time>
      </trkpt>
      <trkpt lat="60.0177318" lon="17.8462927">
        <ele>19.3638</ele>
        <time>2013-04-30T18:28:18Z</time>
      </trkpt>
      <trkpt lat="60.0177779" lon="17.8462">
        <ele>19.3638</ele>
        <time>2013-04-30T18:28:19Z</time>
      </trkpt>
      <trkpt lat="60.0178221" lon="17.8461048">
        <ele>19.3638</ele>
        <time>2013-04-30T18:28:20Z</time>
      </trkpt>
      <trkpt lat="60.017864" lon="17.8460022">
        <ele>19.3638</ele>
        <time>2013-04-30T18:28:21Z</time>
      </trkpt>
      <trkpt lat="60.0179016" lon="17.8458912">
        <ele>19.3638</ele>
        <time>2013-04-30T18:28:22Z</time>
      </trkpt>
      <trkpt lat="60.0179364" lon="17.8457757">
        <ele>19.3638</ele>
        <time>2013-04-30T18:28:23Z</time>
      </trkpt>
      <trkpt lat="60.0179685" lon="17.8456572">
        <ele>19.3638</ele>
        <time>2013-04-30T18:28:24Z</time>
      </trkpt>
      <trkpt lat="60.0179969" lon="17.8455373">
        <ele>18.8831</ele>
        <time>2013-04-30T18:28:25Z</time>
      </trkpt>
      <trkpt lat="60.018023" lon="17.8454162">
        <ele>18.8831</ele>
        <time>2013-04-30T18:28:26Z</time>
      </trkpt>
      <trkpt lat="60.0180473" lon="17.8452947">
        <ele>18.8831</ele>
        <time>2013-04-30T18:28:27Z</time>
      </trkpt>
      <trkpt lat="60.0180711" lon="17.8451732">
        <ele>18.8831</ele>
        <time>2013-04-30T18:28:28Z</time>
      </trkpt>
      <trkpt lat="60.0180956" lon="17.8450526">
        <ele>18.8831</ele>
        <time>2013-04-30T18:28:29Z</time>
      </trkpt>
      <trkpt lat="60.0181205" lon="17.8449325">
        <ele>18.8831</ele>
        <time>2013-04-30T18:28:30Z</time>
      </trkpt>
      <trkpt lat="60.0181442" lon="17.8448113">
        <ele>18.8831</ele>
        <time>2013-04-30T18:28:31Z</time>
      </trkpt>
      <trkpt lat="60.0181675" lon="17.84469">
        <ele>18.8831</ele>
        <time>2013-04-30T18:28:32Z</time>
      </trkpt>
      <trkpt lat="60.0181917" lon="17.8445694">
        <ele>18.4023</ele>
        <time>2013-04-30T18:28:33Z</time>
      </trkpt>
      <trkpt lat="60.0182163" lon="17.8444498">
        <ele>18.8831</ele>
        <time>2013-04-30T18:28:34Z</time>
      </trkpt>
      <trkpt lat="60.0182394" lon="17.8443306">
        <ele>18.4023</ele>
        <time>2013-04-30T18:28:35Z</time>
      </trkpt>
      <trkpt lat="60.0182618" lon="17.8442126">
        <ele>18.4023</ele>
        <time>2013-04-30T18:28:36Z</time>
      </trkpt>
      <trkpt lat="60.0182851" lon="17.844097">
        <ele>18.4023</ele>
        <time>2013-04-30T18:28:37Z</time>
      </trkpt>
      <trkpt lat="60.0183095" lon="17.843983">
        <ele>18.4023</ele>
        <time>2013-04-30T18:28:38Z</time>
      </trkpt>
      <trkpt lat="60.0183347" lon="17.8438701">
        <ele>18.4023</ele>
        <time>2013-04-30T18:28:39Z</time>
      </trkpt>
      <trkpt lat="60.0183599" lon="17.8437575">
        <ele>18.4023</ele>
        <time>2013-04-30T18:28:40Z</time>
      </trkpt>
      <trkpt lat="60.0183857" lon="17.8436447">
        <ele>18.4023</ele>
        <time>2013-04-30T18:28:41Z</time>
      </trkpt>
      <trkpt lat="60.0184117" lon="17.8435314">
        <ele>18.4023</ele>
        <time>2013-04-30T18:28:42Z</time>
      </trkpt>
      <trkpt lat="60.018439" lon="17.8434179">
        <ele>18.4023</ele>
        <time>2013-04-30T18:28:43Z</time>
      </trkpt>
      <trkpt lat="60.0184674" lon="17.8433039">
        <ele>18.4023</ele>
        <time>2013-04-30T18:28:44Z</time>
      </trkpt>
      <trkpt lat="60.0184958" lon="17.8431884">
        <ele>18.4023</ele>
        <time>2013-04-30T18:28:45Z</time>
      </trkpt>
      <trkpt lat="60.0185235" lon="17.8430723">
        <ele>18.4023</ele>
        <time>2013-04-30T18:28:46Z</time>
      </trkpt>
      <trkpt lat="60.0185524" lon="17.8429572">
        <ele>18.4023</ele>
        <time>2013-04-30T18:28:47Z</time>
      </trkpt>
      <trkpt lat="60.0185812" lon="17.8428428">
        <ele>18.4023</ele>
        <time>2013-04-30T18:28:48Z</time>
      </trkpt>
      <trkpt lat="60.0186098" lon="17.8427279">
        <ele>18.4023</ele>
        <time>2013-04-30T18:28:49Z</time>
      </trkpt>
      <trkpt lat="60.0186389" lon="17.8426129">
        <ele>18.4023</ele>
        <time>2013-04-30T18:28:50Z</time>
      </trkpt>
      <trkpt lat="60.018668" lon="17.8424968">
        <ele>18.4023</ele>
        <time>2013-04-30T18:28:51Z</time>
      </trkpt>
      <trkpt lat="60.0186966" lon="17.8423793">
        <ele>18.4023</ele>
        <time>2013-04-30T18:28:52Z</time>
      </trkpt>
      <trkpt lat="60.018725" lon="17.8422615">
        <ele>18.4023</ele>
        <time>2013-04-30T18:28:53Z</time>
      </trkpt>
      <trkpt lat="60.0187548" lon="17.8421451">
        <ele>18.4023</ele>
        <time>2013-04-30T18:28:54Z</time>
      </trkpt>
      <trkpt lat="60.0187843" lon="17.8420296">
        <ele>17.9218</ele>
        <time>2013-04-30T18:28:55Z</time>
      </trkpt>
      <trkpt lat="60.0188125" lon="17.8419131">
        <ele>17.9218</ele>
        <time>2013-04-30T18:28:56Z</time>
      </trkpt>
      <trkpt lat="60.0188414" lon="17.8417963">
        <ele>17.9218</ele>
        <time>2013-04-30T18:28:57Z</time>
      </trkpt>
      <trkpt lat="60.0188706" lon="17.8416789">
        <ele>17.9218</ele>
        <time>2013-04-30T18:28:58Z</time>
      </trkpt>
      <trkpt lat="60.0189004" lon="17.8415608">
        <ele>17.9218</ele>
        <time>2013-04-30T18:28:59Z</time>
      </trkpt>
      <trkpt lat="60.0189286" lon="17.8414401">
        <ele>17.9218</ele>
        <time>2013-04-30T18:29:00Z</time>
      </trkpt>
      <trkpt lat="60.0189549" lon="17.8413164">
        <ele>17.9218</ele>
        <time>2013-04-30T18:29:01Z</time>
      </trkpt>
      <trkpt lat="60.0189824" lon="17.8411945">
        <ele>17.9218</ele>
        <time>2013-04-30T18:29:02Z</time>
      </trkpt>
      <trkpt lat="60.019013" lon="17.8410758">
        <ele>17.9218</ele>
        <time>2013-04-30T18:29:03Z</time>
      </trkpt>
      <trkpt lat="60.0190444" lon="17.8409582">
        <ele>17.9218</ele>
        <time>2013-04-30T18:29:04Z</time>
      </trkpt>
      <trkpt lat="60.0190746" lon="17.8408398">
        <ele>17.9218</ele>
        <time>2013-04-30T18:29:05Z</time>
      </trkpt>
      <trkpt lat="60.0191041" lon="17.8407221">
        <ele>17.9218</ele>
        <time>2013-04-30T18:29:06Z</time>
      </trkpt>
      <trkpt lat="60.0191331" lon="17.8406066">
        <ele>17.9218</ele>
        <time>2013-04-30T18:29:07Z</time>
      </trkpt>
      <trkpt lat="60.0191616" lon="17.8405065">
        <ele>18.4023</ele>
        <time>2013-04-30T18:29:08Z</time>
      </trkpt>
      <trkpt lat="60.019187" lon="17.8403973">
        <ele>18.4023</ele>
        <time>2013-04-30T18:29:09Z</time>
      </trkpt>
      <trkpt lat="60.0192102" lon="17.8402754">
        <ele>18.4023</ele>
        <time>2013-04-30T18:29:10Z</time>
      </trkpt>
      <trkpt lat="60.0192372" lon="17.840171">
        <ele>18.8831</ele>
        <time>2013-04-30T18:29:11Z</time>
      </trkpt>
      <trkpt lat="60.0192787" lon="17.8400389">
        <ele>19.3638</ele>
        <time>2013-04-30T18:29:12Z</time>
      </trkpt>
      <trkpt lat="60.019316" lon="17.8399022">
        <ele>19.8444</ele>
        <time>2013-04-30T18:29:13Z</time>
      </trkpt>
      <trkpt lat="60.0193365" lon="17.8397934">
        <ele>20.325</ele>
        <time>2013-04-30T18:29:14Z</time>
      </trkpt>
      <trkpt lat="60.0193444" lon="17.8396755">
        <ele>20.325</ele>
        <time>2013-04-30T18:29:15Z</time>
      </trkpt>
      <trkpt lat="60.019361" lon="17.83955">
        <ele>20.8057</ele>
        <time>2013-04-30T18:29:16Z</time>
      </trkpt>
      <trkpt lat="60.0193838" lon="17.8394395">
        <ele>21.2864</ele>
        <time>2013-04-30T18:29:17Z</time>
      </trkpt>
      <trkpt lat="60.0194078" lon="17.8393282">
        <ele>21.767</ele>
        <time>2013-04-30T18:29:18Z</time>
      </trkpt>
      <trkpt lat="60.0194293" lon="17.8392121">
        <ele>21.767</ele>
        <time>2013-04-30T18:29:19Z</time>
      </trkpt>
      <trkpt lat="60.0194486" lon="17.8390888">
        <ele>22.2476</ele>
        <time>2013-04-30T18:29:20Z</time>
      </trkpt>
      <trkpt lat="60.0194697" lon="17.83896">
        <ele>22.7283</ele>
        <time>2013-04-30T18:29:21Z</time>
      </trkpt>
      <trkpt lat="60.0194909" lon="17.8388339">
        <ele>22.7283</ele>
        <time>2013-04-30T18:29:22Z</time>
      </trkpt>
      <trkpt lat="60.0195062" lon="17.8387045">
        <ele>23.209</ele>
        <time>2013-04-30T18:29:23Z</time>
      </trkpt>
      <trkpt lat="60.0195158" lon="17.8385657">
        <ele>23.209</ele>
        <time>2013-04-30T18:29:24Z</time>
      </trkpt>
      <trkpt lat="60.0195216" lon="17.8384282">
        <ele>23.209</ele>
        <time>2013-04-30T18:29:25Z</time>
      </trkpt>
      <trkpt lat="60.0195302" lon="17.8382921">
        <ele>23.209</ele>
        <time>2013-04-30T18:29:26Z</time>
      </trkpt>
      <trkpt lat="60.019535" lon="17.838157">
        <ele>23.6896</ele>
        <time>2013-04-30T18:29:27Z</time>
      </trkpt>
      <trkpt lat="60.019537" lon="17.8380193">
        <ele>23.209</ele>
        <time>2013-04-30T18:29:28Z</time>
      </trkpt>
      <trkpt lat="60.0195391" lon="17.8378834">
        <ele>23.209</ele>
        <time>2013-04-30T18:29:29Z</time>
      </trkpt>
      <trkpt lat="60.0195414" lon="17.8377511">
        <ele>23.209</ele>
        <time>2013-04-30T18:29:30Z</time>
      </trkpt>
      <trkpt lat="60.0195413" lon="17.837624">
        <ele>23.209</ele>
        <time>2013-04-30T18:29:31Z</time>
      </trkpt>
      <trkpt lat="60.0195439" lon="17.8375027">
        <ele>23.209</ele>
        <time>2013-04-30T18:29:32Z</time>
      </trkpt>
      <trkpt lat="60.0195465" lon="17.8373811">
        <ele>23.209</ele>
        <time>2013-04-30T18:29:33Z</time>
      </trkpt>
      <trkpt lat="60.0195494" lon="17.8372598">
        <ele>23.209</ele>
        <time>2013-04-30T18:29:34Z</time>
      </trkpt>
      <trkpt lat="60.0195516" lon="17.8371384">
        <ele>23.6896</ele>
        <time>2013-04-30T18:29:35Z</time>
      </trkpt>
      <trkpt lat="60.0195548" lon="17.8370163">
        <ele>23.6896</ele>
        <time>2013-04-30T18:29:36Z</time>
      </trkpt>
      <trkpt lat="60.0195585" lon="17.8368959">
        <ele>23.6896</ele>
        <time>2013-04-30T18:29:37Z</time>
      </trkpt>
      <trkpt lat="60.0195522" lon="17.8367656">
        <ele>23.6896</ele>
        <time>2013-04-30T18:29:38Z</time>
      </trkpt>
      <trkpt lat="60.0195342" lon="17.8366288">
        <ele>23.6896</ele>
        <time>2013-04-30T18:29:39Z</time>
      </trkpt>
      <trkpt lat="60.0195355" lon="17.8364799">
        <ele>23.209</ele>
        <time>2013-04-30T18:29:40Z</time>
      </trkpt>
      <trkpt lat="60.0195356" lon="17.8363535">
        <ele>22.7283</ele>
        <time>2013-04-30T18:29:41Z</time>
      </trkpt>
      <trkpt lat="60.0195292" lon="17.8362267">
        <ele>21.767</ele>
        <time>2013-04-30T18:29:42Z</time>
      </trkpt>
      <trkpt lat="60.0195237" lon="17.8360855">
        <ele>21.2864</ele>
        <time>2013-04-30T18:29:43Z</time>
      </trkpt>
      <trkpt lat="60.0195181" lon="17.8359402">
        <ele>21.2864</ele>
        <time>2013-04-30T18:29:44Z</time>
      </trkpt>
      <trkpt lat="60.01951" lon="17.8357915">
        <ele>21.2864</ele>
        <time>2013-04-30T18:29:45Z</time>
      </trkpt>
      <trkpt lat="60.0195076" lon="17.8356394">
        <ele>21.2864</ele>
        <time>2013-04-30T18:29:46Z</time>
      </trkpt>
      <trkpt lat="60.0195082" lon="17.8354857">
        <ele>21.2864</ele>
        <time>2013-04-30T18:29:47Z</time>
      </trkpt>
      <trkpt lat="60.019508" lon="17.8353315">
        <ele>21.2864</ele>
        <time>2013-04-30T18:29:48Z</time>
      </trkpt>
      <trkpt lat="60.0195081" lon="17.8351787">
        <ele>21.767</ele>
        <time>2013-04-30T18:29:49Z</time>
      </trkpt>
      <trkpt lat="60.0195077" lon="17.8350274">
        <ele>22.2476</ele>
        <time>2013-04-30T18:29:50Z</time>
      </trkpt>
      <trkpt lat="60.0195075" lon="17.8348794">
        <ele>22.2476</ele>
        <time>2013-04-30T18:29:51Z</time>
      </trkpt>
      <trkpt lat="60.0194999" lon="17.8347361">
        <ele>22.2476</ele>
        <time>2013-04-30T18:29:52Z</time>
      </trkpt>
      <trkpt lat="60.0194936" lon="17.8345949">
        <ele>22.7283</ele>
        <time>2013-04-30T18:29:53Z</time>
      </trkpt>
      <trkpt lat="60.019489" lon="17.8344556">
        <ele>22.7283</ele>
        <time>2013-04-30T18:29:54Z</time>
      </trkpt>
      <trkpt lat="60.0194823" lon="17.834319">
        <ele>22.7283</ele>
        <time>2013-04-30T18:29:55Z</time>
      </trkpt>
      <trkpt lat="60.0194755" lon="17.8341905">
        <ele>22.7283</ele>
        <time>2013-04-30T18:29:56Z</time>
      </trkpt>
      <trkpt lat="60.0194662" lon="17.8340757">
        <ele>22.7283</ele>
        <time>2013-04-30T18:29:57Z</time>
      </trkpt>
      <trkpt lat="60.0194756" lon="17.8339132">
        <ele>23.209</ele>
        <time>2013-04-30T18:29:58Z</time>
      </trkpt>
      <trkpt lat="60.0194601" lon="17.8337875">
        <ele>22.7283</ele>
        <time>2013-04-30T18:29:59Z</time>
      </trkpt>
      <trkpt lat="60.0194387" lon="17.8336679">
        <ele>23.209</ele>
        <time>2013-04-30T18:30:00Z</time>
      </trkpt>
      <trkpt lat="60.0194301" lon="17.8335357">
        <ele>23.6896</ele>
        <time>2013-04-30T18:30:01Z</time>
      </trkpt>
      <trkpt lat="60.0194321" lon="17.8334035">
        <ele>24.1703</ele>
        <time>2013-04-30T18:30:02Z</time>
      </trkpt>
      <trkpt lat="60.019418" lon="17.8332922">
        <ele>24.1703</ele>
        <time>2013-04-30T18:30:03Z</time>
      </trkpt>
      <trkpt lat="60.0194107" lon="17.8331783">
        <ele>24.651</ele>
        <time>2013-04-30T18:30:04Z</time>
      </trkpt>
      <trkpt lat="60.0194046" lon="17.8330825">
        <ele>24.651</ele>
        <time>2013-04-30T18:30:05Z</time>
      </trkpt>
      <trkpt lat="60.0194014" lon="17.8329873">
        <ele>24.651</ele>
        <time>2013-04-30T18:30:06Z</time>
      </trkpt>
      <trkpt lat="60.0193911" lon="17.832894">
        <ele>24.651</ele>
        <time>2013-04-30T18:30:07Z</time>
      </trkpt>
      <trkpt lat="60.0193836" lon="17.8327892">
        <ele>24.651</ele>
        <time>2013-04-30T18:30:08Z</time>
      </trkpt>
      <trkpt lat="60.0193669" lon="17.8326915">
        <ele>24.1703</ele>
        <time>2013-04-30T18:30:09Z</time>
      </trkpt>
      <trkpt lat="60.0193583" lon="17.8326047">
        <ele>24.1703</ele>
        <time>2013-04-30T18:30:10Z</time>
      </trkpt>
      <trkpt lat="60.0193517" lon="17.8324973">
        <ele>23.6896</ele>
        <time>2013-04-30T18:30:11Z</time>
      </trkpt>
      <trkpt lat="60.0193225" lon="17.832324">
        <ele>24.1703</ele>
        <time>2013-04-30T18:30:12Z</time>
      </trkpt>
      <trkpt lat="60.0193295" lon="17.8322256">
        <ele>23.6896</ele>
        <time>2013-04-30T18:30:13Z</time>
      </trkpt>
      <trkpt lat="60.0193414" lon="17.832124">
        <ele>23.209</ele>
        <time>2013-04-30T18:30:14Z</time>
      </trkpt>
      <trkpt lat="60.0193513" lon="17.8320176">
        <ele>22.7283</ele>
        <time>2013-04-30T18:30:15Z</time>
      </trkpt>
      <trkpt lat="60.0193705" lon="17.8319168">
        <ele>21.767</ele>
        <time>2013-04-30T18:30:16Z</time>
      </trkpt>
      <trkpt lat="60.0193857" lon="17.8317599">
        <ele>21.767</ele>
        <time>2013-04-30T18:30:17Z</time>
      </trkpt>
      <trkpt lat="60.0193905" lon="17.8316477">
        <ele>21.767</ele>
        <time>2013-04-30T18:30:18Z</time>
      </trkpt>
      <trkpt lat="60.0193862" lon="17.8315414">
        <ele>21.2864</ele>
        <time>2013-04-30T18:30:19Z</time>
      </trkpt>
      <trkpt lat="60.0193848" lon="17.8314301">
        <ele>21.767</ele>
        <time>2013-04-30T18:30:20Z</time>
      </trkpt>
      <trkpt lat="60.0193911" lon="17.831328">
        <ele>21.2864</ele>
        <time>2013-04-30T18:30:21Z</time>
      </trkpt>
      <trkpt lat="60.0193871" lon="17.8312249">
        <ele>21.2864</ele>
        <time>2013-04-30T18:30:22Z</time>
      </trkpt>
      <trkpt lat="60.0193826" lon="17.8311265">
        <ele>20.8057</ele>
        <time>2013-04-30T18:30:23Z</time>
      </trkpt>
      <trkpt lat="60.0193718" lon="17.8310192">
        <ele>20.8057</ele>
        <time>2013-04-30T18:30:24Z</time>
      </trkpt>
      <trkpt lat="60.0193636" lon="17.8309064">
        <ele>20.8057</ele>
        <time>2013-04-30T18:30:25Z</time>
      </trkpt>
      <trkpt lat="60.01936" lon="17.8308005">
        <ele>20.325</ele>
        <time>2013-04-30T18:30:26Z</time>
      </trkpt>
      <trkpt lat="60.0193643" lon="17.8306862">
        <ele>20.8057</ele>
        <time>2013-04-30T18:30:27Z</time>
      </trkpt>
      <trkpt lat="60.0193741" lon="17.8305645">
        <ele>21.767</ele>
        <time>2013-04-30T18:30:28Z</time>
      </trkpt>
      <trkpt lat="60.0193858" lon="17.830449">
        <ele>21.767</ele>
        <time>2013-04-30T18:30:29Z</time>
      </trkpt>
      <trkpt lat="60.0193997" lon="17.8303329">
        <ele>21.767</ele>
        <time>2013-04-30T18:30:30Z</time>
      </trkpt>
      <trkpt lat="60.0194154" lon="17.8302165">
        <ele>22.2476</ele>
        <time>2013-04-30T18:30:31Z</time>
      </trkpt>
      <trkpt lat="60.0194375" lon="17.8301055">
        <ele>22.7283</ele>
        <time>2013-04-30T18:30:32Z</time>
      </trkpt>
      <trkpt lat="60.0194657" lon="17.8299976">
        <ele>23.209</ele>
        <time>2013-04-30T18:30:33Z</time>
      </trkpt>
      <trkpt lat="60.0194957" lon="17.8298947">
        <ele>23.209</ele>
        <time>2013-04-30T18:30:34Z</time>
      </trkpt>
      <trkpt lat="60.0195289" lon="17.8297916">
        <ele>23.6896</ele>
        <time>2013-04-30T18:30:35Z</time>
      </trkpt>
      <trkpt lat="60.019562" lon="17.8296885">
        <ele>23.6896</ele>
        <time>2013-04-30T18:30:36Z</time>
      </trkpt>
      <trkpt lat="60.0195957" lon="17.8295853">
        <ele>23.209</ele>
        <time>2013-04-30T18:30:37Z</time>
      </trkpt>
      <trkpt lat="60.0196325" lon="17.8294858">
        <ele>23.209</ele>
        <time>2013-04-30T18:30:38Z</time>
      </trkpt>
      <trkpt lat="60.0196701" lon="17.8293844">
        <ele>23.6896</ele>
        <time>2013-04-30T18:30:39Z</time>
      </trkpt>
      <trkpt lat="60.0197045" lon="17.8292807">
        <ele>23.209</ele>
        <time>2013-04-30T18:30:40Z</time>
      </trkpt>
      <trkpt lat="60.0197407" lon="17.8291799">
        <ele>22.7283</ele>
        <time>2013-04-30T18:30:41Z</time>
      </trkpt>
      <trkpt lat="60.0197775" lon="17.8290762">
        <ele>22.2476</ele>
        <time>2013-04-30T18:30:42Z</time>
      </trkpt>
      <trkpt lat="60.0198164" lon="17.8289702">
        <ele>22.2476</ele>
        <time>2013-04-30T18:30:43Z</time>
      </trkpt>
      <trkpt lat="60.0198574" lon="17.8288664">
        <ele>21.767</ele>
        <time>2013-04-30T18:30:44Z</time>
      </trkpt>
      <trkpt lat="60.0199012" lon="17.8287643">
        <ele>21.767</ele>
        <time>2013-04-30T18:30:45Z</time>
      </trkpt>
      <trkpt lat="60.0199454" lon="17.8286611">
        <ele>21.767</ele>
        <time>2013-04-30T18:30:46Z</time>
      </trkpt>
      <trkpt lat="60.0199909" lon="17.8285488">
        <ele>21.2864</ele>
        <time>2013-04-30T18:30:47Z</time>
      </trkpt>
      <trkpt lat="60.0200266" lon="17.8284451">
        <ele>21.2864</ele>
        <time>2013-04-30T18:30:48Z</time>
      </trkpt>
      <trkpt lat="60.0200767" lon="17.8283358">
        <ele>21.2864</ele>
        <time>2013-04-30T18:30:49Z</time>
      </trkpt>
      <trkpt lat="60.0201173" lon="17.828222">
        <ele>21.2864</ele>
        <time>2013-04-30T18:30:50Z</time>
      </trkpt>
      <trkpt lat="60.0201508" lon="17.8281001">
        <ele>21.2864</ele>
        <time>2013-04-30T18:30:51Z</time>
      </trkpt>
      <trkpt lat="60.02018" lon="17.8279775">
        <ele>21.2864</ele>
        <time>2013-04-30T18:30:52Z</time>
      </trkpt>
      <trkpt lat="60.0202083" lon="17.8278466">
        <ele>21.2864</ele>
        <time>2013-04-30T18:30:53Z</time>
      </trkpt>
      <trkpt lat="60.0202324" lon="17.8277111">
        <ele>21.767</ele>
        <time>2013-04-30T18:30:54Z</time>
      </trkpt>
      <trkpt lat="60.0202556" lon="17.8275813">
        <ele>21.2864</ele>
        <time>2013-04-30T18:30:55Z</time>
      </trkpt>
      <trkpt lat="60.02028" lon="17.8274511">
        <ele>21.2864</ele>
        <time>2013-04-30T18:30:56Z</time>
      </trkpt>
      <trkpt lat="60.0203093" lon="17.8273229">
        <ele>21.2864</ele>
        <time>2013-04-30T18:30:57Z</time>
      </trkpt>
      <trkpt lat="60.0203418" lon="17.8272009">
        <ele>21.2864</ele>
        <time>2013-04-30T18:30:58Z</time>
      </trkpt>
      <trkpt lat="60.0203783" lon="17.8270819">
        <ele>21.2864</ele>
        <time>2013-04-30T18:30:59Z</time>
      </trkpt>
      <trkpt lat="60.0204143" lon="17.8269648">
        <ele>21.767</ele>
        <time>2013-04-30T18:31:00Z</time>
      </trkpt>
      <trkpt lat="60.0204458" lon="17.8268483">
        <ele>21.767</ele>
        <time>2013-04-30T18:31:01Z</time>
      </trkpt>
      <trkpt lat="60.0204784" lon="17.826741">
        <ele>22.7283</ele>
        <time>2013-04-30T18:31:02Z</time>
      </trkpt>
      <trkpt lat="60.0205084" lon="17.8266317">
        <ele>23.209</ele>
        <time>2013-04-30T18:31:03Z</time>
      </trkpt>
      <trkpt lat="60.0205375" lon="17.8265286">
        <ele>23.209</ele>
        <time>2013-04-30T18:31:04Z</time>
      </trkpt>
      <trkpt lat="60.020574" lon="17.8264245">
        <ele>23.6896</ele>
        <time>2013-04-30T18:31:05Z</time>
      </trkpt>
      <trkpt lat="60.0206026" lon="17.8263148">
        <ele>23.6896</ele>
        <time>2013-04-30T18:31:06Z</time>
      </trkpt>
      <trkpt lat="60.0206238" lon="17.8261995">
        <ele>23.6896</ele>
        <time>2013-04-30T18:31:07Z</time>
      </trkpt>
      <trkpt lat="60.0206467" lon="17.8260802">
        <ele>24.1703</ele>
        <time>2013-04-30T18:31:08Z</time>
      </trkpt>
      <trkpt lat="60.0206637" lon="17.82595">
        <ele>24.651</ele>
        <time>2013-04-30T18:31:09Z</time>
      </trkpt>
      <trkpt lat="60.0206794" lon="17.8258188">
        <ele>24.651</ele>
        <time>2013-04-30T18:31:10Z</time>
      </trkpt>
      <trkpt lat="60.0206904" lon="17.8256884">
        <ele>24.651</ele>
        <time>2013-04-30T18:31:11Z</time>
      </trkpt>
      <trkpt lat="60.0207048" lon="17.825557">
        <ele>24.651</ele>
        <time>2013-04-30T18:31:12Z</time>
      </trkpt>
      <trkpt lat="60.0207172" lon="17.8254289">
        <ele>25.1317</ele>
        <time>2013-04-30T18:31:13Z</time>
      </trkpt>
      <trkpt lat="60.020728" lon="17.8252543">
        <ele>25.6123</ele>
        <time>2013-04-30T18:31:14Z</time>
      </trkpt>
      <trkpt lat="60.0207243" lon="17.8251114">
        <ele>25.1317</ele>
        <time>2013-04-30T18:31:15Z</time>
      </trkpt>
      <trkpt lat="60.0207255" lon="17.8249827">
        <ele>25.6123</ele>
        <time>2013-04-30T18:31:16Z</time>
      </trkpt>
      <trkpt lat="60.0207238" lon="17.8248565">
        <ele>25.6123</ele>
        <time>2013-04-30T18:31:17Z</time>
      </trkpt>
      <trkpt lat="60.0207447" lon="17.8247305">
        <ele>26.5736</ele>
        <time>2013-04-30T18:31:18Z</time>
      </trkpt>
      <trkpt lat="60.0207773" lon="17.8245742">
        <ele>27.5349</ele>
        <time>2013-04-30T18:31:19Z</time>
      </trkpt>
      <trkpt lat="60.0207912" lon="17.8244277">
        <ele>28.0155</ele>
        <time>2013-04-30T18:31:20Z</time>
      </trkpt>
      <trkpt lat="60.020795" lon="17.8242972">
        <ele>28.4962</ele>
        <time>2013-04-30T18:31:21Z</time>
      </trkpt>
      <trkpt lat="60.0208038" lon="17.8241746">
        <ele>28.9769</ele>
        <time>2013-04-30T18:31:22Z</time>
      </trkpt>
      <trkpt lat="60.0208037" lon="17.824038">
        <ele>29.4575</ele>
        <time>2013-04-30T18:31:23Z</time>
      </trkpt>
      <trkpt lat="60.0208017" lon="17.8238946">
        <ele>29.9381</ele>
        <time>2013-04-30T18:31:24Z</time>
      </trkpt>
      <trkpt lat="60.020798" lon="17.8238009">
        <ele>29.9381</ele>
        <time>2013-04-30T18:31:25Z</time>
      </trkpt>
      <trkpt lat="60.020784" lon="17.8236776">
        <ele>29.9381</ele>
        <time>2013-04-30T18:31:26Z</time>
      </trkpt>
      <trkpt lat="60.0207778" lon="17.8235687">
        <ele>29.9381</ele>
        <time>2013-04-30T18:31:27Z</time>
      </trkpt>
      <trkpt lat="60.0207731" lon="17.8234599">
        <ele>29.9381</ele>
        <time>2013-04-30T18:31:28Z</time>
      </trkpt>
      <trkpt lat="60.0207628" lon="17.8233544">
        <ele>29.9381</ele>
        <time>2013-04-30T18:31:29Z</time>
      </trkpt>
      <trkpt lat="60.0207519" lon="17.8232474">
        <ele>29.9381</ele>
        <time>2013-04-30T18:31:30Z</time>
      </trkpt>
      <trkpt lat="60.0207602" lon="17.8231156">
        <ele>29.9381</ele>
        <time>2013-04-30T18:31:31Z</time>
      </trkpt>
      <trkpt lat="60.0207562" lon="17.8229962">
        <ele>29.4575</ele>
        <time>2013-04-30T18:31:32Z</time>
      </trkpt>
      <trkpt lat="60.0207509" lon="17.8228765">
        <ele>29.4575</ele>
        <time>2013-04-30T18:31:33Z</time>
      </trkpt>
      <trkpt lat="60.0207462" lon="17.8227439">
        <ele>28.9769</ele>
        <time>2013-04-30T18:31:34Z</time>
      </trkpt>
      <trkpt lat="60.0207291" lon="17.8226111">
        <ele>28.0155</ele>
        <time>2013-04-30T18:31:35Z</time>
      </trkpt>
      <trkpt lat="60.0207044" lon="17.8224653">
        <ele>27.5349</ele>
        <time>2013-04-30T18:31:36Z</time>
      </trkpt>
      <trkpt lat="60.0206859" lon="17.822326">
        <ele>27.0543</ele>
        <time>2013-04-30T18:31:37Z</time>
      </trkpt>
      <trkpt lat="60.0206731" lon="17.8221986">
        <ele>27.5349</ele>
        <time>2013-04-30T18:31:38Z</time>
      </trkpt>
      <trkpt lat="60.0206613" lon="17.8220669">
        <ele>27.0543</ele>
        <time>2013-04-30T18:31:39Z</time>
      </trkpt>
      <trkpt lat="60.0206667" lon="17.8219386">
        <ele>27.0543</ele>
        <time>2013-04-30T18:31:40Z</time>
      </trkpt>
      <trkpt lat="60.0206849" lon="17.8218182">
        <ele>26.0929</ele>
        <time>2013-04-30T18:31:41Z</time>
      </trkpt>
      <trkpt lat="60.0207111" lon="17.8216994">
        <ele>26.0929</ele>
        <time>2013-04-30T18:31:42Z</time>
      </trkpt>
      <trkpt lat="60.0207338" lon="17.8215707">
        <ele>26.5736</ele>
        <time>2013-04-30T18:31:43Z</time>
      </trkpt>
      <trkpt lat="60.0207575" lon="17.8214429">
        <ele>26.5736</ele>
        <time>2013-04-30T18:31:44Z</time>
      </trkpt>
      <trkpt lat="60.0207824" lon="17.8213165">
        <ele>26.5736</ele>
        <time>2013-04-30T18:31:45Z</time>
      </trkpt>
      <trkpt lat="60.0207921" lon="17.8211564">
        <ele>26.0929</ele>
        <time>2013-04-30T18:31:46Z</time>
      </trkpt>
      <trkpt lat="60.0208066" lon="17.8210243">
        <ele>26.0929</ele>
        <time>2013-04-30T18:31:47Z</time>
      </trkpt>
      <trkpt lat="60.0208064" lon="17.8208767">
        <ele>26.0929</ele>
        <time>2013-04-30T18:31:48Z</time>
      </trkpt>
      <trkpt lat="60.0208066" lon="17.8207513">
        <ele>26.0929</ele>
        <time>2013-04-30T18:31:49Z</time>
      </trkpt>
      <trkpt lat="60.0208016" lon="17.8206288">
        <ele>26.0929</ele>
        <time>2013-04-30T18:31:50Z</time>
      </trkpt>
      <trkpt lat="60.0207833" lon="17.8205115">
        <ele>25.6123</ele>
        <time>2013-04-30T18:31:51Z</time>
      </trkpt>
      <trkpt lat="60.0207852" lon="17.8203541">
        <ele>25.6123</ele>
        <time>2013-04-30T18:31:52Z</time>
      </trkpt>
      <trkpt lat="60.020804" lon="17.8202378">
        <ele>25.1317</ele>
        <time>2013-04-30T18:31:53Z</time>
      </trkpt>
      <trkpt lat="60.0208177" lon="17.8201359">
        <ele>24.651</ele>
        <time>2013-04-30T18:31:54Z</time>
      </trkpt>
      <trkpt lat="60.0208404" lon="17.8200343">
        <ele>24.651</ele>
        <time>2013-04-30T18:31:55Z</time>
      </trkpt>
      <trkpt lat="60.0208576" lon="17.8199199">
        <ele>24.651</ele>
        <time>2013-04-30T18:31:56Z</time>
      </trkpt>
      <trkpt lat="60.0208784" lon="17.8198044">
        <ele>24.651</ele>
        <time>2013-04-30T18:31:57Z</time>
      </trkpt>
      <trkpt lat="60.0208938" lon="17.8196785">
        <ele>25.1317</ele>
        <time>2013-04-30T18:31:58Z</time>
      </trkpt>
      <trkpt lat="60.0209103" lon="17.8195531">
        <ele>26.0929</ele>
        <time>2013-04-30T18:31:59Z</time>
      </trkpt>
      <trkpt lat="60.0209237" lon="17.8193863">
        <ele>27.0543</ele>
        <time>2013-04-30T18:32:00Z</time>
      </trkpt>
      <trkpt lat="60.0209325" lon="17.8193142">
        <ele>26.5736</ele>
        <time>2013-04-30T18:32:01Z</time>
      </trkpt>
      <trkpt lat="60.0209452" lon="17.8192278">
        <ele>26.5736</ele>
        <time>2013-04-30T18:32:02Z</time>
      </trkpt>
      <trkpt lat="60.0209566" lon="17.8191205">
        <ele>26.5736</ele>
        <time>2013-04-30T18:32:03Z</time>
      </trkpt>
      <trkpt lat="60.0209746" lon="17.8190101">
        <ele>26.5736</ele>
        <time>2013-04-30T18:32:04Z</time>
      </trkpt>
      <trkpt lat="60.020999" lon="17.8188933">
        <ele>26.5736</ele>
        <time>2013-04-30T18:32:05Z</time>
      </trkpt>
      <trkpt lat="60.0210296" lon="17.8187793">
        <ele>26.5736</ele>
        <time>2013-04-30T18:32:06Z</time>
      </trkpt>
      <trkpt lat="60.0210632" lon="17.8186756">
        <ele>26.5736</ele>
        <time>2013-04-30T18:32:07Z</time>
      </trkpt>
      <trkpt lat="60.0210885" lon="17.8185746">
        <ele>26.5736</ele>
        <time>2013-04-30T18:32:08Z</time>
      </trkpt>
      <trkpt lat="60.0211051" lon="17.8184752">
        <ele>26.5736</ele>
        <time>2013-04-30T18:32:09Z</time>
      </trkpt>
      <trkpt lat="60.021116" lon="17.8183742">
        <ele>27.0543</ele>
        <time>2013-04-30T18:32:10Z</time>
      </trkpt>
      <trkpt lat="60.0211337" lon="17.8182271">
        <ele>28.0155</ele>
        <time>2013-04-30T18:32:11Z</time>
      </trkpt>
      <trkpt lat="60.0211192" lon="17.8181307">
        <ele>28.0155</ele>
        <time>2013-04-30T18:32:12Z</time>
      </trkpt>
      <trkpt lat="60.0211019" lon="17.8180222">
        <ele>28.0155</ele>
        <time>2013-04-30T18:32:13Z</time>
      </trkpt>
      <trkpt lat="60.0210926" lon="17.8179167">
        <ele>28.0155</ele>
        <time>2013-04-30T18:32:14Z</time>
      </trkpt>
      <trkpt lat="60.0210778" lon="17.8178155">
        <ele>28.0155</ele>
        <time>2013-04-30T18:32:15Z</time>
      </trkpt>
      <trkpt lat="60.0210625" lon="17.8177197">
        <ele>27.5349</ele>
        <time>2013-04-30T18:32:16Z</time>
      </trkpt>
      <trkpt lat="60.0210498" lon="17.8176345">
        <ele>27.0543</ele>
        <time>2013-04-30T18:32:17Z</time>
      </trkpt>
      <trkpt lat="60.0210389" lon="17.8175537">
        <ele>27.5349</ele>
        <time>2013-04-30T18:32:18Z</time>
      </trkpt>
      <trkpt lat="60.0210233" lon="17.8174666">
        <ele>27.5349</ele>
        <time>2013-04-30T18:32:19Z</time>
      </trkpt>
      <trkpt lat="60.0210087" lon="17.8173786">
        <ele>27.5349</ele>
        <time>2013-04-30T18:32:20Z</time>
      </trkpt>
      <trkpt lat="60.0209912" lon="17.8172831">
        <ele>28.0155</ele>
        <time>2013-04-30T18:32:21Z</time>
      </trkpt>
      <trkpt lat="60.0209748" lon="17.8171898">
        <ele>28.0155</ele>
        <time>2013-04-30T18:32:22Z</time>
      </trkpt>
      <trkpt lat="60.0209679" lon="17.8171044">
        <ele>28.4962</ele>
        <time>2013-04-30T18:32:23Z</time>
      </trkpt>
      <trkpt lat="60.0209589" lon="17.8170101">
        <ele>28.4962</ele>
        <time>2013-04-30T18:32:24Z</time>
      </trkpt>
      <trkpt lat="60.0209555" lon="17.8169114">
        <ele>28.4962</ele>
        <time>2013-04-30T18:32:25Z</time>
      </trkpt>
      <trkpt lat="60.0209513" lon="17.8168021">
        <ele>28.4962</ele>
        <time>2013-04-30T18:32:26Z</time>
      </trkpt>
      <trkpt lat="60.0209513" lon="17.8166894">
        <ele>28.4962</ele>
        <time>2013-04-30T18:32:27Z</time>
      </trkpt>
      <trkpt lat="60.020956" lon="17.8165632">
        <ele>28.0155</ele>
        <time>2013-04-30T18:32:28Z</time>
      </trkpt>
      <trkpt lat="60.0209693" lon="17.8164301">
        <ele>28.4962</ele>
        <time>2013-04-30T18:32:29Z</time>
      </trkpt>
      <trkpt lat="60.0209808" lon="17.8162922">
        <ele>28.4962</ele>
        <time>2013-04-30T18:32:30Z</time>
      </trkpt>
      <trkpt lat="60.0209908" lon="17.8161545">
        <ele>28.4962</ele>
        <time>2013-04-30T18:32:31Z</time>
      </trkpt>
      <trkpt lat="60.0210136" lon="17.815999">
        <ele>28.4962</ele>
        <time>2013-04-30T18:32:32Z</time>
      </trkpt>
      <trkpt lat="60.0210275" lon="17.8158591">
        <ele>28.4962</ele>
        <time>2013-04-30T18:32:33Z</time>
      </trkpt>
      <trkpt lat="60.0210338" lon="17.8157317">
        <ele>28.0155</ele>
        <time>2013-04-30T18:32:34Z</time>
      </trkpt>
      <trkpt lat="60.0210436" lon="17.8155975">
        <ele>28.4962</ele>
        <time>2013-04-30T18:32:35Z</time>
      </trkpt>
      <trkpt lat="60.0210556" lon="17.815467">
        <ele>28.9769</ele>
        <time>2013-04-30T18:32:36Z</time>
      </trkpt>
      <trkpt lat="60.0210544" lon="17.8153437">
        <ele>28.9769</ele>
        <time>2013-04-30T18:32:37Z</time>
      </trkpt>
      <trkpt lat="60.0210508" lon="17.8152276">
        <ele>28.9769</ele>
        <time>2013-04-30T18:32:38Z</time>
      </trkpt>
      <trkpt lat="60.0210513" lon="17.8151173">
        <ele>29.4575</ele>
        <time>2013-04-30T18:32:39Z</time>
      </trkpt>
      <trkpt lat="60.0210529" lon="17.8150132">
        <ele>28.9769</ele>
        <time>2013-04-30T18:32:40Z</time>
      </trkpt>
      <trkpt lat="60.021041" lon="17.8149144">
        <ele>28.4962</ele>
        <time>2013-04-30T18:32:41Z</time>
      </trkpt>
      <trkpt lat="60.0210291" lon="17.8148288">
        <ele>28.0155</ele>
        <time>2013-04-30T18:32:42Z</time>
      </trkpt>
      <trkpt lat="60.021024" lon="17.8147458">
        <ele>27.5349</ele>
        <time>2013-04-30T18:32:43Z</time>
      </trkpt>
      <trkpt lat="60.0210245" lon="17.8146605">
        <ele>27.5349</ele>
        <time>2013-04-30T18:32:44Z</time>
      </trkpt>
      <trkpt lat="60.0210244" lon="17.8145751">
        <ele>28.0155</ele>
        <time>2013-04-30T18:32:45Z</time>
      </trkpt>
      <trkpt lat="60.0210202" lon="17.8144818">
        <ele>28.9769</ele>
        <time>2013-04-30T18:32:46Z</time>
      </trkpt>
      <trkpt lat="60.0210213" lon="17.8143927">
        <ele>28.4962</ele>
        <time>2013-04-30T18:32:47Z</time>
      </trkpt>
      <trkpt lat="60.0210155" lon="17.8142916">
        <ele>28.0155</ele>
        <time>2013-04-30T18:32:48Z</time>
      </trkpt>
      <trkpt lat="60.0209999" lon="17.814172">
        <ele>28.0155</ele>
        <time>2013-04-30T18:32:49Z</time>
      </trkpt>
      <trkpt lat="60.0209887" lon="17.8140596">
        <ele>28.4962</ele>
        <time>2013-04-30T18:32:50Z</time>
      </trkpt>
      <trkpt lat="60.0209698" lon="17.8139351">
        <ele>28.9769</ele>
        <time>2013-04-30T18:32:51Z</time>
      </trkpt>
      <trkpt lat="60.0209574" lon="17.8138409">
        <ele>29.4575</ele>
        <time>2013-04-30T18:32:52Z</time>
      </trkpt>
      <trkpt lat="60.0209364" lon="17.8137442">
        <ele>29.4575</ele>
        <time>2013-04-30T18:32:53Z</time>
      </trkpt>
      <trkpt lat="60.0209181" lon="17.8136564">
        <ele>29.9381</ele>
        <time>2013-04-30T18:32:54Z</time>
      </trkpt>
      <trkpt lat="60.0208938" lon="17.8135684">
        <ele>29.4575</ele>
        <time>2013-04-30T18:32:55Z</time>
      </trkpt>
      <trkpt lat="60.0208705" lon="17.8134774">
        <ele>28.9769</ele>
        <time>2013-04-30T18:32:56Z</time>
      </trkpt>
      <trkpt lat="60.0208382" lon="17.8133803">
        <ele>29.9381</ele>
        <time>2013-04-30T18:32:57Z</time>
      </trkpt>
      <trkpt lat="60.0208137" lon="17.8133024">
        <ele>29.4575</ele>
        <time>2013-04-30T18:32:58Z</time>
      </trkpt>
      <trkpt lat="60.0207748" lon="17.8132146">
        <ele>29.4575</ele>
        <time>2013-04-30T18:32:59Z</time>
      </trkpt>
      <trkpt lat="60.020742" lon="17.8131366">
        <ele>29.4575</ele>
        <time>2013-04-30T18:33:00Z</time>
      </trkpt>
      <trkpt lat="60.0206937" lon="17.8130407">
        <ele>29.9381</ele>
        <time>2013-04-30T18:33:01Z</time>
      </trkpt>
      <trkpt lat="60.020654" lon="17.8129526">
        <ele>30.4188</ele>
        <time>2013-04-30T18:33:02Z</time>
      </trkpt>
      <trkpt lat="60.0206043" lon="17.812867">
        <ele>30.4188</ele>
        <time>2013-04-30T18:33:03Z</time>
      </trkpt>
      <trkpt lat="60.0205598" lon="17.8127784">
        <ele>29.9381</ele>
        <time>2013-04-30T18:33:04Z</time>
      </trkpt>
      <trkpt lat="60.0205172" lon="17.8126775">
        <ele>29.9381</ele>
        <time>2013-04-30T18:33:05Z</time>
      </trkpt>
      <trkpt lat="60.0204767" lon="17.812574">
        <ele>30.4188</ele>
        <time>2013-04-30T18:33:06Z</time>
      </trkpt>
      <trkpt lat="60.0204354" lon="17.8124051">
        <ele>31.3801</ele>
        <time>2013-04-30T18:33:07Z</time>
      </trkpt>
      <trkpt lat="60.0203967" lon="17.8122969">
        <ele>31.8607</ele>
        <time>2013-04-30T18:33:08Z</time>
      </trkpt>
      <trkpt lat="60.0203555" lon="17.8122071">
        <ele>31.3801</ele>
        <time>2013-04-30T18:33:09Z</time>
      </trkpt>
      <trkpt lat="60.0203214" lon="17.8121188">
        <ele>31.3801</ele>
        <time>2013-04-30T18:33:10Z</time>
      </trkpt>
      <trkpt lat="60.0202874" lon="17.8120337">
        <ele>31.8607</ele>
        <time>2013-04-30T18:33:11Z</time>
      </trkpt>
      <trkpt lat="60.0202401" lon="17.811956">
        <ele>31.8607</ele>
        <time>2013-04-30T18:33:12Z</time>
      </trkpt>
      <trkpt lat="60.0201992" lon="17.8118829">
        <ele>31.8607</ele>
        <time>2013-04-30T18:33:13Z</time>
      </trkpt>
      <trkpt lat="60.0201566" lon="17.8118115">
        <ele>31.8607</ele>
        <time>2013-04-30T18:33:14Z</time>
      </trkpt>
      <trkpt lat="60.020113" lon="17.8117422">
        <ele>32.3416</ele>
        <time>2013-04-30T18:33:15Z</time>
      </trkpt>
      <trkpt lat="60.0200655" lon="17.811671">
        <ele>32.3416</ele>
        <time>2013-04-30T18:33:16Z</time>
      </trkpt>
      <trkpt lat="60.020022" lon="17.8116004">
        <ele>32.3416</ele>
        <time>2013-04-30T18:33:17Z</time>
      </trkpt>
      <trkpt lat="60.01998" lon="17.8115231">
        <ele>32.3416</ele>
        <time>2013-04-30T18:33:18Z</time>
      </trkpt>
      <trkpt lat="60.0199427" lon="17.8114436">
        <ele>32.8223</ele>
        <time>2013-04-30T18:33:19Z</time>
      </trkpt>
      <trkpt lat="60.0199046" lon="17.8113586">
        <ele>32.8223</ele>
        <time>2013-04-30T18:33:20Z</time>
      </trkpt>
      <trkpt lat="60.0198642" lon="17.811265">
        <ele>31.8607</ele>
        <time>2013-04-30T18:33:21Z</time>
      </trkpt>
      <trkpt lat="60.0198299" lon="17.811166">
        <ele>31.8607</ele>
        <time>2013-04-30T18:33:22Z</time>
      </trkpt>
      <trkpt lat="60.0197998" lon="17.8110567">
        <ele>32.3416</ele>
        <time>2013-04-30T18:33:23Z</time>
      </trkpt>
      <trkpt lat="60.019777" lon="17.8109402">
        <ele>31.8607</ele>
        <time>2013-04-30T18:33:24Z</time>
      </trkpt>
      <trkpt lat="60.0197615" lon="17.8108225">
        <ele>31.8607</ele>
        <time>2013-04-30T18:33:25Z</time>
      </trkpt>
      <trkpt lat="60.0197496" lon="17.810704">
        <ele>31.8607</ele>
        <time>2013-04-30T18:33:26Z</time>
      </trkpt>
      <trkpt lat="60.0197392" lon="17.8105853">
        <ele>31.8607</ele>
        <time>2013-04-30T18:33:27Z</time>
      </trkpt>
      <trkpt lat="60.0197282" lon="17.8104648">
        <ele>31.8607</ele>
        <time>2013-04-30T18:33:28Z</time>
      </trkpt>
      <trkpt lat="60.0197169" lon="17.8103424">
        <ele>31.8607</ele>
        <time>2013-04-30T18:33:29Z</time>
      </trkpt>
      <trkpt lat="60.0197064" lon="17.8102222">
        <ele>31.8607</ele>
        <time>2013-04-30T18:33:30Z</time>
      </trkpt>
      <trkpt lat="60.0196953" lon="17.8101036">
        <ele>31.8607</ele>
        <time>2013-04-30T18:33:31Z</time>
      </trkpt>
      <trkpt lat="60.019682" lon="17.8099891">
        <ele>31.3801</ele>
        <time>2013-04-30T18:33:32Z</time>
      </trkpt>
      <trkpt lat="60.0196683" lon="17.8098741">
        <ele>31.8607</ele>
        <time>2013-04-30T18:33:33Z</time>
      </trkpt>
      <trkpt lat="60.0196547" lon="17.8097559">
        <ele>31.8607</ele>
        <time>2013-04-30T18:33:34Z</time>
      </trkpt>
      <trkpt lat="60.0196424" lon="17.8096389">
        <ele>31.8607</ele>
        <time>2013-04-30T18:33:35Z</time>
      </trkpt>
      <trkpt lat="60.0196312" lon="17.8095194">
        <ele>32.3416</ele>
        <time>2013-04-30T18:33:36Z</time>
      </trkpt>
      <trkpt lat="60.019623" lon="17.8094017">
        <ele>32.3416</ele>
        <time>2013-04-30T18:33:37Z</time>
      </trkpt>
      <trkpt lat="60.0196174" lon="17.80928">
        <ele>32.3416</ele>
        <time>2013-04-30T18:33:38Z</time>
      </trkpt>
      <trkpt lat="60.0196149" lon="17.8091587">
        <ele>32.3416</ele>
        <time>2013-04-30T18:33:39Z</time>
      </trkpt>
      <trkpt lat="60.0196176" lon="17.8090401">
        <ele>31.8607</ele>
        <time>2013-04-30T18:33:40Z</time>
      </trkpt>
      <trkpt lat="60.0196372" lon="17.8088832">
        <ele>31.8607</ele>
        <time>2013-04-30T18:33:41Z</time>
      </trkpt>
      <trkpt lat="60.0196424" lon="17.8087555">
        <ele>31.8607</ele>
        <time>2013-04-30T18:33:42Z</time>
      </trkpt>
      <trkpt lat="60.0196558" lon="17.8086413">
        <ele>31.3801</ele>
        <time>2013-04-30T18:33:43Z</time>
      </trkpt>
      <trkpt lat="60.0196745" lon="17.8085307">
        <ele>31.3801</ele>
        <time>2013-04-30T18:33:44Z</time>
      </trkpt>
      <trkpt lat="60.01969" lon="17.8084173">
        <ele>31.8607</ele>
        <time>2013-04-30T18:33:45Z</time>
      </trkpt>
      <trkpt lat="60.0197075" lon="17.8083085">
        <ele>32.3416</ele>
        <time>2013-04-30T18:33:46Z</time>
      </trkpt>
      <trkpt lat="60.019729" lon="17.8082042">
        <ele>32.8223</ele>
        <time>2013-04-30T18:33:47Z</time>
      </trkpt>
      <trkpt lat="60.0197552" lon="17.8081087">
        <ele>33.7834</ele>
        <time>2013-04-30T18:33:48Z</time>
      </trkpt>
      <trkpt lat="60.0197796" lon="17.8080153">
        <ele>34.7449</ele>
        <time>2013-04-30T18:33:49Z</time>
      </trkpt>
      <trkpt lat="60.0198025" lon="17.8079218">
        <ele>35.2255</ele>
        <time>2013-04-30T18:33:50Z</time>
      </trkpt>
      <trkpt lat="60.0198269" lon="17.8078245">
        <ele>35.7061</ele>
        <time>2013-04-30T18:33:51Z</time>
      </trkpt>
      <trkpt lat="60.0198515" lon="17.8077263">
        <ele>36.1868</ele>
        <time>2013-04-30T18:33:52Z</time>
      </trkpt>
      <trkpt lat="60.019874" lon="17.8076322">
        <ele>35.7061</ele>
        <time>2013-04-30T18:33:53Z</time>
      </trkpt>
      <trkpt lat="60.0199003" lon="17.8075389">
        <ele>36.1868</ele>
        <time>2013-04-30T18:33:54Z</time>
      </trkpt>
      <trkpt lat="60.0199288" lon="17.8074421">
        <ele>36.1868</ele>
        <time>2013-04-30T18:33:55Z</time>
      </trkpt>
      <trkpt lat="60.0199583" lon="17.8073483">
        <ele>36.1868</ele>
        <time>2013-04-30T18:33:56Z</time>
      </trkpt>
      <trkpt lat="60.0199895" lon="17.807254">
        <ele>36.1868</ele>
        <time>2013-04-30T18:33:57Z</time>
      </trkpt>
      <trkpt lat="60.0200205" lon="17.8071559">
        <ele>36.6675</ele>
        <time>2013-04-30T18:33:58Z</time>
      </trkpt>
      <trkpt lat="60.020049" lon="17.8070551">
        <ele>36.6675</ele>
        <time>2013-04-30T18:33:59Z</time>
      </trkpt>
      <trkpt lat="60.0200758" lon="17.8069505">
        <ele>37.1481</ele>
        <time>2013-04-30T18:34:00Z</time>
      </trkpt>
      <trkpt lat="60.0200997" lon="17.8068438">
        <ele>37.6287</ele>
        <time>2013-04-30T18:34:01Z</time>
      </trkpt>
      <trkpt lat="60.0201214" lon="17.806736">
        <ele>38.1094</ele>
        <time>2013-04-30T18:34:02Z</time>
      </trkpt>
      <trkpt lat="60.0201407" lon="17.8066268">
        <ele>38.5901</ele>
        <time>2013-04-30T18:34:03Z</time>
      </trkpt>
      <trkpt lat="60.0201576" lon="17.8065184">
        <ele>39.0707</ele>
        <time>2013-04-30T18:34:04Z</time>
      </trkpt>
      <trkpt lat="60.0201733" lon="17.8064092">
        <ele>39.0707</ele>
        <time>2013-04-30T18:34:05Z</time>
      </trkpt>
      <trkpt lat="60.0201884" lon="17.8062989">
        <ele>39.5513</ele>
        <time>2013-04-30T18:34:06Z</time>
      </trkpt>
      <trkpt lat="60.0202026" lon="17.8061859">
        <ele>40.0321</ele>
        <time>2013-04-30T18:34:07Z</time>
      </trkpt>
      <trkpt lat="60.0202142" lon="17.8060684">
        <ele>40.0321</ele>
        <time>2013-04-30T18:34:08Z</time>
      </trkpt>
      <trkpt lat="60.0202242" lon="17.8059482">
        <ele>40.0321</ele>
        <time>2013-04-30T18:34:09Z</time>
      </trkpt>
      <trkpt lat="60.0202323" lon="17.8058259">
        <ele>40.5128</ele>
        <time>2013-04-30T18:34:10Z</time>
      </trkpt>
      <trkpt lat="60.0202399" lon="17.8057047">
        <ele>40.9934</ele>
        <time>2013-04-30T18:34:11Z</time>
      </trkpt>
      <trkpt lat="60.0202479" lon="17.8055864">
        <ele>40.9934</ele>
        <time>2013-04-30T18:34:12Z</time>
      </trkpt>
      <trkpt lat="60.0202573" lon="17.8054711">
        <ele>41.474</ele>
        <time>2013-04-30T18:34:13Z</time>
      </trkpt>
      <trkpt lat="60.0202674" lon="17.8053553">
        <ele>41.474</ele>
        <time>2013-04-30T18:34:14Z</time>
      </trkpt>
      <trkpt lat="60.020279" lon="17.805241">
        <ele>41.9547</ele>
        <time>2013-04-30T18:34:15Z</time>
      </trkpt>
      <trkpt lat="60.020293" lon="17.8051289">
        <ele>41.9547</ele>
        <time>2013-04-30T18:34:16Z</time>
      </trkpt>
      <trkpt lat="60.0203085" lon="17.8050188">
        <ele>42.4354</ele>
        <time>2013-04-30T18:34:17Z</time>
      </trkpt>
      <trkpt lat="60.0203244" lon="17.8049103">
        <ele>42.4354</ele>
        <time>2013-04-30T18:34:18Z</time>
      </trkpt>
      <trkpt lat="60.0203401" lon="17.8048002">
        <ele>42.4354</ele>
        <time>2013-04-30T18:34:19Z</time>
      </trkpt>
      <trkpt lat="60.0203547" lon="17.8046868">
        <ele>42.4354</ele>
        <time>2013-04-30T18:34:20Z</time>
      </trkpt>
      <trkpt lat="60.0203718" lon="17.8045665">
        <ele>42.4354</ele>
        <time>2013-04-30T18:34:21Z</time>
      </trkpt>
      <trkpt lat="60.0203855" lon="17.80444">
        <ele>41.9547</ele>
        <time>2013-04-30T18:34:22Z</time>
      </trkpt>
      <trkpt lat="60.0203996" lon="17.8043084">
        <ele>41.9547</ele>
        <time>2013-04-30T18:34:23Z</time>
      </trkpt>
      <trkpt lat="60.0204126" lon="17.8041702">
        <ele>41.9547</ele>
        <time>2013-04-30T18:34:24Z</time>
      </trkpt>
      <trkpt lat="60.0204257" lon="17.8040294">
        <ele>41.9547</ele>
        <time>2013-04-30T18:34:25Z</time>
      </trkpt>
      <trkpt lat="60.0204396" lon="17.8038885">
        <ele>41.9547</ele>
        <time>2013-04-30T18:34:26Z</time>
      </trkpt>
      <trkpt lat="60.0204554" lon="17.8037492">
        <ele>41.9547</ele>
        <time>2013-04-30T18:34:27Z</time>
      </trkpt>
      <trkpt lat="60.0204749" lon="17.8036144">
        <ele>41.9547</ele>
        <time>2013-04-30T18:34:28Z</time>
      </trkpt>
      <trkpt lat="60.0204948" lon="17.8034844">
        <ele>41.9547</ele>
        <time>2013-04-30T18:34:29Z</time>
      </trkpt>
      <trkpt lat="60.0205186" lon="17.8033602">
        <ele>41.9547</ele>
        <time>2013-04-30T18:34:30Z</time>
      </trkpt>
      <trkpt lat="60.0205455" lon="17.8032405">
        <ele>41.9547</ele>
        <time>2013-04-30T18:34:31Z</time>
      </trkpt>
      <trkpt lat="60.0205742" lon="17.8031251">
        <ele>41.474</ele>
        <time>2013-04-30T18:34:32Z</time>
      </trkpt>
      <trkpt lat="60.020603" lon="17.803012">
        <ele>41.474</ele>
        <time>2013-04-30T18:34:33Z</time>
      </trkpt>
      <trkpt lat="60.020631" lon="17.8028976">
        <ele>41.474</ele>
        <time>2013-04-30T18:34:34Z</time>
      </trkpt>
      <trkpt lat="60.0206566" lon="17.8027804">
        <ele>41.474</ele>
        <time>2013-04-30T18:34:35Z</time>
      </trkpt>
      <trkpt lat="60.0206799" lon="17.8026613">
        <ele>41.474</ele>
        <time>2013-04-30T18:34:36Z</time>
      </trkpt>
      <trkpt lat="60.0207023" lon="17.8025422">
        <ele>41.474</ele>
        <time>2013-04-30T18:34:37Z</time>
      </trkpt>
      <trkpt lat="60.0207224" lon="17.8024231">
        <ele>41.474</ele>
        <time>2013-04-30T18:34:38Z</time>
      </trkpt>
      <trkpt lat="60.0207393" lon="17.802305">
        <ele>41.9547</ele>
        <time>2013-04-30T18:34:39Z</time>
      </trkpt>
      <trkpt lat="60.0207553" lon="17.8021844">
        <ele>41.9547</ele>
        <time>2013-04-30T18:34:40Z</time>
      </trkpt>
      <trkpt lat="60.0207737" lon="17.8020647">
        <ele>42.4354</ele>
        <time>2013-04-30T18:34:41Z</time>
      </trkpt>
      <trkpt lat="60.020797" lon="17.8019433">
        <ele>42.4354</ele>
        <time>2013-04-30T18:34:42Z</time>
      </trkpt>
      <trkpt lat="60.0208218" lon="17.8018148">
        <ele>41.9547</ele>
        <time>2013-04-30T18:34:43Z</time>
      </trkpt>
      <trkpt lat="60.0208447" lon="17.8016755">
        <ele>41.474</ele>
        <time>2013-04-30T18:34:44Z</time>
      </trkpt>
      <trkpt lat="60.0208664" lon="17.8015222">
        <ele>41.474</ele>
        <time>2013-04-30T18:34:45Z</time>
      </trkpt>
      <trkpt lat="60.0208818" lon="17.8013622">
        <ele>40.9934</ele>
        <time>2013-04-30T18:34:46Z</time>
      </trkpt>
      <trkpt lat="60.0208819" lon="17.8011999">
        <ele>40.5128</ele>
        <time>2013-04-30T18:34:47Z</time>
      </trkpt>
      <trkpt lat="60.0208539" lon="17.801008">
        <ele>39.5513</ele>
        <time>2013-04-30T18:34:48Z</time>
      </trkpt>
      <trkpt lat="60.0208271" lon="17.8008095">
        <ele>38.5901</ele>
        <time>2013-04-30T18:34:49Z</time>
      </trkpt>
      <trkpt lat="60.0207918" lon="17.8006378">
        <ele>38.5901</ele>
        <time>2013-04-30T18:34:50Z</time>
      </trkpt>
      <trkpt lat="60.0207554" lon="17.8004744">
        <ele>39.0707</ele>
        <time>2013-04-30T18:34:51Z</time>
      </trkpt>
      <trkpt lat="60.0207198" lon="17.8003116">
        <ele>39.0707</ele>
        <time>2013-04-30T18:34:52Z</time>
      </trkpt>
      <trkpt lat="60.0206914" lon="17.8001586">
        <ele>39.0707</ele>
        <time>2013-04-30T18:34:53Z</time>
      </trkpt>
      <trkpt lat="60.0206665" lon="17.80001">
        <ele>39.0707</ele>
        <time>2013-04-30T18:34:54Z</time>
      </trkpt>
      <trkpt lat="60.0206417" lon="17.7998613">
        <ele>39.0707</ele>
        <time>2013-04-30T18:34:55Z</time>
      </trkpt>
      <trkpt lat="60.0206214" lon="17.7997173">
        <ele>39.5513</ele>
        <time>2013-04-30T18:34:56Z</time>
      </trkpt>
      <trkpt lat="60.0206038" lon="17.7995718">
        <ele>39.5513</ele>
        <time>2013-04-30T18:34:57Z</time>
      </trkpt>
      <trkpt lat="60.020596" lon="17.7994339">
        <ele>39.5513</ele>
        <time>2013-04-30T18:34:58Z</time>
      </trkpt>
      <trkpt lat="60.0206053" lon="17.7992891">
        <ele>39.0707</ele>
        <time>2013-04-30T18:34:59Z</time>
      </trkpt>
      <trkpt lat="60.0206436" lon="17.799162">
        <ele>39.0707</ele>
        <time>2013-04-30T18:35:00Z</time>
      </trkpt>
      <trkpt lat="60.0206882" lon="17.7990335">
        <ele>38.5901</ele>
        <time>2013-04-30T18:35:01Z</time>
      </trkpt>
      <trkpt lat="60.0207415" lon="17.7989363">
        <ele>38.1094</ele>
        <time>2013-04-30T18:35:02Z</time>
      </trkpt>
      <trkpt lat="60.0208012" lon="17.7988569">
        <ele>37.6287</ele>
        <time>2013-04-30T18:35:03Z</time>
      </trkpt>
      <trkpt lat="60.0208674" lon="17.7987728">
        <ele>37.1481</ele>
        <time>2013-04-30T18:35:04Z</time>
      </trkpt>
      <trkpt lat="60.0209311" lon="17.7986912">
        <ele>36.6675</ele>
        <time>2013-04-30T18:35:05Z</time>
      </trkpt>
      <trkpt lat="60.0209967" lon="17.7986148">
        <ele>36.1868</ele>
        <time>2013-04-30T18:35:06Z</time>
      </trkpt>
      <trkpt lat="60.0210669" lon="17.7985442">
        <ele>35.7061</ele>
        <time>2013-04-30T18:35:07Z</time>
      </trkpt>
      <trkpt lat="60.0211412" lon="17.7984721">
        <ele>35.2255</ele>
        <time>2013-04-30T18:35:08Z</time>
      </trkpt>
      <trkpt lat="60.0212104" lon="17.7984111">
        <ele>34.2642</ele>
        <time>2013-04-30T18:35:09Z</time>
      </trkpt>
      <trkpt lat="60.0212777" lon="17.7983418">
        <ele>33.7834</ele>
        <time>2013-04-30T18:35:10Z</time>
      </trkpt>
      <trkpt lat="60.0213388" lon="17.7982458">
        <ele>33.3029</ele>
        <time>2013-04-30T18:35:11Z</time>
      </trkpt>
      <trkpt lat="60.0213954" lon="17.7981312">
        <ele>33.3029</ele>
        <time>2013-04-30T18:35:12Z</time>
      </trkpt>
      <trkpt lat="60.0214519" lon="17.798006">
        <ele>32.8223</ele>
        <time>2013-04-30T18:35:13Z</time>
      </trkpt>
      <trkpt lat="60.0215077" lon="17.7978698">
        <ele>32.8223</ele>
        <time>2013-04-30T18:35:14Z</time>
      </trkpt>
      <trkpt lat="60.0215667" lon="17.7976875">
        <ele>33.7834</ele>
        <time>2013-04-30T18:35:15Z</time>
      </trkpt>
      <trkpt lat="60.0216169" lon="17.7975127">
        <ele>34.2642</ele>
        <time>2013-04-30T18:35:16Z</time>
      </trkpt>
      <trkpt lat="60.0216645" lon="17.7974005">
        <ele>35.2255</ele>
        <time>2013-04-30T18:35:17Z</time>
      </trkpt>
      <trkpt lat="60.0216998" lon="17.7972865">
        <ele>35.7061</ele>
        <time>2013-04-30T18:35:18Z</time>
      </trkpt>
      <trkpt lat="60.0217304" lon="17.7971807">
        <ele>36.1868</ele>
        <time>2013-04-30T18:35:19Z</time>
      </trkpt>
      <trkpt lat="60.021749" lon="17.7970719">
        <ele>36.6675</ele>
        <time>2013-04-30T18:35:20Z</time>
      </trkpt>
      <trkpt lat="60.0217522" lon="17.7969616">
        <ele>35.7061</ele>
        <time>2013-04-30T18:35:21Z</time>
      </trkpt>
      <trkpt lat="60.0217501" lon="17.7968353">
        <ele>35.2255</ele>
        <time>2013-04-30T18:35:22Z</time>
      </trkpt>
      <trkpt lat="60.0217404" lon="17.7967043">
        <ele>34.2642</ele>
        <time>2013-04-30T18:35:23Z</time>
      </trkpt>
      <trkpt lat="60.0217155" lon="17.7965675">
        <ele>33.7834</ele>
        <time>2013-04-30T18:35:24Z</time>
      </trkpt>
      <trkpt lat="60.021676" lon="17.7964214">
        <ele>33.7834</ele>
        <time>2013-04-30T18:35:25Z</time>
      </trkpt>
      <trkpt lat="60.0216335" lon="17.7962699">
        <ele>33.7834</ele>
        <time>2013-04-30T18:35:26Z</time>
      </trkpt>
      <trkpt lat="60.0215926" lon="17.7961197">
        <ele>33.7834</ele>
        <time>2013-04-30T18:35:27Z</time>
      </trkpt>
      <trkpt lat="60.0215564" lon="17.795967">
        <ele>34.2642</ele>
        <time>2013-04-30T18:35:28Z</time>
      </trkpt>
      <trkpt lat="60.0215264" lon="17.7958131">
        <ele>34.2642</ele>
        <time>2013-04-30T18:35:29Z</time>
      </trkpt>
      <trkpt lat="60.0214978" lon="17.7956621">
        <ele>34.2642</ele>
        <time>2013-04-30T18:35:30Z</time>
      </trkpt>
      <trkpt lat="60.0214738" lon="17.7955188">
        <ele>34.7449</ele>
        <time>2013-04-30T18:35:31Z</time>
      </trkpt>
      <trkpt lat="60.0214491" lon="17.7953823">
        <ele>35.2255</ele>
        <time>2013-04-30T18:35:32Z</time>
      </trkpt>
      <trkpt lat="60.021421" lon="17.7952552">
        <ele>35.7061</ele>
        <time>2013-04-30T18:35:33Z</time>
      </trkpt>
      <trkpt lat="60.0213879" lon="17.7951362">
        <ele>36.1868</ele>
        <time>2013-04-30T18:35:34Z</time>
      </trkpt>
      <trkpt lat="60.0213514" lon="17.7950332">
        <ele>36.6675</ele>
        <time>2013-04-30T18:35:35Z</time>
      </trkpt>
      <trkpt lat="60.021313" lon="17.7949403">
        <ele>36.6675</ele>
        <time>2013-04-30T18:35:36Z</time>
      </trkpt>
      <trkpt lat="60.021271" lon="17.794854">
        <ele>36.6675</ele>
        <time>2013-04-30T18:35:37Z</time>
      </trkpt>
      <trkpt lat="60.0212219" lon="17.7947704">
        <ele>36.6675</ele>
        <time>2013-04-30T18:35:38Z</time>
      </trkpt>
      <trkpt lat="60.0211673" lon="17.7946853">
        <ele>36.1868</ele>
        <time>2013-04-30T18:35:39Z</time>
      </trkpt>
      <trkpt lat="60.0211143" lon="17.7946051">
        <ele>36.1868</ele>
        <time>2013-04-30T18:35:40Z</time>
      </trkpt>
      <trkpt lat="60.0210628" lon="17.7945286">
        <ele>36.1868</ele>
        <time>2013-04-30T18:35:41Z</time>
      </trkpt>
      <trkpt lat="60.0210136" lon="17.7944539">
        <ele>36.1868</ele>
        <time>2013-04-30T18:35:42Z</time>
      </trkpt>
      <trkpt lat="60.0209586" lon="17.7943878">
        <ele>37.1481</ele>
        <time>2013-04-30T18:35:43Z</time>
      </trkpt>
      <trkpt lat="60.0209078" lon="17.7943209">
        <ele>37.6287</ele>
        <time>2013-04-30T18:35:44Z</time>
      </trkpt>
      <trkpt lat="60.0208595" lon="17.7942528">
        <ele>37.6287</ele>
        <time>2013-04-30T18:35:45Z</time>
      </trkpt>
      <trkpt lat="60.0208134" lon="17.7941832">
        <ele>37.1481</ele>
        <time>2013-04-30T18:35:46Z</time>
      </trkpt>
      <trkpt lat="60.0207729" lon="17.7941194">
        <ele>37.6287</ele>
        <time>2013-04-30T18:35:47Z</time>
      </trkpt>
      <trkpt lat="60.0207339" lon="17.7940536">
        <ele>37.6287</ele>
        <time>2013-04-30T18:35:48Z</time>
      </trkpt>
      <trkpt lat="60.0206949" lon="17.7939838">
        <ele>37.6287</ele>
        <time>2013-04-30T18:35:49Z</time>
      </trkpt>
      <trkpt lat="60.0206571" lon="17.7939133">
        <ele>37.1481</ele>
        <time>2013-04-30T18:35:50Z</time>
      </trkpt>
      <trkpt lat="60.0206255" lon="17.7938495">
        <ele>37.1481</ele>
        <time>2013-04-30T18:35:51Z</time>
      </trkpt>
      <trkpt lat="60.0205964" lon="17.7937817">
        <ele>37.1481</ele>
        <time>2013-04-30T18:35:52Z</time>
      </trkpt>
      <trkpt lat="60.0205701" lon="17.793712">
        <ele>36.6675</ele>
        <time>2013-04-30T18:35:53Z</time>
      </trkpt>
      <trkpt lat="60.0205447" lon="17.7936397">
        <ele>36.6675</ele>
        <time>2013-04-30T18:35:54Z</time>
      </trkpt>
      <trkpt lat="60.0205148" lon="17.7935675">
        <ele>36.6675</ele>
        <time>2013-04-30T18:35:55Z</time>
      </trkpt>
      <trkpt lat="60.0204882" lon="17.7934968">
        <ele>37.1481</ele>
        <time>2013-04-30T18:35:56Z</time>
      </trkpt>
      <trkpt lat="60.0204588" lon="17.7934232">
        <ele>37.1481</ele>
        <time>2013-04-30T18:35:57Z</time>
      </trkpt>
      <trkpt lat="60.0204328" lon="17.7933504">
        <ele>38.1094</ele>
        <time>2013-04-30T18:35:58Z</time>
      </trkpt>
      <trkpt lat="60.020401" lon="17.7932709">
        <ele>38.5901</ele>
        <time>2013-04-30T18:35:59Z</time>
      </trkpt>
      <trkpt lat="60.0203677" lon="17.7931968">
        <ele>39.5513</ele>
        <time>2013-04-30T18:36:00Z</time>
      </trkpt>
      <trkpt lat="60.020339" lon="17.7931266">
        <ele>40.0321</ele>
        <time>2013-04-30T18:36:01Z</time>
      </trkpt>
      <trkpt lat="60.0203094" lon="17.7930558">
        <ele>40.0321</ele>
        <time>2013-04-30T18:36:02Z</time>
      </trkpt>
      <trkpt lat="60.0202785" lon="17.7929829">
        <ele>40.0321</ele>
        <time>2013-04-30T18:36:03Z</time>
      </trkpt>
      <trkpt lat="60.0202479" lon="17.7929115">
        <ele>40.0321</ele>
        <time>2013-04-30T18:36:04Z</time>
      </trkpt>
      <trkpt lat="60.0202185" lon="17.792842">
        <ele>40.9934</ele>
        <time>2013-04-30T18:36:05Z</time>
      </trkpt>
      <trkpt lat="60.0201869" lon="17.7927756">
        <ele>41.474</ele>
        <time>2013-04-30T18:36:06Z</time>
      </trkpt>
      <trkpt lat="60.020154" lon="17.7927099">
        <ele>42.4354</ele>
        <time>2013-04-30T18:36:07Z</time>
      </trkpt>
      <trkpt lat="60.0201208" lon="17.7926433">
        <ele>42.916</ele>
        <time>2013-04-30T18:36:08Z</time>
      </trkpt>
      <trkpt lat="60.0200878" lon="17.7925757">
        <ele>43.3966</ele>
        <time>2013-04-30T18:36:09Z</time>
      </trkpt>
      <trkpt lat="60.0200547" lon="17.7925088">
        <ele>43.8773</ele>
        <time>2013-04-30T18:36:10Z</time>
      </trkpt>
      <trkpt lat="60.0200199" lon="17.792441">
        <ele>43.3966</ele>
        <time>2013-04-30T18:36:11Z</time>
      </trkpt>
      <trkpt lat="60.0199873" lon="17.7923725">
        <ele>43.3966</ele>
        <time>2013-04-30T18:36:12Z</time>
      </trkpt>
      <trkpt lat="60.0199576" lon="17.792303">
        <ele>43.3966</ele>
        <time>2013-04-30T18:36:13Z</time>
      </trkpt>
      <trkpt lat="60.019926" lon="17.7922271">
        <ele>43.3966</ele>
        <time>2013-04-30T18:36:14Z</time>
      </trkpt>
      <trkpt lat="60.0198945" lon="17.7921473">
        <ele>42.4354</ele>
        <time>2013-04-30T18:36:15Z</time>
      </trkpt>
      <trkpt lat="60.0198607" lon="17.792058">
        <ele>40.5128</ele>
        <time>2013-04-30T18:36:16Z</time>
      </trkpt>
      <trkpt lat="60.019836" lon="17.7919743">
        <ele>40.9934</ele>
        <time>2013-04-30T18:36:17Z</time>
      </trkpt>
      <trkpt lat="60.0198153" lon="17.7918902">
        <ele>40.9934</ele>
        <time>2013-04-30T18:36:18Z</time>
      </trkpt>
      <trkpt lat="60.0197932" lon="17.7917975">
        <ele>40.5128</ele>
        <time>2013-04-30T18:36:19Z</time>
      </trkpt>
      <trkpt lat="60.019769" lon="17.7916972">
        <ele>40.5128</ele>
        <time>2013-04-30T18:36:20Z</time>
      </trkpt>
      <trkpt lat="60.0197462" lon="17.791595">
        <ele>40.0321</ele>
        <time>2013-04-30T18:36:21Z</time>
      </trkpt>
      <trkpt lat="60.0197267" lon="17.7914937">
        <ele>40.9934</ele>
        <time>2013-04-30T18:36:22Z</time>
      </trkpt>
      <trkpt lat="60.0197013" lon="17.7913806">
        <ele>40.5128</ele>
        <time>2013-04-30T18:36:23Z</time>
      </trkpt>
      <trkpt lat="60.0196709" lon="17.7912578">
        <ele>39.0707</ele>
        <time>2013-04-30T18:36:24Z</time>
      </trkpt>
      <trkpt lat="60.0196421" lon="17.7911381">
        <ele>38.5901</ele>
        <time>2013-04-30T18:36:25Z</time>
      </trkpt>
      <trkpt lat="60.0196086" lon="17.791016">
        <ele>38.5901</ele>
        <time>2013-04-30T18:36:26Z</time>
      </trkpt>
      <trkpt lat="60.0195734" lon="17.7908999">
        <ele>38.5901</ele>
        <time>2013-04-30T18:36:27Z</time>
      </trkpt>
      <trkpt lat="60.019546" lon="17.7907975">
        <ele>38.5901</ele>
        <time>2013-04-30T18:36:28Z</time>
      </trkpt>
      <trkpt lat="60.019504" lon="17.7906817">
        <ele>38.1094</ele>
        <time>2013-04-30T18:36:29Z</time>
      </trkpt>
      <trkpt lat="60.0194568" lon="17.790573">
        <ele>35.7061</ele>
        <time>2013-04-30T18:36:30Z</time>
      </trkpt>
      <trkpt lat="60.0193853" lon="17.7904325">
        <ele>35.2255</ele>
        <time>2013-04-30T18:36:31Z</time>
      </trkpt>
      <trkpt lat="60.0193147" lon="17.7903152">
        <ele>34.7449</ele>
        <time>2013-04-30T18:36:32Z</time>
      </trkpt>
      <trkpt lat="60.0192474" lon="17.7902301">
        <ele>34.7449</ele>
        <time>2013-04-30T18:36:33Z</time>
      </trkpt>
      <trkpt lat="60.0191798" lon="17.7901523">
        <ele>34.7449</ele>
        <time>2013-04-30T18:36:34Z</time>
      </trkpt>
      <trkpt lat="60.0191217" lon="17.7900871">
        <ele>34.2642</ele>
        <time>2013-04-30T18:36:35Z</time>
      </trkpt>
      <trkpt lat="60.0190767" lon="17.7900473">
        <ele>34.2642</ele>
        <time>2013-04-30T18:36:36Z</time>
      </trkpt>
      <trkpt lat="60.0190272" lon="17.790014">
        <ele>35.2255</ele>
        <time>2013-04-30T18:36:37Z</time>
      </trkpt>
      <trkpt lat="60.018983" lon="17.7899728">
        <ele>35.7061</ele>
        <time>2013-04-30T18:36:38Z</time>
      </trkpt>
      <trkpt lat="60.0189342" lon="17.7899186">
        <ele>35.7061</ele>
        <time>2013-04-30T18:36:39Z</time>
      </trkpt>
      <trkpt lat="60.0188843" lon="17.7898644">
        <ele>36.6675</ele>
        <time>2013-04-30T18:36:40Z</time>
      </trkpt>
      <trkpt lat="60.0188322" lon="17.7898019">
        <ele>36.6675</ele>
        <time>2013-04-30T18:36:41Z</time>
      </trkpt>
      <trkpt lat="60.0187809" lon="17.7897347">
        <ele>36.6675</ele>
        <time>2013-04-30T18:36:42Z</time>
      </trkpt>
      <trkpt lat="60.0187394" lon="17.789671">
        <ele>38.1094</ele>
        <time>2013-04-30T18:36:43Z</time>
      </trkpt>
      <trkpt lat="60.0186794" lon="17.7895821">
        <ele>34.7449</ele>
        <time>2013-04-30T18:36:44Z</time>
      </trkpt>
      <trkpt lat="60.0186295" lon="17.7894967">
        <ele>34.7449</ele>
        <time>2013-04-30T18:36:45Z</time>
      </trkpt>
      <trkpt lat="60.0185846" lon="17.789404">
        <ele>35.2255</ele>
        <time>2013-04-30T18:36:46Z</time>
      </trkpt>
      <trkpt lat="60.0185349" lon="17.7892946">
        <ele>34.2642</ele>
        <time>2013-04-30T18:36:47Z</time>
      </trkpt>
      <trkpt lat="60.0184892" lon="17.7891796">
        <ele>34.2642</ele>
        <time>2013-04-30T18:36:48Z</time>
      </trkpt>
      <trkpt lat="60.0184429" lon="17.7890489">
        <ele>33.7834</ele>
        <time>2013-04-30T18:36:49Z</time>
      </trkpt>
      <trkpt lat="60.0184073" lon="17.7889184">
        <ele>33.7834</ele>
        <time>2013-04-30T18:36:50Z</time>
      </trkpt>
      <trkpt lat="60.0183768" lon="17.7887809">
        <ele>33.7834</ele>
        <time>2013-04-30T18:36:51Z</time>
      </trkpt>
      <trkpt lat="60.0183509" lon="17.7886322">
        <ele>33.7834</ele>
        <time>2013-04-30T18:36:52Z</time>
      </trkpt>
      <trkpt lat="60.0183354" lon="17.7884803">
        <ele>33.7834</ele>
        <time>2013-04-30T18:36:53Z</time>
      </trkpt>
      <trkpt lat="60.0183298" lon="17.788329">
        <ele>33.7834</ele>
        <time>2013-04-30T18:36:54Z</time>
      </trkpt>
      <trkpt lat="60.0183337" lon="17.788185">
        <ele>33.3029</ele>
        <time>2013-04-30T18:36:55Z</time>
      </trkpt>
      <trkpt lat="60.0183463" lon="17.7880545">
        <ele>32.8223</ele>
        <time>2013-04-30T18:36:56Z</time>
      </trkpt>
      <trkpt lat="60.0183437" lon="17.7879037">
        <ele>31.8607</ele>
        <time>2013-04-30T18:36:57Z</time>
      </trkpt>
      <trkpt lat="60.0183479" lon="17.7877575">
        <ele>31.3801</ele>
        <time>2013-04-30T18:36:58Z</time>
      </trkpt>
      <trkpt lat="60.0183442" lon="17.7876247">
        <ele>30.8995</ele>
        <time>2013-04-30T18:36:59Z</time>
      </trkpt>
      <trkpt lat="60.018339" lon="17.7874943">
        <ele>30.4188</ele>
        <time>2013-04-30T18:37:00Z</time>
      </trkpt>
      <trkpt lat="60.0183369" lon="17.7873617">
        <ele>30.4188</ele>
        <time>2013-04-30T18:37:01Z</time>
      </trkpt>
      <trkpt lat="60.0183317" lon="17.7872366">
        <ele>29.4575</ele>
        <time>2013-04-30T18:37:02Z</time>
      </trkpt>
      <trkpt lat="60.0183272" lon="17.7871107">
        <ele>30.4188</ele>
        <time>2013-04-30T18:37:03Z</time>
      </trkpt>
      <trkpt lat="60.0183208" lon="17.7869858">
        <ele>30.4188</ele>
        <time>2013-04-30T18:37:04Z</time>
      </trkpt>
      <trkpt lat="60.0183148" lon="17.7868646">
        <ele>31.3801</ele>
        <time>2013-04-30T18:37:05Z</time>
      </trkpt>
      <trkpt lat="60.0183079" lon="17.7867468">
        <ele>31.8607</ele>
        <time>2013-04-30T18:37:06Z</time>
      </trkpt>
      <trkpt lat="60.0183047" lon="17.7866295">
        <ele>32.8223</ele>
        <time>2013-04-30T18:37:07Z</time>
      </trkpt>
      <trkpt lat="60.0183002" lon="17.7865127">
        <ele>33.7834</ele>
        <time>2013-04-30T18:37:08Z</time>
      </trkpt>
      <trkpt lat="60.0182915" lon="17.7863938">
        <ele>34.2642</ele>
        <time>2013-04-30T18:37:09Z</time>
      </trkpt>
      <trkpt lat="60.0182855" lon="17.7862775">
        <ele>35.2255</ele>
        <time>2013-04-30T18:37:10Z</time>
      </trkpt>
      <trkpt lat="60.0182846" lon="17.7861605">
        <ele>36.1868</ele>
        <time>2013-04-30T18:37:11Z</time>
      </trkpt>
      <trkpt lat="60.0182778" lon="17.7860462">
        <ele>36.6675</ele>
        <time>2013-04-30T18:37:12Z</time>
      </trkpt>
      <trkpt lat="60.0182713" lon="17.7859301">
        <ele>36.6675</ele>
        <time>2013-04-30T18:37:13Z</time>
      </trkpt>
      <trkpt lat="60.0182691" lon="17.7858079">
        <ele>37.1481</ele>
        <time>2013-04-30T18:37:14Z</time>
      </trkpt>
      <trkpt lat="60.0182692" lon="17.7856818">
        <ele>37.1481</ele>
        <time>2013-04-30T18:37:15Z</time>
      </trkpt>
      <trkpt lat="60.0182679" lon="17.7855447">
        <ele>37.1481</ele>
        <time>2013-04-30T18:37:16Z</time>
      </trkpt>
      <trkpt lat="60.0182702" lon="17.7854029">
        <ele>37.1481</ele>
        <time>2013-04-30T18:37:17Z</time>
      </trkpt>
      <trkpt lat="60.0182805" lon="17.7852578">
        <ele>37.6287</ele>
        <time>2013-04-30T18:37:18Z</time>
      </trkpt>
      <trkpt lat="60.0182923" lon="17.7851105">
        <ele>37.6287</ele>
        <time>2013-04-30T18:37:19Z</time>
      </trkpt>
      <trkpt lat="60.0183079" lon="17.7849599">
        <ele>38.5901</ele>
        <time>2013-04-30T18:37:20Z</time>
      </trkpt>
      <trkpt lat="60.0183179" lon="17.7848137">
        <ele>38.5901</ele>
        <time>2013-04-30T18:37:21Z</time>
      </trkpt>
      <trkpt lat="60.0183257" lon="17.7846661">
        <ele>38.1094</ele>
        <time>2013-04-30T18:37:22Z</time>
      </trkpt>
      <trkpt lat="60.0183349" lon="17.7845144">
        <ele>38.5901</ele>
        <time>2013-04-30T18:37:23Z</time>
      </trkpt>
      <trkpt lat="60.018339" lon="17.784365">
        <ele>38.5901</ele>
        <time>2013-04-30T18:37:24Z</time>
      </trkpt>
      <trkpt lat="60.0183388" lon="17.7842155">
        <ele>39.5513</ele>
        <time>2013-04-30T18:37:25Z</time>
      </trkpt>
      <trkpt lat="60.0183281" lon="17.7840709">
        <ele>39.0707</ele>
        <time>2013-04-30T18:37:26Z</time>
      </trkpt>
      <trkpt lat="60.0183254" lon="17.7839263">
        <ele>39.5513</ele>
        <time>2013-04-30T18:37:27Z</time>
      </trkpt>
      <trkpt lat="60.0183142" lon="17.783782">
        <ele>39.5513</ele>
        <time>2013-04-30T18:37:28Z</time>
      </trkpt>
      <trkpt lat="60.0183048" lon="17.783643">
        <ele>39.0707</ele>
        <time>2013-04-30T18:37:29Z</time>
      </trkpt>
      <trkpt lat="60.0182976" lon="17.7835044">
        <ele>39.0707</ele>
        <time>2013-04-30T18:37:30Z</time>
      </trkpt>
      <trkpt lat="60.0182937" lon="17.7833649">
        <ele>38.5901</ele>
        <time>2013-04-30T18:37:31Z</time>
      </trkpt>
      <trkpt lat="60.0182963" lon="17.783226">
        <ele>38.5901</ele>
        <time>2013-04-30T18:37:32Z</time>
      </trkpt>
      <trkpt lat="60.0183053" lon="17.7830866">
        <ele>38.5901</ele>
        <time>2013-04-30T18:37:33Z</time>
      </trkpt>
      <trkpt lat="60.0183143" lon="17.7829501">
        <ele>38.5901</ele>
        <time>2013-04-30T18:37:34Z</time>
      </trkpt>
      <trkpt lat="60.0183281" lon="17.7828149">
        <ele>38.5901</ele>
        <time>2013-04-30T18:37:35Z</time>
      </trkpt>
      <trkpt lat="60.0183452" lon="17.7826796">
        <ele>38.5901</ele>
        <time>2013-04-30T18:37:36Z</time>
      </trkpt>
      <trkpt lat="60.0183637" lon="17.7825454">
        <ele>38.5901</ele>
        <time>2013-04-30T18:37:37Z</time>
      </trkpt>
      <trkpt lat="60.0183851" lon="17.7824098">
        <ele>38.5901</ele>
        <time>2013-04-30T18:37:38Z</time>
      </trkpt>
      <trkpt lat="60.018403" lon="17.7822772">
        <ele>38.5901</ele>
        <time>2013-04-30T18:37:39Z</time>
      </trkpt>
      <trkpt lat="60.0184198" lon="17.7821404">
        <ele>38.5901</ele>
        <time>2013-04-30T18:37:40Z</time>
      </trkpt>
      <trkpt lat="60.0184363" lon="17.7820099">
        <ele>38.5901</ele>
        <time>2013-04-30T18:37:41Z</time>
      </trkpt>
      <trkpt lat="60.018456" lon="17.7818853">
        <ele>38.5901</ele>
        <time>2013-04-30T18:37:42Z</time>
      </trkpt>
      <trkpt lat="60.0184785" lon="17.7817679">
        <ele>39.0707</ele>
        <time>2013-04-30T18:37:43Z</time>
      </trkpt>
      <trkpt lat="60.0185027" lon="17.7816558">
        <ele>38.5901</ele>
        <time>2013-04-30T18:37:44Z</time>
      </trkpt>
      <trkpt lat="60.0185331" lon="17.7815523">
        <ele>38.1094</ele>
        <time>2013-04-30T18:37:45Z</time>
      </trkpt>
      <trkpt lat="60.018569" lon="17.7814613">
        <ele>38.1094</ele>
        <time>2013-04-30T18:37:46Z</time>
      </trkpt>
      <trkpt lat="60.01861" lon="17.7813804">
        <ele>38.5901</ele>
        <time>2013-04-30T18:37:47Z</time>
      </trkpt>
      <trkpt lat="60.0186512" lon="17.7813114">
        <ele>38.1094</ele>
        <time>2013-04-30T18:37:48Z</time>
      </trkpt>
      <trkpt lat="60.0186954" lon="17.781248">
        <ele>38.1094</ele>
        <time>2013-04-30T18:37:49Z</time>
      </trkpt>
      <trkpt lat="60.0187409" lon="17.7811853">
        <ele>38.1094</ele>
        <time>2013-04-30T18:37:50Z</time>
      </trkpt>
      <trkpt lat="60.0187872" lon="17.7811199">
        <ele>38.1094</ele>
        <time>2013-04-30T18:37:51Z</time>
      </trkpt>
      <trkpt lat="60.0188338" lon="17.781052">
        <ele>38.1094</ele>
        <time>2013-04-30T18:37:52Z</time>
      </trkpt>
      <trkpt lat="60.0188803" lon="17.7809827">
        <ele>38.1094</ele>
        <time>2013-04-30T18:37:53Z</time>
      </trkpt>
      <trkpt lat="60.0189266" lon="17.78091">
        <ele>38.1094</ele>
        <time>2013-04-30T18:37:54Z</time>
      </trkpt>
      <trkpt lat="60.0189685" lon="17.7808309">
        <ele>38.1094</ele>
        <time>2013-04-30T18:37:55Z</time>
      </trkpt>
      <trkpt lat="60.0190071" lon="17.7807455">
        <ele>38.1094</ele>
        <time>2013-04-30T18:37:56Z</time>
      </trkpt>
      <trkpt lat="60.0190445" lon="17.780654">
        <ele>37.6287</ele>
        <time>2013-04-30T18:37:57Z</time>
      </trkpt>
      <trkpt lat="60.0190804" lon="17.7805595">
        <ele>37.6287</ele>
        <time>2013-04-30T18:37:58Z</time>
      </trkpt>
      <trkpt lat="60.0191181" lon="17.7804655">
        <ele>37.6287</ele>
        <time>2013-04-30T18:37:59Z</time>
      </trkpt>
      <trkpt lat="60.0191593" lon="17.7803808">
        <ele>37.6287</ele>
        <time>2013-04-30T18:38:00Z</time>
      </trkpt>
      <trkpt lat="60.0192037" lon="17.7803097">
        <ele>37.1481</ele>
        <time>2013-04-30T18:38:01Z</time>
      </trkpt>
      <trkpt lat="60.0192554" lon="17.7802538">
        <ele>37.1481</ele>
        <time>2013-04-30T18:38:02Z</time>
      </trkpt>
      <trkpt lat="60.0193087" lon="17.7802144">
        <ele>37.1481</ele>
        <time>2013-04-30T18:38:03Z</time>
      </trkpt>
      <trkpt lat="60.0193617" lon="17.7801863">
        <ele>37.1481</ele>
        <time>2013-04-30T18:38:04Z</time>
      </trkpt>
      <trkpt lat="60.019417" lon="17.7801653">
        <ele>37.6287</ele>
        <time>2013-04-30T18:38:05Z</time>
      </trkpt>
      <trkpt lat="60.0194704" lon="17.7801467">
        <ele>37.1481</ele>
        <time>2013-04-30T18:38:06Z</time>
      </trkpt>
      <trkpt lat="60.0195227" lon="17.7801248">
        <ele>37.1481</ele>
        <time>2013-04-30T18:38:07Z</time>
      </trkpt>
      <trkpt lat="60.0195739" lon="17.7800962">
        <ele>37.1481</ele>
        <time>2013-04-30T18:38:08Z</time>
      </trkpt>
      <trkpt lat="60.0196226" lon="17.7800595">
        <ele>36.6675</ele>
        <time>2013-04-30T18:38:09Z</time>
      </trkpt>
      <trkpt lat="60.0196691" lon="17.7800083">
        <ele>36.6675</ele>
        <time>2013-04-30T18:38:10Z</time>
      </trkpt>
      <trkpt lat="60.0197128" lon="17.7799443">
        <ele>36.1868</ele>
        <time>2013-04-30T18:38:11Z</time>
      </trkpt>
      <trkpt lat="60.0197542" lon="17.779871">
        <ele>36.1868</ele>
        <time>2013-04-30T18:38:12Z</time>
      </trkpt>
      <trkpt lat="60.0197915" lon="17.779789">
        <ele>36.1868</ele>
        <time>2013-04-30T18:38:13Z</time>
      </trkpt>
      <trkpt lat="60.0198242" lon="17.7796983">
        <ele>35.7061</ele>
        <time>2013-04-30T18:38:14Z</time>
      </trkpt>
      <trkpt lat="60.0198552" lon="17.7796032">
        <ele>35.2255</ele>
        <time>2013-04-30T18:38:15Z</time>
      </trkpt>
      <trkpt lat="60.0198851" lon="17.7795022">
        <ele>34.7449</ele>
        <time>2013-04-30T18:38:16Z</time>
      </trkpt>
      <trkpt lat="60.0199152" lon="17.7793955">
        <ele>34.7449</ele>
        <time>2013-04-30T18:38:17Z</time>
      </trkpt>
      <trkpt lat="60.0199453" lon="17.7792863">
        <ele>34.2642</ele>
        <time>2013-04-30T18:38:18Z</time>
      </trkpt>
      <trkpt lat="60.0199816" lon="17.7791763">
        <ele>34.7449</ele>
        <time>2013-04-30T18:38:19Z</time>
      </trkpt>
      <trkpt lat="60.0200148" lon="17.779066">
        <ele>34.7449</ele>
        <time>2013-04-30T18:38:20Z</time>
      </trkpt>
      <trkpt lat="60.0200494" lon="17.7789561">
        <ele>34.2642</ele>
        <time>2013-04-30T18:38:21Z</time>
      </trkpt>
      <trkpt lat="60.0200826" lon="17.7788439">
        <ele>34.2642</ele>
        <time>2013-04-30T18:38:22Z</time>
      </trkpt>
      <trkpt lat="60.0201153" lon="17.7787301">
        <ele>34.2642</ele>
        <time>2013-04-30T18:38:23Z</time>
      </trkpt>
      <trkpt lat="60.0201467" lon="17.7786173">
        <ele>34.2642</ele>
        <time>2013-04-30T18:38:24Z</time>
      </trkpt>
      <trkpt lat="60.0201754" lon="17.7785055">
        <ele>34.2642</ele>
        <time>2013-04-30T18:38:25Z</time>
      </trkpt>
      <trkpt lat="60.0202031" lon="17.7783937">
        <ele>34.2642</ele>
        <time>2013-04-30T18:38:26Z</time>
      </trkpt>
      <trkpt lat="60.0202296" lon="17.7782822">
        <ele>34.2642</ele>
        <time>2013-04-30T18:38:27Z</time>
      </trkpt>
      <trkpt lat="60.0202561" lon="17.7781717">
        <ele>34.2642</ele>
        <time>2013-04-30T18:38:28Z</time>
      </trkpt>
      <trkpt lat="60.0202886" lon="17.7780414">
        <ele>34.7449</ele>
        <time>2013-04-30T18:38:29Z</time>
      </trkpt>
      <trkpt lat="60.020314" lon="17.7779071">
        <ele>34.2642</ele>
        <time>2013-04-30T18:38:30Z</time>
      </trkpt>
      <trkpt lat="60.020358" lon="17.7777669">
        <ele>34.7449</ele>
        <time>2013-04-30T18:38:31Z</time>
      </trkpt>
      <trkpt lat="60.0203723" lon="17.7775941">
        <ele>34.7449</ele>
        <time>2013-04-30T18:38:32Z</time>
      </trkpt>
      <trkpt lat="60.0203954" lon="17.7774426">
        <ele>34.2642</ele>
        <time>2013-04-30T18:38:33Z</time>
      </trkpt>
      <trkpt lat="60.0204406" lon="17.7772576">
        <ele>35.2255</ele>
        <time>2013-04-30T18:38:34Z</time>
      </trkpt>
      <trkpt lat="60.0204546" lon="17.7770903">
        <ele>36.6675</ele>
        <time>2013-04-30T18:38:35Z</time>
      </trkpt>
      <trkpt lat="60.0204409" lon="17.7769296">
        <ele>36.6675</ele>
        <time>2013-04-30T18:38:36Z</time>
      </trkpt>
      <trkpt lat="60.02041" lon="17.7767755">
        <ele>35.7061</ele>
        <time>2013-04-30T18:38:37Z</time>
      </trkpt>
      <trkpt lat="60.0203814" lon="17.7766333">
        <ele>35.2255</ele>
        <time>2013-04-30T18:38:38Z</time>
      </trkpt>
      <trkpt lat="60.0203541" lon="17.7764963">
        <ele>34.7449</ele>
        <time>2013-04-30T18:38:39Z</time>
      </trkpt>
      <trkpt lat="60.0203229" lon="17.7763458">
        <ele>34.7449</ele>
        <time>2013-04-30T18:38:40Z</time>
      </trkpt>
      <trkpt lat="60.0202902" lon="17.77622">
        <ele>34.7449</ele>
        <time>2013-04-30T18:38:41Z</time>
      </trkpt>
      <trkpt lat="60.0202627" lon="17.7760749">
        <ele>35.2255</ele>
        <time>2013-04-30T18:38:42Z</time>
      </trkpt>
      <trkpt lat="60.0202354" lon="17.7759326">
        <ele>36.1868</ele>
        <time>2013-04-30T18:38:43Z</time>
      </trkpt>
      <trkpt lat="60.0201904" lon="17.7757935">
        <ele>35.2255</ele>
        <time>2013-04-30T18:38:44Z</time>
      </trkpt>
      <trkpt lat="60.0201672" lon="17.7756726">
        <ele>35.7061</ele>
        <time>2013-04-30T18:38:45Z</time>
      </trkpt>
      <trkpt lat="60.0201524" lon="17.7755408">
        <ele>36.6675</ele>
        <time>2013-04-30T18:38:46Z</time>
      </trkpt>
      <trkpt lat="60.0201468" lon="17.7754051">
        <ele>36.6675</ele>
        <time>2013-04-30T18:38:47Z</time>
      </trkpt>
      <trkpt lat="60.0201454" lon="17.7752694">
        <ele>36.6675</ele>
        <time>2013-04-30T18:38:48Z</time>
      </trkpt>
      <trkpt lat="60.0201546" lon="17.7751372">
        <ele>36.6675</ele>
        <time>2013-04-30T18:38:49Z</time>
      </trkpt>
      <trkpt lat="60.0201868" lon="17.7750075">
        <ele>36.1868</ele>
        <time>2013-04-30T18:38:50Z</time>
      </trkpt>
      <trkpt lat="60.0202577" lon="17.7748212">
        <ele>36.6675</ele>
        <time>2013-04-30T18:38:51Z</time>
      </trkpt>
      <trkpt lat="60.0203157" lon="17.7747559">
        <ele>37.1481</ele>
        <time>2013-04-30T18:38:52Z</time>
      </trkpt>
      <trkpt lat="60.0203762" lon="17.7747205">
        <ele>36.6675</ele>
        <time>2013-04-30T18:38:53Z</time>
      </trkpt>
      <trkpt lat="60.0204393" lon="17.774698">
        <ele>36.6675</ele>
        <time>2013-04-30T18:38:54Z</time>
      </trkpt>
      <trkpt lat="60.0205056" lon="17.7746656">
        <ele>36.1868</ele>
        <time>2013-04-30T18:38:55Z</time>
      </trkpt>
      <trkpt lat="60.020572" lon="17.7746299">
        <ele>33.7834</ele>
        <time>2013-04-30T18:38:56Z</time>
      </trkpt>
      <trkpt lat="60.0206358" lon="17.7745913">
        <ele>31.8607</ele>
        <time>2013-04-30T18:38:57Z</time>
      </trkpt>
      <trkpt lat="60.0206975" lon="17.7745345">
        <ele>31.8607</ele>
        <time>2013-04-30T18:38:58Z</time>
      </trkpt>
      <trkpt lat="60.0207561" lon="17.7744633">
        <ele>31.8607</ele>
        <time>2013-04-30T18:38:59Z</time>
      </trkpt>
      <trkpt lat="60.0208099" lon="17.7743153">
        <ele>30.8995</ele>
        <time>2013-04-30T18:39:00Z</time>
      </trkpt>
      <trkpt lat="60.0208638" lon="17.7741983">
        <ele>29.4575</ele>
        <time>2013-04-30T18:39:01Z</time>
      </trkpt>
      <trkpt lat="60.0209213" lon="17.7740494">
        <ele>29.9381</ele>
        <time>2013-04-30T18:39:02Z</time>
      </trkpt>
      <trkpt lat="60.0209704" lon="17.7739293">
        <ele>30.4188</ele>
        <time>2013-04-30T18:39:03Z</time>
      </trkpt>
      <trkpt lat="60.0210335" lon="17.7738073">
        <ele>31.3801</ele>
        <time>2013-04-30T18:39:04Z</time>
      </trkpt>
      <trkpt lat="60.0210777" lon="17.7736814">
        <ele>31.8607</ele>
        <time>2013-04-30T18:39:05Z</time>
      </trkpt>
      <trkpt lat="60.0211301" lon="17.7735559">
        <ele>32.8223</ele>
        <time>2013-04-30T18:39:06Z</time>
      </trkpt>
      <trkpt lat="60.021169" lon="17.7734307">
        <ele>33.3029</ele>
        <time>2013-04-30T18:39:07Z</time>
      </trkpt>
      <trkpt lat="60.0212295" lon="17.7733031">
        <ele>34.2642</ele>
        <time>2013-04-30T18:39:08Z</time>
      </trkpt>
      <trkpt lat="60.0212796" lon="17.7731838">
        <ele>34.7449</ele>
        <time>2013-04-30T18:39:09Z</time>
      </trkpt>
      <trkpt lat="60.02133" lon="17.7730757">
        <ele>35.2255</ele>
        <time>2013-04-30T18:39:10Z</time>
      </trkpt>
      <trkpt lat="60.0213823" lon="17.7729683">
        <ele>35.2255</ele>
        <time>2013-04-30T18:39:11Z</time>
      </trkpt>
      <trkpt lat="60.0214371" lon="17.772868">
        <ele>34.7449</ele>
        <time>2013-04-30T18:39:12Z</time>
      </trkpt>
      <trkpt lat="60.0214953" lon="17.7727762">
        <ele>34.7449</ele>
        <time>2013-04-30T18:39:13Z</time>
      </trkpt>
      <trkpt lat="60.0215534" lon="17.7726888">
        <ele>34.7449</ele>
        <time>2013-04-30T18:39:14Z</time>
      </trkpt>
      <trkpt lat="60.0216097" lon="17.7725987">
        <ele>35.2255</ele>
        <time>2013-04-30T18:39:15Z</time>
      </trkpt>
      <trkpt lat="60.0216658" lon="17.7725016">
        <ele>35.2255</ele>
        <time>2013-04-30T18:39:16Z</time>
      </trkpt>
      <trkpt lat="60.0217148" lon="17.7723961">
        <ele>35.2255</ele>
        <time>2013-04-30T18:39:17Z</time>
      </trkpt>
      <trkpt lat="60.0217574" lon="17.7722779">
        <ele>35.7061</ele>
        <time>2013-04-30T18:39:18Z</time>
      </trkpt>
      <trkpt lat="60.0217986" lon="17.772149">
        <ele>36.1868</ele>
        <time>2013-04-30T18:39:19Z</time>
      </trkpt>
      <trkpt lat="60.0218355" lon="17.7720212">
        <ele>36.6675</ele>
        <time>2013-04-30T18:39:20Z</time>
      </trkpt>
      <trkpt lat="60.021863" lon="17.7718941">
        <ele>36.6675</ele>
        <time>2013-04-30T18:39:21Z</time>
      </trkpt>
      <trkpt lat="60.0218935" lon="17.771767">
        <ele>36.6675</ele>
        <time>2013-04-30T18:39:22Z</time>
      </trkpt>
      <trkpt lat="60.0219278" lon="17.7716434">
        <ele>36.6675</ele>
        <time>2013-04-30T18:39:23Z</time>
      </trkpt>
      <trkpt lat="60.0219542" lon="17.7715175">
        <ele>36.6675</ele>
        <time>2013-04-30T18:39:24Z</time>
      </trkpt>
      <trkpt lat="60.0219775" lon="17.7713886">
        <ele>36.1868</ele>
        <time>2013-04-30T18:39:25Z</time>
      </trkpt>
      <trkpt lat="60.0219988" lon="17.7712576">
        <ele>36.1868</ele>
        <time>2013-04-30T18:39:26Z</time>
      </trkpt>
      <trkpt lat="60.0220433" lon="17.7710041">
        <ele>36.1868</ele>
        <time>2013-04-30T18:39:28Z</time>
      </trkpt>
      <trkpt lat="60.0220687" lon="17.7708867">
        <ele>36.6675</ele>
        <time>2013-04-30T18:39:29Z</time>
      </trkpt>
      <trkpt lat="60.0220874" lon="17.7707695">
        <ele>36.1868</ele>
        <time>2013-04-30T18:39:30Z</time>
      </trkpt>
      <trkpt lat="60.0221013" lon="17.7706467">
        <ele>35.7061</ele>
        <time>2013-04-30T18:39:31Z</time>
      </trkpt>
      <trkpt lat="60.0221132" lon="17.7705209">
        <ele>35.2255</ele>
        <time>2013-04-30T18:39:32Z</time>
      </trkpt>
      <trkpt lat="60.0221249" lon="17.7704041">
        <ele>34.7449</ele>
        <time>2013-04-30T18:39:33Z</time>
      </trkpt>
      <trkpt lat="60.0221382" lon="17.770295">
        <ele>35.7061</ele>
        <time>2013-04-30T18:39:34Z</time>
      </trkpt>
      <trkpt lat="60.0221464" lon="17.7701817">
        <ele>35.7061</ele>
        <time>2013-04-30T18:39:35Z</time>
      </trkpt>
      <trkpt lat="60.0221495" lon="17.7700516">
        <ele>35.7061</ele>
        <time>2013-04-30T18:39:36Z</time>
      </trkpt>
      <trkpt lat="60.0221508" lon="17.7699222">
        <ele>35.7061</ele>
        <time>2013-04-30T18:39:37Z</time>
      </trkpt>
      <trkpt lat="60.0221525" lon="17.7697903">
        <ele>36.1868</ele>
        <time>2013-04-30T18:39:38Z</time>
      </trkpt>
      <trkpt lat="60.0221525" lon="17.7696549">
        <ele>36.6675</ele>
        <time>2013-04-30T18:39:39Z</time>
      </trkpt>
      <trkpt lat="60.0221505" lon="17.7695216">
        <ele>37.1481</ele>
        <time>2013-04-30T18:39:40Z</time>
      </trkpt>
      <trkpt lat="60.0221477" lon="17.7693901">
        <ele>36.6675</ele>
        <time>2013-04-30T18:39:41Z</time>
      </trkpt>
      <trkpt lat="60.022149" lon="17.769265">
        <ele>37.6287</ele>
        <time>2013-04-30T18:39:42Z</time>
      </trkpt>
      <trkpt lat="60.0221514" lon="17.769142">
        <ele>37.1481</ele>
        <time>2013-04-30T18:39:43Z</time>
      </trkpt>
      <trkpt lat="60.0221599" lon="17.7690283">
        <ele>37.1481</ele>
        <time>2013-04-30T18:39:44Z</time>
      </trkpt>
      <trkpt lat="60.02217" lon="17.7689093">
        <ele>37.1481</ele>
        <time>2013-04-30T18:39:45Z</time>
      </trkpt>
      <trkpt lat="60.0221889" lon="17.7687913">
        <ele>37.6287</ele>
        <time>2013-04-30T18:39:46Z</time>
      </trkpt>
      <trkpt lat="60.0222168" lon="17.7686271">
        <ele>38.1094</ele>
        <time>2013-04-30T18:39:47Z</time>
      </trkpt>
      <trkpt lat="60.0222304" lon="17.7685048">
        <ele>38.1094</ele>
        <time>2013-04-30T18:39:48Z</time>
      </trkpt>
      <trkpt lat="60.0222545" lon="17.7683727">
        <ele>38.1094</ele>
        <time>2013-04-30T18:39:49Z</time>
      </trkpt>
      <trkpt lat="60.0222745" lon="17.7682511">
        <ele>37.6287</ele>
        <time>2013-04-30T18:39:50Z</time>
      </trkpt>
      <trkpt lat="60.0222996" lon="17.7681347">
        <ele>37.6287</ele>
        <time>2013-04-30T18:39:51Z</time>
      </trkpt>
      <trkpt lat="60.0223338" lon="17.7680218">
        <ele>37.6287</ele>
        <time>2013-04-30T18:39:52Z</time>
      </trkpt>
      <trkpt lat="60.0223644" lon="17.7679147">
        <ele>37.6287</ele>
        <time>2013-04-30T18:39:53Z</time>
      </trkpt>
      <trkpt lat="60.0223964" lon="17.7678035">
        <ele>37.6287</ele>
        <time>2013-04-30T18:39:54Z</time>
      </trkpt>
      <trkpt lat="60.0224262" lon="17.7676981">
        <ele>37.1481</ele>
        <time>2013-04-30T18:39:55Z</time>
      </trkpt>
      <trkpt lat="60.0224568" lon="17.7675958">
        <ele>36.6675</ele>
        <time>2013-04-30T18:39:56Z</time>
      </trkpt>
      <trkpt lat="60.0224857" lon="17.7674806">
        <ele>36.6675</ele>
        <time>2013-04-30T18:39:57Z</time>
      </trkpt>
      <trkpt lat="60.0225146" lon="17.7673539">
        <ele>36.6675</ele>
        <time>2013-04-30T18:39:58Z</time>
      </trkpt>
      <trkpt lat="60.0225428" lon="17.7672325">
        <ele>36.1868</ele>
        <time>2013-04-30T18:39:59Z</time>
      </trkpt>
      <trkpt lat="60.0225752" lon="17.7671197">
        <ele>36.1868</ele>
        <time>2013-04-30T18:40:00Z</time>
      </trkpt>
      <trkpt lat="60.0225976" lon="17.7670094">
        <ele>35.2255</ele>
        <time>2013-04-30T18:40:01Z</time>
      </trkpt>
      <trkpt lat="60.0226254" lon="17.7669051">
        <ele>35.2255</ele>
        <time>2013-04-30T18:40:02Z</time>
      </trkpt>
      <trkpt lat="60.0226546" lon="17.7668093">
        <ele>35.2255</ele>
        <time>2013-04-30T18:40:03Z</time>
      </trkpt>
      <trkpt lat="60.0226845" lon="17.7667061">
        <ele>34.7449</ele>
        <time>2013-04-30T18:40:04Z</time>
      </trkpt>
      <trkpt lat="60.0227186" lon="17.7665757">
        <ele>35.7061</ele>
        <time>2013-04-30T18:40:05Z</time>
      </trkpt>
      <trkpt lat="60.0227578" lon="17.7664541">
        <ele>37.1481</ele>
        <time>2013-04-30T18:40:06Z</time>
      </trkpt>
      <trkpt lat="60.0227757" lon="17.766302">
        <ele>38.1094</ele>
        <time>2013-04-30T18:40:07Z</time>
      </trkpt>
      <trkpt lat="60.0228467" lon="17.7660909">
        <ele>40.0321</ele>
        <time>2013-04-30T18:40:08Z</time>
      </trkpt>
      <trkpt lat="60.0228696" lon="17.7659589">
        <ele>40.5128</ele>
        <time>2013-04-30T18:40:09Z</time>
      </trkpt>
      <trkpt lat="60.022913" lon="17.7658323">
        <ele>42.4354</ele>
        <time>2013-04-30T18:40:10Z</time>
      </trkpt>
      <trkpt lat="60.0229238" lon="17.7656946">
        <ele>43.3966</ele>
        <time>2013-04-30T18:40:11Z</time>
      </trkpt>
      <trkpt lat="60.0229395" lon="17.7655682">
        <ele>44.8386</ele>
        <time>2013-04-30T18:40:12Z</time>
      </trkpt>
      <trkpt lat="60.0229611" lon="17.7654729">
        <ele>45.3192</ele>
        <time>2013-04-30T18:40:13Z</time>
      </trkpt>
      <trkpt lat="60.0229945" lon="17.7653852">
        <ele>47.2418</ele>
        <time>2013-04-30T18:40:14Z</time>
      </trkpt>
      <trkpt lat="60.0230237" lon="17.7652976">
        <ele>47.7225</ele>
        <time>2013-04-30T18:40:15Z</time>
      </trkpt>
      <trkpt lat="60.0230574" lon="17.7651927">
        <ele>48.2034</ele>
        <time>2013-04-30T18:40:16Z</time>
      </trkpt>
      <trkpt lat="60.023083" lon="17.7650832">
        <ele>48.684</ele>
        <time>2013-04-30T18:40:17Z</time>
      </trkpt>
      <trkpt lat="60.0231036" lon="17.7649814">
        <ele>49.1646</ele>
        <time>2013-04-30T18:40:18Z</time>
      </trkpt>
      <trkpt lat="60.0231328" lon="17.7648777">
        <ele>50.126</ele>
        <time>2013-04-30T18:40:19Z</time>
      </trkpt>
      <trkpt lat="60.0231637" lon="17.764772">
        <ele>51.0872</ele>
        <time>2013-04-30T18:40:20Z</time>
      </trkpt>
      <trkpt lat="60.02319" lon="17.7646705">
        <ele>51.5679</ele>
        <time>2013-04-30T18:40:21Z</time>
      </trkpt>
      <trkpt lat="60.0232126" lon="17.7645721">
        <ele>51.5679</ele>
        <time>2013-04-30T18:40:22Z</time>
      </trkpt>
      <trkpt lat="60.0232397" lon="17.7644716">
        <ele>52.0486</ele>
        <time>2013-04-30T18:40:23Z</time>
      </trkpt>
      <trkpt lat="60.0232657" lon="17.7643686">
        <ele>52.0486</ele>
        <time>2013-04-30T18:40:24Z</time>
      </trkpt>
      <trkpt lat="60.0232918" lon="17.7642707">
        <ele>52.0486</ele>
        <time>2013-04-30T18:40:25Z</time>
      </trkpt>
      <trkpt lat="60.0233242" lon="17.7641666">
        <ele>53.0098</ele>
        <time>2013-04-30T18:40:26Z</time>
      </trkpt>
      <trkpt lat="60.0233384" lon="17.7640505">
        <ele>51.5679</ele>
        <time>2013-04-30T18:40:27Z</time>
      </trkpt>
      <trkpt lat="60.023358" lon="17.7639199">
        <ele>52.0486</ele>
        <time>2013-04-30T18:40:28Z</time>
      </trkpt>
      <trkpt lat="60.0233732" lon="17.7637769">
        <ele>52.0486</ele>
        <time>2013-04-30T18:40:29Z</time>
      </trkpt>
      <trkpt lat="60.0233877" lon="17.7636444">
        <ele>52.5292</ele>
        <time>2013-04-30T18:40:30Z</time>
      </trkpt>
      <trkpt lat="60.0234065" lon="17.7635196">
        <ele>53.0098</ele>
        <time>2013-04-30T18:40:31Z</time>
      </trkpt>
      <trkpt lat="60.0234181" lon="17.7634004">
        <ele>51.5679</ele>
        <time>2013-04-30T18:40:32Z</time>
      </trkpt>
      <trkpt lat="60.0234304" lon="17.7632801">
        <ele>51.5679</ele>
        <time>2013-04-30T18:40:33Z</time>
      </trkpt>
      <trkpt lat="60.0234378" lon="17.7631512">
        <ele>51.5679</ele>
        <time>2013-04-30T18:40:34Z</time>
      </trkpt>
      <trkpt lat="60.0234467" lon="17.7630169">
        <ele>51.0872</ele>
        <time>2013-04-30T18:40:35Z</time>
      </trkpt>
      <trkpt lat="60.0234624" lon="17.7628927">
        <ele>51.5679</ele>
        <time>2013-04-30T18:40:36Z</time>
      </trkpt>
      <trkpt lat="60.0234688" lon="17.762772">
        <ele>50.126</ele>
        <time>2013-04-30T18:40:37Z</time>
      </trkpt>
      <trkpt lat="60.0234676" lon="17.7626461">
        <ele>48.684</ele>
        <time>2013-04-30T18:40:38Z</time>
      </trkpt>
      <trkpt lat="60.0234678" lon="17.7625138">
        <ele>46.7612</ele>
        <time>2013-04-30T18:40:39Z</time>
      </trkpt>
      <trkpt lat="60.0234715" lon="17.7623875">
        <ele>46.2806</ele>
        <time>2013-04-30T18:40:40Z</time>
      </trkpt>
      <trkpt lat="60.0234558" lon="17.762257">
        <ele>42.916</ele>
        <time>2013-04-30T18:40:41Z</time>
      </trkpt>
      <trkpt lat="60.0234507" lon="17.7621243">
        <ele>41.474</ele>
        <time>2013-04-30T18:40:42Z</time>
      </trkpt>
      <trkpt lat="60.0234439" lon="17.761998">
        <ele>39.5513</ele>
        <time>2013-04-30T18:40:43Z</time>
      </trkpt>
      <trkpt lat="60.0234526" lon="17.7618725">
        <ele>40.5128</ele>
        <time>2013-04-30T18:40:44Z</time>
      </trkpt>
      <trkpt lat="60.023459" lon="17.7617353">
        <ele>41.474</ele>
        <time>2013-04-30T18:40:45Z</time>
      </trkpt>
      <trkpt lat="60.0234527" lon="17.7615874">
        <ele>40.9934</ele>
        <time>2013-04-30T18:40:46Z</time>
      </trkpt>
      <trkpt lat="60.0234414" lon="17.7614484">
        <ele>41.474</ele>
        <time>2013-04-30T18:40:47Z</time>
      </trkpt>
      <trkpt lat="60.0234272" lon="17.7612857">
        <ele>40.5128</ele>
        <time>2013-04-30T18:40:48Z</time>
      </trkpt>
      <trkpt lat="60.0234128" lon="17.7611309">
        <ele>39.5513</ele>
        <time>2013-04-30T18:40:49Z</time>
      </trkpt>
      <trkpt lat="60.0233957" lon="17.7609734">
        <ele>38.5901</ele>
        <time>2013-04-30T18:40:50Z</time>
      </trkpt>
      <trkpt lat="60.0233777" lon="17.7608223">
        <ele>37.6287</ele>
        <time>2013-04-30T18:40:51Z</time>
      </trkpt>
      <trkpt lat="60.0233595" lon="17.760675">
        <ele>35.7061</ele>
        <time>2013-04-30T18:40:52Z</time>
      </trkpt>
      <trkpt lat="60.0233382" lon="17.7605312">
        <ele>35.7061</ele>
        <time>2013-04-30T18:40:53Z</time>
      </trkpt>
      <trkpt lat="60.0233196" lon="17.7603927">
        <ele>35.7061</ele>
        <time>2013-04-30T18:40:54Z</time>
      </trkpt>
      <trkpt lat="60.0233079" lon="17.7602507">
        <ele>36.1868</ele>
        <time>2013-04-30T18:40:55Z</time>
      </trkpt>
      <trkpt lat="60.0233026" lon="17.7601058">
        <ele>36.1868</ele>
        <time>2013-04-30T18:40:56Z</time>
      </trkpt>
      <trkpt lat="60.0232967" lon="17.7599552">
        <ele>35.7061</ele>
        <time>2013-04-30T18:40:57Z</time>
      </trkpt>
      <trkpt lat="60.0232948" lon="17.7597918">
        <ele>35.2255</ele>
        <time>2013-04-30T18:40:58Z</time>
      </trkpt>
      <trkpt lat="60.0233079" lon="17.7596277">
        <ele>35.2255</ele>
        <time>2013-04-30T18:40:59Z</time>
      </trkpt>
      <trkpt lat="60.0233378" lon="17.7594697">
        <ele>36.1868</ele>
        <time>2013-04-30T18:41:00Z</time>
      </trkpt>
      <trkpt lat="60.0233703" lon="17.7593127">
        <ele>36.1868</ele>
        <time>2013-04-30T18:41:01Z</time>
      </trkpt>
      <trkpt lat="60.0234025" lon="17.7591546">
        <ele>35.7061</ele>
        <time>2013-04-30T18:41:02Z</time>
      </trkpt>
      <trkpt lat="60.0234367" lon="17.7589953">
        <ele>35.7061</ele>
        <time>2013-04-30T18:41:03Z</time>
      </trkpt>
      <trkpt lat="60.0234636" lon="17.7588292">
        <ele>36.1868</ele>
        <time>2013-04-30T18:41:04Z</time>
      </trkpt>
      <trkpt lat="60.0234839" lon="17.7586521">
        <ele>36.6675</ele>
        <time>2013-04-30T18:41:05Z</time>
      </trkpt>
      <trkpt lat="60.0235129" lon="17.7584792">
        <ele>37.6287</ele>
        <time>2013-04-30T18:41:06Z</time>
      </trkpt>
      <trkpt lat="60.0235677" lon="17.7582508">
        <ele>38.1094</ele>
        <time>2013-04-30T18:41:07Z</time>
      </trkpt>
      <trkpt lat="60.0236039" lon="17.7580799">
        <ele>38.5901</ele>
        <time>2013-04-30T18:41:08Z</time>
      </trkpt>
      <trkpt lat="60.0236616" lon="17.7579182">
        <ele>40.0321</ele>
        <time>2013-04-30T18:41:09Z</time>
      </trkpt>
      <trkpt lat="60.0236926" lon="17.7577666">
        <ele>40.5128</ele>
        <time>2013-04-30T18:41:10Z</time>
      </trkpt>
      <trkpt lat="60.0236978" lon="17.7576034">
        <ele>40.0321</ele>
        <time>2013-04-30T18:41:11Z</time>
      </trkpt>
      <trkpt lat="60.0237161" lon="17.7574437">
        <ele>39.5513</ele>
        <time>2013-04-30T18:41:12Z</time>
      </trkpt>
      <trkpt lat="60.0237475" lon="17.7572926">
        <ele>39.0707</ele>
        <time>2013-04-30T18:41:13Z</time>
      </trkpt>
      <trkpt lat="60.0237816" lon="17.7571301">
        <ele>39.0707</ele>
        <time>2013-04-30T18:41:14Z</time>
      </trkpt>
      <trkpt lat="60.0238227" lon="17.7569713">
        <ele>39.0707</ele>
        <time>2013-04-30T18:41:15Z</time>
      </trkpt>
      <trkpt lat="60.023852" lon="17.7568148">
        <ele>39.5513</ele>
        <time>2013-04-30T18:41:16Z</time>
      </trkpt>
      <trkpt lat="60.0238832" lon="17.7566598">
        <ele>39.0707</ele>
        <time>2013-04-30T18:41:17Z</time>
      </trkpt>
      <trkpt lat="60.0239118" lon="17.7565061">
        <ele>38.5901</ele>
        <time>2013-04-30T18:41:18Z</time>
      </trkpt>
      <trkpt lat="60.0239315" lon="17.7563559">
        <ele>38.1094</ele>
        <time>2013-04-30T18:41:19Z</time>
      </trkpt>
      <trkpt lat="60.0239402" lon="17.7562">
        <ele>38.1094</ele>
        <time>2013-04-30T18:41:20Z</time>
      </trkpt>
      <trkpt lat="60.023962" lon="17.7560451">
        <ele>38.1094</ele>
        <time>2013-04-30T18:41:21Z</time>
      </trkpt>
      <trkpt lat="60.0239775" lon="17.7558798">
        <ele>38.1094</ele>
        <time>2013-04-30T18:41:22Z</time>
      </trkpt>
      <trkpt lat="60.0240004" lon="17.7556958">
        <ele>39.0707</ele>
        <time>2013-04-30T18:41:23Z</time>
      </trkpt>
      <trkpt lat="60.0240196" lon="17.7555381">
        <ele>38.5901</ele>
        <time>2013-04-30T18:41:24Z</time>
      </trkpt>
      <trkpt lat="60.024045" lon="17.7553711">
        <ele>38.5901</ele>
        <time>2013-04-30T18:41:25Z</time>
      </trkpt>
      <trkpt lat="60.024067" lon="17.7552304">
        <ele>38.1094</ele>
        <time>2013-04-30T18:41:26Z</time>
      </trkpt>
      <trkpt lat="60.0240888" lon="17.7550841">
        <ele>37.6287</ele>
        <time>2013-04-30T18:41:27Z</time>
      </trkpt>
      <trkpt lat="60.0241061" lon="17.7549336">
        <ele>37.1481</ele>
        <time>2013-04-30T18:41:28Z</time>
      </trkpt>
      <trkpt lat="60.0241262" lon="17.7547952">
        <ele>36.6675</ele>
        <time>2013-04-30T18:41:29Z</time>
      </trkpt>
      <trkpt lat="60.0241485" lon="17.754647">
        <ele>36.1868</ele>
        <time>2013-04-30T18:41:30Z</time>
      </trkpt>
      <trkpt lat="60.0242097" lon="17.7544744">
        <ele>37.1481</ele>
        <time>2013-04-30T18:41:31Z</time>
      </trkpt>
      <trkpt lat="60.0242495" lon="17.7543166">
        <ele>37.6287</ele>
        <time>2013-04-30T18:41:32Z</time>
      </trkpt>
      <trkpt lat="60.0242713" lon="17.7541687">
        <ele>37.6287</ele>
        <time>2013-04-30T18:41:33Z</time>
      </trkpt>
      <trkpt lat="60.0242868" lon="17.7540083">
        <ele>36.6675</ele>
        <time>2013-04-30T18:41:34Z</time>
      </trkpt>
      <trkpt lat="60.024305" lon="17.7538546">
        <ele>36.1868</ele>
        <time>2013-04-30T18:41:35Z</time>
      </trkpt>
      <trkpt lat="60.0243205" lon="17.7537023">
        <ele>35.7061</ele>
        <time>2013-04-30T18:41:36Z</time>
      </trkpt>
      <trkpt lat="60.0243427" lon="17.7535489">
        <ele>35.2255</ele>
        <time>2013-04-30T18:41:37Z</time>
      </trkpt>
      <trkpt lat="60.0243666" lon="17.7534013">
        <ele>35.2255</ele>
        <time>2013-04-30T18:41:38Z</time>
      </trkpt>
      <trkpt lat="60.0243877" lon="17.7532525">
        <ele>35.2255</ele>
        <time>2013-04-30T18:41:39Z</time>
      </trkpt>
      <trkpt lat="60.0243951" lon="17.7531029">
        <ele>33.7834</ele>
        <time>2013-04-30T18:41:40Z</time>
      </trkpt>
      <trkpt lat="60.0244127" lon="17.7529613">
        <ele>34.2642</ele>
        <time>2013-04-30T18:41:41Z</time>
      </trkpt>
      <trkpt lat="60.0244308" lon="17.752812">
        <ele>34.2642</ele>
        <time>2013-04-30T18:41:42Z</time>
      </trkpt>
      <trkpt lat="60.0244575" lon="17.7526546">
        <ele>35.2255</ele>
        <time>2013-04-30T18:41:43Z</time>
      </trkpt>
      <trkpt lat="60.0244625" lon="17.7525137">
        <ele>34.2642</ele>
        <time>2013-04-30T18:41:44Z</time>
      </trkpt>
      <trkpt lat="60.0244728" lon="17.7523429">
        <ele>34.2642</ele>
        <time>2013-04-30T18:41:45Z</time>
      </trkpt>
      <trkpt lat="60.0244807" lon="17.7521756">
        <ele>34.2642</ele>
        <time>2013-04-30T18:41:46Z</time>
      </trkpt>
      <trkpt lat="60.0244933" lon="17.7520159">
        <ele>34.2642</ele>
        <time>2013-04-30T18:41:47Z</time>
      </trkpt>
      <trkpt lat="60.0244987" lon="17.7518449">
        <ele>33.3029</ele>
        <time>2013-04-30T18:41:48Z</time>
      </trkpt>
      <trkpt lat="60.0245003" lon="17.7516731">
        <ele>33.3029</ele>
        <time>2013-04-30T18:41:49Z</time>
      </trkpt>
      <trkpt lat="60.0245003" lon="17.7515037">
        <ele>33.3029</ele>
        <time>2013-04-30T18:41:50Z</time>
      </trkpt>
      <trkpt lat="60.0244949" lon="17.7513286">
        <ele>33.3029</ele>
        <time>2013-04-30T18:41:51Z</time>
      </trkpt>
      <trkpt lat="60.0244907" lon="17.7511535">
        <ele>33.3029</ele>
        <time>2013-04-30T18:41:52Z</time>
      </trkpt>
      <trkpt lat="60.0244902" lon="17.7509846">
        <ele>33.7834</ele>
        <time>2013-04-30T18:41:53Z</time>
      </trkpt>
      <trkpt lat="60.0244873" lon="17.7508131">
        <ele>33.7834</ele>
        <time>2013-04-30T18:41:54Z</time>
      </trkpt>
      <trkpt lat="60.0244883" lon="17.75065">
        <ele>33.3029</ele>
        <time>2013-04-30T18:41:55Z</time>
      </trkpt>
      <trkpt lat="60.0244909" lon="17.7504895">
        <ele>33.3029</ele>
        <time>2013-04-30T18:41:56Z</time>
      </trkpt>
      <trkpt lat="60.0244928" lon="17.7503232">
        <ele>33.3029</ele>
        <time>2013-04-30T18:41:57Z</time>
      </trkpt>
      <trkpt lat="60.0245028" lon="17.7501615">
        <ele>33.3029</ele>
        <time>2013-04-30T18:41:58Z</time>
      </trkpt>
      <trkpt lat="60.0245178" lon="17.7500015">
        <ele>33.3029</ele>
        <time>2013-04-30T18:41:59Z</time>
      </trkpt>
      <trkpt lat="60.0245344" lon="17.7498445">
        <ele>33.3029</ele>
        <time>2013-04-30T18:42:00Z</time>
      </trkpt>
      <trkpt lat="60.0245566" lon="17.7496927">
        <ele>33.3029</ele>
        <time>2013-04-30T18:42:01Z</time>
      </trkpt>
      <trkpt lat="60.0245758" lon="17.7495477">
        <ele>32.8223</ele>
        <time>2013-04-30T18:42:02Z</time>
      </trkpt>
      <trkpt lat="60.0246028" lon="17.7494078">
        <ele>33.3029</ele>
        <time>2013-04-30T18:42:03Z</time>
      </trkpt>
      <trkpt lat="60.0246225" lon="17.7492717">
        <ele>33.3029</ele>
        <time>2013-04-30T18:42:04Z</time>
      </trkpt>
      <trkpt lat="60.0246335" lon="17.7491404">
        <ele>33.3029</ele>
        <time>2013-04-30T18:42:05Z</time>
      </trkpt>
      <trkpt lat="60.0246427" lon="17.749015">
        <ele>33.3029</ele>
        <time>2013-04-30T18:42:06Z</time>
      </trkpt>
      <trkpt lat="60.0246505" lon="17.7488966">
        <ele>33.3029</ele>
        <time>2013-04-30T18:42:07Z</time>
      </trkpt>
      <trkpt lat="60.024658" lon="17.7487871">
        <ele>33.3029</ele>
        <time>2013-04-30T18:42:08Z</time>
      </trkpt>
      <trkpt lat="60.0246643" lon="17.7486851">
        <ele>33.3029</ele>
        <time>2013-04-30T18:42:09Z</time>
      </trkpt>
      <trkpt lat="60.0246717" lon="17.7485921">
        <ele>33.3029</ele>
        <time>2013-04-30T18:42:10Z</time>
      </trkpt>
      <trkpt lat="60.024678" lon="17.748507">
        <ele>33.3029</ele>
        <time>2013-04-30T18:42:11Z</time>
      </trkpt>
      <trkpt lat="60.0246845" lon="17.7484309">
        <ele>33.3029</ele>
        <time>2013-04-30T18:42:12Z</time>
      </trkpt>
      <trkpt lat="60.0246945" lon="17.7483607">
        <ele>33.3029</ele>
        <time>2013-04-30T18:42:13Z</time>
      </trkpt>
      <trkpt lat="60.0246936" lon="17.7482975">
        <ele>33.3029</ele>
        <time>2013-04-30T18:42:14Z</time>
      </trkpt>
      <trkpt lat="60.0246846" lon="17.7482283">
        <ele>31.8607</ele>
        <time>2013-04-30T18:42:15Z</time>
      </trkpt>
      <trkpt lat="60.0246738" lon="17.7481561">
        <ele>31.8607</ele>
        <time>2013-04-30T18:42:16Z</time>
      </trkpt>
      <trkpt lat="60.0246567" lon="17.7480898">
        <ele>33.3029</ele>
        <time>2013-04-30T18:42:17Z</time>
      </trkpt>
      <trkpt lat="60.0246229" lon="17.7480351">
        <ele>32.8223</ele>
        <time>2013-04-30T18:42:18Z</time>
      </trkpt>
      <trkpt lat="60.0245814" lon="17.7479925">
        <ele>33.3029</ele>
        <time>2013-04-30T18:42:19Z</time>
      </trkpt>
      <trkpt lat="60.0245335" lon="17.7479533">
        <ele>33.3029</ele>
        <time>2013-04-30T18:42:20Z</time>
      </trkpt>
      <trkpt lat="60.0244866" lon="17.7479173">
        <ele>33.7834</ele>
        <time>2013-04-30T18:42:21Z</time>
      </trkpt>
      <trkpt lat="60.024428" lon="17.7478792">
        <ele>34.2642</ele>
        <time>2013-04-30T18:42:22Z</time>
      </trkpt>
      <trkpt lat="60.0243645" lon="17.7478344">
        <ele>34.7449</ele>
        <time>2013-04-30T18:42:23Z</time>
      </trkpt>
      <trkpt lat="60.0242965" lon="17.7477845">
        <ele>36.1868</ele>
        <time>2013-04-30T18:42:24Z</time>
      </trkpt>
      <trkpt lat="60.0242356" lon="17.7477426">
        <ele>38.1094</ele>
        <time>2013-04-30T18:42:25Z</time>
      </trkpt>
      <trkpt lat="60.0241734" lon="17.7477047">
        <ele>39.5513</ele>
        <time>2013-04-30T18:42:26Z</time>
      </trkpt>
      <trkpt lat="60.0241138" lon="17.7476761">
        <ele>40.9934</ele>
        <time>2013-04-30T18:42:27Z</time>
      </trkpt>
      <trkpt lat="60.0240512" lon="17.7476399">
        <ele>40.5128</ele>
        <time>2013-04-30T18:42:28Z</time>
      </trkpt>
      <trkpt lat="60.0239935" lon="17.7476098">
        <ele>41.474</ele>
        <time>2013-04-30T18:42:29Z</time>
      </trkpt>
      <trkpt lat="60.0239305" lon="17.7475809">
        <ele>41.9547</ele>
        <time>2013-04-30T18:42:30Z</time>
      </trkpt>
      <trkpt lat="60.0238673" lon="17.747557">
        <ele>42.4354</ele>
        <time>2013-04-30T18:42:31Z</time>
      </trkpt>
      <trkpt lat="60.0238096" lon="17.7475239">
        <ele>43.3966</ele>
        <time>2013-04-30T18:42:32Z</time>
      </trkpt>
      <trkpt lat="60.0237574" lon="17.74749">
        <ele>44.358</ele>
        <time>2013-04-30T18:42:33Z</time>
      </trkpt>
      <trkpt lat="60.0237007" lon="17.7474638">
        <ele>46.7612</ele>
        <time>2013-04-30T18:42:34Z</time>
      </trkpt>
      <trkpt lat="60.0236443" lon="17.7474356">
        <ele>48.2034</ele>
        <time>2013-04-30T18:42:35Z</time>
      </trkpt>
      <trkpt lat="60.0235894" lon="17.7474042">
        <ele>48.684</ele>
        <time>2013-04-30T18:42:36Z</time>
      </trkpt>
      <trkpt lat="60.023529" lon="17.7473658">
        <ele>49.1646</ele>
        <time>2013-04-30T18:42:37Z</time>
      </trkpt>
      <trkpt lat="60.0234685" lon="17.7473274">
        <ele>48.2034</ele>
        <time>2013-04-30T18:42:38Z</time>
      </trkpt>
      <trkpt lat="60.0233953" lon="17.7472804">
        <ele>45.3192</ele>
        <time>2013-04-30T18:42:39Z</time>
      </trkpt>
      <trkpt lat="60.0233229" lon="17.747232">
        <ele>42.4354</ele>
        <time>2013-04-30T18:42:40Z</time>
      </trkpt>
      <trkpt lat="60.0232554" lon="17.7471904">
        <ele>39.5513</ele>
        <time>2013-04-30T18:42:41Z</time>
      </trkpt>
      <trkpt lat="60.0232012" lon="17.7471643">
        <ele>40.9934</ele>
        <time>2013-04-30T18:42:42Z</time>
      </trkpt>
      <trkpt lat="60.0231451" lon="17.7471364">
        <ele>41.9547</ele>
        <time>2013-04-30T18:42:43Z</time>
      </trkpt>
      <trkpt lat="60.0230784" lon="17.747066">
        <ele>42.916</ele>
        <time>2013-04-30T18:42:44Z</time>
      </trkpt>
      <trkpt lat="60.023011" lon="17.747011">
        <ele>43.8773</ele>
        <time>2013-04-30T18:42:45Z</time>
      </trkpt>
      <trkpt lat="60.0229296" lon="17.7469498">
        <ele>40.9934</ele>
        <time>2013-04-30T18:42:46Z</time>
      </trkpt>
      <trkpt lat="60.0228799" lon="17.7468645">
        <ele>39.0707</ele>
        <time>2013-04-30T18:42:47Z</time>
      </trkpt>
      <trkpt lat="60.0228603" lon="17.7467355">
        <ele>38.5901</ele>
        <time>2013-04-30T18:42:48Z</time>
      </trkpt>
      <trkpt lat="60.0228399" lon="17.7465576">
        <ele>38.5901</ele>
        <time>2013-04-30T18:42:49Z</time>
      </trkpt>
      <trkpt lat="60.0228601" lon="17.7464367">
        <ele>38.1094</ele>
        <time>2013-04-30T18:42:50Z</time>
      </trkpt>
      <trkpt lat="60.0228818" lon="17.746319">
        <ele>37.6287</ele>
        <time>2013-04-30T18:42:51Z</time>
      </trkpt>
      <trkpt lat="60.0229058" lon="17.7461918">
        <ele>36.6675</ele>
        <time>2013-04-30T18:42:52Z</time>
      </trkpt>
      <trkpt lat="60.0229136" lon="17.7460577">
        <ele>36.1868</ele>
        <time>2013-04-30T18:42:53Z</time>
      </trkpt>
      <trkpt lat="60.022914" lon="17.7459206">
        <ele>35.2255</ele>
        <time>2013-04-30T18:42:54Z</time>
      </trkpt>
      <trkpt lat="60.0229192" lon="17.7457818">
        <ele>35.7061</ele>
        <time>2013-04-30T18:42:55Z</time>
      </trkpt>
      <trkpt lat="60.0229209" lon="17.7456453">
        <ele>35.2255</ele>
        <time>2013-04-30T18:42:56Z</time>
      </trkpt>
      <trkpt lat="60.0229151" lon="17.7454972">
        <ele>35.2255</ele>
        <time>2013-04-30T18:42:57Z</time>
      </trkpt>
      <trkpt lat="60.0229087" lon="17.7453461">
        <ele>35.7061</ele>
        <time>2013-04-30T18:42:58Z</time>
      </trkpt>
      <trkpt lat="60.0228958" lon="17.745191">
        <ele>33.3029</ele>
        <time>2013-04-30T18:42:59Z</time>
      </trkpt>
      <trkpt lat="60.022886" lon="17.7450332">
        <ele>32.3416</ele>
        <time>2013-04-30T18:43:00Z</time>
      </trkpt>
      <trkpt lat="60.0228757" lon="17.7448722">
        <ele>31.3801</ele>
        <time>2013-04-30T18:43:01Z</time>
      </trkpt>
      <trkpt lat="60.0228669" lon="17.7447094">
        <ele>31.3801</ele>
        <time>2013-04-30T18:43:02Z</time>
      </trkpt>
      <trkpt lat="60.0228596" lon="17.744544">
        <ele>30.8995</ele>
        <time>2013-04-30T18:43:03Z</time>
      </trkpt>
      <trkpt lat="60.022853" lon="17.7443785">
        <ele>30.8995</ele>
        <time>2013-04-30T18:43:04Z</time>
      </trkpt>
      <trkpt lat="60.0228455" lon="17.7442143">
        <ele>30.8995</ele>
        <time>2013-04-30T18:43:05Z</time>
      </trkpt>
      <trkpt lat="60.0228401" lon="17.7440541">
        <ele>30.4188</ele>
        <time>2013-04-30T18:43:06Z</time>
      </trkpt>
      <trkpt lat="60.0228316" lon="17.74389">
        <ele>30.4188</ele>
        <time>2013-04-30T18:43:07Z</time>
      </trkpt>
      <trkpt lat="60.0228234" lon="17.7437275">
        <ele>29.9381</ele>
        <time>2013-04-30T18:43:08Z</time>
      </trkpt>
      <trkpt lat="60.0228161" lon="17.7435683">
        <ele>29.4575</ele>
        <time>2013-04-30T18:43:09Z</time>
      </trkpt>
      <trkpt lat="60.0228096" lon="17.7434083">
        <ele>28.9769</ele>
        <time>2013-04-30T18:43:10Z</time>
      </trkpt>
      <trkpt lat="60.0228074" lon="17.7432477">
        <ele>28.4962</ele>
        <time>2013-04-30T18:43:11Z</time>
      </trkpt>
      <trkpt lat="60.022807" lon="17.7430867">
        <ele>28.4962</ele>
        <time>2013-04-30T18:43:12Z</time>
      </trkpt>
      <trkpt lat="60.0228063" lon="17.7429249">
        <ele>27.5349</ele>
        <time>2013-04-30T18:43:13Z</time>
      </trkpt>
      <trkpt lat="60.0228077" lon="17.7427627">
        <ele>27.5349</ele>
        <time>2013-04-30T18:43:14Z</time>
      </trkpt>
      <trkpt lat="60.0228083" lon="17.7426053">
        <ele>27.5349</ele>
        <time>2013-04-30T18:43:15Z</time>
      </trkpt>
      <trkpt lat="60.0228022" lon="17.74245">
        <ele>27.0543</ele>
        <time>2013-04-30T18:43:16Z</time>
      </trkpt>
      <trkpt lat="60.0227976" lon="17.7422985">
        <ele>27.5349</ele>
        <time>2013-04-30T18:43:17Z</time>
      </trkpt>
      <trkpt lat="60.0227862" lon="17.7421547">
        <ele>27.5349</ele>
        <time>2013-04-30T18:43:18Z</time>
      </trkpt>
      <trkpt lat="60.0227628" lon="17.742011">
        <ele>27.0543</ele>
        <time>2013-04-30T18:43:19Z</time>
      </trkpt>
      <trkpt lat="60.022738" lon="17.7418725">
        <ele>26.5736</ele>
        <time>2013-04-30T18:43:20Z</time>
      </trkpt>
      <trkpt lat="60.0227002" lon="17.7417357">
        <ele>23.6896</ele>
        <time>2013-04-30T18:43:21Z</time>
      </trkpt>
      <trkpt lat="60.0226712" lon="17.7416148">
        <ele>24.651</ele>
        <time>2013-04-30T18:43:22Z</time>
      </trkpt>
      <trkpt lat="60.0226344" lon="17.7414969">
        <ele>24.651</ele>
        <time>2013-04-30T18:43:23Z</time>
      </trkpt>
      <trkpt lat="60.022588" lon="17.7413803">
        <ele>23.209</ele>
        <time>2013-04-30T18:43:24Z</time>
      </trkpt>
      <trkpt lat="60.0225433" lon="17.741273">
        <ele>22.7283</ele>
        <time>2013-04-30T18:43:25Z</time>
      </trkpt>
      <trkpt lat="60.0224938" lon="17.7411703">
        <ele>20.8057</ele>
        <time>2013-04-30T18:43:26Z</time>
      </trkpt>
      <trkpt lat="60.0224396" lon="17.7410677">
        <ele>20.325</ele>
        <time>2013-04-30T18:43:27Z</time>
      </trkpt>
      <trkpt lat="60.0223898" lon="17.7409714">
        <ele>20.8057</ele>
        <time>2013-04-30T18:43:28Z</time>
      </trkpt>
      <trkpt lat="60.0223358" lon="17.7408737">
        <ele>20.8057</ele>
        <time>2013-04-30T18:43:29Z</time>
      </trkpt>
      <trkpt lat="60.0222784" lon="17.7407791">
        <ele>20.8057</ele>
        <time>2013-04-30T18:43:30Z</time>
      </trkpt>
      <trkpt lat="60.0222211" lon="17.7407004">
        <ele>20.8057</ele>
        <time>2013-04-30T18:43:31Z</time>
      </trkpt>
      <trkpt lat="60.0221638" lon="17.7406321">
        <ele>21.2864</ele>
        <time>2013-04-30T18:43:32Z</time>
      </trkpt>
      <trkpt lat="60.0221065" lon="17.7405669">
        <ele>21.767</ele>
        <time>2013-04-30T18:43:33Z</time>
      </trkpt>
      <trkpt lat="60.0220464" lon="17.7404971">
        <ele>22.2476</ele>
        <time>2013-04-30T18:43:34Z</time>
      </trkpt>
      <trkpt lat="60.0219841" lon="17.7404287">
        <ele>22.7283</ele>
        <time>2013-04-30T18:43:35Z</time>
      </trkpt>
      <trkpt lat="60.0219172" lon="17.7403612">
        <ele>21.767</ele>
        <time>2013-04-30T18:43:36Z</time>
      </trkpt>
      <trkpt lat="60.0218542" lon="17.7402992">
        <ele>22.2476</ele>
        <time>2013-04-30T18:43:37Z</time>
      </trkpt>
      <trkpt lat="60.0217911" lon="17.7402397">
        <ele>23.209</ele>
        <time>2013-04-30T18:43:38Z</time>
      </trkpt>
      <trkpt lat="60.0217271" lon="17.74018">
        <ele>23.6896</ele>
        <time>2013-04-30T18:43:39Z</time>
      </trkpt>
      <trkpt lat="60.0216605" lon="17.7401137">
        <ele>24.1703</ele>
        <time>2013-04-30T18:43:40Z</time>
      </trkpt>
      <trkpt lat="60.0215817" lon="17.740036">
        <ele>21.2864</ele>
        <time>2013-04-30T18:43:41Z</time>
      </trkpt>
      <trkpt lat="60.0215106" lon="17.739965">
        <ele>20.325</ele>
        <time>2013-04-30T18:43:42Z</time>
      </trkpt>
      <trkpt lat="60.0214383" lon="17.7398877">
        <ele>19.3638</ele>
        <time>2013-04-30T18:43:43Z</time>
      </trkpt>
      <trkpt lat="60.0213698" lon="17.7398075">
        <ele>18.8831</ele>
        <time>2013-04-30T18:43:44Z</time>
      </trkpt>
      <trkpt lat="60.0213051" lon="17.7397324">
        <ele>18.8831</ele>
        <time>2013-04-30T18:43:45Z</time>
      </trkpt>
      <trkpt lat="60.0212397" lon="17.7396611">
        <ele>19.3638</ele>
        <time>2013-04-30T18:43:46Z</time>
      </trkpt>
      <trkpt lat="60.021175" lon="17.7395893">
        <ele>19.8444</ele>
        <time>2013-04-30T18:43:47Z</time>
      </trkpt>
      <trkpt lat="60.0211082" lon="17.7395133">
        <ele>19.8444</ele>
        <time>2013-04-30T18:43:48Z</time>
      </trkpt>
      <trkpt lat="60.0210428" lon="17.7394381">
        <ele>19.8444</ele>
        <time>2013-04-30T18:43:49Z</time>
      </trkpt>
      <trkpt lat="60.0209774" lon="17.7393588">
        <ele>19.8444</ele>
        <time>2013-04-30T18:43:50Z</time>
      </trkpt>
      <trkpt lat="60.0209129" lon="17.7392762">
        <ele>19.3638</ele>
        <time>2013-04-30T18:43:51Z</time>
      </trkpt>
      <trkpt lat="60.0208506" lon="17.739191">
        <ele>19.8444</ele>
        <time>2013-04-30T18:43:52Z</time>
      </trkpt>
      <trkpt lat="60.0207908" lon="17.7391035">
        <ele>19.8444</ele>
        <time>2013-04-30T18:43:53Z</time>
      </trkpt>
      <trkpt lat="60.0207332" lon="17.7390135">
        <ele>19.8444</ele>
        <time>2013-04-30T18:43:54Z</time>
      </trkpt>
      <trkpt lat="60.0206774" lon="17.738921">
        <ele>19.8444</ele>
        <time>2013-04-30T18:43:55Z</time>
      </trkpt>
      <trkpt lat="60.0206223" lon="17.7388265">
        <ele>19.8444</ele>
        <time>2013-04-30T18:43:56Z</time>
      </trkpt>
      <trkpt lat="60.020569" lon="17.7387305">
        <ele>19.8444</ele>
        <time>2013-04-30T18:43:57Z</time>
      </trkpt>
      <trkpt lat="60.0205178" lon="17.7386301">
        <ele>20.325</ele>
        <time>2013-04-30T18:43:58Z</time>
      </trkpt>
      <trkpt lat="60.0204674" lon="17.7385248">
        <ele>20.325</ele>
        <time>2013-04-30T18:43:59Z</time>
      </trkpt>
      <trkpt lat="60.0204184" lon="17.7384146">
        <ele>20.325</ele>
        <time>2013-04-30T18:44:00Z</time>
      </trkpt>
      <trkpt lat="60.0203723" lon="17.738299">
        <ele>20.325</ele>
        <time>2013-04-30T18:44:01Z</time>
      </trkpt>
      <trkpt lat="60.0203293" lon="17.7381791">
        <ele>20.8057</ele>
        <time>2013-04-30T18:44:02Z</time>
      </trkpt>
      <trkpt lat="60.0202902" lon="17.7380541">
        <ele>20.8057</ele>
        <time>2013-04-30T18:44:03Z</time>
      </trkpt>
      <trkpt lat="60.020252" lon="17.7379244">
        <ele>20.325</ele>
        <time>2013-04-30T18:44:04Z</time>
      </trkpt>
      <trkpt lat="60.0202157" lon="17.7377972">
        <ele>20.325</ele>
        <time>2013-04-30T18:44:05Z</time>
      </trkpt>
      <trkpt lat="60.0201786" lon="17.7376672">
        <ele>20.325</ele>
        <time>2013-04-30T18:44:06Z</time>
      </trkpt>
      <trkpt lat="60.0201417" lon="17.7375391">
        <ele>19.8444</ele>
        <time>2013-04-30T18:44:07Z</time>
      </trkpt>
      <trkpt lat="60.0201043" lon="17.7374138">
        <ele>19.8444</ele>
        <time>2013-04-30T18:44:08Z</time>
      </trkpt>
      <trkpt lat="60.0200665" lon="17.737288">
        <ele>19.3638</ele>
        <time>2013-04-30T18:44:09Z</time>
      </trkpt>
      <trkpt lat="60.0200292" lon="17.7371609">
        <ele>19.3638</ele>
        <time>2013-04-30T18:44:10Z</time>
      </trkpt>
      <trkpt lat="60.0199944" lon="17.7370383">
        <ele>20.325</ele>
        <time>2013-04-30T18:44:11Z</time>
      </trkpt>
      <trkpt lat="60.0199526" lon="17.7369185">
        <ele>20.8057</ele>
        <time>2013-04-30T18:44:12Z</time>
      </trkpt>
      <trkpt lat="60.0199048" lon="17.7368107">
        <ele>21.2864</ele>
        <time>2013-04-30T18:44:13Z</time>
      </trkpt>
      <trkpt lat="60.0198489" lon="17.7367077">
        <ele>20.8057</ele>
        <time>2013-04-30T18:44:14Z</time>
      </trkpt>
      <trkpt lat="60.0197936" lon="17.7366186">
        <ele>21.2864</ele>
        <time>2013-04-30T18:44:15Z</time>
      </trkpt>
      <trkpt lat="60.0197364" lon="17.7365366">
        <ele>21.767</ele>
        <time>2013-04-30T18:44:16Z</time>
      </trkpt>
      <trkpt lat="60.0196765" lon="17.7364576">
        <ele>21.767</ele>
        <time>2013-04-30T18:44:17Z</time>
      </trkpt>
      <trkpt lat="60.0196163" lon="17.7363815">
        <ele>22.2476</ele>
        <time>2013-04-30T18:44:18Z</time>
      </trkpt>
      <trkpt lat="60.0195569" lon="17.7363049">
        <ele>22.2476</ele>
        <time>2013-04-30T18:44:19Z</time>
      </trkpt>
      <trkpt lat="60.0194994" lon="17.7362256">
        <ele>22.2476</ele>
        <time>2013-04-30T18:44:20Z</time>
      </trkpt>
      <trkpt lat="60.0194427" lon="17.7361427">
        <ele>22.2476</ele>
        <time>2013-04-30T18:44:21Z</time>
      </trkpt>
      <trkpt lat="60.0193873" lon="17.7360577">
        <ele>22.2476</ele>
        <time>2013-04-30T18:44:22Z</time>
      </trkpt>
      <trkpt lat="60.0193321" lon="17.7359702">
        <ele>22.2476</ele>
        <time>2013-04-30T18:44:23Z</time>
      </trkpt>
      <trkpt lat="60.019277" lon="17.7358842">
        <ele>22.7283</ele>
        <time>2013-04-30T18:44:24Z</time>
      </trkpt>
      <trkpt lat="60.0192221" lon="17.735798">
        <ele>22.7283</ele>
        <time>2013-04-30T18:44:25Z</time>
      </trkpt>
      <trkpt lat="60.0191669" lon="17.7357117">
        <ele>23.209</ele>
        <time>2013-04-30T18:44:26Z</time>
      </trkpt>
      <trkpt lat="60.0191104" lon="17.7356267">
        <ele>23.209</ele>
        <time>2013-04-30T18:44:27Z</time>
      </trkpt>
      <trkpt lat="60.0190539" lon="17.7355402">
        <ele>23.209</ele>
        <time>2013-04-30T18:44:28Z</time>
      </trkpt>
      <trkpt lat="60.0189968" lon="17.7354541">
        <ele>23.209</ele>
        <time>2013-04-30T18:44:29Z</time>
      </trkpt>
      <trkpt lat="60.0189387" lon="17.7353687">
        <ele>23.6896</ele>
        <time>2013-04-30T18:44:30Z</time>
      </trkpt>
      <trkpt lat="60.0188801" lon="17.7352836">
        <ele>23.209</ele>
        <time>2013-04-30T18:44:31Z</time>
      </trkpt>
      <trkpt lat="60.0188219" lon="17.7352025">
        <ele>23.6896</ele>
        <time>2013-04-30T18:44:32Z</time>
      </trkpt>
      <trkpt lat="60.0187631" lon="17.7351246">
        <ele>23.6896</ele>
        <time>2013-04-30T18:44:33Z</time>
      </trkpt>
      <trkpt lat="60.0187026" lon="17.7350526">
        <ele>23.6896</ele>
        <time>2013-04-30T18:44:34Z</time>
      </trkpt>
      <trkpt lat="60.018641" lon="17.7349864">
        <ele>23.6896</ele>
        <time>2013-04-30T18:44:35Z</time>
      </trkpt>
      <trkpt lat="60.0185789" lon="17.7349201">
        <ele>23.6896</ele>
        <time>2013-04-30T18:44:36Z</time>
      </trkpt>
      <trkpt lat="60.0185172" lon="17.7348558">
        <ele>24.1703</ele>
        <time>2013-04-30T18:44:37Z</time>
      </trkpt>
      <trkpt lat="60.0184559" lon="17.7347943">
        <ele>24.651</ele>
        <time>2013-04-30T18:44:38Z</time>
      </trkpt>
      <trkpt lat="60.018394" lon="17.7347361">
        <ele>24.651</ele>
        <time>2013-04-30T18:44:39Z</time>
      </trkpt>
      <trkpt lat="60.0183321" lon="17.7346794">
        <ele>24.651</ele>
        <time>2013-04-30T18:44:40Z</time>
      </trkpt>
      <trkpt lat="60.0182692" lon="17.7346192">
        <ele>24.1703</ele>
        <time>2013-04-30T18:44:41Z</time>
      </trkpt>
      <trkpt lat="60.0182095" lon="17.7345592">
        <ele>24.651</ele>
        <time>2013-04-30T18:44:42Z</time>
      </trkpt>
      <trkpt lat="60.0181515" lon="17.7344979">
        <ele>24.651</ele>
        <time>2013-04-30T18:44:43Z</time>
      </trkpt>
      <trkpt lat="60.0180914" lon="17.7344235">
        <ele>24.651</ele>
        <time>2013-04-30T18:44:44Z</time>
      </trkpt>
      <trkpt lat="60.0180268" lon="17.7343558">
        <ele>24.651</ele>
        <time>2013-04-30T18:44:45Z</time>
      </trkpt>
      <trkpt lat="60.0179603" lon="17.7342917">
        <ele>25.1317</ele>
        <time>2013-04-30T18:44:46Z</time>
      </trkpt>
      <trkpt lat="60.0178842" lon="17.7342384">
        <ele>25.1317</ele>
        <time>2013-04-30T18:44:47Z</time>
      </trkpt>
      <trkpt lat="60.0178122" lon="17.7341799">
        <ele>24.651</ele>
        <time>2013-04-30T18:44:48Z</time>
      </trkpt>
      <trkpt lat="60.0177401" lon="17.7341255">
        <ele>24.651</ele>
        <time>2013-04-30T18:44:49Z</time>
      </trkpt>
      <trkpt lat="60.0176661" lon="17.7340757">
        <ele>24.1703</ele>
        <time>2013-04-30T18:44:50Z</time>
      </trkpt>
      <trkpt lat="60.0175842" lon="17.734027">
        <ele>24.1703</ele>
        <time>2013-04-30T18:44:51Z</time>
      </trkpt>
      <trkpt lat="60.0175045" lon="17.733986">
        <ele>24.1703</ele>
        <time>2013-04-30T18:44:52Z</time>
      </trkpt>
      <trkpt lat="60.0174267" lon="17.7339507">
        <ele>24.1703</ele>
        <time>2013-04-30T18:44:53Z</time>
      </trkpt>
      <trkpt lat="60.0173496" lon="17.7339179">
        <ele>24.1703</ele>
        <time>2013-04-30T18:44:54Z</time>
      </trkpt>
      <trkpt lat="60.0172724" lon="17.7338852">
        <ele>23.6896</ele>
        <time>2013-04-30T18:44:55Z</time>
      </trkpt>
      <trkpt lat="60.0171962" lon="17.7338581">
        <ele>23.209</ele>
        <time>2013-04-30T18:44:56Z</time>
      </trkpt>
      <trkpt lat="60.0171197" lon="17.7338333">
        <ele>23.209</ele>
        <time>2013-04-30T18:44:57Z</time>
      </trkpt>
      <trkpt lat="60.0170439" lon="17.7338069">
        <ele>23.209</ele>
        <time>2013-04-30T18:44:58Z</time>
      </trkpt>
      <trkpt lat="60.0169694" lon="17.7337835">
        <ele>23.209</ele>
        <time>2013-04-30T18:44:59Z</time>
      </trkpt>
      <trkpt lat="60.0168951" lon="17.7337618">
        <ele>23.209</ele>
        <time>2013-04-30T18:45:00Z</time>
      </trkpt>
      <trkpt lat="60.0168201" lon="17.7337409">
        <ele>23.209</ele>
        <time>2013-04-30T18:45:01Z</time>
      </trkpt>
      <trkpt lat="60.0167436" lon="17.7337192">
        <ele>22.7283</ele>
        <time>2013-04-30T18:45:02Z</time>
      </trkpt>
      <trkpt lat="60.0166647" lon="17.7337039">
        <ele>22.7283</ele>
        <time>2013-04-30T18:45:03Z</time>
      </trkpt>
      <trkpt lat="60.0165898" lon="17.7336825">
        <ele>23.209</ele>
        <time>2013-04-30T18:45:04Z</time>
      </trkpt>
      <trkpt lat="60.0165141" lon="17.7336633">
        <ele>23.209</ele>
        <time>2013-04-30T18:45:05Z</time>
      </trkpt>
      <trkpt lat="60.0164374" lon="17.7336422">
        <ele>23.6896</ele>
        <time>2013-04-30T18:45:06Z</time>
      </trkpt>
      <trkpt lat="60.0163607" lon="17.7336167">
        <ele>23.6896</ele>
        <time>2013-04-30T18:45:07Z</time>
      </trkpt>
      <trkpt lat="60.0162839" lon="17.7335899">
        <ele>23.6896</ele>
        <time>2013-04-30T18:45:08Z</time>
      </trkpt>
      <trkpt lat="60.0162082" lon="17.7335664">
        <ele>23.6896</ele>
        <time>2013-04-30T18:45:09Z</time>
      </trkpt>
      <trkpt lat="60.0161323" lon="17.7335421">
        <ele>23.6896</ele>
        <time>2013-04-30T18:45:10Z</time>
      </trkpt>
      <trkpt lat="60.0160562" lon="17.733518">
        <ele>23.6896</ele>
        <time>2013-04-30T18:45:11Z</time>
      </trkpt>
      <trkpt lat="60.0159805" lon="17.7334956">
        <ele>23.6896</ele>
        <time>2013-04-30T18:45:12Z</time>
      </trkpt>
      <trkpt lat="60.0159044" lon="17.7334744">
        <ele>23.209</ele>
        <time>2013-04-30T18:45:13Z</time>
      </trkpt>
      <trkpt lat="60.0158275" lon="17.7334543">
        <ele>23.209</ele>
        <time>2013-04-30T18:45:14Z</time>
      </trkpt>
      <trkpt lat="60.0157493" lon="17.7334377">
        <ele>23.209</ele>
        <time>2013-04-30T18:45:15Z</time>
      </trkpt>
      <trkpt lat="60.0156703" lon="17.7334236">
        <ele>23.209</ele>
        <time>2013-04-30T18:45:16Z</time>
      </trkpt>
      <trkpt lat="60.0155913" lon="17.7334059">
        <ele>23.209</ele>
        <time>2013-04-30T18:45:17Z</time>
      </trkpt>
      <trkpt lat="60.015512" lon="17.7333852">
        <ele>23.209</ele>
        <time>2013-04-30T18:45:18Z</time>
      </trkpt>
      <trkpt lat="60.0154325" lon="17.733363">
        <ele>22.7283</ele>
        <time>2013-04-30T18:45:19Z</time>
      </trkpt>
      <trkpt lat="60.0153514" lon="17.7333402">
        <ele>22.2476</ele>
        <time>2013-04-30T18:45:20Z</time>
      </trkpt>
      <trkpt lat="60.0152693" lon="17.7333177">
        <ele>22.2476</ele>
        <time>2013-04-30T18:45:21Z</time>
      </trkpt>
      <trkpt lat="60.0151869" lon="17.7332951">
        <ele>22.2476</ele>
        <time>2013-04-30T18:45:22Z</time>
      </trkpt>
      <trkpt lat="60.0151051" lon="17.7332711">
        <ele>21.767</ele>
        <time>2013-04-30T18:45:23Z</time>
      </trkpt>
      <trkpt lat="60.0150242" lon="17.7332397">
        <ele>21.767</ele>
        <time>2013-04-30T18:45:24Z</time>
      </trkpt>
      <trkpt lat="60.0149449" lon="17.7331941">
        <ele>21.2864</ele>
        <time>2013-04-30T18:45:25Z</time>
      </trkpt>
      <trkpt lat="60.0148698" lon="17.733138">
        <ele>21.2864</ele>
        <time>2013-04-30T18:45:26Z</time>
      </trkpt>
      <trkpt lat="60.0147975" lon="17.733076">
        <ele>20.8057</ele>
        <time>2013-04-30T18:45:27Z</time>
      </trkpt>
      <trkpt lat="60.0147276" lon="17.7330113">
        <ele>20.325</ele>
        <time>2013-04-30T18:45:28Z</time>
      </trkpt>
      <trkpt lat="60.0146592" lon="17.7329496">
        <ele>20.325</ele>
        <time>2013-04-30T18:45:29Z</time>
      </trkpt>
      <trkpt lat="60.014591" lon="17.7328936">
        <ele>20.325</ele>
        <time>2013-04-30T18:45:30Z</time>
      </trkpt>
      <trkpt lat="60.014523" lon="17.7328419">
        <ele>19.8444</ele>
        <time>2013-04-30T18:45:31Z</time>
      </trkpt>
      <trkpt lat="60.0144555" lon="17.7327952">
        <ele>19.8444</ele>
        <time>2013-04-30T18:45:32Z</time>
      </trkpt>
      <trkpt lat="60.0143881" lon="17.7327538">
        <ele>19.8444</ele>
        <time>2013-04-30T18:45:33Z</time>
      </trkpt>
      <trkpt lat="60.0143192" lon="17.7327168">
        <ele>19.8444</ele>
        <time>2013-04-30T18:45:34Z</time>
      </trkpt>
      <trkpt lat="60.0142483" lon="17.7326798">
        <ele>20.325</ele>
        <time>2013-04-30T18:45:35Z</time>
      </trkpt>
      <trkpt lat="60.0141814" lon="17.7326399">
        <ele>20.325</ele>
        <time>2013-04-30T18:45:36Z</time>
      </trkpt>
      <trkpt lat="60.0141126" lon="17.7325995">
        <ele>20.325</ele>
        <time>2013-04-30T18:45:37Z</time>
      </trkpt>
      <trkpt lat="60.014039" lon="17.7325606">
        <ele>20.325</ele>
        <time>2013-04-30T18:45:38Z</time>
      </trkpt>
      <trkpt lat="60.013964" lon="17.7325223">
        <ele>20.325</ele>
        <time>2013-04-30T18:45:39Z</time>
      </trkpt>
      <trkpt lat="60.0138873" lon="17.7324876">
        <ele>20.325</ele>
        <time>2013-04-30T18:45:40Z</time>
      </trkpt>
      <trkpt lat="60.013809" lon="17.7324596">
        <ele>20.8057</ele>
        <time>2013-04-30T18:45:41Z</time>
      </trkpt>
      <trkpt lat="60.0137306" lon="17.7324387">
        <ele>20.8057</ele>
        <time>2013-04-30T18:45:42Z</time>
      </trkpt>
      <trkpt lat="60.0136524" lon="17.7324191">
        <ele>21.2864</ele>
        <time>2013-04-30T18:45:43Z</time>
      </trkpt>
      <trkpt lat="60.0135768" lon="17.7324012">
        <ele>21.2864</ele>
        <time>2013-04-30T18:45:44Z</time>
      </trkpt>
      <trkpt lat="60.013497" lon="17.7323853">
        <ele>21.767</ele>
        <time>2013-04-30T18:45:45Z</time>
      </trkpt>
      <trkpt lat="60.013423" lon="17.7323767">
        <ele>22.2476</ele>
        <time>2013-04-30T18:45:46Z</time>
      </trkpt>
      <trkpt lat="60.0133519" lon="17.7323726">
        <ele>22.2476</ele>
        <time>2013-04-30T18:45:47Z</time>
      </trkpt>
      <trkpt lat="60.0132848" lon="17.7323731">
        <ele>22.7283</ele>
        <time>2013-04-30T18:45:48Z</time>
      </trkpt>
      <trkpt lat="60.0132169" lon="17.7323698">
        <ele>22.7283</ele>
        <time>2013-04-30T18:45:49Z</time>
      </trkpt>
      <trkpt lat="60.0131501" lon="17.7323726">
        <ele>23.209</ele>
        <time>2013-04-30T18:45:50Z</time>
      </trkpt>
      <trkpt lat="60.0130834" lon="17.7323807">
        <ele>23.6896</ele>
        <time>2013-04-30T18:45:51Z</time>
      </trkpt>
      <trkpt lat="60.0130176" lon="17.7323892">
        <ele>24.1703</ele>
        <time>2013-04-30T18:45:52Z</time>
      </trkpt>
      <trkpt lat="60.0129525" lon="17.7323985">
        <ele>24.1703</ele>
        <time>2013-04-30T18:45:53Z</time>
      </trkpt>
      <trkpt lat="60.0128874" lon="17.7324102">
        <ele>24.651</ele>
        <time>2013-04-30T18:45:54Z</time>
      </trkpt>
      <trkpt lat="60.0128225" lon="17.7324239">
        <ele>24.651</ele>
        <time>2013-04-30T18:45:55Z</time>
      </trkpt>
      <trkpt lat="60.0127588" lon="17.7324456">
        <ele>25.1317</ele>
        <time>2013-04-30T18:45:56Z</time>
      </trkpt>
      <trkpt lat="60.0126969" lon="17.7324798">
        <ele>25.6123</ele>
        <time>2013-04-30T18:45:57Z</time>
      </trkpt>
      <trkpt lat="60.0126337" lon="17.7325123">
        <ele>25.6123</ele>
        <time>2013-04-30T18:45:58Z</time>
      </trkpt>
      <trkpt lat="60.0125694" lon="17.73254">
        <ele>26.0929</ele>
        <time>2013-04-30T18:45:59Z</time>
      </trkpt>
      <trkpt lat="60.012506" lon="17.7325641">
        <ele>26.0929</ele>
        <time>2013-04-30T18:46:00Z</time>
      </trkpt>
      <trkpt lat="60.0124404" lon="17.7325819">
        <ele>27.0543</ele>
        <time>2013-04-30T18:46:01Z</time>
      </trkpt>
      <trkpt lat="60.012376" lon="17.7325989">
        <ele>27.0543</ele>
        <time>2013-04-30T18:46:02Z</time>
      </trkpt>
      <trkpt lat="60.0123155" lon="17.7326181">
        <ele>27.5349</ele>
        <time>2013-04-30T18:46:03Z</time>
      </trkpt>
      <trkpt lat="60.0122564" lon="17.7326378">
        <ele>28.0155</ele>
        <time>2013-04-30T18:46:04Z</time>
      </trkpt>
      <trkpt lat="60.012198" lon="17.732657">
        <ele>28.4962</ele>
        <time>2013-04-30T18:46:05Z</time>
      </trkpt>
      <trkpt lat="60.0121382" lon="17.7326873">
        <ele>28.4962</ele>
        <time>2013-04-30T18:46:06Z</time>
      </trkpt>
      <trkpt lat="60.0120798" lon="17.7327094">
        <ele>28.9769</ele>
        <time>2013-04-30T18:46:07Z</time>
      </trkpt>
      <trkpt lat="60.0120213" lon="17.7327308">
        <ele>28.9769</ele>
        <time>2013-04-30T18:46:08Z</time>
      </trkpt>
      <trkpt lat="60.0119642" lon="17.7327521">
        <ele>29.4575</ele>
        <time>2013-04-30T18:46:09Z</time>
      </trkpt>
      <trkpt lat="60.0119067" lon="17.7327694">
        <ele>29.4575</ele>
        <time>2013-04-30T18:46:10Z</time>
      </trkpt>
      <trkpt lat="60.0118487" lon="17.7327813">
        <ele>29.9381</ele>
        <time>2013-04-30T18:46:11Z</time>
      </trkpt>
      <trkpt lat="60.0117897" lon="17.7327878">
        <ele>30.4188</ele>
        <time>2013-04-30T18:46:12Z</time>
      </trkpt>
      <trkpt lat="60.0117302" lon="17.7327871">
        <ele>29.9381</ele>
        <time>2013-04-30T18:46:13Z</time>
      </trkpt>
      <trkpt lat="60.0116701" lon="17.7327803">
        <ele>29.9381</ele>
        <time>2013-04-30T18:46:14Z</time>
      </trkpt>
      <trkpt lat="60.0116096" lon="17.7327686">
        <ele>29.9381</ele>
        <time>2013-04-30T18:46:15Z</time>
      </trkpt>
      <trkpt lat="60.0115495" lon="17.7327541">
        <ele>29.9381</ele>
        <time>2013-04-30T18:46:16Z</time>
      </trkpt>
      <trkpt lat="60.0114889" lon="17.7327391">
        <ele>29.4575</ele>
        <time>2013-04-30T18:46:17Z</time>
      </trkpt>
      <trkpt lat="60.0114277" lon="17.7327212">
        <ele>29.4575</ele>
        <time>2013-04-30T18:46:18Z</time>
      </trkpt>
      <trkpt lat="60.011366" lon="17.7327005">
        <ele>29.4575</ele>
        <time>2013-04-30T18:46:19Z</time>
      </trkpt>
      <trkpt lat="60.0113035" lon="17.7326792">
        <ele>29.4575</ele>
        <time>2013-04-30T18:46:20Z</time>
      </trkpt>
      <trkpt lat="60.0112406" lon="17.7326559">
        <ele>29.4575</ele>
        <time>2013-04-30T18:46:21Z</time>
      </trkpt>
      <trkpt lat="60.0111769" lon="17.732629">
        <ele>29.4575</ele>
        <time>2013-04-30T18:46:22Z</time>
      </trkpt>
      <trkpt lat="60.0111136" lon="17.7325974">
        <ele>29.4575</ele>
        <time>2013-04-30T18:46:23Z</time>
      </trkpt>
      <trkpt lat="60.011052" lon="17.7325616">
        <ele>29.4575</ele>
        <time>2013-04-30T18:46:24Z</time>
      </trkpt>
      <trkpt lat="60.0109912" lon="17.7325207">
        <ele>28.9769</ele>
        <time>2013-04-30T18:46:25Z</time>
      </trkpt>
      <trkpt lat="60.0109308" lon="17.7324777">
        <ele>28.9769</ele>
        <time>2013-04-30T18:46:26Z</time>
      </trkpt>
      <trkpt lat="60.0108709" lon="17.7324322">
        <ele>28.9769</ele>
        <time>2013-04-30T18:46:27Z</time>
      </trkpt>
      <trkpt lat="60.0108123" lon="17.7323814">
        <ele>28.9769</ele>
        <time>2013-04-30T18:46:28Z</time>
      </trkpt>
      <trkpt lat="60.0107539" lon="17.7323281">
        <ele>28.9769</ele>
        <time>2013-04-30T18:46:29Z</time>
      </trkpt>
      <trkpt lat="60.0106959" lon="17.732271">
        <ele>28.9769</ele>
        <time>2013-04-30T18:46:30Z</time>
      </trkpt>
      <trkpt lat="60.0106394" lon="17.7322071">
        <ele>28.9769</ele>
        <time>2013-04-30T18:46:31Z</time>
      </trkpt>
      <trkpt lat="60.0105844" lon="17.7321373">
        <ele>28.9769</ele>
        <time>2013-04-30T18:46:32Z</time>
      </trkpt>
      <trkpt lat="60.0105299" lon="17.7320639">
        <ele>28.9769</ele>
        <time>2013-04-30T18:46:33Z</time>
      </trkpt>
      <trkpt lat="60.0104746" lon="17.7319911">
        <ele>28.9769</ele>
        <time>2013-04-30T18:46:34Z</time>
      </trkpt>
      <trkpt lat="60.010419" lon="17.7319172">
        <ele>28.9769</ele>
        <time>2013-04-30T18:46:35Z</time>
      </trkpt>
      <trkpt lat="60.0103637" lon="17.73184">
        <ele>28.9769</ele>
        <time>2013-04-30T18:46:36Z</time>
      </trkpt>
      <trkpt lat="60.0103078" lon="17.7317634">
        <ele>29.4575</ele>
        <time>2013-04-30T18:46:37Z</time>
      </trkpt>
      <trkpt lat="60.0102514" lon="17.7316872">
        <ele>28.9769</ele>
        <time>2013-04-30T18:46:38Z</time>
      </trkpt>
      <trkpt lat="60.0101944" lon="17.7316093">
        <ele>29.4575</ele>
        <time>2013-04-30T18:46:39Z</time>
      </trkpt>
      <trkpt lat="60.0101354" lon="17.7315294">
        <ele>29.4575</ele>
        <time>2013-04-30T18:46:40Z</time>
      </trkpt>
      <trkpt lat="60.0100763" lon="17.7314474">
        <ele>29.4575</ele>
        <time>2013-04-30T18:46:41Z</time>
      </trkpt>
      <trkpt lat="60.0100172" lon="17.731364">
        <ele>29.4575</ele>
        <time>2013-04-30T18:46:42Z</time>
      </trkpt>
      <trkpt lat="60.0099581" lon="17.7312796">
        <ele>29.9381</ele>
        <time>2013-04-30T18:46:43Z</time>
      </trkpt>
      <trkpt lat="60.0098987" lon="17.731195">
        <ele>29.9381</ele>
        <time>2013-04-30T18:46:44Z</time>
      </trkpt>
      <trkpt lat="60.0098388" lon="17.7311127">
        <ele>29.9381</ele>
        <time>2013-04-30T18:46:45Z</time>
      </trkpt>
      <trkpt lat="60.0097778" lon="17.7310334">
        <ele>29.9381</ele>
        <time>2013-04-30T18:46:46Z</time>
      </trkpt>
      <trkpt lat="60.0097165" lon="17.7309544">
        <ele>29.9381</ele>
        <time>2013-04-30T18:46:47Z</time>
      </trkpt>
      <trkpt lat="60.0096554" lon="17.7308766">
        <ele>29.9381</ele>
        <time>2013-04-30T18:46:48Z</time>
      </trkpt>
      <trkpt lat="60.0095936" lon="17.7308009">
        <ele>29.9381</ele>
        <time>2013-04-30T18:46:49Z</time>
      </trkpt>
      <trkpt lat="60.0095314" lon="17.7307304">
        <ele>29.9381</ele>
        <time>2013-04-30T18:46:50Z</time>
      </trkpt>
      <trkpt lat="60.0094689" lon="17.7306615">
        <ele>29.9381</ele>
        <time>2013-04-30T18:46:51Z</time>
      </trkpt>
      <trkpt lat="60.0094054" lon="17.7305902">
        <ele>29.9381</ele>
        <time>2013-04-30T18:46:52Z</time>
      </trkpt>
      <trkpt lat="60.0093422" lon="17.7305237">
        <ele>29.9381</ele>
        <time>2013-04-30T18:46:53Z</time>
      </trkpt>
      <trkpt lat="60.0092795" lon="17.7304632">
        <ele>29.9381</ele>
        <time>2013-04-30T18:46:54Z</time>
      </trkpt>
      <trkpt lat="60.0092152" lon="17.7304086">
        <ele>29.9381</ele>
        <time>2013-04-30T18:46:55Z</time>
      </trkpt>
      <trkpt lat="60.0091481" lon="17.730354">
        <ele>29.4575</ele>
        <time>2013-04-30T18:46:56Z</time>
      </trkpt>
      <trkpt lat="60.0090838" lon="17.7303031">
        <ele>29.4575</ele>
        <time>2013-04-30T18:46:57Z</time>
      </trkpt>
      <trkpt lat="60.0090196" lon="17.7302555">
        <ele>29.4575</ele>
        <time>2013-04-30T18:46:58Z</time>
      </trkpt>
      <trkpt lat="60.0089553" lon="17.7302118">
        <ele>28.9769</ele>
        <time>2013-04-30T18:46:59Z</time>
      </trkpt>
      <trkpt lat="60.0088911" lon="17.7301686">
        <ele>28.9769</ele>
        <time>2013-04-30T18:47:00Z</time>
      </trkpt>
      <trkpt lat="60.0088258" lon="17.7301279">
        <ele>28.4962</ele>
        <time>2013-04-30T18:47:01Z</time>
      </trkpt>
      <trkpt lat="60.0087611" lon="17.7300923">
        <ele>28.4962</ele>
        <time>2013-04-30T18:47:02Z</time>
      </trkpt>
      <trkpt lat="60.0086968" lon="17.7300612">
        <ele>28.0155</ele>
        <time>2013-04-30T18:47:03Z</time>
      </trkpt>
      <trkpt lat="60.0086346" lon="17.730037">
        <ele>28.0155</ele>
        <time>2013-04-30T18:47:04Z</time>
      </trkpt>
      <trkpt lat="60.0085788" lon="17.730027">
        <ele>27.5349</ele>
        <time>2013-04-30T18:47:05Z</time>
      </trkpt>
      <trkpt lat="60.0085149" lon="17.7299864">
        <ele>27.5349</ele>
        <time>2013-04-30T18:47:06Z</time>
      </trkpt>
      <trkpt lat="60.0084569" lon="17.7299931">
        <ele>27.0543</ele>
        <time>2013-04-30T18:47:07Z</time>
      </trkpt>
      <trkpt lat="60.0083973" lon="17.729974">
        <ele>27.5349</ele>
        <time>2013-04-30T18:47:08Z</time>
      </trkpt>
      <trkpt lat="60.008336" lon="17.7299562">
        <ele>26.5736</ele>
        <time>2013-04-30T18:47:09Z</time>
      </trkpt>
      <trkpt lat="60.0082663" lon="17.7299256">
        <ele>26.0929</ele>
        <time>2013-04-30T18:47:10Z</time>
      </trkpt>
      <trkpt lat="60.0082025" lon="17.7299013">
        <ele>27.0543</ele>
        <time>2013-04-30T18:47:11Z</time>
      </trkpt>
      <trkpt lat="60.0081404" lon="17.7298833">
        <ele>27.0543</ele>
        <time>2013-04-30T18:47:12Z</time>
      </trkpt>
      <trkpt lat="60.0080802" lon="17.7298684">
        <ele>27.5349</ele>
        <time>2013-04-30T18:47:13Z</time>
      </trkpt>
      <trkpt lat="60.0080234" lon="17.729858">
        <ele>27.5349</ele>
        <time>2013-04-30T18:47:14Z</time>
      </trkpt>
      <trkpt lat="60.007969" lon="17.7298556">
        <ele>28.0155</ele>
        <time>2013-04-30T18:47:15Z</time>
      </trkpt>
      <trkpt lat="60.0079181" lon="17.7298571">
        <ele>28.4962</ele>
        <time>2013-04-30T18:47:16Z</time>
      </trkpt>
      <trkpt lat="60.0078618" lon="17.7298631">
        <ele>28.9769</ele>
        <time>2013-04-30T18:47:17Z</time>
      </trkpt>
      <trkpt lat="60.0077969" lon="17.7298623">
        <ele>29.4575</ele>
        <time>2013-04-30T18:47:18Z</time>
      </trkpt>
      <trkpt lat="60.0077328" lon="17.7298602">
        <ele>28.9769</ele>
        <time>2013-04-30T18:47:19Z</time>
      </trkpt>
      <trkpt lat="60.0076566" lon="17.7299149">
        <ele>29.4575</ele>
        <time>2013-04-30T18:47:20Z</time>
      </trkpt>
      <trkpt lat="60.0076017" lon="17.7299">
        <ele>29.9381</ele>
        <time>2013-04-30T18:47:21Z</time>
      </trkpt>
      <trkpt lat="60.0075412" lon="17.7298855">
        <ele>29.9381</ele>
        <time>2013-04-30T18:47:22Z</time>
      </trkpt>
      <trkpt lat="60.00748" lon="17.729901">
        <ele>29.4575</ele>
        <time>2013-04-30T18:47:23Z</time>
      </trkpt>
      <trkpt lat="60.0074166" lon="17.7298928">
        <ele>26.5736</ele>
        <time>2013-04-30T18:47:24Z</time>
      </trkpt>
      <trkpt lat="60.007354" lon="17.7299094">
        <ele>26.0929</ele>
        <time>2013-04-30T18:47:25Z</time>
      </trkpt>
      <trkpt lat="60.007297" lon="17.7299274">
        <ele>26.0929</ele>
        <time>2013-04-30T18:47:26Z</time>
      </trkpt>
      <trkpt lat="60.0072432" lon="17.7299581">
        <ele>27.0543</ele>
        <time>2013-04-30T18:47:27Z</time>
      </trkpt>
      <trkpt lat="60.0071877" lon="17.7299836">
        <ele>28.4962</ele>
        <time>2013-04-30T18:47:28Z</time>
      </trkpt>
      <trkpt lat="60.0071313" lon="17.7300168">
        <ele>28.9769</ele>
        <time>2013-04-30T18:47:29Z</time>
      </trkpt>
      <trkpt lat="60.007068" lon="17.7300654">
        <ele>29.4575</ele>
        <time>2013-04-30T18:47:30Z</time>
      </trkpt>
      <trkpt lat="60.0070071" lon="17.7301136">
        <ele>29.4575</ele>
        <time>2013-04-30T18:47:31Z</time>
      </trkpt>
      <trkpt lat="60.006948" lon="17.7301602">
        <ele>29.4575</ele>
        <time>2013-04-30T18:47:32Z</time>
      </trkpt>
      <trkpt lat="60.0068864" lon="17.7301965">
        <ele>29.9381</ele>
        <time>2013-04-30T18:47:33Z</time>
      </trkpt>
      <trkpt lat="60.0068284" lon="17.7302353">
        <ele>29.9381</ele>
        <time>2013-04-30T18:47:34Z</time>
      </trkpt>
      <trkpt lat="60.0067765" lon="17.7302845">
        <ele>31.3801</ele>
        <time>2013-04-30T18:47:35Z</time>
      </trkpt>
      <trkpt lat="60.0067252" lon="17.7303423">
        <ele>33.3029</ele>
        <time>2013-04-30T18:47:36Z</time>
      </trkpt>
      <trkpt lat="60.0066751" lon="17.7303896">
        <ele>33.3029</ele>
        <time>2013-04-30T18:47:37Z</time>
      </trkpt>
      <trkpt lat="60.0066259" lon="17.7304402">
        <ele>33.7834</ele>
        <time>2013-04-30T18:47:38Z</time>
      </trkpt>
      <trkpt lat="60.0065787" lon="17.7304911">
        <ele>34.2642</ele>
        <time>2013-04-30T18:47:39Z</time>
      </trkpt>
      <trkpt lat="60.0065293" lon="17.7305422">
        <ele>35.2255</ele>
        <time>2013-04-30T18:47:40Z</time>
      </trkpt>
      <trkpt lat="60.0064808" lon="17.7305928">
        <ele>36.1868</ele>
        <time>2013-04-30T18:47:41Z</time>
      </trkpt>
      <trkpt lat="60.006431" lon="17.7306396">
        <ele>36.6675</ele>
        <time>2013-04-30T18:47:42Z</time>
      </trkpt>
      <trkpt lat="60.0063826" lon="17.7306896">
        <ele>37.6287</ele>
        <time>2013-04-30T18:47:43Z</time>
      </trkpt>
      <trkpt lat="60.0063355" lon="17.7307382">
        <ele>37.6287</ele>
        <time>2013-04-30T18:47:44Z</time>
      </trkpt>
      <trkpt lat="60.006288" lon="17.7307896">
        <ele>38.5901</ele>
        <time>2013-04-30T18:47:45Z</time>
      </trkpt>
      <trkpt lat="60.0062394" lon="17.7308309">
        <ele>39.5513</ele>
        <time>2013-04-30T18:47:46Z</time>
      </trkpt>
      <trkpt lat="60.0061937" lon="17.7308715">
        <ele>40.0321</ele>
        <time>2013-04-30T18:47:47Z</time>
      </trkpt>
      <trkpt lat="60.006144" lon="17.7309134">
        <ele>40.0321</ele>
        <time>2013-04-30T18:47:48Z</time>
      </trkpt>
      <trkpt lat="60.0060941" lon="17.7309553">
        <ele>40.0321</ele>
        <time>2013-04-30T18:47:49Z</time>
      </trkpt>
      <trkpt lat="60.0060451" lon="17.7309988">
        <ele>40.0321</ele>
        <time>2013-04-30T18:47:50Z</time>
      </trkpt>
      <trkpt lat="60.005996" lon="17.7310447">
        <ele>40.5128</ele>
        <time>2013-04-30T18:47:51Z</time>
      </trkpt>
      <trkpt lat="60.0059473" lon="17.7310925">
        <ele>40.5128</ele>
        <time>2013-04-30T18:47:52Z</time>
      </trkpt>
      <trkpt lat="60.0058972" lon="17.7311388">
        <ele>40.5128</ele>
        <time>2013-04-30T18:47:53Z</time>
      </trkpt>
      <trkpt lat="60.0058472" lon="17.7311837">
        <ele>40.5128</ele>
        <time>2013-04-30T18:47:54Z</time>
      </trkpt>
      <trkpt lat="60.005798" lon="17.7312289">
        <ele>40.0321</ele>
        <time>2013-04-30T18:47:55Z</time>
      </trkpt>
      <trkpt lat="60.0057491" lon="17.7312776">
        <ele>40.0321</ele>
        <time>2013-04-30T18:47:56Z</time>
      </trkpt>
      <trkpt lat="60.005699" lon="17.7313277">
        <ele>40.5128</ele>
        <time>2013-04-30T18:47:57Z</time>
      </trkpt>
      <trkpt lat="60.0056482" lon="17.7313765">
        <ele>40.9934</ele>
        <time>2013-04-30T18:47:58Z</time>
      </trkpt>
      <trkpt lat="60.0055973" lon="17.7314244">
        <ele>41.474</ele>
        <time>2013-04-30T18:47:59Z</time>
      </trkpt>
      <trkpt lat="60.0055453" lon="17.7314757">
        <ele>41.474</ele>
        <time>2013-04-30T18:48:00Z</time>
      </trkpt>
      <trkpt lat="60.0054955" lon="17.7315266">
        <ele>41.9547</ele>
        <time>2013-04-30T18:48:01Z</time>
      </trkpt>
      <trkpt lat="60.0054477" lon="17.7315774">
        <ele>42.4354</ele>
        <time>2013-04-30T18:48:02Z</time>
      </trkpt>
      <trkpt lat="60.0053996" lon="17.7316218">
        <ele>42.4354</ele>
        <time>2013-04-30T18:48:03Z</time>
      </trkpt>
      <trkpt lat="60.0053499" lon="17.7316561">
        <ele>41.9547</ele>
        <time>2013-04-30T18:48:04Z</time>
      </trkpt>
      <trkpt lat="60.0053018" lon="17.7316826">
        <ele>41.9547</ele>
        <time>2013-04-30T18:48:05Z</time>
      </trkpt>
      <trkpt lat="60.0052557" lon="17.7317081">
        <ele>41.474</ele>
        <time>2013-04-30T18:48:06Z</time>
      </trkpt>
      <trkpt lat="60.0052114" lon="17.7317306">
        <ele>41.474</ele>
        <time>2013-04-30T18:48:07Z</time>
      </trkpt>
      <trkpt lat="60.0051613" lon="17.7317395">
        <ele>40.9934</ele>
        <time>2013-04-30T18:48:08Z</time>
      </trkpt>
      <trkpt lat="60.0051158" lon="17.7317255">
        <ele>40.9934</ele>
        <time>2013-04-30T18:48:09Z</time>
      </trkpt>
      <trkpt lat="60.0050722" lon="17.7316788">
        <ele>40.0321</ele>
        <time>2013-04-30T18:48:10Z</time>
      </trkpt>
      <trkpt lat="60.0050315" lon="17.7316235">
        <ele>39.5513</ele>
        <time>2013-04-30T18:48:11Z</time>
      </trkpt>
      <trkpt lat="60.0050052" lon="17.7315628">
        <ele>39.0707</ele>
        <time>2013-04-30T18:48:12Z</time>
      </trkpt>
      <trkpt lat="60.0049697" lon="17.7314748">
        <ele>38.5901</ele>
        <time>2013-04-30T18:48:13Z</time>
      </trkpt>
      <trkpt lat="60.0049401" lon="17.731382">
        <ele>37.6287</ele>
        <time>2013-04-30T18:48:14Z</time>
      </trkpt>
      <trkpt lat="60.0049122" lon="17.7312868">
        <ele>37.1481</ele>
        <time>2013-04-30T18:48:15Z</time>
      </trkpt>
      <trkpt lat="60.0048826" lon="17.7311863">
        <ele>37.1481</ele>
        <time>2013-04-30T18:48:16Z</time>
      </trkpt>
      <trkpt lat="60.004851" lon="17.7310846">
        <ele>36.6675</ele>
        <time>2013-04-30T18:48:17Z</time>
      </trkpt>
      <trkpt lat="60.0048152" lon="17.730976">
        <ele>35.7061</ele>
        <time>2013-04-30T18:48:18Z</time>
      </trkpt>
      <trkpt lat="60.0047794" lon="17.7308661">
        <ele>35.2255</ele>
        <time>2013-04-30T18:48:19Z</time>
      </trkpt>
      <trkpt lat="60.0047509" lon="17.7307635">
        <ele>34.7449</ele>
        <time>2013-04-30T18:48:20Z</time>
      </trkpt>
      <trkpt lat="60.0047217" lon="17.7306606">
        <ele>34.2642</ele>
        <time>2013-04-30T18:48:21Z</time>
      </trkpt>
      <trkpt lat="60.004689" lon="17.7305507">
        <ele>33.3029</ele>
        <time>2013-04-30T18:48:22Z</time>
      </trkpt>
      <trkpt lat="60.0046556" lon="17.7304434">
        <ele>32.8223</ele>
        <time>2013-04-30T18:48:23Z</time>
      </trkpt>
      <trkpt lat="60.0046241" lon="17.7303435">
        <ele>32.8223</ele>
        <time>2013-04-30T18:48:24Z</time>
      </trkpt>
      <trkpt lat="60.0045846" lon="17.7302399">
        <ele>32.3416</ele>
        <time>2013-04-30T18:48:25Z</time>
      </trkpt>
      <trkpt lat="60.0045412" lon="17.7301361">
        <ele>31.8607</ele>
        <time>2013-04-30T18:48:26Z</time>
      </trkpt>
      <trkpt lat="60.0045039" lon="17.7300343">
        <ele>31.3801</ele>
        <time>2013-04-30T18:48:27Z</time>
      </trkpt>
      <trkpt lat="60.0044693" lon="17.7299344">
        <ele>30.4188</ele>
        <time>2013-04-30T18:48:28Z</time>
      </trkpt>
      <trkpt lat="60.0044357" lon="17.7298358">
        <ele>29.9381</ele>
        <time>2013-04-30T18:48:29Z</time>
      </trkpt>
      <trkpt lat="60.0044021" lon="17.7297306">
        <ele>28.9769</ele>
        <time>2013-04-30T18:48:30Z</time>
      </trkpt>
      <trkpt lat="60.0043684" lon="17.7296179">
        <ele>28.4962</ele>
        <time>2013-04-30T18:48:31Z</time>
      </trkpt>
      <trkpt lat="60.0043352" lon="17.7295036">
        <ele>28.0155</ele>
        <time>2013-04-30T18:48:32Z</time>
      </trkpt>
      <trkpt lat="60.0043029" lon="17.7293904">
        <ele>27.0543</ele>
        <time>2013-04-30T18:48:33Z</time>
      </trkpt>
      <trkpt lat="60.0042728" lon="17.7292755">
        <ele>26.5736</ele>
        <time>2013-04-30T18:48:34Z</time>
      </trkpt>
      <trkpt lat="60.004241" lon="17.7291573">
        <ele>26.0929</ele>
        <time>2013-04-30T18:48:35Z</time>
      </trkpt>
      <trkpt lat="60.0042076" lon="17.7290467">
        <ele>25.6123</ele>
        <time>2013-04-30T18:48:36Z</time>
      </trkpt>
      <trkpt lat="60.0041635" lon="17.7289511">
        <ele>25.6123</ele>
        <time>2013-04-30T18:48:37Z</time>
      </trkpt>
      <trkpt lat="60.0041094" lon="17.7288786">
        <ele>25.1317</ele>
        <time>2013-04-30T18:48:38Z</time>
      </trkpt>
      <trkpt lat="60.004047" lon="17.7288434">
        <ele>25.1317</ele>
        <time>2013-04-30T18:48:39Z</time>
      </trkpt>
      <trkpt lat="60.0039755" lon="17.7288439">
        <ele>25.1317</ele>
        <time>2013-04-30T18:48:40Z</time>
      </trkpt>
      <trkpt lat="60.0039093" lon="17.728878">
        <ele>25.1317</ele>
        <time>2013-04-30T18:48:41Z</time>
      </trkpt>
      <trkpt lat="60.0038481" lon="17.7289278">
        <ele>24.651</ele>
        <time>2013-04-30T18:48:42Z</time>
      </trkpt>
      <trkpt lat="60.0037927" lon="17.7289961">
        <ele>24.1703</ele>
        <time>2013-04-30T18:48:43Z</time>
      </trkpt>
      <trkpt lat="60.0037416" lon="17.7290877">
        <ele>25.1317</ele>
        <time>2013-04-30T18:48:44Z</time>
      </trkpt>
      <trkpt lat="60.0036907" lon="17.7291853">
        <ele>25.6123</ele>
        <time>2013-04-30T18:48:45Z</time>
      </trkpt>
      <trkpt lat="60.0036379" lon="17.7292883">
        <ele>26.5736</ele>
        <time>2013-04-30T18:48:46Z</time>
      </trkpt>
      <trkpt lat="60.0035861" lon="17.7293905">
        <ele>27.5349</ele>
        <time>2013-04-30T18:48:47Z</time>
      </trkpt>
      <trkpt lat="60.0035362" lon="17.7294836">
        <ele>28.4962</ele>
        <time>2013-04-30T18:48:48Z</time>
      </trkpt>
      <trkpt lat="60.0034861" lon="17.7295743">
        <ele>28.4962</ele>
        <time>2013-04-30T18:48:49Z</time>
      </trkpt>
      <trkpt lat="60.0034389" lon="17.7296572">
        <ele>28.4962</ele>
        <time>2013-04-30T18:48:50Z</time>
      </trkpt>
      <trkpt lat="60.0033929" lon="17.729737">
        <ele>28.9769</ele>
        <time>2013-04-30T18:48:51Z</time>
      </trkpt>
      <trkpt lat="60.0033493" lon="17.7298219">
        <ele>28.9769</ele>
        <time>2013-04-30T18:48:52Z</time>
      </trkpt>
      <trkpt lat="60.0033054" lon="17.7299084">
        <ele>29.4575</ele>
        <time>2013-04-30T18:48:53Z</time>
      </trkpt>
      <trkpt lat="60.0032638" lon="17.7299964">
        <ele>28.4962</ele>
        <time>2013-04-30T18:48:54Z</time>
      </trkpt>
      <trkpt lat="60.0032177" lon="17.7300902">
        <ele>28.9769</ele>
        <time>2013-04-30T18:48:55Z</time>
      </trkpt>
      <trkpt lat="60.0031691" lon="17.7301796">
        <ele>28.9769</ele>
        <time>2013-04-30T18:48:56Z</time>
      </trkpt>
      <trkpt lat="60.0031183" lon="17.7302678">
        <ele>28.9769</ele>
        <time>2013-04-30T18:48:57Z</time>
      </trkpt>
      <trkpt lat="60.003067" lon="17.7303529">
        <ele>29.4575</ele>
        <time>2013-04-30T18:48:58Z</time>
      </trkpt>
      <trkpt lat="60.0030109" lon="17.7304476">
        <ele>29.4575</ele>
        <time>2013-04-30T18:48:59Z</time>
      </trkpt>
      <trkpt lat="60.0029589" lon="17.7305345">
        <ele>29.4575</ele>
        <time>2013-04-30T18:49:00Z</time>
      </trkpt>
      <trkpt lat="60.0029085" lon="17.7306238">
        <ele>29.4575</ele>
        <time>2013-04-30T18:49:01Z</time>
      </trkpt>
      <trkpt lat="60.00286" lon="17.7307139">
        <ele>29.4575</ele>
        <time>2013-04-30T18:49:02Z</time>
      </trkpt>
      <trkpt lat="60.0028126" lon="17.7308138">
        <ele>29.4575</ele>
        <time>2013-04-30T18:49:03Z</time>
      </trkpt>
      <trkpt lat="60.0027667" lon="17.7309225">
        <ele>29.4575</ele>
        <time>2013-04-30T18:49:04Z</time>
      </trkpt>
      <trkpt lat="60.0027222" lon="17.7310362">
        <ele>30.4188</ele>
        <time>2013-04-30T18:49:05Z</time>
      </trkpt>
      <trkpt lat="60.0026791" lon="17.7311464">
        <ele>30.4188</ele>
        <time>2013-04-30T18:49:06Z</time>
      </trkpt>
      <trkpt lat="60.0026379" lon="17.7312589">
        <ele>30.4188</ele>
        <time>2013-04-30T18:49:07Z</time>
      </trkpt>
      <trkpt lat="60.0025991" lon="17.7313692">
        <ele>30.4188</ele>
        <time>2013-04-30T18:49:08Z</time>
      </trkpt>
      <trkpt lat="60.0025618" lon="17.7314843">
        <ele>30.4188</ele>
        <time>2013-04-30T18:49:09Z</time>
      </trkpt>
      <trkpt lat="60.0025264" lon="17.7316006">
        <ele>30.4188</ele>
        <time>2013-04-30T18:49:10Z</time>
      </trkpt>
      <trkpt lat="60.0024895" lon="17.7317241">
        <ele>31.3801</ele>
        <time>2013-04-30T18:49:11Z</time>
      </trkpt>
      <trkpt lat="60.0024518" lon="17.7318438">
        <ele>32.3416</ele>
        <time>2013-04-30T18:49:12Z</time>
      </trkpt>
      <trkpt lat="60.0024185" lon="17.7319613">
        <ele>31.8607</ele>
        <time>2013-04-30T18:49:13Z</time>
      </trkpt>
      <trkpt lat="60.0023903" lon="17.7320842">
        <ele>32.8223</ele>
        <time>2013-04-30T18:49:14Z</time>
      </trkpt>
      <trkpt lat="60.0023666" lon="17.7321975">
        <ele>32.3416</ele>
        <time>2013-04-30T18:49:15Z</time>
      </trkpt>
      <trkpt lat="60.0023204" lon="17.7324264">
        <ele>31.8607</ele>
        <time>2013-04-30T18:49:16Z</time>
      </trkpt>
      <trkpt lat="60.0022968" lon="17.7325558">
        <ele>31.8607</ele>
        <time>2013-04-30T18:49:17Z</time>
      </trkpt>
      <trkpt lat="60.0022751" lon="17.7326554">
        <ele>30.4188</ele>
        <time>2013-04-30T18:49:18Z</time>
      </trkpt>
      <trkpt lat="60.0022559" lon="17.7327646">
        <ele>30.4188</ele>
        <time>2013-04-30T18:49:19Z</time>
      </trkpt>
      <trkpt lat="60.0022507" lon="17.7328688">
        <ele>29.9381</ele>
        <time>2013-04-30T18:49:20Z</time>
      </trkpt>
      <trkpt lat="60.002238" lon="17.7330289">
        <ele>29.9381</ele>
        <time>2013-04-30T18:49:21Z</time>
      </trkpt>
      <trkpt lat="60.0022388" lon="17.7331293">
        <ele>30.4188</ele>
        <time>2013-04-30T18:49:22Z</time>
      </trkpt>
      <trkpt lat="60.0022476" lon="17.7332418">
        <ele>29.9381</ele>
        <time>2013-04-30T18:49:23Z</time>
      </trkpt>
      <trkpt lat="60.0022521" lon="17.7333413">
        <ele>29.9381</ele>
        <time>2013-04-30T18:49:24Z</time>
      </trkpt>
      <trkpt lat="60.0022564" lon="17.7334515">
        <ele>29.9381</ele>
        <time>2013-04-30T18:49:25Z</time>
      </trkpt>
      <trkpt lat="60.0022589" lon="17.7335555">
        <ele>29.4575</ele>
        <time>2013-04-30T18:49:26Z</time>
      </trkpt>
      <trkpt lat="60.0022559" lon="17.7336578">
        <ele>29.4575</ele>
        <time>2013-04-30T18:49:27Z</time>
      </trkpt>
      <trkpt lat="60.0022492" lon="17.7337494">
        <ele>29.4575</ele>
        <time>2013-04-30T18:49:28Z</time>
      </trkpt>
      <trkpt lat="60.0022404" lon="17.7338312">
        <ele>28.9769</ele>
        <time>2013-04-30T18:49:29Z</time>
      </trkpt>
      <trkpt lat="60.002231" lon="17.7339146">
        <ele>28.9769</ele>
        <time>2013-04-30T18:49:30Z</time>
      </trkpt>
      <trkpt lat="60.0022187" lon="17.7340025">
        <ele>28.9769</ele>
        <time>2013-04-30T18:49:31Z</time>
      </trkpt>
      <trkpt lat="60.0022033" lon="17.7340846">
        <ele>29.9381</ele>
        <time>2013-04-30T18:49:32Z</time>
      </trkpt>
      <trkpt lat="60.0021899" lon="17.7341669">
        <ele>33.3029</ele>
        <time>2013-04-30T18:49:33Z</time>
      </trkpt>
      <trkpt lat="60.0021783" lon="17.7342514">
        <ele>32.3416</ele>
        <time>2013-04-30T18:49:34Z</time>
      </trkpt>
      <trkpt lat="60.0021645" lon="17.73434">
        <ele>30.8995</ele>
        <time>2013-04-30T18:49:35Z</time>
      </trkpt>
      <trkpt lat="60.0021512" lon="17.7344291">
        <ele>30.8995</ele>
        <time>2013-04-30T18:49:36Z</time>
      </trkpt>
      <trkpt lat="60.0021362" lon="17.7345186">
        <ele>30.4188</ele>
        <time>2013-04-30T18:49:37Z</time>
      </trkpt>
      <trkpt lat="60.0021185" lon="17.7345952">
        <ele>28.9769</ele>
        <time>2013-04-30T18:49:38Z</time>
      </trkpt>
      <trkpt lat="60.0021005" lon="17.7346706">
        <ele>27.5349</ele>
        <time>2013-04-30T18:49:39Z</time>
      </trkpt>
      <trkpt lat="60.00208" lon="17.7347435">
        <ele>27.0543</ele>
        <time>2013-04-30T18:49:40Z</time>
      </trkpt>
      <trkpt lat="60.0020557" lon="17.7348207">
        <ele>27.0543</ele>
        <time>2013-04-30T18:49:41Z</time>
      </trkpt>
      <trkpt lat="60.0020345" lon="17.7348978">
        <ele>25.6123</ele>
        <time>2013-04-30T18:49:42Z</time>
      </trkpt>
      <trkpt lat="60.0020139" lon="17.7349807">
        <ele>25.1317</ele>
        <time>2013-04-30T18:49:43Z</time>
      </trkpt>
      <trkpt lat="60.0019921" lon="17.7350619">
        <ele>24.651</ele>
        <time>2013-04-30T18:49:44Z</time>
      </trkpt>
      <trkpt lat="60.0019621" lon="17.7351279">
        <ele>24.651</ele>
        <time>2013-04-30T18:49:45Z</time>
      </trkpt>
      <trkpt lat="60.0019327" lon="17.7351894">
        <ele>24.1703</ele>
        <time>2013-04-30T18:49:46Z</time>
      </trkpt>
      <trkpt lat="60.0019067" lon="17.735247">
        <ele>24.1703</ele>
        <time>2013-04-30T18:49:47Z</time>
      </trkpt>
      <trkpt lat="60.0018793" lon="17.7353076">
        <ele>24.651</ele>
        <time>2013-04-30T18:49:48Z</time>
      </trkpt>
      <trkpt lat="60.00185" lon="17.7353636">
        <ele>25.1317</ele>
        <time>2013-04-30T18:49:49Z</time>
      </trkpt>
      <trkpt lat="60.001818" lon="17.7354086">
        <ele>26.0929</ele>
        <time>2013-04-30T18:49:50Z</time>
      </trkpt>
      <trkpt lat="60.0017855" lon="17.7354521">
        <ele>26.5736</ele>
        <time>2013-04-30T18:49:51Z</time>
      </trkpt>
      <trkpt lat="60.0017496" lon="17.7354939">
        <ele>26.0929</ele>
        <time>2013-04-30T18:49:52Z</time>
      </trkpt>
      <trkpt lat="60.0017177" lon="17.7355315">
        <ele>25.6123</ele>
        <time>2013-04-30T18:49:53Z</time>
      </trkpt>
      <trkpt lat="60.0016855" lon="17.7355603">
        <ele>26.0929</ele>
        <time>2013-04-30T18:49:54Z</time>
      </trkpt>
      <trkpt lat="60.0016523" lon="17.735583">
        <ele>26.0929</ele>
        <time>2013-04-30T18:49:55Z</time>
      </trkpt>
      <trkpt lat="60.0016202" lon="17.73561">
        <ele>26.0929</ele>
        <time>2013-04-30T18:49:56Z</time>
      </trkpt>
      <trkpt lat="60.0015895" lon="17.7356389">
        <ele>26.0929</ele>
        <time>2013-04-30T18:49:57Z</time>
      </trkpt>
      <trkpt lat="60.0015612" lon="17.7356671">
        <ele>25.6123</ele>
        <time>2013-04-30T18:49:58Z</time>
      </trkpt>
      <trkpt lat="60.0015343" lon="17.7357042">
        <ele>25.1317</ele>
        <time>2013-04-30T18:49:59Z</time>
      </trkpt>
      <trkpt lat="60.0015005" lon="17.7357499">
        <ele>25.1317</ele>
        <time>2013-04-30T18:50:00Z</time>
      </trkpt>
      <trkpt lat="60.0014637" lon="17.7357928">
        <ele>25.1317</ele>
        <time>2013-04-30T18:50:01Z</time>
      </trkpt>
      <trkpt lat="60.0014249" lon="17.7358379">
        <ele>24.651</ele>
        <time>2013-04-30T18:50:02Z</time>
      </trkpt>
      <trkpt lat="60.0013872" lon="17.7358845">
        <ele>25.1317</ele>
        <time>2013-04-30T18:50:03Z</time>
      </trkpt>
      <trkpt lat="60.0013488" lon="17.7359256">
        <ele>25.6123</ele>
        <time>2013-04-30T18:50:04Z</time>
      </trkpt>
      <trkpt lat="60.0013046" lon="17.7359753">
        <ele>25.6123</ele>
        <time>2013-04-30T18:50:05Z</time>
      </trkpt>
      <trkpt lat="60.001255" lon="17.736023">
        <ele>26.0929</ele>
        <time>2013-04-30T18:50:06Z</time>
      </trkpt>
      <trkpt lat="60.0012028" lon="17.7360722">
        <ele>27.0543</ele>
        <time>2013-04-30T18:50:07Z</time>
      </trkpt>
      <trkpt lat="60.0011473" lon="17.7361306">
        <ele>28.4962</ele>
        <time>2013-04-30T18:50:08Z</time>
      </trkpt>
      <trkpt lat="60.0010919" lon="17.7361797">
        <ele>29.9381</ele>
        <time>2013-04-30T18:50:09Z</time>
      </trkpt>
      <trkpt lat="60.0010365" lon="17.7362277">
        <ele>31.3801</ele>
        <time>2013-04-30T18:50:10Z</time>
      </trkpt>
      <trkpt lat="60.00098" lon="17.7362616">
        <ele>31.8607</ele>
        <time>2013-04-30T18:50:11Z</time>
      </trkpt>
      <trkpt lat="60.0009252" lon="17.7363013">
        <ele>33.3029</ele>
        <time>2013-04-30T18:50:12Z</time>
      </trkpt>
      <trkpt lat="60.0008694" lon="17.7363491">
        <ele>34.7449</ele>
        <time>2013-04-30T18:50:13Z</time>
      </trkpt>
      <trkpt lat="60.0008115" lon="17.736396">
        <ele>34.2642</ele>
        <time>2013-04-30T18:50:14Z</time>
      </trkpt>
      <trkpt lat="60.0007526" lon="17.7364447">
        <ele>34.7449</ele>
        <time>2013-04-30T18:50:15Z</time>
      </trkpt>
      <trkpt lat="60.0006925" lon="17.736494">
        <ele>34.7449</ele>
        <time>2013-04-30T18:50:16Z</time>
      </trkpt>
      <trkpt lat="60.0006338" lon="17.7365462">
        <ele>35.2255</ele>
        <time>2013-04-30T18:50:17Z</time>
      </trkpt>
      <trkpt lat="60.0005752" lon="17.7365999">
        <ele>36.1868</ele>
        <time>2013-04-30T18:50:18Z</time>
      </trkpt>
      <trkpt lat="60.0005159" lon="17.7366494">
        <ele>36.6675</ele>
        <time>2013-04-30T18:50:19Z</time>
      </trkpt>
      <trkpt lat="60.0004587" lon="17.7366941">
        <ele>36.6675</ele>
        <time>2013-04-30T18:50:20Z</time>
      </trkpt>
      <trkpt lat="60.0004017" lon="17.7367299">
        <ele>36.1868</ele>
        <time>2013-04-30T18:50:21Z</time>
      </trkpt>
      <trkpt lat="60.0003461" lon="17.736762">
        <ele>36.1868</ele>
        <time>2013-04-30T18:50:22Z</time>
      </trkpt>
      <trkpt lat="60.0002931" lon="17.7367886">
        <ele>36.1868</ele>
        <time>2013-04-30T18:50:23Z</time>
      </trkpt>
      <trkpt lat="60.000243" lon="17.7368048">
        <ele>36.1868</ele>
        <time>2013-04-30T18:50:24Z</time>
      </trkpt>
      <trkpt lat="60.0001946" lon="17.7368123">
        <ele>36.6675</ele>
        <time>2013-04-30T18:50:25Z</time>
      </trkpt>
      <trkpt lat="60.000146" lon="17.7368221">
        <ele>37.6287</ele>
        <time>2013-04-30T18:50:26Z</time>
      </trkpt>
      <trkpt lat="60.0000978" lon="17.7368274">
        <ele>38.1094</ele>
        <time>2013-04-30T18:50:27Z</time>
      </trkpt>
      <trkpt lat="60.000051" lon="17.736832">
        <ele>38.1094</ele>
        <time>2013-04-30T18:50:28Z</time>
      </trkpt>
      <trkpt lat="60.0000071" lon="17.7368378">
        <ele>38.5901</ele>
        <time>2013-04-30T18:50:29Z</time>
      </trkpt>
      <trkpt lat="59.9999656" lon="17.7368393">
        <ele>39.0707</ele>
        <time>2013-04-30T18:50:30Z</time>
      </trkpt>
      <trkpt lat="59.9999213" lon="17.7368316">
        <ele>39.0707</ele>
        <time>2013-04-30T18:50:31Z</time>
      </trkpt>
      <trkpt lat="59.9998735" lon="17.7368254">
        <ele>38.1094</ele>
        <time>2013-04-30T18:50:32Z</time>
      </trkpt>
      <trkpt lat="59.9998252" lon="17.7368258">
        <ele>38.5901</ele>
        <time>2013-04-30T18:50:33Z</time>
      </trkpt>
      <trkpt lat="59.9997768" lon="17.7368241">
        <ele>38.5901</ele>
        <time>2013-04-30T18:50:34Z</time>
      </trkpt>
      <trkpt lat="59.9997283" lon="17.7368201">
        <ele>39.0707</ele>
        <time>2013-04-30T18:50:35Z</time>
      </trkpt>
      <trkpt lat="59.9996762" lon="17.7368131">
        <ele>39.0707</ele>
        <time>2013-04-30T18:50:36Z</time>
      </trkpt>
      <trkpt lat="59.9996264" lon="17.7368151">
        <ele>40.0321</ele>
        <time>2013-04-30T18:50:37Z</time>
      </trkpt>
      <trkpt lat="59.9995772" lon="17.7368176">
        <ele>39.5513</ele>
        <time>2013-04-30T18:50:38Z</time>
      </trkpt>
      <trkpt lat="59.9995302" lon="17.7368224">
        <ele>39.0707</ele>
        <time>2013-04-30T18:50:39Z</time>
      </trkpt>
      <trkpt lat="59.9994858" lon="17.7368155">
        <ele>38.5901</ele>
        <time>2013-04-30T18:50:40Z</time>
      </trkpt>
      <trkpt lat="59.9994435" lon="17.7368296">
        <ele>38.1094</ele>
        <time>2013-04-30T18:50:41Z</time>
      </trkpt>
      <trkpt lat="59.9993938" lon="17.7368399">
        <ele>37.6287</ele>
        <time>2013-04-30T18:50:42Z</time>
      </trkpt>
      <trkpt lat="59.9993383" lon="17.7368429">
        <ele>37.1481</ele>
        <time>2013-04-30T18:50:43Z</time>
      </trkpt>
      <trkpt lat="59.9992876" lon="17.7368574">
        <ele>36.6675</ele>
        <time>2013-04-30T18:50:44Z</time>
      </trkpt>
      <trkpt lat="59.9992425" lon="17.7368798">
        <ele>35.7061</ele>
        <time>2013-04-30T18:50:45Z</time>
      </trkpt>
      <trkpt lat="59.9991903" lon="17.7368896">
        <ele>35.2255</ele>
        <time>2013-04-30T18:50:46Z</time>
      </trkpt>
      <trkpt lat="59.9991457" lon="17.7369149">
        <ele>33.3029</ele>
        <time>2013-04-30T18:50:47Z</time>
      </trkpt>
      <trkpt lat="59.9991048" lon="17.7369578">
        <ele>32.8223</ele>
        <time>2013-04-30T18:50:48Z</time>
      </trkpt>
      <trkpt lat="59.999056" lon="17.7369751">
        <ele>31.3801</ele>
        <time>2013-04-30T18:50:49Z</time>
      </trkpt>
      <trkpt lat="59.999013" lon="17.7369864">
        <ele>29.9381</ele>
        <time>2013-04-30T18:50:50Z</time>
      </trkpt>
      <trkpt lat="59.9989779" lon="17.736993">
        <ele>29.4575</ele>
        <time>2013-04-30T18:50:51Z</time>
      </trkpt>
      <trkpt lat="59.9988969" lon="17.7369635">
        <ele>31.3801</ele>
        <time>2013-04-30T18:50:52Z</time>
      </trkpt>
      <trkpt lat="59.9988116" lon="17.7369105">
        <ele>29.4575</ele>
        <time>2013-04-30T18:50:53Z</time>
      </trkpt>
      <trkpt lat="59.9987194" lon="17.7368808">
        <ele>28.9769</ele>
        <time>2013-04-30T18:50:54Z</time>
      </trkpt>
      <trkpt lat="59.9986368" lon="17.7368647">
        <ele>27.0543</ele>
        <time>2013-04-30T18:50:55Z</time>
      </trkpt>
      <trkpt lat="59.9985298" lon="17.7368304">
        <ele>26.5736</ele>
        <time>2013-04-30T18:50:56Z</time>
      </trkpt>
      <trkpt lat="59.9983951" lon="17.7367674">
        <ele>27.5349</ele>
        <time>2013-04-30T18:50:57Z</time>
      </trkpt>
      <trkpt lat="59.9982687" lon="17.7367009">
        <ele>30.8995</ele>
        <time>2013-04-30T18:50:58Z</time>
      </trkpt>
      <trkpt lat="59.9981618" lon="17.7366487">
        <ele>31.8607</ele>
        <time>2013-04-30T18:50:59Z</time>
      </trkpt>
      <trkpt lat="59.998076" lon="17.7366325">
        <ele>32.3416</ele>
        <time>2013-04-30T18:51:00Z</time>
      </trkpt>
      <trkpt lat="59.9979989" lon="17.7366183">
        <ele>32.3416</ele>
        <time>2013-04-30T18:51:01Z</time>
      </trkpt>
      <trkpt lat="59.9979299" lon="17.7366125">
        <ele>31.8607</ele>
        <time>2013-04-30T18:51:02Z</time>
      </trkpt>
      <trkpt lat="59.9978671" lon="17.7366113">
        <ele>31.3801</ele>
        <time>2013-04-30T18:51:03Z</time>
      </trkpt>
      <trkpt lat="59.9978056" lon="17.7366143">
        <ele>31.3801</ele>
        <time>2013-04-30T18:51:04Z</time>
      </trkpt>
      <trkpt lat="59.9977415" lon="17.7366017">
        <ele>30.8995</ele>
        <time>2013-04-30T18:51:05Z</time>
      </trkpt>
      <trkpt lat="59.9976797" lon="17.7365944">
        <ele>30.4188</ele>
        <time>2013-04-30T18:51:06Z</time>
      </trkpt>
      <trkpt lat="59.9976155" lon="17.7365928">
        <ele>30.4188</ele>
        <time>2013-04-30T18:51:07Z</time>
      </trkpt>
      <trkpt lat="59.9975508" lon="17.7365882">
        <ele>29.9381</ele>
        <time>2013-04-30T18:51:08Z</time>
      </trkpt>
      <trkpt lat="59.9974845" lon="17.7365845">
        <ele>29.4575</ele>
        <time>2013-04-30T18:51:09Z</time>
      </trkpt>
      <trkpt lat="59.9974119" lon="17.7365703">
        <ele>28.9769</ele>
        <time>2013-04-30T18:51:10Z</time>
      </trkpt>
      <trkpt lat="59.9973385" lon="17.736561">
        <ele>28.4962</ele>
        <time>2013-04-30T18:51:11Z</time>
      </trkpt>
      <trkpt lat="59.9972587" lon="17.7365494">
        <ele>28.0155</ele>
        <time>2013-04-30T18:51:12Z</time>
      </trkpt>
      <trkpt lat="59.9971762" lon="17.7365373">
        <ele>27.5349</ele>
        <time>2013-04-30T18:51:13Z</time>
      </trkpt>
      <trkpt lat="59.9970985" lon="17.7365312">
        <ele>27.0543</ele>
        <time>2013-04-30T18:51:14Z</time>
      </trkpt>
      <trkpt lat="59.9970032" lon="17.7364896">
        <ele>26.5736</ele>
        <time>2013-04-30T18:51:15Z</time>
      </trkpt>
      <trkpt lat="59.9969184" lon="17.736472">
        <ele>25.6123</ele>
        <time>2013-04-30T18:51:16Z</time>
      </trkpt>
      <trkpt lat="59.9968341" lon="17.7364467">
        <ele>25.1317</ele>
        <time>2013-04-30T18:51:17Z</time>
      </trkpt>
      <trkpt lat="59.9967488" lon="17.7363934">
        <ele>27.0543</ele>
        <time>2013-04-30T18:51:18Z</time>
      </trkpt>
      <trkpt lat="59.996665" lon="17.7363445">
        <ele>28.0155</ele>
        <time>2013-04-30T18:51:19Z</time>
      </trkpt>
      <trkpt lat="59.9965769" lon="17.736303">
        <ele>28.9769</ele>
        <time>2013-04-30T18:51:20Z</time>
      </trkpt>
      <trkpt lat="59.9964919" lon="17.7362545">
        <ele>29.9381</ele>
        <time>2013-04-30T18:51:21Z</time>
      </trkpt>
      <trkpt lat="59.996414" lon="17.7362111">
        <ele>31.3801</ele>
        <time>2013-04-30T18:51:22Z</time>
      </trkpt>
      <trkpt lat="59.9963521" lon="17.7361706">
        <ele>31.8607</ele>
        <time>2013-04-30T18:51:23Z</time>
      </trkpt>
      <trkpt lat="59.9962842" lon="17.7361386">
        <ele>32.8223</ele>
        <time>2013-04-30T18:51:24Z</time>
      </trkpt>
      <trkpt lat="59.9962069" lon="17.7361095">
        <ele>33.3029</ele>
        <time>2013-04-30T18:51:25Z</time>
      </trkpt>
      <trkpt lat="59.9961255" lon="17.7360917">
        <ele>33.3029</ele>
        <time>2013-04-30T18:51:26Z</time>
      </trkpt>
      <trkpt lat="59.9960406" lon="17.7360798">
        <ele>33.7834</ele>
        <time>2013-04-30T18:51:27Z</time>
      </trkpt>
      <trkpt lat="59.9959466" lon="17.7360565">
        <ele>35.7061</ele>
        <time>2013-04-30T18:51:28Z</time>
      </trkpt>
      <trkpt lat="59.9958533" lon="17.7360432">
        <ele>37.1481</ele>
        <time>2013-04-30T18:51:29Z</time>
      </trkpt>
      <trkpt lat="59.9957678" lon="17.7360743">
        <ele>38.5901</ele>
        <time>2013-04-30T18:51:30Z</time>
      </trkpt>
      <trkpt lat="59.9956796" lon="17.7360551">
        <ele>39.5513</ele>
        <time>2013-04-30T18:51:31Z</time>
      </trkpt>
      <trkpt lat="59.9955891" lon="17.7361145">
        <ele>40.5128</ele>
        <time>2013-04-30T18:51:32Z</time>
      </trkpt>
      <trkpt lat="59.9955046" lon="17.7361156">
        <ele>40.9934</ele>
        <time>2013-04-30T18:51:33Z</time>
      </trkpt>
      <trkpt lat="59.9954259" lon="17.7361395">
        <ele>41.9547</ele>
        <time>2013-04-30T18:51:34Z</time>
      </trkpt>
      <trkpt lat="59.9953392" lon="17.7361566">
        <ele>42.4354</ele>
        <time>2013-04-30T18:51:35Z</time>
      </trkpt>
      <trkpt lat="59.9952445" lon="17.7361438">
        <ele>42.916</ele>
        <time>2013-04-30T18:51:36Z</time>
      </trkpt>
      <trkpt lat="59.9951543" lon="17.7361131">
        <ele>42.916</ele>
        <time>2013-04-30T18:51:37Z</time>
      </trkpt>
      <trkpt lat="59.9950659" lon="17.7360814">
        <ele>43.3966</ele>
        <time>2013-04-30T18:51:38Z</time>
      </trkpt>
      <trkpt lat="59.9949818" lon="17.7360432">
        <ele>43.3966</ele>
        <time>2013-04-30T18:51:39Z</time>
      </trkpt>
      <trkpt lat="59.9949083" lon="17.7360127">
        <ele>43.3966</ele>
        <time>2013-04-30T18:51:40Z</time>
      </trkpt>
      <trkpt lat="59.9948403" lon="17.7359721">
        <ele>42.916</ele>
        <time>2013-04-30T18:51:41Z</time>
      </trkpt>
      <trkpt lat="59.9947642" lon="17.7359251">
        <ele>42.916</ele>
        <time>2013-04-30T18:51:42Z</time>
      </trkpt>
      <trkpt lat="59.9946866" lon="17.7358722">
        <ele>42.916</ele>
        <time>2013-04-30T18:51:43Z</time>
      </trkpt>
      <trkpt lat="59.9946111" lon="17.7358203">
        <ele>42.4354</ele>
        <time>2013-04-30T18:51:44Z</time>
      </trkpt>
      <trkpt lat="59.9945392" lon="17.7357707">
        <ele>42.4354</ele>
        <time>2013-04-30T18:51:45Z</time>
      </trkpt>
      <trkpt lat="59.9944686" lon="17.7357092">
        <ele>41.9547</ele>
        <time>2013-04-30T18:51:46Z</time>
      </trkpt>
      <trkpt lat="59.9943948" lon="17.7356536">
        <ele>40.5128</ele>
        <time>2013-04-30T18:51:47Z</time>
      </trkpt>
      <trkpt lat="59.9943091" lon="17.7356169">
        <ele>39.5513</ele>
        <time>2013-04-30T18:51:48Z</time>
      </trkpt>
      <trkpt lat="59.9942255" lon="17.735588">
        <ele>38.5901</ele>
        <time>2013-04-30T18:51:49Z</time>
      </trkpt>
      <trkpt lat="59.9941479" lon="17.7355651">
        <ele>37.6287</ele>
        <time>2013-04-30T18:51:50Z</time>
      </trkpt>
      <trkpt lat="59.994077" lon="17.7355646">
        <ele>36.6675</ele>
        <time>2013-04-30T18:51:51Z</time>
      </trkpt>
      <trkpt lat="59.9940032" lon="17.7355631">
        <ele>36.6675</ele>
        <time>2013-04-30T18:51:52Z</time>
      </trkpt>
      <trkpt lat="59.9939261" lon="17.7355463">
        <ele>36.1868</ele>
        <time>2013-04-30T18:51:53Z</time>
      </trkpt>
      <trkpt lat="59.9938506" lon="17.7355282">
        <ele>34.7449</ele>
        <time>2013-04-30T18:51:54Z</time>
      </trkpt>
      <trkpt lat="59.9937816" lon="17.7355214">
        <ele>33.7834</ele>
        <time>2013-04-30T18:51:55Z</time>
      </trkpt>
      <trkpt lat="59.9937181" lon="17.7355193">
        <ele>34.2642</ele>
        <time>2013-04-30T18:51:56Z</time>
      </trkpt>
      <trkpt lat="59.9936512" lon="17.735517">
        <ele>33.3029</ele>
        <time>2013-04-30T18:51:57Z</time>
      </trkpt>
      <trkpt lat="59.9935836" lon="17.7355267">
        <ele>33.3029</ele>
        <time>2013-04-30T18:51:58Z</time>
      </trkpt>
      <trkpt lat="59.9934781" lon="17.7355034">
        <ele>32.8223</ele>
        <time>2013-04-30T18:51:59Z</time>
      </trkpt>
      <trkpt lat="59.9934097" lon="17.7355797">
        <ele>32.3416</ele>
        <time>2013-04-30T18:52:00Z</time>
      </trkpt>
      <trkpt lat="59.993359" lon="17.7356126">
        <ele>30.8995</ele>
        <time>2013-04-30T18:52:01Z</time>
      </trkpt>
      <trkpt lat="59.9932984" lon="17.7356667">
        <ele>31.8607</ele>
        <time>2013-04-30T18:52:02Z</time>
      </trkpt>
      <trkpt lat="59.9932511" lon="17.7357391">
        <ele>32.3416</ele>
        <time>2013-04-30T18:52:03Z</time>
      </trkpt>
      <trkpt lat="59.9932119" lon="17.735837">
        <ele>32.8223</ele>
        <time>2013-04-30T18:52:04Z</time>
      </trkpt>
      <trkpt lat="59.9931643" lon="17.7359111">
        <ele>32.3416</ele>
        <time>2013-04-30T18:52:05Z</time>
      </trkpt>
      <trkpt lat="59.9931187" lon="17.7360095">
        <ele>32.3416</ele>
        <time>2013-04-30T18:52:06Z</time>
      </trkpt>
      <trkpt lat="59.9930734" lon="17.7360945">
        <ele>30.8995</ele>
        <time>2013-04-30T18:52:07Z</time>
      </trkpt>
      <trkpt lat="59.9930275" lon="17.7361852">
        <ele>30.4188</ele>
        <time>2013-04-30T18:52:08Z</time>
      </trkpt>
      <trkpt lat="59.9929915" lon="17.7362719">
        <ele>30.4188</ele>
        <time>2013-04-30T18:52:09Z</time>
      </trkpt>
      <trkpt lat="59.9929543" lon="17.7363597">
        <ele>30.4188</ele>
        <time>2013-04-30T18:52:10Z</time>
      </trkpt>
      <trkpt lat="59.9929128" lon="17.7364374">
        <ele>29.4575</ele>
        <time>2013-04-30T18:52:11Z</time>
      </trkpt>
      <trkpt lat="59.9928689" lon="17.7365063">
        <ele>28.9769</ele>
        <time>2013-04-30T18:52:12Z</time>
      </trkpt>
      <trkpt lat="59.9928286" lon="17.7365829">
        <ele>29.4575</ele>
        <time>2013-04-30T18:52:13Z</time>
      </trkpt>
      <trkpt lat="59.9927808" lon="17.7366465">
        <ele>30.8995</ele>
        <time>2013-04-30T18:52:14Z</time>
      </trkpt>
      <trkpt lat="59.9927401" lon="17.7367031">
        <ele>31.3801</ele>
        <time>2013-04-30T18:52:15Z</time>
      </trkpt>
      <trkpt lat="59.992696" lon="17.7367575">
        <ele>31.3801</ele>
        <time>2013-04-30T18:52:16Z</time>
      </trkpt>
      <trkpt lat="59.9926481" lon="17.7368076">
        <ele>29.9381</ele>
        <time>2013-04-30T18:52:17Z</time>
      </trkpt>
      <trkpt lat="59.9926025" lon="17.7368652">
        <ele>29.4575</ele>
        <time>2013-04-30T18:52:18Z</time>
      </trkpt>
      <trkpt lat="59.9925541" lon="17.7369298">
        <ele>29.9381</ele>
        <time>2013-04-30T18:52:19Z</time>
      </trkpt>
      <trkpt lat="59.9925022" lon="17.7369861">
        <ele>30.8995</ele>
        <time>2013-04-30T18:52:20Z</time>
      </trkpt>
      <trkpt lat="59.9924489" lon="17.7370337">
        <ele>31.3801</ele>
        <time>2013-04-30T18:52:21Z</time>
      </trkpt>
      <trkpt lat="59.9924012" lon="17.7370792">
        <ele>32.3416</ele>
        <time>2013-04-30T18:52:22Z</time>
      </trkpt>
      <trkpt lat="59.9923582" lon="17.7371175">
        <ele>32.3416</ele>
        <time>2013-04-30T18:52:23Z</time>
      </trkpt>
      <trkpt lat="59.9923101" lon="17.7371889">
        <ele>33.7834</ele>
        <time>2013-04-30T18:52:24Z</time>
      </trkpt>
      <trkpt lat="59.9922617" lon="17.7372508">
        <ele>35.2255</ele>
        <time>2013-04-30T18:52:25Z</time>
      </trkpt>
      <trkpt lat="59.9922121" lon="17.7373047">
        <ele>37.6287</ele>
        <time>2013-04-30T18:52:26Z</time>
      </trkpt>
      <trkpt lat="59.9921643" lon="17.7373352">
        <ele>38.1094</ele>
        <time>2013-04-30T18:52:27Z</time>
      </trkpt>
      <trkpt lat="59.9921152" lon="17.7373682">
        <ele>39.0707</ele>
        <time>2013-04-30T18:52:28Z</time>
      </trkpt>
      <trkpt lat="59.9920639" lon="17.7374049">
        <ele>40.0321</ele>
        <time>2013-04-30T18:52:29Z</time>
      </trkpt>
      <trkpt lat="59.9920106" lon="17.7374408">
        <ele>40.9934</ele>
        <time>2013-04-30T18:52:30Z</time>
      </trkpt>
      <trkpt lat="59.9919576" lon="17.7374642">
        <ele>41.474</ele>
        <time>2013-04-30T18:52:31Z</time>
      </trkpt>
      <trkpt lat="59.9919037" lon="17.7374843">
        <ele>41.9547</ele>
        <time>2013-04-30T18:52:32Z</time>
      </trkpt>
      <trkpt lat="59.9918485" lon="17.7375024">
        <ele>42.4354</ele>
        <time>2013-04-30T18:52:33Z</time>
      </trkpt>
      <trkpt lat="59.9917936" lon="17.7375273">
        <ele>44.8386</ele>
        <time>2013-04-30T18:52:34Z</time>
      </trkpt>
      <trkpt lat="59.9917414" lon="17.7375408">
        <ele>45.7999</ele>
        <time>2013-04-30T18:52:35Z</time>
      </trkpt>
      <trkpt lat="59.9916891" lon="17.7375606">
        <ele>47.7225</ele>
        <time>2013-04-30T18:52:36Z</time>
      </trkpt>
      <trkpt lat="59.991636" lon="17.7375791">
        <ele>49.6453</ele>
        <time>2013-04-30T18:52:37Z</time>
      </trkpt>
      <trkpt lat="59.9915805" lon="17.7375858">
        <ele>50.6066</ele>
        <time>2013-04-30T18:52:38Z</time>
      </trkpt>
      <trkpt lat="59.9915258" lon="17.7375899">
        <ele>51.0872</ele>
        <time>2013-04-30T18:52:39Z</time>
      </trkpt>
      <trkpt lat="59.9914582" lon="17.7375827">
        <ele>51.0872</ele>
        <time>2013-04-30T18:52:40Z</time>
      </trkpt>
      <trkpt lat="59.9913932" lon="17.737606">
        <ele>51.5679</ele>
        <time>2013-04-30T18:52:41Z</time>
      </trkpt>
      <trkpt lat="59.9913336" lon="17.7376112">
        <ele>51.5679</ele>
        <time>2013-04-30T18:52:42Z</time>
      </trkpt>
      <trkpt lat="59.9912627" lon="17.7376572">
        <ele>52.0486</ele>
        <time>2013-04-30T18:52:43Z</time>
      </trkpt>
      <trkpt lat="59.9911937" lon="17.7377055">
        <ele>52.5292</ele>
        <time>2013-04-30T18:52:44Z</time>
      </trkpt>
      <trkpt lat="59.9911254" lon="17.7377356">
        <ele>53.0098</ele>
        <time>2013-04-30T18:52:45Z</time>
      </trkpt>
      <trkpt lat="59.9910534" lon="17.7377809">
        <ele>53.4905</ele>
        <time>2013-04-30T18:52:46Z</time>
      </trkpt>
      <trkpt lat="59.9909962" lon="17.7378194">
        <ele>53.9712</ele>
        <time>2013-04-30T18:52:47Z</time>
      </trkpt>
      <trkpt lat="59.99093" lon="17.7378539">
        <ele>53.9712</ele>
        <time>2013-04-30T18:52:48Z</time>
      </trkpt>
      <trkpt lat="59.9908641" lon="17.7378895">
        <ele>54.4518</ele>
        <time>2013-04-30T18:52:49Z</time>
      </trkpt>
      <trkpt lat="59.9907995" lon="17.7379174">
        <ele>54.4518</ele>
        <time>2013-04-30T18:52:50Z</time>
      </trkpt>
      <trkpt lat="59.9907326" lon="17.7379479">
        <ele>55.4131</ele>
        <time>2013-04-30T18:52:51Z</time>
      </trkpt>
      <trkpt lat="59.990672" lon="17.7379917">
        <ele>55.8938</ele>
        <time>2013-04-30T18:52:52Z</time>
      </trkpt>
      <trkpt lat="59.9906146" lon="17.7380226">
        <ele>55.8938</ele>
        <time>2013-04-30T18:52:53Z</time>
      </trkpt>
      <trkpt lat="59.990556" lon="17.7380583">
        <ele>55.4131</ele>
        <time>2013-04-30T18:52:54Z</time>
      </trkpt>
      <trkpt lat="59.9904944" lon="17.7380847">
        <ele>55.4131</ele>
        <time>2013-04-30T18:52:55Z</time>
      </trkpt>
      <trkpt lat="59.9904316" lon="17.7381107">
        <ele>54.9324</ele>
        <time>2013-04-30T18:52:56Z</time>
      </trkpt>
      <trkpt lat="59.9903689" lon="17.7381366">
        <ele>54.9324</ele>
        <time>2013-04-30T18:52:57Z</time>
      </trkpt>
      <trkpt lat="59.9903059" lon="17.7381549">
        <ele>54.9324</ele>
        <time>2013-04-30T18:52:58Z</time>
      </trkpt>
      <trkpt lat="59.9902405" lon="17.7381852">
        <ele>54.9324</ele>
        <time>2013-04-30T18:52:59Z</time>
      </trkpt>
      <trkpt lat="59.9901749" lon="17.7382188">
        <ele>54.9324</ele>
        <time>2013-04-30T18:53:00Z</time>
      </trkpt>
      <trkpt lat="59.9901091" lon="17.7382507">
        <ele>54.4518</ele>
        <time>2013-04-30T18:53:01Z</time>
      </trkpt>
      <trkpt lat="59.9900411" lon="17.7382794">
        <ele>54.4518</ele>
        <time>2013-04-30T18:53:02Z</time>
      </trkpt>
      <trkpt lat="59.9899736" lon="17.7383033">
        <ele>53.9712</ele>
        <time>2013-04-30T18:53:03Z</time>
      </trkpt>
      <trkpt lat="59.9899075" lon="17.7383219">
        <ele>53.9712</ele>
        <time>2013-04-30T18:53:04Z</time>
      </trkpt>
      <trkpt lat="59.9898411" lon="17.7383463">
        <ele>53.4905</ele>
        <time>2013-04-30T18:53:05Z</time>
      </trkpt>
      <trkpt lat="59.9897728" lon="17.7383688">
        <ele>53.0098</ele>
        <time>2013-04-30T18:53:06Z</time>
      </trkpt>
      <trkpt lat="59.9897065" lon="17.7383875">
        <ele>52.5292</ele>
        <time>2013-04-30T18:53:07Z</time>
      </trkpt>
      <trkpt lat="59.9896409" lon="17.7384025">
        <ele>52.0486</ele>
        <time>2013-04-30T18:53:08Z</time>
      </trkpt>
      <trkpt lat="59.9895773" lon="17.7384197">
        <ele>51.5679</ele>
        <time>2013-04-30T18:53:09Z</time>
      </trkpt>
      <trkpt lat="59.9895171" lon="17.7384337">
        <ele>50.6066</ele>
        <time>2013-04-30T18:53:10Z</time>
      </trkpt>
      <trkpt lat="59.9894605" lon="17.7384505">
        <ele>50.126</ele>
        <time>2013-04-30T18:53:11Z</time>
      </trkpt>
      <trkpt lat="59.9894044" lon="17.7384737">
        <ele>49.6453</ele>
        <time>2013-04-30T18:53:12Z</time>
      </trkpt>
      <trkpt lat="59.9893475" lon="17.7384949">
        <ele>49.1646</ele>
        <time>2013-04-30T18:53:13Z</time>
      </trkpt>
      <trkpt lat="59.9892916" lon="17.7385177">
        <ele>49.1646</ele>
        <time>2013-04-30T18:53:14Z</time>
      </trkpt>
      <trkpt lat="59.9892367" lon="17.7385465">
        <ele>48.684</ele>
        <time>2013-04-30T18:53:15Z</time>
      </trkpt>
      <trkpt lat="59.9891791" lon="17.7385882">
        <ele>49.1646</ele>
        <time>2013-04-30T18:53:16Z</time>
      </trkpt>
      <trkpt lat="59.9891222" lon="17.7386313">
        <ele>49.1646</ele>
        <time>2013-04-30T18:53:17Z</time>
      </trkpt>
      <trkpt lat="59.989046" lon="17.7386995">
        <ele>48.684</ele>
        <time>2013-04-30T18:53:18Z</time>
      </trkpt>
      <trkpt lat="59.9889755" lon="17.7387695">
        <ele>48.684</ele>
        <time>2013-04-30T18:53:19Z</time>
      </trkpt>
      <trkpt lat="59.9888962" lon="17.7388016">
        <ele>48.684</ele>
        <time>2013-04-30T18:53:20Z</time>
      </trkpt>
      <trkpt lat="59.9888294" lon="17.7388425">
        <ele>48.2034</ele>
        <time>2013-04-30T18:53:21Z</time>
      </trkpt>
      <trkpt lat="59.9887612" lon="17.7388954">
        <ele>48.2034</ele>
        <time>2013-04-30T18:53:22Z</time>
      </trkpt>
      <trkpt lat="59.9886921" lon="17.7389366">
        <ele>48.2034</ele>
        <time>2013-04-30T18:53:23Z</time>
      </trkpt>
      <trkpt lat="59.9886234" lon="17.7389881">
        <ele>48.684</ele>
        <time>2013-04-30T18:53:24Z</time>
      </trkpt>
      <trkpt lat="59.9885524" lon="17.7390341">
        <ele>49.1646</ele>
        <time>2013-04-30T18:53:25Z</time>
      </trkpt>
      <trkpt lat="59.9884804" lon="17.7390735">
        <ele>49.1646</ele>
        <time>2013-04-30T18:53:26Z</time>
      </trkpt>
      <trkpt lat="59.9884094" lon="17.7391107">
        <ele>49.1646</ele>
        <time>2013-04-30T18:53:27Z</time>
      </trkpt>
      <trkpt lat="59.9883355" lon="17.7391537">
        <ele>49.6453</ele>
        <time>2013-04-30T18:53:28Z</time>
      </trkpt>
      <trkpt lat="59.9882573" lon="17.7391868">
        <ele>49.6453</ele>
        <time>2013-04-30T18:53:29Z</time>
      </trkpt>
      <trkpt lat="59.9881759" lon="17.7392128">
        <ele>49.1646</ele>
        <time>2013-04-30T18:53:30Z</time>
      </trkpt>
      <trkpt lat="59.9880935" lon="17.7392357">
        <ele>49.1646</ele>
        <time>2013-04-30T18:53:31Z</time>
      </trkpt>
      <trkpt lat="59.9880111" lon="17.7392563">
        <ele>48.684</ele>
        <time>2013-04-30T18:53:32Z</time>
      </trkpt>
      <trkpt lat="59.9879273" lon="17.7392754">
        <ele>48.684</ele>
        <time>2013-04-30T18:53:33Z</time>
      </trkpt>
      <trkpt lat="59.9878444" lon="17.7392979">
        <ele>48.2034</ele>
        <time>2013-04-30T18:53:34Z</time>
      </trkpt>
      <trkpt lat="59.9877639" lon="17.7393099">
        <ele>48.2034</ele>
        <time>2013-04-30T18:53:35Z</time>
      </trkpt>
      <trkpt lat="59.9876847" lon="17.73933">
        <ele>47.7225</ele>
        <time>2013-04-30T18:53:36Z</time>
      </trkpt>
      <trkpt lat="59.9876105" lon="17.7393424">
        <ele>47.2418</ele>
        <time>2013-04-30T18:53:37Z</time>
      </trkpt>
      <trkpt lat="59.9875395" lon="17.739343">
        <ele>46.7612</ele>
        <time>2013-04-30T18:53:38Z</time>
      </trkpt>
      <trkpt lat="59.9874552" lon="17.7393444">
        <ele>46.7612</ele>
        <time>2013-04-30T18:53:39Z</time>
      </trkpt>
      <trkpt lat="59.9873698" lon="17.7393424">
        <ele>46.2806</ele>
        <time>2013-04-30T18:53:40Z</time>
      </trkpt>
      <trkpt lat="59.9872893" lon="17.7393357">
        <ele>45.7999</ele>
        <time>2013-04-30T18:53:41Z</time>
      </trkpt>
      <trkpt lat="59.9872041" lon="17.7393285">
        <ele>44.8386</ele>
        <time>2013-04-30T18:53:42Z</time>
      </trkpt>
      <trkpt lat="59.9871232" lon="17.7393192">
        <ele>44.358</ele>
        <time>2013-04-30T18:53:43Z</time>
      </trkpt>
      <trkpt lat="59.9870465" lon="17.7392932">
        <ele>44.358</ele>
        <time>2013-04-30T18:53:44Z</time>
      </trkpt>
      <trkpt lat="59.9869764" lon="17.7392516">
        <ele>43.8773</ele>
        <time>2013-04-30T18:53:45Z</time>
      </trkpt>
      <trkpt lat="59.9869093" lon="17.7392018">
        <ele>43.8773</ele>
        <time>2013-04-30T18:53:46Z</time>
      </trkpt>
      <trkpt lat="59.986834" lon="17.739144">
        <ele>44.358</ele>
        <time>2013-04-30T18:53:47Z</time>
      </trkpt>
      <trkpt lat="59.986762" lon="17.739078">
        <ele>43.8773</ele>
        <time>2013-04-30T18:53:48Z</time>
      </trkpt>
      <trkpt lat="59.9866833" lon="17.7390114">
        <ele>44.358</ele>
        <time>2013-04-30T18:53:49Z</time>
      </trkpt>
      <trkpt lat="59.9866064" lon="17.7389394">
        <ele>44.8386</ele>
        <time>2013-04-30T18:53:50Z</time>
      </trkpt>
      <trkpt lat="59.9865346" lon="17.738872">
        <ele>45.3192</ele>
        <time>2013-04-30T18:53:51Z</time>
      </trkpt>
      <trkpt lat="59.9864629" lon="17.7388166">
        <ele>45.3192</ele>
        <time>2013-04-30T18:53:52Z</time>
      </trkpt>
      <trkpt lat="59.9863817" lon="17.7387482">
        <ele>46.2806</ele>
        <time>2013-04-30T18:53:53Z</time>
      </trkpt>
      <trkpt lat="59.9863089" lon="17.7386742">
        <ele>46.2806</ele>
        <time>2013-04-30T18:53:54Z</time>
      </trkpt>
      <trkpt lat="59.9862321" lon="17.738597">
        <ele>45.7999</ele>
        <time>2013-04-30T18:53:55Z</time>
      </trkpt>
      <trkpt lat="59.9861433" lon="17.7385245">
        <ele>45.7999</ele>
        <time>2013-04-30T18:53:56Z</time>
      </trkpt>
      <trkpt lat="59.9860489" lon="17.7384602">
        <ele>45.7999</ele>
        <time>2013-04-30T18:53:57Z</time>
      </trkpt>
      <trkpt lat="59.9859551" lon="17.7384031">
        <ele>44.8386</ele>
        <time>2013-04-30T18:53:58Z</time>
      </trkpt>
      <trkpt lat="59.9858644" lon="17.7383549">
        <ele>44.358</ele>
        <time>2013-04-30T18:53:59Z</time>
      </trkpt>
      <trkpt lat="59.9857727" lon="17.7383165">
        <ele>43.3966</ele>
        <time>2013-04-30T18:54:00Z</time>
      </trkpt>
      <trkpt lat="59.9856833" lon="17.7382806">
        <ele>42.916</ele>
        <time>2013-04-30T18:54:01Z</time>
      </trkpt>
      <trkpt lat="59.985599" lon="17.73824">
        <ele>41.474</ele>
        <time>2013-04-30T18:54:02Z</time>
      </trkpt>
      <trkpt lat="59.985506" lon="17.7382">
        <ele>39.5513</ele>
        <time>2013-04-30T18:54:03Z</time>
      </trkpt>
      <trkpt lat="59.9854112" lon="17.7381627">
        <ele>38.5901</ele>
        <time>2013-04-30T18:54:04Z</time>
      </trkpt>
      <trkpt lat="59.9853203" lon="17.738126">
        <ele>37.6287</ele>
        <time>2013-04-30T18:54:05Z</time>
      </trkpt>
      <trkpt lat="59.9852279" lon="17.7380819">
        <ele>36.1868</ele>
        <time>2013-04-30T18:54:06Z</time>
      </trkpt>
      <trkpt lat="59.9851373" lon="17.7380344">
        <ele>34.7449</ele>
        <time>2013-04-30T18:54:07Z</time>
      </trkpt>
      <trkpt lat="59.9850429" lon="17.7379806">
        <ele>33.7834</ele>
        <time>2013-04-30T18:54:08Z</time>
      </trkpt>
      <trkpt lat="59.9849327" lon="17.7379779">
        <ele>32.3416</ele>
        <time>2013-04-30T18:54:09Z</time>
      </trkpt>
      <trkpt lat="59.9848278" lon="17.7379645">
        <ele>31.3801</ele>
        <time>2013-04-30T18:54:10Z</time>
      </trkpt>
      <trkpt lat="59.9847212" lon="17.7379433">
        <ele>30.4188</ele>
        <time>2013-04-30T18:54:11Z</time>
      </trkpt>
      <trkpt lat="59.9846145" lon="17.737918">
        <ele>29.9381</ele>
        <time>2013-04-30T18:54:12Z</time>
      </trkpt>
      <trkpt lat="59.9845114" lon="17.7378967">
        <ele>29.9381</ele>
        <time>2013-04-30T18:54:13Z</time>
      </trkpt>
      <trkpt lat="59.984413" lon="17.737875">
        <ele>29.4575</ele>
        <time>2013-04-30T18:54:14Z</time>
      </trkpt>
      <trkpt lat="59.9843218" lon="17.7378464">
        <ele>28.9769</ele>
        <time>2013-04-30T18:54:15Z</time>
      </trkpt>
      <trkpt lat="59.9842306" lon="17.7378203">
        <ele>28.0155</ele>
        <time>2013-04-30T18:54:16Z</time>
      </trkpt>
      <trkpt lat="59.9841378" lon="17.7378038">
        <ele>28.0155</ele>
        <time>2013-04-30T18:54:17Z</time>
      </trkpt>
      <trkpt lat="59.984045" lon="17.7378115">
        <ele>28.4962</ele>
        <time>2013-04-30T18:54:18Z</time>
      </trkpt>
      <trkpt lat="59.9839566" lon="17.7378365">
        <ele>28.9769</ele>
        <time>2013-04-30T18:54:19Z</time>
      </trkpt>
      <trkpt lat="59.9838643" lon="17.7378565">
        <ele>29.4575</ele>
        <time>2013-04-30T18:54:20Z</time>
      </trkpt>
      <trkpt lat="59.9837592" lon="17.7378904">
        <ele>29.9381</ele>
        <time>2013-04-30T18:54:21Z</time>
      </trkpt>
      <trkpt lat="59.983656" lon="17.7379291">
        <ele>30.8995</ele>
        <time>2013-04-30T18:54:22Z</time>
      </trkpt>
      <trkpt lat="59.9835566" lon="17.7379733">
        <ele>31.3801</ele>
        <time>2013-04-30T18:54:23Z</time>
      </trkpt>
      <trkpt lat="59.9834376" lon="17.738021">
        <ele>31.8607</ele>
        <time>2013-04-30T18:54:24Z</time>
      </trkpt>
      <trkpt lat="59.9833381" lon="17.7380691">
        <ele>32.3416</ele>
        <time>2013-04-30T18:54:25Z</time>
      </trkpt>
      <trkpt lat="59.9832375" lon="17.7381083">
        <ele>32.8223</ele>
        <time>2013-04-30T18:54:26Z</time>
      </trkpt>
      <trkpt lat="59.9831485" lon="17.7381207">
        <ele>32.3416</ele>
        <time>2013-04-30T18:54:27Z</time>
      </trkpt>
      <trkpt lat="59.9830421" lon="17.7381125">
        <ele>32.8223</ele>
        <time>2013-04-30T18:54:28Z</time>
      </trkpt>
      <trkpt lat="59.982945" lon="17.7381012">
        <ele>32.8223</ele>
        <time>2013-04-30T18:54:29Z</time>
      </trkpt>
      <trkpt lat="59.9828637" lon="17.7380748">
        <ele>32.8223</ele>
        <time>2013-04-30T18:54:30Z</time>
      </trkpt>
      <trkpt lat="59.9827714" lon="17.7380608">
        <ele>32.3416</ele>
        <time>2013-04-30T18:54:31Z</time>
      </trkpt>
      <trkpt lat="59.9826875" lon="17.7380407">
        <ele>32.3416</ele>
        <time>2013-04-30T18:54:32Z</time>
      </trkpt>
      <trkpt lat="59.9825973" lon="17.7380096">
        <ele>32.3416</ele>
        <time>2013-04-30T18:54:33Z</time>
      </trkpt>
      <trkpt lat="59.9825134" lon="17.7379816">
        <ele>31.8607</ele>
        <time>2013-04-30T18:54:34Z</time>
      </trkpt>
      <trkpt lat="59.9824288" lon="17.7379645">
        <ele>31.3801</ele>
        <time>2013-04-30T18:54:35Z</time>
      </trkpt>
      <trkpt lat="59.9823407" lon="17.7379715">
        <ele>31.3801</ele>
        <time>2013-04-30T18:54:36Z</time>
      </trkpt>
      <trkpt lat="59.9822558" lon="17.7379986">
        <ele>31.8607</ele>
        <time>2013-04-30T18:54:37Z</time>
      </trkpt>
      <trkpt lat="59.9821734" lon="17.738043">
        <ele>32.3416</ele>
        <time>2013-04-30T18:54:38Z</time>
      </trkpt>
      <trkpt lat="59.9820907" lon="17.738093">
        <ele>33.3029</ele>
        <time>2013-04-30T18:54:39Z</time>
      </trkpt>
      <trkpt lat="59.9820101" lon="17.7381409">
        <ele>33.7834</ele>
        <time>2013-04-30T18:54:40Z</time>
      </trkpt>
      <trkpt lat="59.9819296" lon="17.7381908">
        <ele>35.2255</ele>
        <time>2013-04-30T18:54:41Z</time>
      </trkpt>
      <trkpt lat="59.9818529" lon="17.7382397">
        <ele>36.1868</ele>
        <time>2013-04-30T18:54:42Z</time>
      </trkpt>
      <trkpt lat="59.9817768" lon="17.7383124">
        <ele>38.1094</ele>
        <time>2013-04-30T18:54:43Z</time>
      </trkpt>
      <trkpt lat="59.9817021" lon="17.7383675">
        <ele>39.5513</ele>
        <time>2013-04-30T18:54:44Z</time>
      </trkpt>
      <trkpt lat="59.981624" lon="17.7384001">
        <ele>40.5128</ele>
        <time>2013-04-30T18:54:45Z</time>
      </trkpt>
      <trkpt lat="59.9815464" lon="17.7384207">
        <ele>40.0321</ele>
        <time>2013-04-30T18:54:46Z</time>
      </trkpt>
      <trkpt lat="59.9814672" lon="17.7384379">
        <ele>40.0321</ele>
        <time>2013-04-30T18:54:47Z</time>
      </trkpt>
      <trkpt lat="59.9813857" lon="17.7384602">
        <ele>40.5128</ele>
        <time>2013-04-30T18:54:48Z</time>
      </trkpt>
      <trkpt lat="59.981299" lon="17.7384841">
        <ele>40.5128</ele>
        <time>2013-04-30T18:54:49Z</time>
      </trkpt>
      <trkpt lat="59.9812086" lon="17.7385027">
        <ele>40.5128</ele>
        <time>2013-04-30T18:54:50Z</time>
      </trkpt>
      <trkpt lat="59.9811219" lon="17.7385243">
        <ele>40.0321</ele>
        <time>2013-04-30T18:54:51Z</time>
      </trkpt>
      <trkpt lat="59.9810341" lon="17.7385354">
        <ele>39.5513</ele>
        <time>2013-04-30T18:54:52Z</time>
      </trkpt>
      <trkpt lat="59.9809448" lon="17.7385716">
        <ele>38.1094</ele>
        <time>2013-04-30T18:54:53Z</time>
      </trkpt>
      <trkpt lat="59.9808594" lon="17.7386021">
        <ele>37.6287</ele>
        <time>2013-04-30T18:54:54Z</time>
      </trkpt>
      <trkpt lat="59.9807689" lon="17.7386375">
        <ele>36.6675</ele>
        <time>2013-04-30T18:54:55Z</time>
      </trkpt>
      <trkpt lat="59.9806792" lon="17.7386742">
        <ele>35.7061</ele>
        <time>2013-04-30T18:54:56Z</time>
      </trkpt>
      <trkpt lat="59.9805896" lon="17.7387068">
        <ele>34.7449</ele>
        <time>2013-04-30T18:54:57Z</time>
      </trkpt>
      <trkpt lat="59.9804963" lon="17.7387436">
        <ele>34.2642</ele>
        <time>2013-04-30T18:54:58Z</time>
      </trkpt>
      <trkpt lat="59.9804104" lon="17.7387647">
        <ele>33.7834</ele>
        <time>2013-04-30T18:54:59Z</time>
      </trkpt>
      <trkpt lat="59.98032" lon="17.7387669">
        <ele>33.7834</ele>
        <time>2013-04-30T18:55:00Z</time>
      </trkpt>
      <trkpt lat="59.980229" lon="17.7387543">
        <ele>33.3029</ele>
        <time>2013-04-30T18:55:01Z</time>
      </trkpt>
      <trkpt lat="59.9801394" lon="17.7387449">
        <ele>33.3029</ele>
        <time>2013-04-30T18:55:02Z</time>
      </trkpt>
      <trkpt lat="59.980053" lon="17.7387338">
        <ele>32.3416</ele>
        <time>2013-04-30T18:55:03Z</time>
      </trkpt>
      <trkpt lat="59.979973" lon="17.7387254">
        <ele>32.8223</ele>
        <time>2013-04-30T18:55:04Z</time>
      </trkpt>
      <trkpt lat="59.9798914" lon="17.7387405">
        <ele>31.8607</ele>
        <time>2013-04-30T18:55:05Z</time>
      </trkpt>
      <trkpt lat="59.9798125" lon="17.7387499">
        <ele>30.4188</ele>
        <time>2013-04-30T18:55:06Z</time>
      </trkpt>
      <trkpt lat="59.9797303" lon="17.7387859">
        <ele>29.4575</ele>
        <time>2013-04-30T18:55:07Z</time>
      </trkpt>
      <trkpt lat="59.9796515" lon="17.7388302">
        <ele>29.4575</ele>
        <time>2013-04-30T18:55:08Z</time>
      </trkpt>
      <trkpt lat="59.9795739" lon="17.7388906">
        <ele>30.4188</ele>
        <time>2013-04-30T18:55:09Z</time>
      </trkpt>
      <trkpt lat="59.9794955" lon="17.738971">
        <ele>30.8995</ele>
        <time>2013-04-30T18:55:10Z</time>
      </trkpt>
      <trkpt lat="59.9794067" lon="17.7390519">
        <ele>30.4188</ele>
        <time>2013-04-30T18:55:11Z</time>
      </trkpt>
      <trkpt lat="59.9793215" lon="17.7391185">
        <ele>30.8995</ele>
        <time>2013-04-30T18:55:12Z</time>
      </trkpt>
      <trkpt lat="59.9792268" lon="17.7392081">
        <ele>30.8995</ele>
        <time>2013-04-30T18:55:13Z</time>
      </trkpt>
      <trkpt lat="59.979153" lon="17.7392533">
        <ele>30.8995</ele>
        <time>2013-04-30T18:55:14Z</time>
      </trkpt>
      <trkpt lat="59.979092" lon="17.7392858">
        <ele>31.3801</ele>
        <time>2013-04-30T18:55:15Z</time>
      </trkpt>
      <trkpt lat="59.979037" lon="17.7393094">
        <ele>30.8995</ele>
        <time>2013-04-30T18:55:16Z</time>
      </trkpt>
      <trkpt lat="59.9789875" lon="17.7393238">
        <ele>30.4188</ele>
        <time>2013-04-30T18:55:17Z</time>
      </trkpt>
      <trkpt lat="59.9789436" lon="17.7393406">
        <ele>29.9381</ele>
        <time>2013-04-30T18:55:18Z</time>
      </trkpt>
      <trkpt lat="59.9789152" lon="17.739381">
        <ele>30.4188</ele>
        <time>2013-04-30T18:55:19Z</time>
      </trkpt>
      <trkpt lat="59.9789039" lon="17.7394288">
        <ele>30.4188</ele>
        <time>2013-04-30T18:55:20Z</time>
      </trkpt>
      <trkpt lat="59.9789044" lon="17.7394769">
        <ele>30.4188</ele>
        <time>2013-04-30T18:55:21Z</time>
      </trkpt>
      <trkpt lat="59.9789121" lon="17.7395121">
        <ele>30.4188</ele>
        <time>2013-04-30T18:55:22Z</time>
      </trkpt>
      <trkpt lat="59.9789265" lon="17.739546">
        <ele>29.9381</ele>
        <time>2013-04-30T18:55:23Z</time>
      </trkpt>
      <trkpt lat="59.9791742" lon="17.7402965">
        <ele>41.474</ele>
        <time>2013-04-30T18:56:02Z</time>
      </trkpt>
      <trkpt lat="59.9791733" lon="17.7403028">
        <ele>41.474</ele>
        <time>2013-04-30T18:56:03Z</time>
      </trkpt>
      <trkpt lat="59.9791685" lon="17.7403075">
        <ele>40.9934</ele>
        <time>2013-04-30T18:56:04Z</time>
      </trkpt>
      <trkpt lat="59.9791666" lon="17.7403104">
        <ele>40.9934</ele>
        <time>2013-04-30T18:56:05Z</time>
      </trkpt>
      <trkpt lat="59.9791643" lon="17.7403091">
        <ele>40.5128</ele>
        <time>2013-04-30T18:56:06Z</time>
      </trkpt>
      <trkpt lat="59.9791618" lon="17.7403054">
        <ele>40.5128</ele>
        <time>2013-04-30T18:56:07Z</time>
      </trkpt>
      <trkpt lat="59.9791591" lon="17.740308">
        <ele>40.0321</ele>
        <time>2013-04-30T18:56:08Z</time>
      </trkpt>
      <trkpt lat="59.9791546" lon="17.7403109">
        <ele>39.5513</ele>
        <time>2013-04-30T18:56:09Z</time>
      </trkpt>
      <trkpt lat="59.9791521" lon="17.7403157">
        <ele>39.5513</ele>
        <time>2013-04-30T18:56:10Z</time>
      </trkpt>
      <trkpt lat="59.9791503" lon="17.7403197">
        <ele>39.0707</ele>
        <time>2013-04-30T18:56:11Z</time>
      </trkpt>
      <trkpt lat="59.9791493" lon="17.7403229">
        <ele>38.5901</ele>
        <time>2013-04-30T18:56:12Z</time>
      </trkpt>
      <trkpt lat="59.9791495" lon="17.7403244">
        <ele>38.5901</ele>
        <time>2013-04-30T18:56:13Z</time>
      </trkpt>
      <trkpt lat="59.9791505" lon="17.7403241">
        <ele>38.5901</ele>
        <time>2013-04-30T18:56:14Z</time>
      </trkpt>
      <trkpt lat="59.9791517" lon="17.740321">
        <ele>38.5901</ele>
        <time>2013-04-30T18:56:15Z</time>
      </trkpt>
      <trkpt lat="59.9791535" lon="17.7403172">
        <ele>38.1094</ele>
        <time>2013-04-30T18:56:16Z</time>
      </trkpt>
      <trkpt lat="59.9791555" lon="17.740315">
        <ele>38.1094</ele>
        <time>2013-04-30T18:56:17Z</time>
      </trkpt>
      <trkpt lat="59.9791578" lon="17.7403127">
        <ele>38.5901</ele>
        <time>2013-04-30T18:56:18Z</time>
      </trkpt>
      <trkpt lat="59.9791604" lon="17.7403101">
        <ele>38.5901</ele>
        <time>2013-04-30T18:56:19Z</time>
      </trkpt>
      <trkpt lat="59.9791615" lon="17.7403093">
        <ele>38.5901</ele>
        <time>2013-04-30T18:56:20Z</time>
      </trkpt>
      <trkpt lat="59.9791626" lon="17.7403081">
        <ele>38.5901</ele>
        <time>2013-04-30T18:56:21Z</time>
      </trkpt>
      <trkpt lat="59.9791636" lon="17.740307">
        <ele>38.5901</ele>
        <time>2013-04-30T18:56:22Z</time>
      </trkpt>
      <trkpt lat="59.9791645" lon="17.740306">
        <ele>38.5901</ele>
        <time>2013-04-30T18:56:23Z</time>
      </trkpt>
      <trkpt lat="59.9791653" lon="17.7403049">
        <ele>38.5901</ele>
        <time>2013-04-30T18:56:24Z</time>
      </trkpt>
      <trkpt lat="59.9791659" lon="17.7403036">
        <ele>38.1094</ele>
        <time>2013-04-30T18:56:25Z</time>
      </trkpt>
      <trkpt lat="59.9791666" lon="17.7403007">
        <ele>38.1094</ele>
        <time>2013-04-30T18:56:26Z</time>
      </trkpt>
      <trkpt lat="59.9791681" lon="17.7402997">
        <ele>38.1094</ele>
        <time>2013-04-30T18:56:27Z</time>
      </trkpt>
      <trkpt lat="59.979169" lon="17.7402976">
        <ele>38.1094</ele>
        <time>2013-04-30T18:56:28Z</time>
      </trkpt>
      <trkpt lat="59.9791692" lon="17.7402977">
        <ele>38.1094</ele>
        <time>2013-04-30T18:56:29Z</time>
      </trkpt>
      <trkpt lat="59.9791692" lon="17.7402984">
        <ele>37.6287</ele>
        <time>2013-04-30T18:56:30Z</time>
      </trkpt>
      <trkpt lat="59.9791692" lon="17.7402986">
        <ele>37.6287</ele>
        <time>2013-04-30T18:56:31Z</time>
      </trkpt>
      <trkpt lat="59.9791686" lon="17.7403008">
        <ele>37.6287</ele>
        <time>2013-04-30T18:56:32Z</time>
      </trkpt>
      <trkpt lat="59.9791682" lon="17.7403026">
        <ele>37.6287</ele>
        <time>2013-04-30T18:56:33Z</time>
      </trkpt>
      <trkpt lat="59.9791682" lon="17.7403044">
        <ele>37.6287</ele>
        <time>2013-04-30T18:56:34Z</time>
      </trkpt>
      <trkpt lat="59.9791681" lon="17.7403075">
        <ele>37.6287</ele>
        <time>2013-04-30T18:56:35Z</time>
      </trkpt>
      <trkpt lat="59.9791682" lon="17.7403084">
        <ele>37.6287</ele>
        <time>2013-04-30T18:56:36Z</time>
      </trkpt>
      <trkpt lat="59.9791681" lon="17.740309">
        <ele>37.6287</ele>
        <time>2013-04-30T18:56:37Z</time>
      </trkpt>
      <trkpt lat="59.979168" lon="17.7403094">
        <ele>37.6287</ele>
        <time>2013-04-30T18:56:38Z</time>
      </trkpt>
      <trkpt lat="59.9791679" lon="17.7403098">
        <ele>37.6287</ele>
        <time>2013-04-30T18:56:39Z</time>
      </trkpt>
      <trkpt lat="59.9791677" lon="17.74031">
        <ele>37.6287</ele>
        <time>2013-04-30T18:56:40Z</time>
      </trkpt>
      <trkpt lat="59.9791677" lon="17.7403102">
        <ele>37.6287</ele>
        <time>2013-04-30T18:56:41Z</time>
      </trkpt>
      <trkpt lat="59.9791671" lon="17.740312">
        <ele>37.1481</ele>
        <time>2013-04-30T18:56:42Z</time>
      </trkpt>
      <trkpt lat="59.9791665" lon="17.7403136">
        <ele>37.1481</ele>
        <time>2013-04-30T18:56:43Z</time>
      </trkpt>
      <trkpt lat="59.979166" lon="17.7403148">
        <ele>37.1481</ele>
        <time>2013-04-30T18:56:44Z</time>
      </trkpt>
      <trkpt lat="59.9791654" lon="17.7403161">
        <ele>36.6675</ele>
        <time>2013-04-30T18:56:45Z</time>
      </trkpt>
      <trkpt lat="59.9791651" lon="17.7403161">
        <ele>36.6675</ele>
        <time>2013-04-30T18:56:46Z</time>
      </trkpt>
      <trkpt lat="59.979165" lon="17.7403158">
        <ele>36.6675</ele>
        <time>2013-04-30T18:56:47Z</time>
      </trkpt>
      <trkpt lat="59.9791655" lon="17.7403163">
        <ele>36.6675</ele>
        <time>2013-04-30T18:56:48Z</time>
      </trkpt>
      <trkpt lat="59.9791656" lon="17.7403168">
        <ele>37.1481</ele>
        <time>2013-04-30T18:56:49Z</time>
      </trkpt>
      <trkpt lat="59.9791661" lon="17.7403166">
        <ele>37.6287</ele>
        <time>2013-04-30T18:56:50Z</time>
      </trkpt>
      <trkpt lat="59.979166" lon="17.7403167">
        <ele>38.1094</ele>
        <time>2013-04-30T18:56:51Z</time>
      </trkpt>
      <trkpt lat="59.9791666" lon="17.7403174">
        <ele>38.5901</ele>
        <time>2013-04-30T18:56:52Z</time>
      </trkpt>
      <trkpt lat="59.9791681" lon="17.7403189">
        <ele>39.0707</ele>
        <time>2013-04-30T18:56:53Z</time>
      </trkpt>
      <trkpt lat="59.9791688" lon="17.7403207">
        <ele>39.5513</ele>
        <time>2013-04-30T18:56:54Z</time>
      </trkpt>
      <trkpt lat="59.9791738" lon="17.74032">
        <ele>40.5128</ele>
        <time>2013-04-30T18:56:55Z</time>
      </trkpt>
      <trkpt lat="59.9791749" lon="17.7403212">
        <ele>40.5128</ele>
        <time>2013-04-30T18:56:56Z</time>
      </trkpt>
      <trkpt lat="59.9791759" lon="17.7403226">
        <ele>40.9934</ele>
        <time>2013-04-30T18:56:57Z</time>
      </trkpt>
      <trkpt lat="59.9791769" lon="17.7403245">
        <ele>41.474</ele>
        <time>2013-04-30T18:56:58Z</time>
      </trkpt>
      <trkpt lat="59.9791775" lon="17.740326">
        <ele>41.9547</ele>
        <time>2013-04-30T18:56:59Z</time>
      </trkpt>
      <trkpt lat="59.9791778" lon="17.7403272">
        <ele>41.9547</ele>
        <time>2013-04-30T18:57:00Z</time>
      </trkpt>
      <trkpt lat="59.9791775" lon="17.7403286">
        <ele>41.9547</ele>
        <time>2013-04-30T18:57:01Z</time>
      </trkpt>
      <trkpt lat="59.9791768" lon="17.7403297">
        <ele>41.9547</ele>
        <time>2013-04-30T18:57:02Z</time>
      </trkpt>
      <trkpt lat="59.9791774" lon="17.7403313">
        <ele>42.4354</ele>
        <time>2013-04-30T18:57:03Z</time>
      </trkpt>
      <trkpt lat="59.9791778" lon="17.7403319">
        <ele>42.4354</ele>
        <time>2013-04-30T18:57:04Z</time>
      </trkpt>
      <trkpt lat="59.9791783" lon="17.7403328">
        <ele>42.916</ele>
        <time>2013-04-30T18:57:05Z</time>
      </trkpt>
      <trkpt lat="59.9791791" lon="17.7403339">
        <ele>42.916</ele>
        <time>2013-04-30T18:57:06Z</time>
      </trkpt>
      <trkpt lat="59.9791799" lon="17.7403347">
        <ele>42.916</ele>
        <time>2013-04-30T18:57:07Z</time>
      </trkpt>
      <trkpt lat="59.979181" lon="17.7403355">
        <ele>43.3966</ele>
        <time>2013-04-30T18:57:08Z</time>
      </trkpt>
      <trkpt lat="59.9791762" lon="17.740339">
        <ele>42.916</ele>
        <time>2013-04-30T18:57:09Z</time>
      </trkpt>
      <trkpt lat="59.9791736" lon="17.7403426">
        <ele>42.916</ele>
        <time>2013-04-30T18:57:10Z</time>
      </trkpt>
      <trkpt lat="59.9791712" lon="17.7403453">
        <ele>42.916</ele>
        <time>2013-04-30T18:57:11Z</time>
      </trkpt>
      <trkpt lat="59.9791716" lon="17.7403466">
        <ele>42.916</ele>
        <time>2013-04-30T18:57:12Z</time>
      </trkpt>
      <trkpt lat="59.9791723" lon="17.7403482">
        <ele>43.3966</ele>
        <time>2013-04-30T18:57:13Z</time>
      </trkpt>
      <trkpt lat="59.9791734" lon="17.7403499">
        <ele>43.8773</ele>
        <time>2013-04-30T18:57:14Z</time>
      </trkpt>
      <trkpt lat="59.9791744" lon="17.740351">
        <ele>43.8773</ele>
        <time>2013-04-30T18:57:15Z</time>
      </trkpt>
      <trkpt lat="59.9791753" lon="17.7403523">
        <ele>44.358</ele>
        <time>2013-04-30T18:57:16Z</time>
      </trkpt>
      <trkpt lat="59.9791759" lon="17.7403536">
        <ele>44.358</ele>
        <time>2013-04-30T18:57:17Z</time>
      </trkpt>
      <trkpt lat="59.9791763" lon="17.7403551">
        <ele>44.8386</ele>
        <time>2013-04-30T18:57:18Z</time>
      </trkpt>
      <trkpt lat="59.9791773" lon="17.740355">
        <ele>44.8386</ele>
        <time>2013-04-30T18:57:19Z</time>
      </trkpt>
      <trkpt lat="59.9791779" lon="17.7403549">
        <ele>45.3192</ele>
        <time>2013-04-30T18:57:20Z</time>
      </trkpt>
      <trkpt lat="59.9791789" lon="17.7403546">
        <ele>45.3192</ele>
        <time>2013-04-30T18:57:21Z</time>
      </trkpt>
      <trkpt lat="59.9791796" lon="17.7403529">
        <ele>45.7999</ele>
        <time>2013-04-30T18:57:22Z</time>
      </trkpt>
      <trkpt lat="59.9791794" lon="17.740351">
        <ele>45.7999</ele>
        <time>2013-04-30T18:57:23Z</time>
      </trkpt>
      <trkpt lat="59.9791785" lon="17.7403493">
        <ele>45.7999</ele>
        <time>2013-04-30T18:57:24Z</time>
      </trkpt>
      <trkpt lat="59.979179" lon="17.7403478">
        <ele>45.7999</ele>
        <time>2013-04-30T18:57:25Z</time>
      </trkpt>
      <trkpt lat="59.979179" lon="17.7403466">
        <ele>45.7999</ele>
        <time>2013-04-30T18:57:26Z</time>
      </trkpt>
      <trkpt lat="59.979178" lon="17.7403452">
        <ele>45.7999</ele>
        <time>2013-04-30T18:57:27Z</time>
      </trkpt>
      <trkpt lat="59.9791775" lon="17.7403438">
        <ele>45.7999</ele>
        <time>2013-04-30T18:57:28Z</time>
      </trkpt>
      <trkpt lat="59.9791764" lon="17.7403427">
        <ele>45.3192</ele>
        <time>2013-04-30T18:57:29Z</time>
      </trkpt>
      <trkpt lat="59.9791763" lon="17.7403415">
        <ele>45.3192</ele>
        <time>2013-04-30T18:57:30Z</time>
      </trkpt>
      <trkpt lat="59.9791817" lon="17.7403388">
        <ele>46.2806</ele>
        <time>2013-04-30T18:57:31Z</time>
      </trkpt>
      <trkpt lat="59.9791861" lon="17.740336">
        <ele>46.7612</ele>
        <time>2013-04-30T18:57:32Z</time>
      </trkpt>
      <trkpt lat="59.9791764" lon="17.7403359">
        <ele>45.7999</ele>
        <time>2013-04-30T18:57:33Z</time>
      </trkpt>
      <trkpt lat="59.9791765" lon="17.7403375">
        <ele>45.7999</ele>
        <time>2013-04-30T18:57:34Z</time>
      </trkpt>
      <trkpt lat="59.9791774" lon="17.7403385">
        <ele>45.7999</ele>
        <time>2013-04-30T18:57:35Z</time>
      </trkpt>
      <trkpt lat="59.9791785" lon="17.7403397">
        <ele>46.2806</ele>
        <time>2013-04-30T18:57:36Z</time>
      </trkpt>
      <trkpt lat="59.9791789" lon="17.7403409">
        <ele>46.2806</ele>
        <time>2013-04-30T18:57:37Z</time>
      </trkpt>
      <trkpt lat="59.9791799" lon="17.740342">
        <ele>46.2806</ele>
        <time>2013-04-30T18:57:38Z</time>
      </trkpt>
      <trkpt lat="59.9791804" lon="17.740343">
        <ele>46.2806</ele>
        <time>2013-04-30T18:57:39Z</time>
      </trkpt>
      <trkpt lat="59.9791796" lon="17.7403441">
        <ele>46.2806</ele>
        <time>2013-04-30T18:57:40Z</time>
      </trkpt>
      <trkpt lat="59.9791795" lon="17.7403449">
        <ele>46.2806</ele>
        <time>2013-04-30T18:57:41Z</time>
      </trkpt>
      <trkpt lat="59.9791737" lon="17.7403473">
        <ele>46.2806</ele>
        <time>2013-04-30T18:57:42Z</time>
      </trkpt>
      <trkpt lat="59.9791692" lon="17.7403503">
        <ele>45.7999</ele>
        <time>2013-04-30T18:57:43Z</time>
      </trkpt>
      <trkpt lat="59.9791653" lon="17.740353">
        <ele>45.7999</ele>
        <time>2013-04-30T18:57:44Z</time>
      </trkpt>
      <trkpt lat="59.9791622" lon="17.7403557">
        <ele>45.3192</ele>
        <time>2013-04-30T18:57:45Z</time>
      </trkpt>
      <trkpt lat="59.979162" lon="17.7403577">
        <ele>45.7999</ele>
        <time>2013-04-30T18:57:46Z</time>
      </trkpt>
      <trkpt lat="59.9791613" lon="17.7403577">
        <ele>45.7999</ele>
        <time>2013-04-30T18:57:47Z</time>
      </trkpt>
      <trkpt lat="59.9791609" lon="17.7403567">
        <ele>45.3192</ele>
        <time>2013-04-30T18:57:48Z</time>
      </trkpt>
      <trkpt lat="59.9791609" lon="17.7403555">
        <ele>45.3192</ele>
        <time>2013-04-30T18:57:49Z</time>
      </trkpt>
      <trkpt lat="59.9791609" lon="17.7403541">
        <ele>45.3192</ele>
        <time>2013-04-30T18:57:50Z</time>
      </trkpt>
      <trkpt lat="59.9791597" lon="17.7403551">
        <ele>45.3192</ele>
        <time>2013-04-30T18:57:51Z</time>
      </trkpt>
      <trkpt lat="59.9791587" lon="17.7403562">
        <ele>45.3192</ele>
        <time>2013-04-30T18:57:52Z</time>
      </trkpt>
      <trkpt lat="59.9791566" lon="17.7403572">
        <ele>44.8386</ele>
        <time>2013-04-30T18:57:53Z</time>
      </trkpt>
      <trkpt lat="59.9791556" lon="17.7403582">
        <ele>44.8386</ele>
        <time>2013-04-30T18:57:54Z</time>
      </trkpt>
      <trkpt lat="59.9791557" lon="17.7403592">
        <ele>45.3192</ele>
        <time>2013-04-30T18:57:55Z</time>
      </trkpt>
      <trkpt lat="59.9791548" lon="17.7403603">
        <ele>45.3192</ele>
        <time>2013-04-30T18:57:56Z</time>
      </trkpt>
      <trkpt lat="59.979154" lon="17.7403616">
        <ele>45.3192</ele>
        <time>2013-04-30T18:57:57Z</time>
      </trkpt>
      <trkpt lat="59.9791541" lon="17.740362">
        <ele>45.3192</ele>
        <time>2013-04-30T18:57:58Z</time>
      </trkpt>
      <trkpt lat="59.9791541" lon="17.7403624">
        <ele>45.7999</ele>
        <time>2013-04-30T18:57:59Z</time>
      </trkpt>
      <trkpt lat="59.9791542" lon="17.7403629">
        <ele>45.7999</ele>
        <time>2013-04-30T18:58:00Z</time>
      </trkpt>
      <trkpt lat="59.9791542" lon="17.7403637">
        <ele>46.2806</ele>
        <time>2013-04-30T18:58:01Z</time>
      </trkpt>
      <trkpt lat="59.9791545" lon="17.7403645">
        <ele>46.2806</ele>
        <time>2013-04-30T18:58:02Z</time>
      </trkpt>
      <trkpt lat="59.9791547" lon="17.7403653">
        <ele>46.7612</ele>
        <time>2013-04-30T18:58:03Z</time>
      </trkpt>
      <trkpt lat="59.9791552" lon="17.7403663">
        <ele>46.7612</ele>
        <time>2013-04-30T18:58:04Z</time>
      </trkpt>
      <trkpt lat="59.9791557" lon="17.7403673">
        <ele>47.2418</ele>
        <time>2013-04-30T18:58:05Z</time>
      </trkpt>
      <trkpt lat="59.9791563" lon="17.7403686">
        <ele>47.2418</ele>
        <time>2013-04-30T18:58:06Z</time>
      </trkpt>
      <trkpt lat="59.9791568" lon="17.7403696">
        <ele>47.7225</ele>
        <time>2013-04-30T18:58:07Z</time>
      </trkpt>
      <trkpt lat="59.9791572" lon="17.7403706">
        <ele>47.7225</ele>
        <time>2013-04-30T18:58:08Z</time>
      </trkpt>
      <trkpt lat="59.9791576" lon="17.7403717">
        <ele>47.7225</ele>
        <time>2013-04-30T18:58:09Z</time>
      </trkpt>
      <trkpt lat="59.9791579" lon="17.7403727">
        <ele>48.2034</ele>
        <time>2013-04-30T18:58:10Z</time>
      </trkpt>
      <trkpt lat="59.9791584" lon="17.7403733">
        <ele>48.2034</ele>
        <time>2013-04-30T18:58:11Z</time>
      </trkpt>
      <trkpt lat="59.9791588" lon="17.7403742">
        <ele>48.684</ele>
        <time>2013-04-30T18:58:12Z</time>
      </trkpt>
      <trkpt lat="59.9791593" lon="17.7403748">
        <ele>48.684</ele>
        <time>2013-04-30T18:58:13Z</time>
      </trkpt>
      <trkpt lat="59.9791597" lon="17.7403754">
        <ele>49.1646</ele>
        <time>2013-04-30T18:58:14Z</time>
      </trkpt>
      <trkpt lat="59.97916" lon="17.7403761">
        <ele>49.1646</ele>
        <time>2013-04-30T18:58:15Z</time>
      </trkpt>
      <trkpt lat="59.9791604" lon="17.7403767">
        <ele>49.6453</ele>
        <time>2013-04-30T18:58:16Z</time>
      </trkpt>
      <trkpt lat="59.9791608" lon="17.7403772">
        <ele>49.6453</ele>
        <time>2013-04-30T18:58:17Z</time>
      </trkpt>
      <trkpt lat="59.9791612" lon="17.7403777">
        <ele>49.6453</ele>
        <time>2013-04-30T18:58:18Z</time>
      </trkpt>
      <trkpt lat="59.9791614" lon="17.740378">
        <ele>50.126</ele>
        <time>2013-04-30T18:58:19Z</time>
      </trkpt>
      <trkpt lat="59.9791619" lon="17.7403787">
        <ele>50.126</ele>
        <time>2013-04-30T18:58:20Z</time>
      </trkpt>
      <trkpt lat="59.9791623" lon="17.7403794">
        <ele>50.126</ele>
        <time>2013-04-30T18:58:21Z</time>
      </trkpt>
      <trkpt lat="59.9791624" lon="17.74038">
        <ele>50.6066</ele>
        <time>2013-04-30T18:58:22Z</time>
      </trkpt>
      <trkpt lat="59.9791626" lon="17.7403809">
        <ele>50.6066</ele>
        <time>2013-04-30T18:58:23Z</time>
      </trkpt>
      <trkpt lat="59.979163" lon="17.7403815">
        <ele>50.6066</ele>
        <time>2013-04-30T18:58:24Z</time>
      </trkpt>
      <trkpt lat="59.9791635" lon="17.740382">
        <ele>50.6066</ele>
        <time>2013-04-30T18:58:25Z</time>
      </trkpt>
      <trkpt lat="59.9791639" lon="17.7403826">
        <ele>51.0872</ele>
        <time>2013-04-30T18:58:26Z</time>
      </trkpt>
      <trkpt lat="59.9791644" lon="17.740383">
        <ele>51.0872</ele>
        <time>2013-04-30T18:58:27Z</time>
      </trkpt>
      <trkpt lat="59.9791648" lon="17.7403831">
        <ele>51.0872</ele>
        <time>2013-04-30T18:58:28Z</time>
      </trkpt>
      <trkpt lat="59.9791651" lon="17.7403835">
        <ele>51.5679</ele>
        <time>2013-04-30T18:58:29Z</time>
      </trkpt>
      <trkpt lat="59.9791656" lon="17.7403836">
        <ele>51.5679</ele>
        <time>2013-04-30T18:58:30Z</time>
      </trkpt>
      <trkpt lat="59.979166" lon="17.7403836">
        <ele>51.5679</ele>
        <time>2013-04-30T18:58:31Z</time>
      </trkpt>
      <trkpt lat="59.9791664" lon="17.7403836">
        <ele>52.0486</ele>
        <time>2013-04-30T18:58:32Z</time>
      </trkpt>
      <trkpt lat="59.9791681" lon="17.7403821">
        <ele>52.5292</ele>
        <time>2013-04-30T18:58:33Z</time>
      </trkpt>
      <trkpt lat="59.9791697" lon="17.740381">
        <ele>53.0098</ele>
        <time>2013-04-30T18:58:34Z</time>
      </trkpt>
      <trkpt lat="59.9791692" lon="17.7403793">
        <ele>52.5292</ele>
        <time>2013-04-30T18:58:35Z</time>
      </trkpt>
      <trkpt lat="59.979169" lon="17.7403778">
        <ele>52.0486</ele>
        <time>2013-04-30T18:58:36Z</time>
      </trkpt>
      <trkpt lat="59.9791687" lon="17.7403763">
        <ele>52.0486</ele>
        <time>2013-04-30T18:58:37Z</time>
      </trkpt>
      <trkpt lat="59.9791686" lon="17.7403749">
        <ele>52.0486</ele>
        <time>2013-04-30T18:58:38Z</time>
      </trkpt>
      <trkpt lat="59.9791683" lon="17.7403736">
        <ele>51.5679</ele>
        <time>2013-04-30T18:58:39Z</time>
      </trkpt>
      <trkpt lat="59.9791681" lon="17.7403722">
        <ele>51.5679</ele>
        <time>2013-04-30T18:58:40Z</time>
      </trkpt>
      <trkpt lat="59.9791679" lon="17.740371">
        <ele>51.0872</ele>
        <time>2013-04-30T18:58:41Z</time>
      </trkpt>
      <trkpt lat="59.9791677" lon="17.7403697">
        <ele>51.0872</ele>
        <time>2013-04-30T18:58:42Z</time>
      </trkpt>
      <trkpt lat="59.9791676" lon="17.7403687">
        <ele>51.0872</ele>
        <time>2013-04-30T18:58:43Z</time>
      </trkpt>
      <trkpt lat="59.979167" lon="17.7403665">
        <ele>50.6066</ele>
        <time>2013-04-30T18:58:44Z</time>
      </trkpt>
      <trkpt lat="59.9791666" lon="17.7403655">
        <ele>50.6066</ele>
        <time>2013-04-30T18:58:45Z</time>
      </trkpt>
      <trkpt lat="59.9791662" lon="17.7403644">
        <ele>50.126</ele>
        <time>2013-04-30T18:58:46Z</time>
      </trkpt>
      <trkpt lat="59.9791661" lon="17.7403634">
        <ele>50.126</ele>
        <time>2013-04-30T18:58:47Z</time>
      </trkpt>
      <trkpt lat="59.9791659" lon="17.7403624">
        <ele>50.126</ele>
        <time>2013-04-30T18:58:48Z</time>
      </trkpt>
      <trkpt lat="59.979166" lon="17.7403616">
        <ele>49.6453</ele>
        <time>2013-04-30T18:58:49Z</time>
      </trkpt>
      <trkpt lat="59.9791656" lon="17.7403607">
        <ele>49.6453</ele>
        <time>2013-04-30T18:58:50Z</time>
      </trkpt>
      <trkpt lat="59.979165" lon="17.7403598">
        <ele>49.6453</ele>
        <time>2013-04-30T18:58:51Z</time>
      </trkpt>
      <trkpt lat="59.9791649" lon="17.740359">
        <ele>49.6453</ele>
        <time>2013-04-30T18:58:52Z</time>
      </trkpt>
      <trkpt lat="59.9791649" lon="17.7403582">
        <ele>49.1646</ele>
        <time>2013-04-30T18:58:53Z</time>
      </trkpt>
      <trkpt lat="59.979165" lon="17.7403575">
        <ele>49.1646</ele>
        <time>2013-04-30T18:58:54Z</time>
      </trkpt>
      <trkpt lat="59.979165" lon="17.740357">
        <ele>49.1646</ele>
        <time>2013-04-30T18:58:55Z</time>
      </trkpt>
      <trkpt lat="59.9791651" lon="17.740356">
        <ele>49.1646</ele>
        <time>2013-04-30T18:58:56Z</time>
      </trkpt>
      <trkpt lat="59.9791644" lon="17.7403559">
        <ele>48.684</ele>
        <time>2013-04-30T18:58:57Z</time>
      </trkpt>
      <trkpt lat="59.9791634" lon="17.7403561">
        <ele>48.2034</ele>
        <time>2013-04-30T18:58:58Z</time>
      </trkpt>
      <trkpt lat="59.9791624" lon="17.7403562">
        <ele>47.7225</ele>
        <time>2013-04-30T18:58:59Z</time>
      </trkpt>
      <trkpt lat="59.9791614" lon="17.7403563">
        <ele>47.7225</ele>
        <time>2013-04-30T18:59:00Z</time>
      </trkpt>
      <trkpt lat="59.9791605" lon="17.7403562">
        <ele>47.2418</ele>
        <time>2013-04-30T18:59:01Z</time>
      </trkpt>
      <trkpt lat="59.9791597" lon="17.7403561">
        <ele>46.7612</ele>
        <time>2013-04-30T18:59:02Z</time>
      </trkpt>
      <trkpt lat="59.9791588" lon="17.7403562">
        <ele>46.7612</ele>
        <time>2013-04-30T18:59:03Z</time>
      </trkpt>
      <trkpt lat="59.9791579" lon="17.7403561">
        <ele>46.2806</ele>
        <time>2013-04-30T18:59:04Z</time>
      </trkpt>
      <trkpt lat="59.9791573" lon="17.7403561">
        <ele>45.7999</ele>
        <time>2013-04-30T18:59:05Z</time>
      </trkpt>
      <trkpt lat="59.9791565" lon="17.7403561">
        <ele>45.7999</ele>
        <time>2013-04-30T18:59:06Z</time>
      </trkpt>
      <trkpt lat="59.9791561" lon="17.740356">
        <ele>45.3192</ele>
        <time>2013-04-30T18:59:07Z</time>
      </trkpt>
      <trkpt lat="59.9791553" lon="17.740356">
        <ele>45.3192</ele>
        <time>2013-04-30T18:59:08Z</time>
      </trkpt>
      <trkpt lat="59.9791545" lon="17.7403562">
        <ele>44.8386</ele>
        <time>2013-04-30T18:59:09Z</time>
      </trkpt>
      <trkpt lat="59.9791535" lon="17.7403563">
        <ele>44.8386</ele>
        <time>2013-04-30T18:59:10Z</time>
      </trkpt>
      <trkpt lat="59.9791536" lon="17.7403567">
        <ele>44.8386</ele>
        <time>2013-04-30T18:59:11Z</time>
      </trkpt>
      <trkpt lat="59.979155" lon="17.7403563">
        <ele>44.8386</ele>
        <time>2013-04-30T18:59:12Z</time>
      </trkpt>
      <trkpt lat="59.9791556" lon="17.7403552">
        <ele>44.8386</ele>
        <time>2013-04-30T18:59:13Z</time>
      </trkpt>
      <trkpt lat="59.979156" lon="17.7403552">
        <ele>45.3192</ele>
        <time>2013-04-30T18:59:14Z</time>
      </trkpt>
      <trkpt lat="59.9791562" lon="17.7403557">
        <ele>45.3192</ele>
        <time>2013-04-30T18:59:15Z</time>
      </trkpt>
      <trkpt lat="59.9791567" lon="17.7403561">
        <ele>45.3192</ele>
        <time>2013-04-30T18:59:16Z</time>
      </trkpt>
      <trkpt lat="59.9791567" lon="17.7403566">
        <ele>45.3192</ele>
        <time>2013-04-30T18:59:17Z</time>
      </trkpt>
      <trkpt lat="59.9791565" lon="17.740357">
        <ele>45.3192</ele>
        <time>2013-04-30T18:59:18Z</time>
      </trkpt>
      <trkpt lat="59.9791565" lon="17.7403572">
        <ele>45.3192</ele>
        <time>2013-04-30T18:59:19Z</time>
      </trkpt>
      <trkpt lat="59.9791565" lon="17.7403576">
        <ele>45.3192</ele>
        <time>2013-04-30T18:59:20Z</time>
      </trkpt>
      <trkpt lat="59.9791565" lon="17.7403577">
        <ele>45.3192</ele>
        <time>2013-04-30T18:59:21Z</time>
      </trkpt>
      <trkpt lat="59.9791557" lon="17.7403577">
        <ele>44.8386</ele>
        <time>2013-04-30T18:59:22Z</time>
      </trkpt>
      <trkpt lat="59.9791548" lon="17.7403576">
        <ele>44.8386</ele>
        <time>2013-04-30T18:59:23Z</time>
      </trkpt>
      <trkpt lat="59.979154" lon="17.7403571">
        <ele>44.358</ele>
        <time>2013-04-30T18:59:24Z</time>
      </trkpt>
      <trkpt lat="59.979153" lon="17.7403568">
        <ele>43.8773</ele>
        <time>2013-04-30T18:59:25Z</time>
      </trkpt>
      <trkpt lat="59.9791521" lon="17.7403567">
        <ele>43.8773</ele>
        <time>2013-04-30T18:59:26Z</time>
      </trkpt>
      <trkpt lat="59.9791514" lon="17.7403562">
        <ele>43.3966</ele>
        <time>2013-04-30T18:59:27Z</time>
      </trkpt>
      <trkpt lat="59.9791506" lon="17.7403557">
        <ele>42.916</ele>
        <time>2013-04-30T18:59:28Z</time>
      </trkpt>
      <trkpt lat="59.9791503" lon="17.7403555">
        <ele>42.916</ele>
        <time>2013-04-30T18:59:29Z</time>
      </trkpt>
      <trkpt lat="59.9791495" lon="17.7403551">
        <ele>42.916</ele>
        <time>2013-04-30T18:59:30Z</time>
      </trkpt>
      <trkpt lat="59.9791493" lon="17.740355">
        <ele>42.4354</ele>
        <time>2013-04-30T18:59:31Z</time>
      </trkpt>
      <trkpt lat="59.9791489" lon="17.7403544">
        <ele>42.4354</ele>
        <time>2013-04-30T18:59:32Z</time>
      </trkpt>
      <trkpt lat="59.9791484" lon="17.740354">
        <ele>42.4354</ele>
        <time>2013-04-30T18:59:33Z</time>
      </trkpt>
      <trkpt lat="59.9791479" lon="17.7403537">
        <ele>41.9547</ele>
        <time>2013-04-30T18:59:34Z</time>
      </trkpt>
      <trkpt lat="59.9791474" lon="17.7403534">
        <ele>41.9547</ele>
        <time>2013-04-30T18:59:35Z</time>
      </trkpt>
      <trkpt lat="59.979147" lon="17.740353">
        <ele>41.9547</ele>
        <time>2013-04-30T18:59:36Z</time>
      </trkpt>
      <trkpt lat="59.9791467" lon="17.740353">
        <ele>41.474</ele>
        <time>2013-04-30T18:59:37Z</time>
      </trkpt>
      <trkpt lat="59.9791462" lon="17.7403525">
        <ele>41.474</ele>
        <time>2013-04-30T18:59:38Z</time>
      </trkpt>
      <trkpt lat="59.9791443" lon="17.7403511">
        <ele>40.9934</ele>
        <time>2013-04-30T18:59:39Z</time>
      </trkpt>
      <trkpt lat="59.9791406" lon="17.7403498">
        <ele>40.0321</ele>
        <time>2013-04-30T18:59:40Z</time>
      </trkpt>
      <trkpt lat="59.9791374" lon="17.7403484">
        <ele>39.0707</ele>
        <time>2013-04-30T18:59:41Z</time>
      </trkpt>
      <trkpt lat="59.9791345" lon="17.7403471">
        <ele>38.1094</ele>
        <time>2013-04-30T18:59:42Z</time>
      </trkpt>
      <trkpt lat="59.979132" lon="17.7403463">
        <ele>37.6287</ele>
        <time>2013-04-30T18:59:43Z</time>
      </trkpt>
      <trkpt lat="59.9791299" lon="17.7403458">
        <ele>37.1481</ele>
        <time>2013-04-30T18:59:44Z</time>
      </trkpt>
      <trkpt lat="59.9791284" lon="17.7403448">
        <ele>36.6675</ele>
        <time>2013-04-30T18:59:45Z</time>
      </trkpt>
      <trkpt lat="59.9791272" lon="17.740344">
        <ele>36.1868</ele>
        <time>2013-04-30T18:59:46Z</time>
      </trkpt>
      <trkpt lat="59.9791263" lon="17.7403431">
        <ele>35.7061</ele>
        <time>2013-04-30T18:59:47Z</time>
      </trkpt>
      <trkpt lat="59.9791258" lon="17.7403423">
        <ele>35.7061</ele>
        <time>2013-04-30T18:59:48Z</time>
      </trkpt>
      <trkpt lat="59.9791253" lon="17.740342">
        <ele>35.2255</ele>
        <time>2013-04-30T18:59:49Z</time>
      </trkpt>
      <trkpt lat="59.9791251" lon="17.7403416">
        <ele>35.2255</ele>
        <time>2013-04-30T18:59:50Z</time>
      </trkpt>
      <trkpt lat="59.9791251" lon="17.7403415">
        <ele>35.2255</ele>
        <time>2013-04-30T18:59:51Z</time>
      </trkpt>
      <trkpt lat="59.9791252" lon="17.7403416">
        <ele>35.2255</ele>
        <time>2013-04-30T18:59:52Z</time>
      </trkpt>
      <trkpt lat="59.9791251" lon="17.7403416">
        <ele>35.2255</ele>
        <time>2013-04-30T18:59:53Z</time>
      </trkpt>
      <trkpt lat="59.9791253" lon="17.740342">
        <ele>35.2255</ele>
        <time>2013-04-30T18:59:54Z</time>
      </trkpt>
      <trkpt lat="59.9791252" lon="17.7403421">
        <ele>35.2255</ele>
        <time>2013-04-30T18:59:55Z</time>
      </trkpt>
      <trkpt lat="59.9791251" lon="17.7403422">
        <ele>35.2255</ele>
        <time>2013-04-30T18:59:56Z</time>
      </trkpt>
      <trkpt lat="59.9791251" lon="17.7403425">
        <ele>35.2255</ele>
        <time>2013-04-30T18:59:57Z</time>
      </trkpt>
      <trkpt lat="59.9791251" lon="17.7403423">
        <ele>35.2255</ele>
        <time>2013-04-30T18:59:58Z</time>
      </trkpt>
      <trkpt lat="59.9791253" lon="17.7403428">
        <ele>35.2255</ele>
        <time>2013-04-30T18:59:59Z</time>
      </trkpt>
      <trkpt lat="59.9791257" lon="17.7403431">
        <ele>35.2255</ele>
        <time>2013-04-30T19:00:00Z</time>
      </trkpt>
      <trkpt lat="59.9791256" lon="17.7403431">
        <ele>35.2255</ele>
        <time>2013-04-30T19:00:01Z</time>
      </trkpt>
      <trkpt lat="59.9791252" lon="17.7403431">
        <ele>35.2255</ele>
        <time>2013-04-30T19:00:02Z</time>
      </trkpt>
      <trkpt lat="59.9791249" lon="17.7403432">
        <ele>34.7449</ele>
        <time>2013-04-30T19:00:03Z</time>
      </trkpt>
      <trkpt lat="59.9791241" lon="17.7403431">
        <ele>34.7449</ele>
        <time>2013-04-30T19:00:04Z</time>
      </trkpt>
      <trkpt lat="59.9791235" lon="17.7403432">
        <ele>34.7449</ele>
        <time>2013-04-30T19:00:05Z</time>
      </trkpt>
      <trkpt lat="59.9791231" lon="17.7403433">
        <ele>34.7449</ele>
        <time>2013-04-30T19:00:06Z</time>
      </trkpt>
      <trkpt lat="59.9791227" lon="17.7403433">
        <ele>34.7449</ele>
        <time>2013-04-30T19:00:07Z</time>
      </trkpt>
      <trkpt lat="59.9791226" lon="17.7403435">
        <ele>34.2642</ele>
        <time>2013-04-30T19:00:08Z</time>
      </trkpt>
      <trkpt lat="59.9791223" lon="17.7403435">
        <ele>34.2642</ele>
        <time>2013-04-30T19:00:09Z</time>
      </trkpt>
      <trkpt lat="59.979122" lon="17.7403433">
        <ele>34.2642</ele>
        <time>2013-04-30T19:00:10Z</time>
      </trkpt>
      <trkpt lat="59.9791215" lon="17.7403433">
        <ele>34.2642</ele>
        <time>2013-04-30T19:00:11Z</time>
      </trkpt>
      <trkpt lat="59.9791211" lon="17.7403435">
        <ele>34.2642</ele>
        <time>2013-04-30T19:00:12Z</time>
      </trkpt>
      <trkpt lat="59.9791206" lon="17.7403435">
        <ele>33.7834</ele>
        <time>2013-04-30T19:00:13Z</time>
      </trkpt>
      <trkpt lat="59.9791201" lon="17.7403435">
        <ele>33.7834</ele>
        <time>2013-04-30T19:00:14Z</time>
      </trkpt>
      <trkpt lat="59.9791196" lon="17.7403435">
        <ele>33.7834</ele>
        <time>2013-04-30T19:00:15Z</time>
      </trkpt>
      <trkpt lat="59.9791195" lon="17.7403436">
        <ele>33.7834</ele>
        <time>2013-04-30T19:00:16Z</time>
      </trkpt>
      <trkpt lat="59.9791196" lon="17.7403437">
        <ele>33.7834</ele>
        <time>2013-04-30T19:00:17Z</time>
      </trkpt>
      <trkpt lat="59.9791195" lon="17.740344">
        <ele>33.7834</ele>
        <time>2013-04-30T19:00:18Z</time>
      </trkpt>
      <trkpt lat="59.9791195" lon="17.740344">
        <ele>33.7834</ele>
        <time>2013-04-30T19:00:19Z</time>
      </trkpt>
      <trkpt lat="59.9791195" lon="17.740344">
        <ele>33.7834</ele>
        <time>2013-04-30T19:00:20Z</time>
      </trkpt>
      <trkpt lat="59.9791195" lon="17.7403442">
        <ele>33.7834</ele>
        <time>2013-04-30T19:00:21Z</time>
      </trkpt>
      <trkpt lat="59.9791194" lon="17.7403443">
        <ele>33.7834</ele>
        <time>2013-04-30T19:00:22Z</time>
      </trkpt>
      <trkpt lat="59.9791194" lon="17.7403446">
        <ele>33.7834</ele>
        <time>2013-04-30T19:00:23Z</time>
      </trkpt>
      <trkpt lat="59.9791192" lon="17.7403447">
        <ele>33.7834</ele>
        <time>2013-04-30T19:00:24Z</time>
      </trkpt>
      <trkpt lat="59.9791192" lon="17.7403447">
        <ele>33.7834</ele>
        <time>2013-04-30T19:00:25Z</time>
      </trkpt>
      <trkpt lat="59.9791193" lon="17.7403448">
        <ele>33.7834</ele>
        <time>2013-04-30T19:00:26Z</time>
      </trkpt>
      <trkpt lat="59.9791194" lon="17.7403449">
        <ele>33.7834</ele>
        <time>2013-04-30T19:00:27Z</time>
      </trkpt>
      <trkpt lat="59.9791196" lon="17.7403449">
        <ele>33.7834</ele>
        <time>2013-04-30T19:00:28Z</time>
      </trkpt>
      <trkpt lat="59.97912" lon="17.7403443">
        <ele>33.7834</ele>
        <time>2013-04-30T19:00:29Z</time>
      </trkpt>
      <trkpt lat="59.9791223" lon="17.7403422">
        <ele>34.2642</ele>
        <time>2013-04-30T19:00:30Z</time>
      </trkpt>
      <trkpt lat="59.9791241" lon="17.7403405">
        <ele>34.7449</ele>
        <time>2013-04-30T19:00:31Z</time>
      </trkpt>
      <trkpt lat="59.9791257" lon="17.7403389">
        <ele>34.7449</ele>
        <time>2013-04-30T19:00:32Z</time>
      </trkpt>
      <trkpt lat="59.9791273" lon="17.7403373">
        <ele>35.2255</ele>
        <time>2013-04-30T19:00:33Z</time>
      </trkpt>
      <trkpt lat="59.9791291" lon="17.7403359">
        <ele>35.2255</ele>
        <time>2013-04-30T19:00:34Z</time>
      </trkpt>
      <trkpt lat="59.9791293" lon="17.740336">
        <ele>35.7061</ele>
        <time>2013-04-30T19:00:35Z</time>
      </trkpt>
      <trkpt lat="59.9791296" lon="17.7403361">
        <ele>35.7061</ele>
        <time>2013-04-30T19:00:36Z</time>
      </trkpt>
      <trkpt lat="59.9791297" lon="17.7403364">
        <ele>35.7061</ele>
        <time>2013-04-30T19:00:37Z</time>
      </trkpt>
      <trkpt lat="59.9791298" lon="17.7403365">
        <ele>35.7061</ele>
        <time>2013-04-30T19:00:38Z</time>
      </trkpt>
      <trkpt lat="59.9791302" lon="17.7403369">
        <ele>35.7061</ele>
        <time>2013-04-30T19:00:39Z</time>
      </trkpt>
      <trkpt lat="59.9791303" lon="17.7403375">
        <ele>35.7061</ele>
        <time>2013-04-30T19:00:40Z</time>
      </trkpt>
      <trkpt lat="59.9791303" lon="17.7403379">
        <ele>36.1868</ele>
        <time>2013-04-30T19:00:41Z</time>
      </trkpt>
      <trkpt lat="59.9791306" lon="17.7403381">
        <ele>36.1868</ele>
        <time>2013-04-30T19:00:42Z</time>
      </trkpt>
      <trkpt lat="59.9791306" lon="17.7403385">
        <ele>36.1868</ele>
        <time>2013-04-30T19:00:43Z</time>
      </trkpt>
      <trkpt lat="59.9791303" lon="17.7403388">
        <ele>36.1868</ele>
        <time>2013-04-30T19:00:44Z</time>
      </trkpt>
      <trkpt lat="59.9791303" lon="17.740339">
        <ele>36.1868</ele>
        <time>2013-04-30T19:00:45Z</time>
      </trkpt>
      <trkpt lat="59.9791301" lon="17.7403391">
        <ele>36.1868</ele>
        <time>2013-04-30T19:00:46Z</time>
      </trkpt>
      <trkpt lat="59.9791298" lon="17.7403392">
        <ele>36.1868</ele>
        <time>2013-04-30T19:00:47Z</time>
      </trkpt>
      <trkpt lat="59.9791297" lon="17.7403395">
        <ele>36.1868</ele>
        <time>2013-04-30T19:00:48Z</time>
      </trkpt>
      <trkpt lat="59.9791292" lon="17.7403397">
        <ele>36.1868</ele>
        <time>2013-04-30T19:00:49Z</time>
      </trkpt>
      <trkpt lat="59.9791288" lon="17.7403405">
        <ele>36.1868</ele>
        <time>2013-04-30T19:00:50Z</time>
      </trkpt>
      <trkpt lat="59.9791272" lon="17.7403392">
        <ele>35.7061</ele>
        <time>2013-04-30T19:00:51Z</time>
      </trkpt>
      <trkpt lat="59.9791271" lon="17.7403388">
        <ele>35.7061</ele>
        <time>2013-04-30T19:00:52Z</time>
      </trkpt>
      <trkpt lat="59.979127" lon="17.7403392">
        <ele>35.7061</ele>
        <time>2013-04-30T19:00:53Z</time>
      </trkpt>
      <trkpt lat="59.9791272" lon="17.7403397">
        <ele>35.7061</ele>
        <time>2013-04-30T19:00:54Z</time>
      </trkpt>
      <trkpt lat="59.9791271" lon="17.7403401">
        <ele>35.7061</ele>
        <time>2013-04-30T19:00:55Z</time>
      </trkpt>
      <trkpt lat="59.9791267" lon="17.7403402">
        <ele>35.7061</ele>
        <time>2013-04-30T19:00:56Z</time>
      </trkpt>
      <trkpt lat="59.9791263" lon="17.7403405">
        <ele>35.7061</ele>
        <time>2013-04-30T19:00:57Z</time>
      </trkpt>
      <trkpt lat="59.9791257" lon="17.7403402">
        <ele>35.7061</ele>
        <time>2013-04-30T19:00:58Z</time>
      </trkpt>
      <trkpt lat="59.9791251" lon="17.74034">
        <ele>35.2255</ele>
        <time>2013-04-30T19:00:59Z</time>
      </trkpt>
      <trkpt lat="59.9791244" lon="17.7403397">
        <ele>35.2255</ele>
        <time>2013-04-30T19:01:00Z</time>
      </trkpt>
      <trkpt lat="59.9791234" lon="17.7403395">
        <ele>34.7449</ele>
        <time>2013-04-30T19:01:01Z</time>
      </trkpt>
      <trkpt lat="59.9791223" lon="17.7403391">
        <ele>34.7449</ele>
        <time>2013-04-30T19:01:02Z</time>
      </trkpt>
      <trkpt lat="59.9791211" lon="17.7403388">
        <ele>34.2642</ele>
        <time>2013-04-30T19:01:03Z</time>
      </trkpt>
      <trkpt lat="59.9791204" lon="17.7403386">
        <ele>34.2642</ele>
        <time>2013-04-30T19:01:04Z</time>
      </trkpt>
      <trkpt lat="59.9791198" lon="17.7403385">
        <ele>33.7834</ele>
        <time>2013-04-30T19:01:05Z</time>
      </trkpt>
      <trkpt lat="59.9791192" lon="17.7403385">
        <ele>33.7834</ele>
        <time>2013-04-30T19:01:06Z</time>
      </trkpt>
      <trkpt lat="59.9791185" lon="17.7403385">
        <ele>33.7834</ele>
        <time>2013-04-30T19:01:07Z</time>
      </trkpt>
      <trkpt lat="59.9791179" lon="17.7403385">
        <ele>33.3029</ele>
        <time>2013-04-30T19:01:08Z</time>
      </trkpt>
      <trkpt lat="59.9791175" lon="17.7403385">
        <ele>33.3029</ele>
        <time>2013-04-30T19:01:09Z</time>
      </trkpt>
      <trkpt lat="59.9791172" lon="17.7403388">
        <ele>33.3029</ele>
        <time>2013-04-30T19:01:10Z</time>
      </trkpt>
      <trkpt lat="59.9791172" lon="17.7403392">
        <ele>33.3029</ele>
        <time>2013-04-30T19:01:11Z</time>
      </trkpt>
      <trkpt lat="59.9791169" lon="17.7403396">
        <ele>33.3029</ele>
        <time>2013-04-30T19:01:12Z</time>
      </trkpt>
      <trkpt lat="59.9791169" lon="17.74034">
        <ele>33.3029</ele>
        <time>2013-04-30T19:01:13Z</time>
      </trkpt>
      <trkpt lat="59.9791169" lon="17.7403402">
        <ele>33.3029</ele>
        <time>2013-04-30T19:01:14Z</time>
      </trkpt>
      <trkpt lat="59.9791169" lon="17.7403407">
        <ele>33.3029</ele>
        <time>2013-04-30T19:01:15Z</time>
      </trkpt>
      <trkpt lat="59.9791172" lon="17.7403411">
        <ele>33.3029</ele>
        <time>2013-04-30T19:01:16Z</time>
      </trkpt>
      <trkpt lat="59.9791174" lon="17.7403416">
        <ele>33.7834</ele>
        <time>2013-04-30T19:01:17Z</time>
      </trkpt>
      <trkpt lat="59.9791175" lon="17.7403421">
        <ele>33.7834</ele>
        <time>2013-04-30T19:01:18Z</time>
      </trkpt>
      <trkpt lat="59.9791178" lon="17.7403425">
        <ele>33.7834</ele>
        <time>2013-04-30T19:01:19Z</time>
      </trkpt>
      <trkpt lat="59.9791174" lon="17.740343">
        <ele>33.7834</ele>
        <time>2013-04-30T19:01:20Z</time>
      </trkpt>
      <trkpt lat="59.9791178" lon="17.7403436">
        <ele>33.7834</ele>
        <time>2013-04-30T19:01:21Z</time>
      </trkpt>
      <trkpt lat="59.9791184" lon="17.7403442">
        <ele>33.7834</ele>
        <time>2013-04-30T19:01:22Z</time>
      </trkpt>
      <trkpt lat="59.9791182" lon="17.7403447">
        <ele>33.7834</ele>
        <time>2013-04-30T19:01:23Z</time>
      </trkpt>
      <trkpt lat="59.9791179" lon="17.7403453">
        <ele>33.7834</ele>
        <time>2013-04-30T19:01:24Z</time>
      </trkpt>
      <trkpt lat="59.9791175" lon="17.7403461">
        <ele>33.7834</ele>
        <time>2013-04-30T19:01:25Z</time>
      </trkpt>
      <trkpt lat="59.9791174" lon="17.7403466">
        <ele>33.7834</ele>
        <time>2013-04-30T19:01:26Z</time>
      </trkpt>
      <trkpt lat="59.9791175" lon="17.7403473">
        <ele>34.2642</ele>
        <time>2013-04-30T19:01:27Z</time>
      </trkpt>
      <trkpt lat="59.9791174" lon="17.740348">
        <ele>34.2642</ele>
        <time>2013-04-30T19:01:28Z</time>
      </trkpt>
      <trkpt lat="59.9791178" lon="17.7403489">
        <ele>34.2642</ele>
        <time>2013-04-30T19:01:29Z</time>
      </trkpt>
      <trkpt lat="59.9791179" lon="17.7403498">
        <ele>34.2642</ele>
        <time>2013-04-30T19:01:30Z</time>
      </trkpt>
      <trkpt lat="59.9791184" lon="17.7403499">
        <ele>34.7449</ele>
        <time>2013-04-30T19:01:31Z</time>
      </trkpt>
      <trkpt lat="59.9791185" lon="17.7403499">
        <ele>34.7449</ele>
        <time>2013-04-30T19:01:32Z</time>
      </trkpt>
      <trkpt lat="59.9791188" lon="17.7403511">
        <ele>34.7449</ele>
        <time>2013-04-30T19:01:33Z</time>
      </trkpt>
      <trkpt lat="59.9791193" lon="17.7403524">
        <ele>34.7449</ele>
        <time>2013-04-30T19:01:34Z</time>
      </trkpt>
      <trkpt lat="59.9791182" lon="17.7403515">
        <ele>34.7449</ele>
        <time>2013-04-30T19:01:35Z</time>
      </trkpt>
      <trkpt lat="59.9791163" lon="17.7403508">
        <ele>34.2642</ele>
        <time>2013-04-30T19:01:36Z</time>
      </trkpt>
      <trkpt lat="59.9791148" lon="17.7403503">
        <ele>33.7834</ele>
        <time>2013-04-30T19:01:37Z</time>
      </trkpt>
      <trkpt lat="59.9791148" lon="17.7403515">
        <ele>33.7834</ele>
        <time>2013-04-30T19:01:38Z</time>
      </trkpt>
      <trkpt lat="59.9791149" lon="17.7403526">
        <ele>33.7834</ele>
        <time>2013-04-30T19:01:39Z</time>
      </trkpt>
      <trkpt lat="59.9791128" lon="17.7403479">
        <ele>33.7834</ele>
        <time>2013-04-30T19:01:40Z</time>
      </trkpt>
      <trkpt lat="59.9791102" lon="17.7403432">
        <ele>33.7834</ele>
        <time>2013-04-30T19:01:41Z</time>
      </trkpt>
      <trkpt lat="59.979108" lon="17.7403388">
        <ele>33.3029</ele>
        <time>2013-04-30T19:01:42Z</time>
      </trkpt>
      <trkpt lat="59.9791059" lon="17.7403345">
        <ele>33.3029</ele>
        <time>2013-04-30T19:01:43Z</time>
      </trkpt>
      <trkpt lat="59.9791043" lon="17.7403308">
        <ele>33.3029</ele>
        <time>2013-04-30T19:01:44Z</time>
      </trkpt>
      <trkpt lat="59.9791024" lon="17.7403271">
        <ele>32.8223</ele>
        <time>2013-04-30T19:01:45Z</time>
      </trkpt>
      <trkpt lat="59.9791008" lon="17.7403233">
        <ele>32.8223</ele>
        <time>2013-04-30T19:01:46Z</time>
      </trkpt>
      <trkpt lat="59.9790991" lon="17.7403194">
        <ele>32.8223</ele>
        <time>2013-04-30T19:01:47Z</time>
      </trkpt>
      <trkpt lat="59.9790973" lon="17.7403158">
        <ele>32.8223</ele>
        <time>2013-04-30T19:01:48Z</time>
      </trkpt>
      <trkpt lat="59.9790957" lon="17.7403122">
        <ele>32.3416</ele>
        <time>2013-04-30T19:01:49Z</time>
      </trkpt>
      <trkpt lat="59.9790942" lon="17.7403089">
        <ele>32.3416</ele>
        <time>2013-04-30T19:01:50Z</time>
      </trkpt>
      <trkpt lat="59.979093" lon="17.7403057">
        <ele>32.3416</ele>
        <time>2013-04-30T19:01:51Z</time>
      </trkpt>
      <trkpt lat="59.979092" lon="17.7403029">
        <ele>32.3416</ele>
        <time>2013-04-30T19:01:52Z</time>
      </trkpt>
      <trkpt lat="59.9790918" lon="17.7403007">
        <ele>32.3416</ele>
        <time>2013-04-30T19:01:53Z</time>
      </trkpt>
      <trkpt lat="59.9790904" lon="17.740298">
        <ele>32.3416</ele>
        <time>2013-04-30T19:01:54Z</time>
      </trkpt>
      <trkpt lat="59.979091" lon="17.7402971">
        <ele>32.3416</ele>
        <time>2013-04-30T19:01:55Z</time>
      </trkpt>
      <trkpt lat="59.9790914" lon="17.740297">
        <ele>32.3416</ele>
        <time>2013-04-30T19:01:56Z</time>
      </trkpt>
      <trkpt lat="59.9790915" lon="17.7402962">
        <ele>32.3416</ele>
        <time>2013-04-30T19:01:57Z</time>
      </trkpt>
      <trkpt lat="59.9790914" lon="17.7402955">
        <ele>32.3416</ele>
        <time>2013-04-30T19:01:58Z</time>
      </trkpt>
      <trkpt lat="59.9790913" lon="17.7402946">
        <ele>32.8223</ele>
        <time>2013-04-30T19:01:59Z</time>
      </trkpt>
      <trkpt lat="59.9790915" lon="17.7402943">
        <ele>32.8223</ele>
        <time>2013-04-30T19:02:00Z</time>
      </trkpt>
      <trkpt lat="59.9790914" lon="17.740294">
        <ele>32.8223</ele>
        <time>2013-04-30T19:02:01Z</time>
      </trkpt>
      <trkpt lat="59.9790915" lon="17.7402938">
        <ele>32.8223</ele>
        <time>2013-04-30T19:02:02Z</time>
      </trkpt>
      <trkpt lat="59.9790904" lon="17.7402938">
        <ele>32.8223</ele>
        <time>2013-04-30T19:02:03Z</time>
      </trkpt>
      <trkpt lat="59.9790895" lon="17.740294">
        <ele>32.3416</ele>
        <time>2013-04-30T19:02:04Z</time>
      </trkpt>
      <trkpt lat="59.9790888" lon="17.7402946">
        <ele>32.3416</ele>
        <time>2013-04-30T19:02:05Z</time>
      </trkpt>
      <trkpt lat="59.9790878" lon="17.7402954">
        <ele>32.3416</ele>
        <time>2013-04-30T19:02:06Z</time>
      </trkpt>
      <trkpt lat="59.9790871" lon="17.7402953">
        <ele>32.3416</ele>
        <time>2013-04-30T19:02:07Z</time>
      </trkpt>
      <trkpt lat="59.9790864" lon="17.7402955">
        <ele>32.3416</ele>
        <time>2013-04-30T19:02:08Z</time>
      </trkpt>
      <trkpt lat="59.9790863" lon="17.7402961">
        <ele>32.3416</ele>
        <time>2013-04-30T19:02:09Z</time>
      </trkpt>
      <trkpt lat="59.9790864" lon="17.740297">
        <ele>32.3416</ele>
        <time>2013-04-30T19:02:10Z</time>
      </trkpt>
      <trkpt lat="59.9790868" lon="17.7402977">
        <ele>32.3416</ele>
        <time>2013-04-30T19:02:11Z</time>
      </trkpt>
      <trkpt lat="59.9790869" lon="17.7402986">
        <ele>32.3416</ele>
        <time>2013-04-30T19:02:12Z</time>
      </trkpt>
      <trkpt lat="59.9790873" lon="17.7402993">
        <ele>32.8223</ele>
        <time>2013-04-30T19:02:13Z</time>
      </trkpt>
      <trkpt lat="59.9790874" lon="17.7403002">
        <ele>32.8223</ele>
        <time>2013-04-30T19:02:14Z</time>
      </trkpt>
      <trkpt lat="59.9790876" lon="17.7403011">
        <ele>32.8223</ele>
        <time>2013-04-30T19:02:15Z</time>
      </trkpt>
      <trkpt lat="59.9790882" lon="17.7403019">
        <ele>32.8223</ele>
        <time>2013-04-30T19:02:16Z</time>
      </trkpt>
      <trkpt lat="59.9790887" lon="17.7403024">
        <ele>32.8223</ele>
        <time>2013-04-30T19:02:17Z</time>
      </trkpt>
      <trkpt lat="59.979089" lon="17.7403026">
        <ele>32.8223</ele>
        <time>2013-04-30T19:02:18Z</time>
      </trkpt>
      <trkpt lat="59.9790898" lon="17.7403028">
        <ele>33.3029</ele>
        <time>2013-04-30T19:02:19Z</time>
      </trkpt>
      <trkpt lat="59.9790904" lon="17.7403038">
        <ele>33.3029</ele>
        <time>2013-04-30T19:02:20Z</time>
      </trkpt>
      <trkpt lat="59.9790907" lon="17.7403042">
        <ele>33.3029</ele>
        <time>2013-04-30T19:02:21Z</time>
      </trkpt>
      <trkpt lat="59.9790905" lon="17.7403044">
        <ele>33.3029</ele>
        <time>2013-04-30T19:02:22Z</time>
      </trkpt>
      <trkpt lat="59.9790904" lon="17.7403047">
        <ele>33.3029</ele>
        <time>2013-04-30T19:02:23Z</time>
      </trkpt>
      <trkpt lat="59.9790894" lon="17.7403054">
        <ele>32.8223</ele>
        <time>2013-04-30T19:02:24Z</time>
      </trkpt>
      <trkpt lat="59.9790885" lon="17.7403059">
        <ele>32.8223</ele>
        <time>2013-04-30T19:02:25Z</time>
      </trkpt>
      <trkpt lat="59.9790877" lon="17.7403064">
        <ele>32.3416</ele>
        <time>2013-04-30T19:02:26Z</time>
      </trkpt>
      <trkpt lat="59.9790867" lon="17.7403067">
        <ele>32.3416</ele>
        <time>2013-04-30T19:02:27Z</time>
      </trkpt>
      <trkpt lat="59.9790853" lon="17.7403065">
        <ele>31.8607</ele>
        <time>2013-04-30T19:02:28Z</time>
      </trkpt>
      <trkpt lat="59.9790841" lon="17.7403064">
        <ele>31.3801</ele>
        <time>2013-04-30T19:02:29Z</time>
      </trkpt>
      <trkpt lat="59.9790836" lon="17.7403065">
        <ele>31.3801</ele>
        <time>2013-04-30T19:02:30Z</time>
      </trkpt>
      <trkpt lat="59.9790827" lon="17.7403063">
        <ele>30.8995</ele>
        <time>2013-04-30T19:02:31Z</time>
      </trkpt>
      <trkpt lat="59.9790821" lon="17.7403058">
        <ele>30.8995</ele>
        <time>2013-04-30T19:02:32Z</time>
      </trkpt>
      <trkpt lat="59.9790814" lon="17.7403053">
        <ele>30.8995</ele>
        <time>2013-04-30T19:02:33Z</time>
      </trkpt>
      <trkpt lat="59.9790809" lon="17.7403052">
        <ele>30.4188</ele>
        <time>2013-04-30T19:02:34Z</time>
      </trkpt>
      <trkpt lat="59.9790806" lon="17.7403049">
        <ele>30.4188</ele>
        <time>2013-04-30T19:02:35Z</time>
      </trkpt>
      <trkpt lat="59.9790805" lon="17.7403036">
        <ele>30.4188</ele>
        <time>2013-04-30T19:02:36Z</time>
      </trkpt>
      <trkpt lat="59.9790811" lon="17.7403027">
        <ele>30.4188</ele>
        <time>2013-04-30T19:02:37Z</time>
      </trkpt>
      <trkpt lat="59.9790817" lon="17.7403013">
        <ele>30.4188</ele>
        <time>2013-04-30T19:02:38Z</time>
      </trkpt>
      <trkpt lat="59.9790827" lon="17.7403028">
        <ele>30.8995</ele>
        <time>2013-04-30T19:02:39Z</time>
      </trkpt>
      <trkpt lat="59.9790841" lon="17.7403059">
        <ele>30.8995</ele>
        <time>2013-04-30T19:02:40Z</time>
      </trkpt>
      <trkpt lat="59.9790853" lon="17.7403085">
        <ele>31.3801</ele>
        <time>2013-04-30T19:02:41Z</time>
      </trkpt>
      <trkpt lat="59.9790863" lon="17.7403109">
        <ele>31.3801</ele>
        <time>2013-04-30T19:02:42Z</time>
      </trkpt>
      <trkpt lat="59.9790874" lon="17.7403136">
        <ele>31.3801</ele>
        <time>2013-04-30T19:02:43Z</time>
      </trkpt>
      <trkpt lat="59.9790885" lon="17.7403166">
        <ele>31.8607</ele>
        <time>2013-04-30T19:02:44Z</time>
      </trkpt>
      <trkpt lat="59.9790926" lon="17.7403213">
        <ele>32.3416</ele>
        <time>2013-04-30T19:02:45Z</time>
      </trkpt>
      <trkpt lat="59.9790961" lon="17.740325">
        <ele>32.8223</ele>
        <time>2013-04-30T19:02:46Z</time>
      </trkpt>
      <trkpt lat="59.9790997" lon="17.7403286">
        <ele>33.3029</ele>
        <time>2013-04-30T19:02:47Z</time>
      </trkpt>
      <trkpt lat="59.9791029" lon="17.7403318">
        <ele>33.3029</ele>
        <time>2013-04-30T19:02:48Z</time>
      </trkpt>
      <trkpt lat="59.9791058" lon="17.7403344">
        <ele>33.7834</ele>
        <time>2013-04-30T19:02:49Z</time>
      </trkpt>
      <trkpt lat="59.9791086" lon="17.7403373">
        <ele>34.2642</ele>
        <time>2013-04-30T19:02:50Z</time>
      </trkpt>
      <trkpt lat="59.9791113" lon="17.7403396">
        <ele>34.2642</ele>
        <time>2013-04-30T19:02:51Z</time>
      </trkpt>
      <trkpt lat="59.9791137" lon="17.7403414">
        <ele>34.7449</ele>
        <time>2013-04-30T19:02:52Z</time>
      </trkpt>
      <trkpt lat="59.9791169" lon="17.7403477">
        <ele>35.2255</ele>
        <time>2013-04-30T19:02:53Z</time>
      </trkpt>
      <trkpt lat="59.9791184" lon="17.740353">
        <ele>35.2255</ele>
        <time>2013-04-30T19:02:54Z</time>
      </trkpt>
      <trkpt lat="59.9791195" lon="17.7403514">
        <ele>35.7061</ele>
        <time>2013-04-30T19:02:55Z</time>
      </trkpt>
      <trkpt lat="59.9791175" lon="17.7403391">
        <ele>35.7061</ele>
        <time>2013-04-30T19:02:56Z</time>
      </trkpt>
      <trkpt lat="59.9791132" lon="17.7403288">
        <ele>35.7061</ele>
        <time>2013-04-30T19:02:57Z</time>
      </trkpt>
      <trkpt lat="59.979106" lon="17.7403132">
        <ele>35.7061</ele>
        <time>2013-04-30T19:02:58Z</time>
      </trkpt>
      <trkpt lat="59.9791017" lon="17.740298">
        <ele>35.7061</ele>
        <time>2013-04-30T19:02:59Z</time>
      </trkpt>
      <trkpt lat="59.9790986" lon="17.7402847">
        <ele>36.1868</ele>
        <time>2013-04-30T19:03:00Z</time>
      </trkpt>
      <trkpt lat="59.9790959" lon="17.7402734">
        <ele>36.6675</ele>
        <time>2013-04-30T19:03:01Z</time>
      </trkpt>
      <trkpt lat="59.9790902" lon="17.7402674">
        <ele>37.1481</ele>
        <time>2013-04-30T19:03:02Z</time>
      </trkpt>
      <trkpt lat="59.9790806" lon="17.7402712">
        <ele>37.1481</ele>
        <time>2013-04-30T19:03:03Z</time>
      </trkpt>
      <trkpt lat="59.9790732" lon="17.7402794">
        <ele>37.6287</ele>
        <time>2013-04-30T19:03:04Z</time>
      </trkpt>
      <trkpt lat="59.9790666" lon="17.7402816">
        <ele>37.1481</ele>
        <time>2013-04-30T19:03:05Z</time>
      </trkpt>
      <trkpt lat="59.9790615" lon="17.7402778">
        <ele>37.1481</ele>
        <time>2013-04-30T19:03:06Z</time>
      </trkpt>
      <trkpt lat="59.9790587" lon="17.7402665">
        <ele>37.6287</ele>
        <time>2013-04-30T19:03:07Z</time>
      </trkpt>
      <trkpt lat="59.9790556" lon="17.7402458">
        <ele>38.5901</ele>
        <time>2013-04-30T19:03:08Z</time>
      </trkpt>
      <trkpt lat="59.9790494" lon="17.74024">
        <ele>38.5901</ele>
        <time>2013-04-30T19:03:09Z</time>
      </trkpt>
      <trkpt lat="59.9790433" lon="17.7402406">
        <ele>39.5513</ele>
        <time>2013-04-30T19:03:10Z</time>
      </trkpt>
      <trkpt lat="59.9790371" lon="17.7402464">
        <ele>40.0321</ele>
        <time>2013-04-30T19:03:11Z</time>
      </trkpt>
      <trkpt lat="59.9790315" lon="17.7402516">
        <ele>40.0321</ele>
        <time>2013-04-30T19:03:12Z</time>
      </trkpt>
      <trkpt lat="59.9790267" lon="17.7402562">
        <ele>40.0321</ele>
        <time>2013-04-30T19:03:13Z</time>
      </trkpt>
      <trkpt lat="59.9790215" lon="17.7402536">
        <ele>40.5128</ele>
        <time>2013-04-30T19:03:14Z</time>
      </trkpt>
      <trkpt lat="59.9790188" lon="17.7402506">
        <ele>40.5128</ele>
        <time>2013-04-30T19:03:15Z</time>
      </trkpt>
      <trkpt lat="59.9790191" lon="17.74025">
        <ele>40.5128</ele>
        <time>2013-04-30T19:03:16Z</time>
      </trkpt>
      <trkpt lat="59.9790195" lon="17.7402469">
        <ele>40.9934</ele>
        <time>2013-04-30T19:03:17Z</time>
      </trkpt>
      <trkpt lat="59.9790187" lon="17.7402406">
        <ele>40.9934</ele>
        <time>2013-04-30T19:03:18Z</time>
      </trkpt>
      <trkpt lat="59.9790182" lon="17.7402369">
        <ele>40.9934</ele>
        <time>2013-04-30T19:03:19Z</time>
      </trkpt>
      <trkpt lat="59.9790179" lon="17.7402317">
        <ele>40.9934</ele>
        <time>2013-04-30T19:03:20Z</time>
      </trkpt>
      <trkpt lat="59.9790177" lon="17.7402267">
        <ele>41.474</ele>
        <time>2013-04-30T19:03:21Z</time>
      </trkpt>
      <trkpt lat="59.9790184" lon="17.740225">
        <ele>41.474</ele>
        <time>2013-04-30T19:03:22Z</time>
      </trkpt>
      <trkpt lat="59.9790179" lon="17.7402194">
        <ele>41.474</ele>
        <time>2013-04-30T19:03:23Z</time>
      </trkpt>
      <trkpt lat="59.9790169" lon="17.7402141">
        <ele>41.474</ele>
        <time>2013-04-30T19:03:24Z</time>
      </trkpt>
      <trkpt lat="59.9790162" lon="17.740207">
        <ele>41.474</ele>
        <time>2013-04-30T19:03:25Z</time>
      </trkpt>
      <trkpt lat="59.9790131" lon="17.7401979">
        <ele>40.9934</ele>
        <time>2013-04-30T19:03:26Z</time>
      </trkpt>
      <trkpt lat="59.9790091" lon="17.7401887">
        <ele>40.0321</ele>
        <time>2013-04-30T19:03:27Z</time>
      </trkpt>
      <trkpt lat="59.9790055" lon="17.7401808">
        <ele>39.0707</ele>
        <time>2013-04-30T19:03:28Z</time>
      </trkpt>
      <trkpt lat="59.979002" lon="17.7401743">
        <ele>38.5901</ele>
        <time>2013-04-30T19:03:29Z</time>
      </trkpt>
      <trkpt lat="59.9789992" lon="17.7401686">
        <ele>37.6287</ele>
        <time>2013-04-30T19:03:30Z</time>
      </trkpt>
      <trkpt lat="59.9789958" lon="17.7401628">
        <ele>37.1481</ele>
        <time>2013-04-30T19:03:31Z</time>
      </trkpt>
      <trkpt lat="59.9789925" lon="17.7401568">
        <ele>36.6675</ele>
        <time>2013-04-30T19:03:32Z</time>
      </trkpt>
      <trkpt lat="59.978989" lon="17.7401511">
        <ele>35.7061</ele>
        <time>2013-04-30T19:03:33Z</time>
      </trkpt>
      <trkpt lat="59.9789863" lon="17.7401459">
        <ele>35.2255</ele>
        <time>2013-04-30T19:03:34Z</time>
      </trkpt>
      <trkpt lat="59.9789842" lon="17.7401417">
        <ele>35.2255</ele>
        <time>2013-04-30T19:03:35Z</time>
      </trkpt>
      <trkpt lat="59.9789826" lon="17.7401379">
        <ele>34.7449</ele>
        <time>2013-04-30T19:03:36Z</time>
      </trkpt>
      <trkpt lat="59.9789815" lon="17.7401347">
        <ele>34.7449</ele>
        <time>2013-04-30T19:03:37Z</time>
      </trkpt>
      <trkpt lat="59.9789806" lon="17.7401319">
        <ele>34.2642</ele>
        <time>2013-04-30T19:03:38Z</time>
      </trkpt>
      <trkpt lat="59.97898" lon="17.7401296">
        <ele>34.2642</ele>
        <time>2013-04-30T19:03:39Z</time>
      </trkpt>
      <trkpt lat="59.9789796" lon="17.7401276">
        <ele>34.2642</ele>
        <time>2013-04-30T19:03:40Z</time>
      </trkpt>
      <trkpt lat="59.9789792" lon="17.7401257">
        <ele>33.7834</ele>
        <time>2013-04-30T19:03:41Z</time>
      </trkpt>
      <trkpt lat="59.9789785" lon="17.7401235">
        <ele>33.7834</ele>
        <time>2013-04-30T19:03:42Z</time>
      </trkpt>
      <trkpt lat="59.9789778" lon="17.7401213">
        <ele>33.7834</ele>
        <time>2013-04-30T19:03:43Z</time>
      </trkpt>
      <trkpt lat="59.9789771" lon="17.7401194">
        <ele>33.7834</ele>
        <time>2013-04-30T19:03:44Z</time>
      </trkpt>
      <trkpt lat="59.9789765" lon="17.7401173">
        <ele>33.3029</ele>
        <time>2013-04-30T19:03:45Z</time>
      </trkpt>
      <trkpt lat="59.9789756" lon="17.7401148">
        <ele>33.3029</ele>
        <time>2013-04-30T19:03:46Z</time>
      </trkpt>
      <trkpt lat="59.978975" lon="17.7401127">
        <ele>33.3029</ele>
        <time>2013-04-30T19:03:47Z</time>
      </trkpt>
      <trkpt lat="59.9789747" lon="17.7401115">
        <ele>33.3029</ele>
        <time>2013-04-30T19:03:48Z</time>
      </trkpt>
      <trkpt lat="59.9789744" lon="17.7401101">
        <ele>32.8223</ele>
        <time>2013-04-30T19:03:49Z</time>
      </trkpt>
      <trkpt lat="59.9789739" lon="17.7401085">
        <ele>32.8223</ele>
        <time>2013-04-30T19:03:50Z</time>
      </trkpt>
      <trkpt lat="59.9789734" lon="17.740107">
        <ele>32.8223</ele>
        <time>2013-04-30T19:03:51Z</time>
      </trkpt>
      <trkpt lat="59.9789714" lon="17.7401029">
        <ele>32.8223</ele>
        <time>2013-04-30T19:03:52Z</time>
      </trkpt>
      <trkpt lat="59.9789698" lon="17.7400997">
        <ele>32.3416</ele>
        <time>2013-04-30T19:03:53Z</time>
      </trkpt>
      <trkpt lat="59.9789686" lon="17.7400965">
        <ele>32.3416</ele>
        <time>2013-04-30T19:03:54Z</time>
      </trkpt>
      <trkpt lat="59.9789672" lon="17.7400931">
        <ele>32.3416</ele>
        <time>2013-04-30T19:03:55Z</time>
      </trkpt>
      <trkpt lat="59.9789657" lon="17.7400903">
        <ele>32.3416</ele>
        <time>2013-04-30T19:03:56Z</time>
      </trkpt>
      <trkpt lat="59.9789646" lon="17.7400878">
        <ele>32.3416</ele>
        <time>2013-04-30T19:03:57Z</time>
      </trkpt>
      <trkpt lat="59.9789638" lon="17.7400858">
        <ele>32.3416</ele>
        <time>2013-04-30T19:03:58Z</time>
      </trkpt>
      <trkpt lat="59.978963" lon="17.7400845">
        <ele>31.8607</ele>
        <time>2013-04-30T19:03:59Z</time>
      </trkpt>
      <trkpt lat="59.9789625" lon="17.740083">
        <ele>31.8607</ele>
        <time>2013-04-30T19:04:00Z</time>
      </trkpt>
      <trkpt lat="59.9789618" lon="17.7400815">
        <ele>31.8607</ele>
        <time>2013-04-30T19:04:01Z</time>
      </trkpt>
      <trkpt lat="59.9789612" lon="17.7400805">
        <ele>31.8607</ele>
        <time>2013-04-30T19:04:02Z</time>
      </trkpt>
      <trkpt lat="59.9789609" lon="17.7400799">
        <ele>31.8607</ele>
        <time>2013-04-30T19:04:03Z</time>
      </trkpt>
      <trkpt lat="59.9789607" lon="17.740079">
        <ele>31.8607</ele>
        <time>2013-04-30T19:04:04Z</time>
      </trkpt>
      <trkpt lat="59.9789603" lon="17.7400784">
        <ele>31.8607</ele>
        <time>2013-04-30T19:04:05Z</time>
      </trkpt>
      <trkpt lat="59.97896" lon="17.7400781">
        <ele>31.8607</ele>
        <time>2013-04-30T19:04:06Z</time>
      </trkpt>
      <trkpt lat="59.9789599" lon="17.7400778">
        <ele>31.8607</ele>
        <time>2013-04-30T19:04:07Z</time>
      </trkpt>
      <trkpt lat="59.9789595" lon="17.7400772">
        <ele>31.8607</ele>
        <time>2013-04-30T19:04:08Z</time>
      </trkpt>
      <trkpt lat="59.9789594" lon="17.7400767">
        <ele>31.8607</ele>
        <time>2013-04-30T19:04:09Z</time>
      </trkpt>
      <trkpt lat="59.9789595" lon="17.7400757">
        <ele>31.3801</ele>
        <time>2013-04-30T19:04:10Z</time>
      </trkpt>
      <trkpt lat="59.9789604" lon="17.7400745">
        <ele>31.8607</ele>
        <time>2013-04-30T19:04:11Z</time>
      </trkpt>
      <trkpt lat="59.9789623" lon="17.7400738">
        <ele>32.3416</ele>
        <time>2013-04-30T19:04:12Z</time>
      </trkpt>
      <trkpt lat="59.978964" lon="17.740078">
        <ele>32.3416</ele>
        <time>2013-04-30T19:04:13Z</time>
      </trkpt>
      <trkpt lat="59.9789647" lon="17.7400825">
        <ele>32.8223</ele>
        <time>2013-04-30T19:04:14Z</time>
      </trkpt>
      <trkpt lat="59.9789646" lon="17.7400859">
        <ele>33.3029</ele>
        <time>2013-04-30T19:04:15Z</time>
      </trkpt>
      <trkpt lat="59.978968" lon="17.7400899">
        <ele>33.7834</ele>
        <time>2013-04-30T19:04:16Z</time>
      </trkpt>
      <trkpt lat="59.9789699" lon="17.7400935">
        <ele>34.2642</ele>
        <time>2013-04-30T19:04:17Z</time>
      </trkpt>
      <trkpt lat="59.9789717" lon="17.7400971">
        <ele>34.2642</ele>
        <time>2013-04-30T19:04:18Z</time>
      </trkpt>
      <trkpt lat="59.978973" lon="17.7401004">
        <ele>34.2642</ele>
        <time>2013-04-30T19:04:19Z</time>
      </trkpt>
      <trkpt lat="59.9789744" lon="17.7401034">
        <ele>34.7449</ele>
        <time>2013-04-30T19:04:20Z</time>
      </trkpt>
      <trkpt lat="59.9789756" lon="17.7401065">
        <ele>34.7449</ele>
        <time>2013-04-30T19:04:21Z</time>
      </trkpt>
      <trkpt lat="59.9789766" lon="17.7401092">
        <ele>34.7449</ele>
        <time>2013-04-30T19:04:22Z</time>
      </trkpt>
      <trkpt lat="59.9789779" lon="17.7401122">
        <ele>34.7449</ele>
        <time>2013-04-30T19:04:23Z</time>
      </trkpt>
      <trkpt lat="59.9789789" lon="17.7401148">
        <ele>34.7449</ele>
        <time>2013-04-30T19:04:24Z</time>
      </trkpt>
      <trkpt lat="59.9789799" lon="17.7401174">
        <ele>35.2255</ele>
        <time>2013-04-30T19:04:25Z</time>
      </trkpt>
      <trkpt lat="59.9789806" lon="17.74012">
        <ele>35.2255</ele>
        <time>2013-04-30T19:04:26Z</time>
      </trkpt>
      <trkpt lat="59.9789817" lon="17.7401223">
        <ele>35.2255</ele>
        <time>2013-04-30T19:04:27Z</time>
      </trkpt>
      <trkpt lat="59.978984" lon="17.7401252">
        <ele>35.7061</ele>
        <time>2013-04-30T19:04:28Z</time>
      </trkpt>
      <trkpt lat="59.9789827" lon="17.7401259">
        <ele>34.7449</ele>
        <time>2013-04-30T19:04:29Z</time>
      </trkpt>
      <trkpt lat="59.9789835" lon="17.7401256">
        <ele>34.7449</ele>
        <time>2013-04-30T19:04:30Z</time>
      </trkpt>
      <trkpt lat="59.9789848" lon="17.7401239">
        <ele>34.2642</ele>
        <time>2013-04-30T19:04:31Z</time>
      </trkpt>
      <trkpt lat="59.9789866" lon="17.7401224">
        <ele>33.7834</ele>
        <time>2013-04-30T19:04:32Z</time>
      </trkpt>
      <trkpt lat="59.9789893" lon="17.7401276">
        <ele>33.7834</ele>
        <time>2013-04-30T19:04:33Z</time>
      </trkpt>
      <trkpt lat="59.97899" lon="17.7401261">
        <ele>33.7834</ele>
        <time>2013-04-30T19:04:34Z</time>
      </trkpt>
      <trkpt lat="59.9789936" lon="17.7401306">
        <ele>33.7834</ele>
        <time>2013-04-30T19:04:35Z</time>
      </trkpt>
      <trkpt lat="59.9789956" lon="17.7401329">
        <ele>33.3029</ele>
        <time>2013-04-30T19:04:36Z</time>
      </trkpt>
      <trkpt lat="59.9789966" lon="17.7401361">
        <ele>32.8223</ele>
        <time>2013-04-30T19:04:37Z</time>
      </trkpt>
      <trkpt lat="59.9789965" lon="17.7401407">
        <ele>32.3416</ele>
        <time>2013-04-30T19:04:38Z</time>
      </trkpt>
      <trkpt lat="59.9789962" lon="17.7401448">
        <ele>31.8607</ele>
        <time>2013-04-30T19:04:39Z</time>
      </trkpt>
      <trkpt lat="59.9789954" lon="17.7401488">
        <ele>31.3801</ele>
        <time>2013-04-30T19:04:40Z</time>
      </trkpt>
      <trkpt lat="59.9789945" lon="17.7401532">
        <ele>30.8995</ele>
        <time>2013-04-30T19:04:41Z</time>
      </trkpt>
      <trkpt lat="59.9789906" lon="17.7401551">
        <ele>29.9381</ele>
        <time>2013-04-30T19:04:42Z</time>
      </trkpt>
      <trkpt lat="59.9789873" lon="17.7401563">
        <ele>29.4575</ele>
        <time>2013-04-30T19:04:43Z</time>
      </trkpt>
      <trkpt lat="59.9789843" lon="17.7401577">
        <ele>28.4962</ele>
        <time>2013-04-30T19:04:44Z</time>
      </trkpt>
      <trkpt lat="59.978982" lon="17.7401598">
        <ele>28.0155</ele>
        <time>2013-04-30T19:04:45Z</time>
      </trkpt>
      <trkpt lat="59.9789804" lon="17.7401612">
        <ele>28.0155</ele>
        <time>2013-04-30T19:04:46Z</time>
      </trkpt>
      <trkpt lat="59.9789791" lon="17.7401628">
        <ele>27.5349</ele>
        <time>2013-04-30T19:04:47Z</time>
      </trkpt>
      <trkpt lat="59.9789786" lon="17.7401651">
        <ele>27.5349</ele>
        <time>2013-04-30T19:04:48Z</time>
      </trkpt>
      <trkpt lat="59.9789797" lon="17.740165">
        <ele>27.5349</ele>
        <time>2013-04-30T19:04:49Z</time>
      </trkpt>
      <trkpt lat="59.97898" lon="17.740165">
        <ele>27.5349</ele>
        <time>2013-04-30T19:04:50Z</time>
      </trkpt>
      <trkpt lat="59.9789861" lon="17.7401795">
        <ele>28.0155</ele>
        <time>2013-04-30T19:04:51Z</time>
      </trkpt>
      <trkpt lat="59.9789893" lon="17.7401791">
        <ele>28.4962</ele>
        <time>2013-04-30T19:04:52Z</time>
      </trkpt>
      <trkpt lat="59.9789916" lon="17.7401783">
        <ele>28.4962</ele>
        <time>2013-04-30T19:04:53Z</time>
      </trkpt>
      <trkpt lat="59.9789956" lon="17.740179">
        <ele>28.4962</ele>
        <time>2013-04-30T19:04:54Z</time>
      </trkpt>
      <trkpt lat="59.9790012" lon="17.7401763">
        <ele>28.9769</ele>
        <time>2013-04-30T19:04:55Z</time>
      </trkpt>
      <trkpt lat="59.9790054" lon="17.7401716">
        <ele>28.9769</ele>
        <time>2013-04-30T19:04:56Z</time>
      </trkpt>
      <trkpt lat="59.9790091" lon="17.7401749">
        <ele>29.4575</ele>
        <time>2013-04-30T19:04:57Z</time>
      </trkpt>
      <trkpt lat="59.979012" lon="17.7401805">
        <ele>29.9381</ele>
        <time>2013-04-30T19:04:58Z</time>
      </trkpt>
      <trkpt lat="59.9790144" lon="17.7401867">
        <ele>29.9381</ele>
        <time>2013-04-30T19:04:59Z</time>
      </trkpt>
      <trkpt lat="59.9790173" lon="17.7401904">
        <ele>30.8995</ele>
        <time>2013-04-30T19:05:00Z</time>
      </trkpt>
      <trkpt lat="59.97902" lon="17.7401935">
        <ele>31.3801</ele>
        <time>2013-04-30T19:05:01Z</time>
      </trkpt>
      <trkpt lat="59.9790263" lon="17.7401904">
        <ele>32.3416</ele>
        <time>2013-04-30T19:05:02Z</time>
      </trkpt>
      <trkpt lat="59.9790307" lon="17.7401862">
        <ele>32.8223</ele>
        <time>2013-04-30T19:05:03Z</time>
      </trkpt>
      <trkpt lat="59.9790343" lon="17.7401816">
        <ele>33.3029</ele>
        <time>2013-04-30T19:05:04Z</time>
      </trkpt>
      <trkpt lat="59.9790376" lon="17.7401769">
        <ele>33.7834</ele>
        <time>2013-04-30T19:05:05Z</time>
      </trkpt>
      <trkpt lat="59.9790407" lon="17.7401729">
        <ele>34.2642</ele>
        <time>2013-04-30T19:05:06Z</time>
      </trkpt>
      <trkpt lat="59.9790411" lon="17.7401716">
        <ele>35.2255</ele>
        <time>2013-04-30T19:05:07Z</time>
      </trkpt>
      <trkpt lat="59.9790406" lon="17.7401697">
        <ele>36.1868</ele>
        <time>2013-04-30T19:05:08Z</time>
      </trkpt>
      <trkpt lat="59.9790398" lon="17.7401686">
        <ele>36.6675</ele>
        <time>2013-04-30T19:05:09Z</time>
      </trkpt>
      <trkpt lat="59.9790389" lon="17.7401645">
        <ele>37.1481</ele>
        <time>2013-04-30T19:05:10Z</time>
      </trkpt>
      <trkpt lat="59.97904" lon="17.7401576">
        <ele>38.1094</ele>
        <time>2013-04-30T19:05:11Z</time>
      </trkpt>
      <trkpt lat="59.9790412" lon="17.7401487">
        <ele>39.0707</ele>
        <time>2013-04-30T19:05:12Z</time>
      </trkpt>
      <trkpt lat="59.9790401" lon="17.7401526">
        <ele>38.5901</ele>
        <time>2013-04-30T19:05:13Z</time>
      </trkpt>
      <trkpt lat="59.9790423" lon="17.7401567">
        <ele>39.0707</ele>
        <time>2013-04-30T19:05:14Z</time>
      </trkpt>
      <trkpt lat="59.9790434" lon="17.7401609">
        <ele>39.5513</ele>
        <time>2013-04-30T19:05:15Z</time>
      </trkpt>
      <trkpt lat="59.9790438" lon="17.7401649">
        <ele>39.5513</ele>
        <time>2013-04-30T19:05:16Z</time>
      </trkpt>
      <trkpt lat="59.9790442" lon="17.7401691">
        <ele>39.5513</ele>
        <time>2013-04-30T19:05:17Z</time>
      </trkpt>
      <trkpt lat="59.9790478" lon="17.7401723">
        <ele>40.0321</ele>
        <time>2013-04-30T19:05:18Z</time>
      </trkpt>
      <trkpt lat="59.9790522" lon="17.7401614">
        <ele>40.9934</ele>
        <time>2013-04-30T19:05:19Z</time>
      </trkpt>
      <trkpt lat="59.9790561" lon="17.740151">
        <ele>41.9547</ele>
        <time>2013-04-30T19:05:20Z</time>
      </trkpt>
      <trkpt lat="59.9790581" lon="17.7401436">
        <ele>42.4354</ele>
        <time>2013-04-30T19:05:21Z</time>
      </trkpt>
      <trkpt lat="59.9790594" lon="17.7401365">
        <ele>42.916</ele>
        <time>2013-04-30T19:05:22Z</time>
      </trkpt>
      <trkpt lat="59.9790615" lon="17.7401282">
        <ele>43.3966</ele>
        <time>2013-04-30T19:05:23Z</time>
      </trkpt>
      <trkpt lat="59.9790635" lon="17.7401205">
        <ele>44.358</ele>
        <time>2013-04-30T19:05:24Z</time>
      </trkpt>
      <trkpt lat="59.9790639" lon="17.7401142">
        <ele>44.358</ele>
        <time>2013-04-30T19:05:25Z</time>
      </trkpt>
      <trkpt lat="59.9790628" lon="17.7401069">
        <ele>44.358</ele>
        <time>2013-04-30T19:05:26Z</time>
      </trkpt>
      <trkpt lat="59.9790604" lon="17.7401017">
        <ele>43.8773</ele>
        <time>2013-04-30T19:05:27Z</time>
      </trkpt>
      <trkpt lat="59.9790571" lon="17.7400961">
        <ele>43.3966</ele>
        <time>2013-04-30T19:05:28Z</time>
      </trkpt>
      <trkpt lat="59.9790542" lon="17.7400894">
        <ele>43.3966</ele>
        <time>2013-04-30T19:05:29Z</time>
      </trkpt>
      <trkpt lat="59.9790516" lon="17.7400838">
        <ele>42.916</ele>
        <time>2013-04-30T19:05:30Z</time>
      </trkpt>
      <trkpt lat="59.9790495" lon="17.7400785">
        <ele>42.916</ele>
        <time>2013-04-30T19:05:31Z</time>
      </trkpt>
      <trkpt lat="59.9790474" lon="17.7400733">
        <ele>42.916</ele>
        <time>2013-04-30T19:05:32Z</time>
      </trkpt>
      <trkpt lat="59.9790455" lon="17.7400684">
        <ele>42.916</ele>
        <time>2013-04-30T19:05:33Z</time>
      </trkpt>
      <trkpt lat="59.9790433" lon="17.7400641">
        <ele>42.4354</ele>
        <time>2013-04-30T19:05:34Z</time>
      </trkpt>
      <trkpt lat="59.9790423" lon="17.7400617">
        <ele>42.916</ele>
        <time>2013-04-30T19:05:35Z</time>
      </trkpt>
      <trkpt lat="59.9790412" lon="17.7400591">
        <ele>42.916</ele>
        <time>2013-04-30T19:05:36Z</time>
      </trkpt>
      <trkpt lat="59.9790408" lon="17.740057">
        <ele>43.3966</ele>
        <time>2013-04-30T19:05:37Z</time>
      </trkpt>
      <trkpt lat="59.9790406" lon="17.740055">
        <ele>43.3966</ele>
        <time>2013-04-30T19:05:38Z</time>
      </trkpt>
      <trkpt lat="59.9790397" lon="17.7400527">
        <ele>43.8773</ele>
        <time>2013-04-30T19:05:39Z</time>
      </trkpt>
      <trkpt lat="59.979039" lon="17.7400509">
        <ele>43.8773</ele>
        <time>2013-04-30T19:05:40Z</time>
      </trkpt>
      <trkpt lat="59.9790372" lon="17.7400496">
        <ele>43.8773</ele>
        <time>2013-04-30T19:05:41Z</time>
      </trkpt>
      <trkpt lat="59.9790369" lon="17.7400496">
        <ele>43.3966</ele>
        <time>2013-04-30T19:05:42Z</time>
      </trkpt>
      <trkpt lat="59.9790362" lon="17.7400495">
        <ele>42.916</ele>
        <time>2013-04-30T19:05:43Z</time>
      </trkpt>
      <trkpt lat="59.9790354" lon="17.7400494">
        <ele>42.4354</ele>
        <time>2013-04-30T19:05:44Z</time>
      </trkpt>
      <trkpt lat="59.9790336" lon="17.7400469">
        <ele>42.4354</ele>
        <time>2013-04-30T19:05:45Z</time>
      </trkpt>
      <trkpt lat="59.9790312" lon="17.7400442">
        <ele>42.4354</ele>
        <time>2013-04-30T19:05:46Z</time>
      </trkpt>
      <trkpt lat="59.9790319" lon="17.7400428">
        <ele>42.4354</ele>
        <time>2013-04-30T19:05:47Z</time>
      </trkpt>
      <trkpt lat="59.9790324" lon="17.7400444">
        <ele>42.4354</ele>
        <time>2013-04-30T19:05:48Z</time>
      </trkpt>
      <trkpt lat="59.9790313" lon="17.7400457">
        <ele>41.9547</ele>
        <time>2013-04-30T19:05:49Z</time>
      </trkpt>
      <trkpt lat="59.9790283" lon="17.7400434">
        <ele>40.9934</ele>
        <time>2013-04-30T19:05:50Z</time>
      </trkpt>
      <trkpt lat="59.9790277" lon="17.7400443">
        <ele>40.9934</ele>
        <time>2013-04-30T19:05:51Z</time>
      </trkpt>
      <trkpt lat="59.9790277" lon="17.7400456">
        <ele>40.5128</ele>
        <time>2013-04-30T19:05:52Z</time>
      </trkpt>
      <trkpt lat="59.9790221" lon="17.740035">
        <ele>40.5128</ele>
        <time>2013-04-30T19:05:53Z</time>
      </trkpt>
      <trkpt lat="59.9790182" lon="17.7400272">
        <ele>40.9934</ele>
        <time>2013-04-30T19:05:54Z</time>
      </trkpt>
      <trkpt lat="59.9790156" lon="17.7400216">
        <ele>41.474</ele>
        <time>2013-04-30T19:05:55Z</time>
      </trkpt>
      <trkpt lat="59.9790133" lon="17.7400175">
        <ele>41.474</ele>
        <time>2013-04-30T19:05:56Z</time>
      </trkpt>
      <trkpt lat="59.9790116" lon="17.740014">
        <ele>41.9547</ele>
        <time>2013-04-30T19:05:57Z</time>
      </trkpt>
      <trkpt lat="59.9790097" lon="17.7400107">
        <ele>42.4354</ele>
        <time>2013-04-30T19:05:58Z</time>
      </trkpt>
      <trkpt lat="59.9790103" lon="17.7400137">
        <ele>42.4354</ele>
        <time>2013-04-30T19:05:59Z</time>
      </trkpt>
      <trkpt lat="59.9790143" lon="17.7400189">
        <ele>42.4354</ele>
        <time>2013-04-30T19:06:00Z</time>
      </trkpt>
      <trkpt lat="59.9790138" lon="17.740027">
        <ele>41.474</ele>
        <time>2013-04-30T19:06:01Z</time>
      </trkpt>
      <trkpt lat="59.9790148" lon="17.7400303">
        <ele>41.9547</ele>
        <time>2013-04-30T19:06:02Z</time>
      </trkpt>
      <trkpt lat="59.9790153" lon="17.7400332">
        <ele>41.9547</ele>
        <time>2013-04-30T19:06:03Z</time>
      </trkpt>
      <trkpt lat="59.9790159" lon="17.7400355">
        <ele>42.4354</ele>
        <time>2013-04-30T19:06:04Z</time>
      </trkpt>
      <trkpt lat="59.9790164" lon="17.7400384">
        <ele>42.4354</ele>
        <time>2013-04-30T19:06:05Z</time>
      </trkpt>
      <trkpt lat="59.9790172" lon="17.7400416">
        <ele>42.4354</ele>
        <time>2013-04-30T19:06:06Z</time>
      </trkpt>
      <trkpt lat="59.9790177" lon="17.7400447">
        <ele>42.916</ele>
        <time>2013-04-30T19:06:07Z</time>
      </trkpt>
      <trkpt lat="59.9790184" lon="17.7400474">
        <ele>42.916</ele>
        <time>2013-04-30T19:06:08Z</time>
      </trkpt>
      <trkpt lat="59.9790191" lon="17.7400495">
        <ele>42.916</ele>
        <time>2013-04-30T19:06:09Z</time>
      </trkpt>
      <trkpt lat="59.9790199" lon="17.7400513">
        <ele>43.3966</ele>
        <time>2013-04-30T19:06:10Z</time>
      </trkpt>
      <trkpt lat="59.9790206" lon="17.7400531">
        <ele>43.3966</ele>
        <time>2013-04-30T19:06:11Z</time>
      </trkpt>
      <trkpt lat="59.9790211" lon="17.7400552">
        <ele>43.3966</ele>
        <time>2013-04-30T19:06:12Z</time>
      </trkpt>
      <trkpt lat="59.9790221" lon="17.7400578">
        <ele>43.3966</ele>
        <time>2013-04-30T19:06:13Z</time>
      </trkpt>
      <trkpt lat="59.9790303" lon="17.7400608">
        <ele>44.358</ele>
        <time>2013-04-30T19:06:14Z</time>
      </trkpt>
      <trkpt lat="59.9790375" lon="17.7400635">
        <ele>45.3192</ele>
        <time>2013-04-30T19:06:15Z</time>
      </trkpt>
      <trkpt lat="59.9790439" lon="17.7400651">
        <ele>46.2806</ele>
        <time>2013-04-30T19:06:16Z</time>
      </trkpt>
      <trkpt lat="59.9790496" lon="17.7400666">
        <ele>47.2418</ele>
        <time>2013-04-30T19:06:17Z</time>
      </trkpt>
      <trkpt lat="59.979055" lon="17.740068">
        <ele>47.7225</ele>
        <time>2013-04-30T19:06:18Z</time>
      </trkpt>
      <trkpt lat="59.9790593" lon="17.7400692">
        <ele>48.2034</ele>
        <time>2013-04-30T19:06:19Z</time>
      </trkpt>
      <trkpt lat="59.9790634" lon="17.7400681">
        <ele>48.684</ele>
        <time>2013-04-30T19:06:20Z</time>
      </trkpt>
      <trkpt lat="59.9790667" lon="17.740066">
        <ele>49.1646</ele>
        <time>2013-04-30T19:06:21Z</time>
      </trkpt>
      <trkpt lat="59.9790692" lon="17.7400645">
        <ele>49.6453</ele>
        <time>2013-04-30T19:06:22Z</time>
      </trkpt>
      <trkpt lat="59.9790717" lon="17.7400629">
        <ele>49.6453</ele>
        <time>2013-04-30T19:06:23Z</time>
      </trkpt>
      <trkpt lat="59.9790744" lon="17.7400603">
        <ele>50.126</ele>
        <time>2013-04-30T19:06:24Z</time>
      </trkpt>
      <trkpt lat="59.9790768" lon="17.7400568">
        <ele>50.6066</ele>
        <time>2013-04-30T19:06:25Z</time>
      </trkpt>
      <trkpt lat="59.9790788" lon="17.7400535">
        <ele>50.6066</ele>
        <time>2013-04-30T19:06:26Z</time>
      </trkpt>
      <trkpt lat="59.9790806" lon="17.7400505">
        <ele>51.0872</ele>
        <time>2013-04-30T19:06:27Z</time>
      </trkpt>
      <trkpt lat="59.9790822" lon="17.7400474">
        <ele>51.0872</ele>
        <time>2013-04-30T19:06:28Z</time>
      </trkpt>
      <trkpt lat="59.9790832" lon="17.7400453">
        <ele>51.5679</ele>
        <time>2013-04-30T19:06:29Z</time>
      </trkpt>
      <trkpt lat="59.9790841" lon="17.7400433">
        <ele>51.5679</ele>
        <time>2013-04-30T19:06:30Z</time>
      </trkpt>
      <trkpt lat="59.9790843" lon="17.7400417">
        <ele>51.5679</ele>
        <time>2013-04-30T19:06:31Z</time>
      </trkpt>
      <trkpt lat="59.9790827" lon="17.7400417">
        <ele>50.6066</ele>
        <time>2013-04-30T19:06:32Z</time>
      </trkpt>
      <trkpt lat="59.9790801" lon="17.7400447">
        <ele>50.126</ele>
        <time>2013-04-30T19:06:33Z</time>
      </trkpt>
      <trkpt lat="59.9790817" lon="17.7400438">
        <ele>49.6453</ele>
        <time>2013-04-30T19:06:34Z</time>
      </trkpt>
      <trkpt lat="59.9790838" lon="17.7400433">
        <ele>49.1646</ele>
        <time>2013-04-30T19:06:35Z</time>
      </trkpt>
      <trkpt lat="59.9790852" lon="17.7400441">
        <ele>48.684</ele>
        <time>2013-04-30T19:06:36Z</time>
      </trkpt>
      <trkpt lat="59.9790868" lon="17.7400519">
        <ele>48.684</ele>
        <time>2013-04-30T19:06:37Z</time>
      </trkpt>
      <trkpt lat="59.9790861" lon="17.7400548">
        <ele>47.7225</ele>
        <time>2013-04-30T19:06:38Z</time>
      </trkpt>
      <trkpt lat="59.9790849" lon="17.7400536">
        <ele>47.2418</ele>
        <time>2013-04-30T19:06:39Z</time>
      </trkpt>
      <trkpt lat="59.9790835" lon="17.7400516">
        <ele>46.7612</ele>
        <time>2013-04-30T19:06:40Z</time>
      </trkpt>
      <trkpt lat="59.9790816" lon="17.74005">
        <ele>46.2806</ele>
        <time>2013-04-30T19:06:41Z</time>
      </trkpt>
      <trkpt lat="59.9790801" lon="17.7400499">
        <ele>45.7999</ele>
        <time>2013-04-30T19:06:42Z</time>
      </trkpt>
      <trkpt lat="59.9790783" lon="17.7400503">
        <ele>44.8386</ele>
        <time>2013-04-30T19:06:43Z</time>
      </trkpt>
      <trkpt lat="59.9790768" lon="17.74005">
        <ele>44.8386</ele>
        <time>2013-04-30T19:06:44Z</time>
      </trkpt>
      <trkpt lat="59.979075" lon="17.74005">
        <ele>43.8773</ele>
        <time>2013-04-30T19:06:45Z</time>
      </trkpt>
      <trkpt lat="59.9790738" lon="17.7400493">
        <ele>43.8773</ele>
        <time>2013-04-30T19:06:46Z</time>
      </trkpt>
      <trkpt lat="59.9790721" lon="17.7400491">
        <ele>43.3966</ele>
        <time>2013-04-30T19:06:47Z</time>
      </trkpt>
      <trkpt lat="59.9790706" lon="17.7400505">
        <ele>42.916</ele>
        <time>2013-04-30T19:06:48Z</time>
      </trkpt>
      <trkpt lat="59.9790695" lon="17.74005">
        <ele>42.4354</ele>
        <time>2013-04-30T19:06:49Z</time>
      </trkpt>
      <trkpt lat="59.9790682" lon="17.7400491">
        <ele>41.9547</ele>
        <time>2013-04-30T19:06:50Z</time>
      </trkpt>
      <trkpt lat="59.9790671" lon="17.740049">
        <ele>41.9547</ele>
        <time>2013-04-30T19:06:51Z</time>
      </trkpt>
      <trkpt lat="59.9790661" lon="17.7400495">
        <ele>41.474</ele>
        <time>2013-04-30T19:06:52Z</time>
      </trkpt>
      <trkpt lat="59.9790648" lon="17.7400496">
        <ele>40.9934</ele>
        <time>2013-04-30T19:06:53Z</time>
      </trkpt>
      <trkpt lat="59.9790636" lon="17.7400491">
        <ele>40.9934</ele>
        <time>2013-04-30T19:06:54Z</time>
      </trkpt>
      <trkpt lat="59.9790623" lon="17.7400505">
        <ele>40.5128</ele>
        <time>2013-04-30T19:06:55Z</time>
      </trkpt>
      <trkpt lat="59.9790609" lon="17.740053">
        <ele>40.0321</ele>
        <time>2013-04-30T19:06:56Z</time>
      </trkpt>
      <trkpt lat="59.9790594" lon="17.7400542">
        <ele>40.0321</ele>
        <time>2013-04-30T19:06:57Z</time>
      </trkpt>
      <trkpt lat="59.9790576" lon="17.7400545">
        <ele>39.5513</ele>
        <time>2013-04-30T19:06:58Z</time>
      </trkpt>
      <trkpt lat="59.9790553" lon="17.7400552">
        <ele>39.0707</ele>
        <time>2013-04-30T19:06:59Z</time>
      </trkpt>
      <trkpt lat="59.9790533" lon="17.7400566">
        <ele>38.5901</ele>
        <time>2013-04-30T19:07:00Z</time>
      </trkpt>
      <trkpt lat="59.9790512" lon="17.7400574">
        <ele>38.1094</ele>
        <time>2013-04-30T19:07:01Z</time>
      </trkpt>
      <trkpt lat="59.9790504" lon="17.7400572">
        <ele>38.1094</ele>
        <time>2013-04-30T19:07:02Z</time>
      </trkpt>
      <trkpt lat="59.9790495" lon="17.7400563">
        <ele>37.6287</ele>
        <time>2013-04-30T19:07:03Z</time>
      </trkpt>
      <trkpt lat="59.979049" lon="17.7400553">
        <ele>37.6287</ele>
        <time>2013-04-30T19:07:04Z</time>
      </trkpt>
      <trkpt lat="59.9790483" lon="17.7400537">
        <ele>37.6287</ele>
        <time>2013-04-30T19:07:05Z</time>
      </trkpt>
      <trkpt lat="59.9790472" lon="17.7400537">
        <ele>37.1481</ele>
        <time>2013-04-30T19:07:06Z</time>
      </trkpt>
      <trkpt lat="59.9790462" lon="17.7400551">
        <ele>37.1481</ele>
        <time>2013-04-30T19:07:07Z</time>
      </trkpt>
      <trkpt lat="59.9790454" lon="17.7400558">
        <ele>36.6675</ele>
        <time>2013-04-30T19:07:08Z</time>
      </trkpt>
      <trkpt lat="59.9790444" lon="17.7400566">
        <ele>36.6675</ele>
        <time>2013-04-30T19:07:09Z</time>
      </trkpt>
      <trkpt lat="59.9790437" lon="17.7400571">
        <ele>36.1868</ele>
        <time>2013-04-30T19:07:10Z</time>
      </trkpt>
      <trkpt lat="59.9790431" lon="17.7400572">
        <ele>36.1868</ele>
        <time>2013-04-30T19:07:11Z</time>
      </trkpt>
      <trkpt lat="59.9790419" lon="17.7400579">
        <ele>36.1868</ele>
        <time>2013-04-30T19:07:12Z</time>
      </trkpt>
      <trkpt lat="59.9790405" lon="17.7400597">
        <ele>35.7061</ele>
        <time>2013-04-30T19:07:13Z</time>
      </trkpt>
      <trkpt lat="59.9790386" lon="17.7400612">
        <ele>35.2255</ele>
        <time>2013-04-30T19:07:14Z</time>
      </trkpt>
      <trkpt lat="59.9790372" lon="17.7400614">
        <ele>35.2255</ele>
        <time>2013-04-30T19:07:15Z</time>
      </trkpt>
      <trkpt lat="59.9790371" lon="17.7400617">
        <ele>35.2255</ele>
        <time>2013-04-30T19:07:16Z</time>
      </trkpt>
      <trkpt lat="59.979037" lon="17.740062">
        <ele>35.2255</ele>
        <time>2013-04-30T19:07:17Z</time>
      </trkpt>
      <trkpt lat="59.9790359" lon="17.7400631">
        <ele>34.7449</ele>
        <time>2013-04-30T19:07:18Z</time>
      </trkpt>
      <trkpt lat="59.9790346" lon="17.7400635">
        <ele>34.7449</ele>
        <time>2013-04-30T19:07:19Z</time>
      </trkpt>
      <trkpt lat="59.979034" lon="17.7400646">
        <ele>34.7449</ele>
        <time>2013-04-30T19:07:20Z</time>
      </trkpt>
      <trkpt lat="59.9790339" lon="17.7400661">
        <ele>34.2642</ele>
        <time>2013-04-30T19:07:21Z</time>
      </trkpt>
      <trkpt lat="59.9790339" lon="17.7400669">
        <ele>34.2642</ele>
        <time>2013-04-30T19:07:22Z</time>
      </trkpt>
      <trkpt lat="59.9790334" lon="17.7400718">
        <ele>34.2642</ele>
        <time>2013-04-30T19:07:23Z</time>
      </trkpt>
      <trkpt lat="59.9790329" lon="17.7400768">
        <ele>34.2642</ele>
        <time>2013-04-30T19:07:24Z</time>
      </trkpt>
      <trkpt lat="59.9790335" lon="17.74008">
        <ele>34.2642</ele>
        <time>2013-04-30T19:07:25Z</time>
      </trkpt>
      <trkpt lat="59.9790335" lon="17.7400842">
        <ele>34.2642</ele>
        <time>2013-04-30T19:07:26Z</time>
      </trkpt>
      <trkpt lat="59.9790341" lon="17.7400881">
        <ele>34.2642</ele>
        <time>2013-04-30T19:07:27Z</time>
      </trkpt>
      <trkpt lat="59.9790351" lon="17.740092">
        <ele>34.2642</ele>
        <time>2013-04-30T19:07:28Z</time>
      </trkpt>
      <trkpt lat="59.9790348" lon="17.7400936">
        <ele>34.2642</ele>
        <time>2013-04-30T19:07:29Z</time>
      </trkpt>
      <trkpt lat="59.9790346" lon="17.7400971">
        <ele>34.2642</ele>
        <time>2013-04-30T19:07:30Z</time>
      </trkpt>
      <trkpt lat="59.9790349" lon="17.7401004">
        <ele>34.2642</ele>
        <time>2013-04-30T19:07:31Z</time>
      </trkpt>
      <trkpt lat="59.979035" lon="17.7401035">
        <ele>33.7834</ele>
        <time>2013-04-30T19:07:32Z</time>
      </trkpt>
      <trkpt lat="59.9790355" lon="17.7401063">
        <ele>34.2642</ele>
        <time>2013-04-30T19:07:33Z</time>
      </trkpt>
      <trkpt lat="59.9790359" lon="17.7401091">
        <ele>33.7834</ele>
        <time>2013-04-30T19:07:34Z</time>
      </trkpt>
      <trkpt lat="59.979036" lon="17.7401094">
        <ele>33.7834</ele>
        <time>2013-04-30T19:07:35Z</time>
      </trkpt>
      <trkpt lat="59.9790355" lon="17.7401101">
        <ele>33.7834</ele>
        <time>2013-04-30T19:07:36Z</time>
      </trkpt>
      <trkpt lat="59.979035" lon="17.7401104">
        <ele>33.7834</ele>
        <time>2013-04-30T19:07:37Z</time>
      </trkpt>
      <trkpt lat="59.9790345" lon="17.7401106">
        <ele>33.7834</ele>
        <time>2013-04-30T19:07:38Z</time>
      </trkpt>
      <trkpt lat="59.9790344" lon="17.7401102">
        <ele>33.7834</ele>
        <time>2013-04-30T19:07:39Z</time>
      </trkpt>
      <trkpt lat="59.9790345" lon="17.7401099">
        <ele>33.7834</ele>
        <time>2013-04-30T19:07:40Z</time>
      </trkpt>
      <trkpt lat="59.9790345" lon="17.74011">
        <ele>33.7834</ele>
        <time>2013-04-30T19:07:41Z</time>
      </trkpt>
      <trkpt lat="59.979034" lon="17.7401101">
        <ele>33.7834</ele>
        <time>2013-04-30T19:07:42Z</time>
      </trkpt>
      <trkpt lat="59.9790339" lon="17.7401101">
        <ele>33.7834</ele>
        <time>2013-04-30T19:07:43Z</time>
      </trkpt>
      <trkpt lat="59.9790336" lon="17.7401105">
        <ele>33.7834</ele>
        <time>2013-04-30T19:07:44Z</time>
      </trkpt>
      <trkpt lat="59.9790335" lon="17.7401106">
        <ele>33.7834</ele>
        <time>2013-04-30T19:07:45Z</time>
      </trkpt>
      <trkpt lat="59.9790335" lon="17.7401102">
        <ele>33.7834</ele>
        <time>2013-04-30T19:07:46Z</time>
      </trkpt>
      <trkpt lat="59.9790333" lon="17.7401101">
        <ele>33.7834</ele>
        <time>2013-04-30T19:07:47Z</time>
      </trkpt>
      <trkpt lat="59.9790334" lon="17.7401095">
        <ele>33.7834</ele>
        <time>2013-04-30T19:07:48Z</time>
      </trkpt>
      <trkpt lat="59.9790331" lon="17.740109">
        <ele>33.7834</ele>
        <time>2013-04-30T19:07:49Z</time>
      </trkpt>
      <trkpt lat="59.9790333" lon="17.7401081">
        <ele>33.7834</ele>
        <time>2013-04-30T19:07:50Z</time>
      </trkpt>
      <trkpt lat="59.9790331" lon="17.7401075">
        <ele>33.7834</ele>
        <time>2013-04-30T19:07:51Z</time>
      </trkpt>
      <trkpt lat="59.9790333" lon="17.7401066">
        <ele>34.2642</ele>
        <time>2013-04-30T19:07:52Z</time>
      </trkpt>
      <trkpt lat="59.9790333" lon="17.7401059">
        <ele>34.2642</ele>
        <time>2013-04-30T19:07:53Z</time>
      </trkpt>
      <trkpt lat="59.9790333" lon="17.7401052">
        <ele>34.2642</ele>
        <time>2013-04-30T19:07:54Z</time>
      </trkpt>
      <trkpt lat="59.9790336" lon="17.7401039">
        <ele>34.2642</ele>
        <time>2013-04-30T19:07:55Z</time>
      </trkpt>
      <trkpt lat="59.9790338" lon="17.7401034">
        <ele>34.2642</ele>
        <time>2013-04-30T19:07:56Z</time>
      </trkpt>
      <trkpt lat="59.9790338" lon="17.7401034">
        <ele>34.2642</ele>
        <time>2013-04-30T19:07:57Z</time>
      </trkpt>
      <trkpt lat="59.9790341" lon="17.7401034">
        <ele>34.2642</ele>
        <time>2013-04-30T19:07:58Z</time>
      </trkpt>
      <trkpt lat="59.9790345" lon="17.7401034">
        <ele>34.7449</ele>
        <time>2013-04-30T19:07:59Z</time>
      </trkpt>
      <trkpt lat="59.979035" lon="17.7401032">
        <ele>34.7449</ele>
        <time>2013-04-30T19:08:00Z</time>
      </trkpt>
      <trkpt lat="59.9790351" lon="17.7401031">
        <ele>34.7449</ele>
        <time>2013-04-30T19:08:01Z</time>
      </trkpt>
      <trkpt lat="59.9790351" lon="17.7401027">
        <ele>34.7449</ele>
        <time>2013-04-30T19:08:02Z</time>
      </trkpt>
      <trkpt lat="59.979035" lon="17.7401024">
        <ele>34.7449</ele>
        <time>2013-04-30T19:08:03Z</time>
      </trkpt>
      <trkpt lat="59.9790346" lon="17.7401039">
        <ele>34.7449</ele>
        <time>2013-04-30T19:08:04Z</time>
      </trkpt>
      <trkpt lat="59.9790345" lon="17.7401052">
        <ele>34.2642</ele>
        <time>2013-04-30T19:08:05Z</time>
      </trkpt>
      <trkpt lat="59.9790343" lon="17.7401058">
        <ele>34.2642</ele>
        <time>2013-04-30T19:08:06Z</time>
      </trkpt>
      <trkpt lat="59.9790341" lon="17.7401063">
        <ele>34.2642</ele>
        <time>2013-04-30T19:08:07Z</time>
      </trkpt>
      <trkpt lat="59.979034" lon="17.7401071">
        <ele>34.2642</ele>
        <time>2013-04-30T19:08:08Z</time>
      </trkpt>
      <trkpt lat="59.9790338" lon="17.7401068">
        <ele>34.2642</ele>
        <time>2013-04-30T19:08:09Z</time>
      </trkpt>
      <trkpt lat="59.9790336" lon="17.7401058">
        <ele>34.2642</ele>
        <time>2013-04-30T19:08:10Z</time>
      </trkpt>
      <trkpt lat="59.9790343" lon="17.740107">
        <ele>34.2642</ele>
        <time>2013-04-30T19:08:11Z</time>
      </trkpt>
      <trkpt lat="59.979035" lon="17.7401079">
        <ele>34.2642</ele>
        <time>2013-04-30T19:08:12Z</time>
      </trkpt>
      <trkpt lat="59.9790359" lon="17.7401059">
        <ele>34.2642</ele>
        <time>2013-04-30T19:08:13Z</time>
      </trkpt>
      <trkpt lat="59.9790361" lon="17.7401033">
        <ele>34.7449</ele>
        <time>2013-04-30T19:08:14Z</time>
      </trkpt>
      <trkpt lat="59.9790366" lon="17.7401019">
        <ele>34.7449</ele>
        <time>2013-04-30T19:08:15Z</time>
      </trkpt>
      <trkpt lat="59.9790371" lon="17.7401021">
        <ele>34.7449</ele>
        <time>2013-04-30T19:08:16Z</time>
      </trkpt>
      <trkpt lat="59.9790366" lon="17.7400982">
        <ele>35.2255</ele>
        <time>2013-04-30T19:08:17Z</time>
      </trkpt>
      <trkpt lat="59.979037" lon="17.7400978">
        <ele>35.2255</ele>
        <time>2013-04-30T19:08:18Z</time>
      </trkpt>
      <trkpt lat="59.9790375" lon="17.7400985">
        <ele>35.2255</ele>
        <time>2013-04-30T19:08:19Z</time>
      </trkpt>
      <trkpt lat="59.979038" lon="17.7400988">
        <ele>35.7061</ele>
        <time>2013-04-30T19:08:20Z</time>
      </trkpt>
      <trkpt lat="59.9790384" lon="17.740099">
        <ele>35.7061</ele>
        <time>2013-04-30T19:08:21Z</time>
      </trkpt>
      <trkpt lat="59.9790386" lon="17.7400996">
        <ele>35.7061</ele>
        <time>2013-04-30T19:08:22Z</time>
      </trkpt>
      <trkpt lat="59.9790387" lon="17.7401001">
        <ele>35.7061</ele>
        <time>2013-04-30T19:08:23Z</time>
      </trkpt>
      <trkpt lat="59.979039" lon="17.7401006">
        <ele>35.7061</ele>
        <time>2013-04-30T19:08:24Z</time>
      </trkpt>
      <trkpt lat="59.9790392" lon="17.7401016">
        <ele>35.7061</ele>
        <time>2013-04-30T19:08:25Z</time>
      </trkpt>
      <trkpt lat="59.9790392" lon="17.7401022">
        <ele>35.7061</ele>
        <time>2013-04-30T19:08:26Z</time>
      </trkpt>
      <trkpt lat="59.9790395" lon="17.7401034">
        <ele>35.7061</ele>
        <time>2013-04-30T19:08:27Z</time>
      </trkpt>
      <trkpt lat="59.9790402" lon="17.7401033">
        <ele>36.1868</ele>
        <time>2013-04-30T19:08:28Z</time>
      </trkpt>
      <trkpt lat="59.9790411" lon="17.7401035">
        <ele>36.1868</ele>
        <time>2013-04-30T19:08:29Z</time>
      </trkpt>
      <trkpt lat="59.9790421" lon="17.7401039">
        <ele>36.1868</ele>
        <time>2013-04-30T19:08:30Z</time>
      </trkpt>
      <trkpt lat="59.9790428" lon="17.7401033">
        <ele>36.1868</ele>
        <time>2013-04-30T19:08:31Z</time>
      </trkpt>
      <trkpt lat="59.9790434" lon="17.7401024">
        <ele>36.6675</ele>
        <time>2013-04-30T19:08:32Z</time>
      </trkpt>
      <trkpt lat="59.9790441" lon="17.7401021">
        <ele>36.6675</ele>
        <time>2013-04-30T19:08:33Z</time>
      </trkpt>
      <trkpt lat="59.9790447" lon="17.7401023">
        <ele>36.6675</ele>
        <time>2013-04-30T19:08:34Z</time>
      </trkpt>
      <trkpt lat="59.9790453" lon="17.7401022">
        <ele>37.1481</ele>
        <time>2013-04-30T19:08:35Z</time>
      </trkpt>
      <trkpt lat="59.9790455" lon="17.7401018">
        <ele>37.1481</ele>
        <time>2013-04-30T19:08:36Z</time>
      </trkpt>
      <trkpt lat="59.9790458" lon="17.7401008">
        <ele>37.1481</ele>
        <time>2013-04-30T19:08:37Z</time>
      </trkpt>
      <trkpt lat="59.9790459" lon="17.7401008">
        <ele>37.1481</ele>
        <time>2013-04-30T19:08:38Z</time>
      </trkpt>
      <trkpt lat="59.9790459" lon="17.7401027">
        <ele>37.1481</ele>
        <time>2013-04-30T19:08:39Z</time>
      </trkpt>
      <trkpt lat="59.9790459" lon="17.7401039">
        <ele>37.1481</ele>
        <time>2013-04-30T19:08:40Z</time>
      </trkpt>
      <trkpt lat="59.979046" lon="17.740105">
        <ele>37.1481</ele>
        <time>2013-04-30T19:08:41Z</time>
      </trkpt>
      <trkpt lat="59.9790465" lon="17.740106">
        <ele>37.1481</ele>
        <time>2013-04-30T19:08:42Z</time>
      </trkpt>
      <trkpt lat="59.9790462" lon="17.7401011">
        <ele>37.6287</ele>
        <time>2013-04-30T19:08:43Z</time>
      </trkpt>
      <trkpt lat="59.9790458" lon="17.7400969">
        <ele>37.6287</ele>
        <time>2013-04-30T19:08:44Z</time>
      </trkpt>
      <trkpt lat="59.9790458" lon="17.740094">
        <ele>37.6287</ele>
        <time>2013-04-30T19:08:45Z</time>
      </trkpt>
      <trkpt lat="59.9790459" lon="17.7400925">
        <ele>37.6287</ele>
        <time>2013-04-30T19:08:46Z</time>
      </trkpt>
      <trkpt lat="59.9790462" lon="17.7400933">
        <ele>37.6287</ele>
        <time>2013-04-30T19:08:47Z</time>
      </trkpt>
      <trkpt lat="59.979046" lon="17.7400899">
        <ele>38.1094</ele>
        <time>2013-04-30T19:08:48Z</time>
      </trkpt>
      <trkpt lat="59.9790462" lon="17.7400872">
        <ele>38.1094</ele>
        <time>2013-04-30T19:08:49Z</time>
      </trkpt>
      <trkpt lat="59.9790462" lon="17.7400845">
        <ele>38.1094</ele>
        <time>2013-04-30T19:08:50Z</time>
      </trkpt>
      <trkpt lat="59.9790462" lon="17.7400817">
        <ele>38.1094</ele>
        <time>2013-04-30T19:08:51Z</time>
      </trkpt>
      <trkpt lat="59.979046" lon="17.7400804">
        <ele>38.1094</ele>
        <time>2013-04-30T19:08:52Z</time>
      </trkpt>
      <trkpt lat="59.9790463" lon="17.7400799">
        <ele>38.5901</ele>
        <time>2013-04-30T19:08:53Z</time>
      </trkpt>
      <trkpt lat="59.9790464" lon="17.7400793">
        <ele>38.5901</ele>
        <time>2013-04-30T19:08:54Z</time>
      </trkpt>
      <trkpt lat="59.9790465" lon="17.7400788">
        <ele>38.5901</ele>
        <time>2013-04-30T19:08:55Z</time>
      </trkpt>
      <trkpt lat="59.9790457" lon="17.7400837">
        <ele>37.6287</ele>
        <time>2013-04-30T19:08:56Z</time>
      </trkpt>
      <trkpt lat="59.9790458" lon="17.7400876">
        <ele>37.1481</ele>
        <time>2013-04-30T19:08:57Z</time>
      </trkpt>
      <trkpt lat="59.9790459" lon="17.7400904">
        <ele>36.6675</ele>
        <time>2013-04-30T19:08:58Z</time>
      </trkpt>
      <trkpt lat="59.9790459" lon="17.7400933">
        <ele>36.1868</ele>
        <time>2013-04-30T19:08:59Z</time>
      </trkpt>
      <trkpt lat="59.9790459" lon="17.740096">
        <ele>35.7061</ele>
        <time>2013-04-30T19:09:00Z</time>
      </trkpt>
      <trkpt lat="59.9790457" lon="17.740099">
        <ele>35.2255</ele>
        <time>2013-04-30T19:09:01Z</time>
      </trkpt>
      <trkpt lat="59.9790453" lon="17.7401014">
        <ele>34.7449</ele>
        <time>2013-04-30T19:09:02Z</time>
      </trkpt>
      <trkpt lat="59.979045" lon="17.7401037">
        <ele>34.2642</ele>
        <time>2013-04-30T19:09:03Z</time>
      </trkpt>
      <trkpt lat="59.9790447" lon="17.7401055">
        <ele>34.2642</ele>
        <time>2013-04-30T19:09:04Z</time>
      </trkpt>
      <trkpt lat="59.9790443" lon="17.7401071">
        <ele>33.7834</ele>
        <time>2013-04-30T19:09:05Z</time>
      </trkpt>
      <trkpt lat="59.9790438" lon="17.7401091">
        <ele>33.3029</ele>
        <time>2013-04-30T19:09:06Z</time>
      </trkpt>
      <trkpt lat="59.9790437" lon="17.7401114">
        <ele>32.8223</ele>
        <time>2013-04-30T19:09:07Z</time>
      </trkpt>
      <trkpt lat="59.9790434" lon="17.7401128">
        <ele>32.8223</ele>
        <time>2013-04-30T19:09:08Z</time>
      </trkpt>
      <trkpt lat="59.9790432" lon="17.7401142">
        <ele>32.3416</ele>
        <time>2013-04-30T19:09:09Z</time>
      </trkpt>
      <trkpt lat="59.9790428" lon="17.7401156">
        <ele>32.3416</ele>
        <time>2013-04-30T19:09:10Z</time>
      </trkpt>
      <trkpt lat="59.9790428" lon="17.7401123">
        <ele>32.8223</ele>
        <time>2013-04-30T19:09:11Z</time>
      </trkpt>
      <trkpt lat="59.9790428" lon="17.7401111">
        <ele>32.8223</ele>
        <time>2013-04-30T19:09:12Z</time>
      </trkpt>
      <trkpt lat="59.9790437" lon="17.740105">
        <ele>32.8223</ele>
        <time>2013-04-30T19:09:13Z</time>
      </trkpt>
      <trkpt lat="59.9790452" lon="17.7401029">
        <ele>33.3029</ele>
        <time>2013-04-30T19:09:14Z</time>
      </trkpt>
      <trkpt lat="59.9790459" lon="17.7400997">
        <ele>33.7834</ele>
        <time>2013-04-30T19:09:15Z</time>
      </trkpt>
      <trkpt lat="59.9790449" lon="17.7400912">
        <ele>33.3029</ele>
        <time>2013-04-30T19:09:16Z</time>
      </trkpt>
      <trkpt lat="59.9790433" lon="17.7400741">
        <ele>33.3029</ele>
        <time>2013-04-30T19:09:17Z</time>
      </trkpt>
      <trkpt lat="59.979039" lon="17.7400513">
        <ele>33.3029</ele>
        <time>2013-04-30T19:09:18Z</time>
      </trkpt>
      <trkpt lat="59.979033" lon="17.7400294">
        <ele>32.8223</ele>
        <time>2013-04-30T19:09:19Z</time>
      </trkpt>
      <trkpt lat="59.9790305" lon="17.7400048">
        <ele>33.3029</ele>
        <time>2013-04-30T19:09:20Z</time>
      </trkpt>
      <trkpt lat="59.9790287" lon="17.7399814">
        <ele>32.8223</ele>
        <time>2013-04-30T19:09:21Z</time>
      </trkpt>
      <trkpt lat="59.9790272" lon="17.7399526">
        <ele>33.3029</ele>
        <time>2013-04-30T19:09:22Z</time>
      </trkpt>
      <trkpt lat="59.979026" lon="17.7399262">
        <ele>33.7834</ele>
        <time>2013-04-30T19:09:23Z</time>
      </trkpt>
      <trkpt lat="59.9790231" lon="17.7399024">
        <ele>33.7834</ele>
        <time>2013-04-30T19:09:24Z</time>
      </trkpt>
      <trkpt lat="59.9790199" lon="17.7398796">
        <ele>33.7834</ele>
        <time>2013-04-30T19:09:25Z</time>
      </trkpt>
      <trkpt lat="59.9790151" lon="17.7398581">
        <ele>33.7834</ele>
        <time>2013-04-30T19:09:26Z</time>
      </trkpt>
      <trkpt lat="59.9790076" lon="17.7398366">
        <ele>33.3029</ele>
        <time>2013-04-30T19:09:27Z</time>
      </trkpt>
      <trkpt lat="59.9789967" lon="17.7398178">
        <ele>33.3029</ele>
        <time>2013-04-30T19:09:28Z</time>
      </trkpt>
      <trkpt lat="59.9789838" lon="17.7398134">
        <ele>33.7834</ele>
        <time>2013-04-30T19:09:29Z</time>
      </trkpt>
      <trkpt lat="59.9789693" lon="17.739819">
        <ele>33.3029</ele>
        <time>2013-04-30T19:09:30Z</time>
      </trkpt>
      <trkpt lat="59.9789566" lon="17.7398286">
        <ele>33.3029</ele>
        <time>2013-04-30T19:09:31Z</time>
      </trkpt>
      <trkpt lat="59.9789491" lon="17.7398449">
        <ele>33.3029</ele>
        <time>2013-04-30T19:09:32Z</time>
      </trkpt>
      <trkpt lat="59.9789453" lon="17.7398598">
        <ele>33.3029</ele>
        <time>2013-04-30T19:09:33Z</time>
      </trkpt>
      <trkpt lat="59.9789427" lon="17.7398738">
        <ele>33.3029</ele>
        <time>2013-04-30T19:09:34Z</time>
      </trkpt>
      <trkpt lat="59.9789387" lon="17.7398892">
        <ele>33.7834</ele>
        <time>2013-04-30T19:09:35Z</time>
      </trkpt>
      <trkpt lat="59.9789362" lon="17.7399016">
        <ele>33.7834</ele>
        <time>2013-04-30T19:09:36Z</time>
      </trkpt>
      <trkpt lat="59.9789392" lon="17.7399167">
        <ele>34.2642</ele>
        <time>2013-04-30T19:09:37Z</time>
      </trkpt>
      <trkpt lat="59.9789424" lon="17.7399315">
        <ele>34.2642</ele>
        <time>2013-04-30T19:09:38Z</time>
      </trkpt>
      <trkpt lat="59.9789444" lon="17.7399403">
        <ele>34.2642</ele>
        <time>2013-04-30T19:09:39Z</time>
      </trkpt>
      <trkpt lat="59.9789437" lon="17.7399408">
        <ele>34.7449</ele>
        <time>2013-04-30T19:09:40Z</time>
      </trkpt>
      <trkpt lat="59.9789397" lon="17.7399431">
        <ele>35.7061</ele>
        <time>2013-04-30T19:09:41Z</time>
      </trkpt>
      <trkpt lat="59.9789374" lon="17.7399371">
        <ele>36.1868</ele>
        <time>2013-04-30T19:09:42Z</time>
      </trkpt>
      <trkpt lat="59.9789401" lon="17.739936">
        <ele>36.6675</ele>
        <time>2013-04-30T19:09:43Z</time>
      </trkpt>
      <trkpt lat="59.9789355" lon="17.7399408">
        <ele>37.1481</ele>
        <time>2013-04-30T19:09:44Z</time>
      </trkpt>
      <trkpt lat="59.9789304" lon="17.7399605">
        <ele>37.6287</ele>
        <time>2013-04-30T19:09:45Z</time>
      </trkpt>
      <trkpt lat="59.9789271" lon="17.7399701">
        <ele>37.6287</ele>
        <time>2013-04-30T19:09:46Z</time>
      </trkpt>
      <trkpt lat="59.9789304" lon="17.7399814">
        <ele>37.1481</ele>
        <time>2013-04-30T19:09:47Z</time>
      </trkpt>
      <trkpt lat="59.9789209" lon="17.7399843">
        <ele>36.1868</ele>
        <time>2013-04-30T19:09:48Z</time>
      </trkpt>
      <trkpt lat="59.9789146" lon="17.7400001">
        <ele>35.7061</ele>
        <time>2013-04-30T19:09:49Z</time>
      </trkpt>
      <trkpt lat="59.9789128" lon="17.7400156">
        <ele>35.7061</ele>
        <time>2013-04-30T19:09:50Z</time>
      </trkpt>
      <trkpt lat="59.9789165" lon="17.7400291">
        <ele>35.2255</ele>
        <time>2013-04-30T19:09:51Z</time>
      </trkpt>
      <trkpt lat="59.9789243" lon="17.7400427">
        <ele>35.7061</ele>
        <time>2013-04-30T19:09:52Z</time>
      </trkpt>
      <trkpt lat="59.978933" lon="17.7400669">
        <ele>35.2255</ele>
        <time>2013-04-30T19:09:53Z</time>
      </trkpt>
      <trkpt lat="59.9789424" lon="17.7400734">
        <ele>33.7834</ele>
        <time>2013-04-30T19:09:54Z</time>
      </trkpt>
      <trkpt lat="59.9789542" lon="17.7401016">
        <ele>32.8223</ele>
        <time>2013-04-30T19:09:55Z</time>
      </trkpt>
      <trkpt lat="59.9789667" lon="17.7401241">
        <ele>32.3416</ele>
        <time>2013-04-30T19:09:56Z</time>
      </trkpt>
      <trkpt lat="59.9789823" lon="17.7401287">
        <ele>31.3801</ele>
        <time>2013-04-30T19:09:57Z</time>
      </trkpt>
      <trkpt lat="59.9789974" lon="17.7401369">
        <ele>31.3801</ele>
        <time>2013-04-30T19:09:58Z</time>
      </trkpt>
      <trkpt lat="59.979012" lon="17.7401448">
        <ele>30.8995</ele>
        <time>2013-04-30T19:09:59Z</time>
      </trkpt>
      <trkpt lat="59.979027" lon="17.740153">
        <ele>30.4188</ele>
        <time>2013-04-30T19:10:00Z</time>
      </trkpt>
      <trkpt lat="59.9790416" lon="17.7401609">
        <ele>30.4188</ele>
        <time>2013-04-30T19:10:01Z</time>
      </trkpt>
      <trkpt lat="59.9790567" lon="17.7401691">
        <ele>29.9381</ele>
        <time>2013-04-30T19:10:02Z</time>
      </trkpt>
      <trkpt lat="59.9790713" lon="17.7401769">
        <ele>29.9381</ele>
        <time>2013-04-30T19:10:03Z</time>
      </trkpt>
      <trkpt lat="59.9790381" lon="17.7400182">
        <ele>30.4188</ele>
        <time>2013-04-30T19:10:04Z</time>
      </trkpt>
      <trkpt lat="59.9789806" lon="17.7399366">
        <ele>32.3416</ele>
        <time>2013-04-30T19:10:05Z</time>
      </trkpt>
      <trkpt lat="59.9789636" lon="17.7400189">
        <ele>38.5901</ele>
        <time>2013-04-30T19:10:06Z</time>
      </trkpt>
      <trkpt lat="59.97896" lon="17.7400075">
        <ele>38.5901</ele>
        <time>2013-04-30T19:10:07Z</time>
      </trkpt>
      <trkpt lat="59.9789579" lon="17.7399486">
        <ele>38.5901</ele>
        <time>2013-04-30T19:10:08Z</time>
      </trkpt>
      <trkpt lat="59.9789661" lon="17.7398842">
        <ele>40.0321</ele>
        <time>2013-04-30T19:10:09Z</time>
      </trkpt>
      <trkpt lat="59.9789589" lon="17.7398722">
        <ele>40.0321</ele>
        <time>2013-04-30T19:10:10Z</time>
      </trkpt>
      <trkpt lat="59.9789527" lon="17.7398846">
        <ele>39.5513</ele>
        <time>2013-04-30T19:10:11Z</time>
      </trkpt>
      <trkpt lat="59.9789602" lon="17.7399203">
        <ele>41.474</ele>
        <time>2013-04-30T19:10:12Z</time>
      </trkpt>
      <trkpt lat="59.9789612" lon="17.7399066">
        <ele>41.9547</ele>
        <time>2013-04-30T19:10:13Z</time>
      </trkpt>
      <trkpt lat="59.9789693" lon="17.7398759">
        <ele>43.8773</ele>
        <time>2013-04-30T19:10:14Z</time>
      </trkpt>
      <trkpt lat="59.9789608" lon="17.7398783">
        <ele>43.3966</ele>
        <time>2013-04-30T19:10:15Z</time>
      </trkpt>
      <trkpt lat="59.9789585" lon="17.7398639">
        <ele>43.8773</ele>
        <time>2013-04-30T19:10:16Z</time>
      </trkpt>
      <trkpt lat="59.9789558" lon="17.7398531">
        <ele>44.358</ele>
        <time>2013-04-30T19:10:17Z</time>
      </trkpt>
      <trkpt lat="59.9789546" lon="17.7398555">
        <ele>43.3966</ele>
        <time>2013-04-30T19:10:18Z</time>
      </trkpt>
      <trkpt lat="59.9789563" lon="17.7398553">
        <ele>43.3966</ele>
        <time>2013-04-30T19:10:19Z</time>
      </trkpt>
      <trkpt lat="59.9789563" lon="17.7398573">
        <ele>42.916</ele>
        <time>2013-04-30T19:10:20Z</time>
      </trkpt>
      <trkpt lat="59.9789511" lon="17.7398698">
        <ele>40.0321</ele>
        <time>2013-04-30T19:10:21Z</time>
      </trkpt>
      <trkpt lat="59.9789463" lon="17.7398877">
        <ele>37.6287</ele>
        <time>2013-04-30T19:10:22Z</time>
      </trkpt>
      <trkpt lat="59.9789402" lon="17.739902">
        <ele>36.6675</ele>
        <time>2013-04-30T19:10:23Z</time>
      </trkpt>
      <trkpt lat="59.978936" lon="17.7398955">
        <ele>36.1868</ele>
        <time>2013-04-30T19:10:24Z</time>
      </trkpt>
      <trkpt lat="59.9789359" lon="17.7398775">
        <ele>35.7061</ele>
        <time>2013-04-30T19:10:25Z</time>
      </trkpt>
      <trkpt lat="59.9789345" lon="17.7398769">
        <ele>35.2255</ele>
        <time>2013-04-30T19:10:26Z</time>
      </trkpt>
      <trkpt lat="59.9789438" lon="17.7398719">
        <ele>36.1868</ele>
        <time>2013-04-30T19:10:27Z</time>
      </trkpt>
      <trkpt lat="59.9789431" lon="17.739895">
        <ele>35.7061</ele>
        <time>2013-04-30T19:10:28Z</time>
      </trkpt>
      <trkpt lat="59.9789457" lon="17.7399258">
        <ele>36.1868</ele>
        <time>2013-04-30T19:10:29Z</time>
      </trkpt>
      <trkpt lat="59.9789512" lon="17.7399417">
        <ele>35.7061</ele>
        <time>2013-04-30T19:10:30Z</time>
      </trkpt>
      <trkpt lat="59.9789564" lon="17.7399557">
        <ele>34.7449</ele>
        <time>2013-04-30T19:10:31Z</time>
      </trkpt>
      <trkpt lat="59.9789608" lon="17.7399742">
        <ele>34.7449</ele>
        <time>2013-04-30T19:10:32Z</time>
      </trkpt>
      <trkpt lat="59.9789634" lon="17.7399781">
        <ele>34.2642</ele>
        <time>2013-04-30T19:10:33Z</time>
      </trkpt>
      <trkpt lat="59.9789661" lon="17.7399822">
        <ele>33.7834</ele>
        <time>2013-04-30T19:10:34Z</time>
      </trkpt>
      <trkpt lat="59.9789858" lon="17.7399587">
        <ele>34.2642</ele>
        <time>2013-04-30T19:10:35Z</time>
      </trkpt>
      <trkpt lat="59.9789837" lon="17.7399289">
        <ele>34.2642</ele>
        <time>2013-04-30T19:10:36Z</time>
      </trkpt>
      <trkpt lat="59.9789775" lon="17.7399273">
        <ele>33.3029</ele>
        <time>2013-04-30T19:10:37Z</time>
      </trkpt>
      <trkpt lat="59.9789752" lon="17.7399432">
        <ele>34.7449</ele>
        <time>2013-04-30T19:10:38Z</time>
      </trkpt>
      <trkpt lat="59.9789677" lon="17.739945">
        <ele>32.8223</ele>
        <time>2013-04-30T19:10:39Z</time>
      </trkpt>
      <trkpt lat="59.9789625" lon="17.7399478">
        <ele>33.3029</ele>
        <time>2013-04-30T19:10:40Z</time>
      </trkpt>
      <trkpt lat="59.9789454" lon="17.7399334">
        <ele>32.3416</ele>
        <time>2013-04-30T19:10:41Z</time>
      </trkpt>
      <trkpt lat="59.978951" lon="17.7399193">
        <ele>35.7061</ele>
        <time>2013-04-30T19:10:42Z</time>
      </trkpt>
      <trkpt lat="59.9789465" lon="17.7399127">
        <ele>35.7061</ele>
        <time>2013-04-30T19:10:43Z</time>
      </trkpt>
      <trkpt lat="59.9789329" lon="17.7398941">
        <ele>34.2642</ele>
        <time>2013-04-30T19:10:44Z</time>
      </trkpt>
    </trkseg>
  </trk>
</gpx>